<?xml version="1.0" encoding="UTF-8" standalone="no" ?>
<gpx xmlns="http://www.topografix.com/GPX/1/1" xmlns:xsi="http://www.w3.org/2001/XMLSchema-instance" xsi:schemaLocation="http://www.topografix.com/GPX/1/1 http://www.topografix.com/GPX/1/1/gpx.xsd" version="1.1" creator="VisuGPX - https://www.visugpx.com">
  <metadata>
    <name>E-O-Bord de loire Sud Nord Oudon</name>
    <desc><![CDATA[E-O-Bord de loire Sud Nord Oudon]]></desc>
  </metadata>
  <trk>
    <name><![CDATA[2020-09-13 09:00 +02:00]]></name>
    <trkseg>
      <trkpt lat="47.16782" lon="-1.62672">
        <ele>84</ele>
        <time>2020-09-13T07:00:35.616Z</time>
      </trkpt>
      <trkpt lat="47.16784" lon="-1.62652">
        <ele>88</ele>
        <time>2020-09-13T07:00:37.000Z</time>
      </trkpt>
      <trkpt lat="47.16787" lon="-1.62669">
        <ele>92</ele>
        <time>2020-09-13T07:00:38.000Z</time>
      </trkpt>
      <trkpt lat="47.16781" lon="-1.62658">
        <ele>76</ele>
        <time>2020-09-13T07:00:43.000Z</time>
      </trkpt>
      <trkpt lat="47.16779" lon="-1.62675">
        <ele>75</ele>
        <time>2020-09-13T07:02:04.000Z</time>
      </trkpt>
      <trkpt lat="47.16771" lon="-1.62681">
        <ele>73</ele>
        <time>2020-09-13T07:02:06.000Z</time>
      </trkpt>
      <trkpt lat="47.1676" lon="-1.62675">
        <ele>72</ele>
        <time>2020-09-13T07:02:08.000Z</time>
      </trkpt>
      <trkpt lat="47.16749" lon="-1.62675">
        <ele>72</ele>
        <time>2020-09-13T07:02:10.000Z</time>
      </trkpt>
      <trkpt lat="47.16739" lon="-1.62683">
        <ele>72</ele>
        <time>2020-09-13T07:02:12.000Z</time>
      </trkpt>
      <trkpt lat="47.16729" lon="-1.62689">
        <ele>71</ele>
        <time>2020-09-13T07:02:14.000Z</time>
      </trkpt>
      <trkpt lat="47.16721" lon="-1.62695">
        <ele>71</ele>
        <time>2020-09-13T07:02:16.000Z</time>
      </trkpt>
      <trkpt lat="47.16708" lon="-1.6269">
        <ele>71</ele>
        <time>2020-09-13T07:02:19.000Z</time>
      </trkpt>
      <trkpt lat="47.16702" lon="-1.62674">
        <ele>70</ele>
        <time>2020-09-13T07:02:21.000Z</time>
      </trkpt>
      <trkpt lat="47.16699" lon="-1.62656">
        <ele>70</ele>
        <time>2020-09-13T07:02:23.000Z</time>
      </trkpt>
      <trkpt lat="47.16696" lon="-1.62636">
        <ele>69</ele>
        <time>2020-09-13T07:02:25.000Z</time>
      </trkpt>
      <trkpt lat="47.16695" lon="-1.62615">
        <ele>68</ele>
        <time>2020-09-13T07:02:27.000Z</time>
      </trkpt>
      <trkpt lat="47.16696" lon="-1.62595">
        <ele>68</ele>
        <time>2020-09-13T07:02:29.000Z</time>
      </trkpt>
      <trkpt lat="47.16697" lon="-1.62574">
        <ele>68</ele>
        <time>2020-09-13T07:02:31.000Z</time>
      </trkpt>
      <trkpt lat="47.16699" lon="-1.62553">
        <ele>67</ele>
        <time>2020-09-13T07:02:33.000Z</time>
      </trkpt>
      <trkpt lat="47.16702" lon="-1.62531">
        <ele>67</ele>
        <time>2020-09-13T07:02:35.000Z</time>
      </trkpt>
      <trkpt lat="47.16705" lon="-1.6251">
        <ele>67</ele>
        <time>2020-09-13T07:02:37.000Z</time>
      </trkpt>
      <trkpt lat="47.16708" lon="-1.62489">
        <ele>67</ele>
        <time>2020-09-13T07:02:39.000Z</time>
      </trkpt>
      <trkpt lat="47.16712" lon="-1.62469">
        <ele>67</ele>
        <time>2020-09-13T07:02:41.000Z</time>
      </trkpt>
      <trkpt lat="47.16715" lon="-1.62449">
        <ele>67</ele>
        <time>2020-09-13T07:02:43.000Z</time>
      </trkpt>
      <trkpt lat="47.16718" lon="-1.6243">
        <ele>66</ele>
        <time>2020-09-13T07:02:45.000Z</time>
      </trkpt>
      <trkpt lat="47.16724" lon="-1.62411">
        <ele>66</ele>
        <time>2020-09-13T07:02:47.000Z</time>
      </trkpt>
      <trkpt lat="47.16729" lon="-1.62393">
        <ele>66</ele>
        <time>2020-09-13T07:02:49.000Z</time>
      </trkpt>
      <trkpt lat="47.16736" lon="-1.62375">
        <ele>65</ele>
        <time>2020-09-13T07:02:51.000Z</time>
      </trkpt>
      <trkpt lat="47.16746" lon="-1.6236">
        <ele>65</ele>
        <time>2020-09-13T07:02:53.000Z</time>
      </trkpt>
      <trkpt lat="47.16757" lon="-1.62349">
        <ele>65</ele>
        <time>2020-09-13T07:02:55.000Z</time>
      </trkpt>
      <trkpt lat="47.16769" lon="-1.6234">
        <ele>67</ele>
        <time>2020-09-13T07:02:57.000Z</time>
      </trkpt>
      <trkpt lat="47.16782" lon="-1.62333">
        <ele>67</ele>
        <time>2020-09-13T07:02:59.000Z</time>
      </trkpt>
      <trkpt lat="47.16795" lon="-1.62326">
        <ele>68</ele>
        <time>2020-09-13T07:03:01.000Z</time>
      </trkpt>
      <trkpt lat="47.16807" lon="-1.62319">
        <ele>68</ele>
        <time>2020-09-13T07:03:03.000Z</time>
      </trkpt>
      <trkpt lat="47.16818" lon="-1.62311">
        <ele>68</ele>
        <time>2020-09-13T07:03:05.000Z</time>
      </trkpt>
      <trkpt lat="47.1683" lon="-1.623">
        <ele>69</ele>
        <time>2020-09-13T07:03:07.000Z</time>
      </trkpt>
      <trkpt lat="47.16841" lon="-1.62289">
        <ele>69</ele>
        <time>2020-09-13T07:03:09.000Z</time>
      </trkpt>
      <trkpt lat="47.16851" lon="-1.62276">
        <ele>68</ele>
        <time>2020-09-13T07:03:11.000Z</time>
      </trkpt>
      <trkpt lat="47.16861" lon="-1.62263">
        <ele>68</ele>
        <time>2020-09-13T07:03:13.000Z</time>
      </trkpt>
      <trkpt lat="47.16872" lon="-1.6225">
        <ele>68</ele>
        <time>2020-09-13T07:03:15.000Z</time>
      </trkpt>
      <trkpt lat="47.16882" lon="-1.62237">
        <ele>68</ele>
        <time>2020-09-13T07:03:17.000Z</time>
      </trkpt>
      <trkpt lat="47.16892" lon="-1.62223">
        <ele>68</ele>
        <time>2020-09-13T07:03:19.000Z</time>
      </trkpt>
      <trkpt lat="47.16902" lon="-1.62208">
        <ele>68</ele>
        <time>2020-09-13T07:03:21.000Z</time>
      </trkpt>
      <trkpt lat="47.16911" lon="-1.62194">
        <ele>68</ele>
        <time>2020-09-13T07:03:23.000Z</time>
      </trkpt>
      <trkpt lat="47.1692" lon="-1.62179">
        <ele>68</ele>
        <time>2020-09-13T07:03:25.000Z</time>
      </trkpt>
      <trkpt lat="47.16929" lon="-1.62163">
        <ele>68</ele>
        <time>2020-09-13T07:03:27.000Z</time>
      </trkpt>
      <trkpt lat="47.16937" lon="-1.62147">
        <ele>68</ele>
        <time>2020-09-13T07:03:29.000Z</time>
      </trkpt>
      <trkpt lat="47.16945" lon="-1.6213">
        <ele>68</ele>
        <time>2020-09-13T07:03:31.000Z</time>
      </trkpt>
      <trkpt lat="47.16954" lon="-1.62114">
        <ele>68</ele>
        <time>2020-09-13T07:03:33.000Z</time>
      </trkpt>
      <trkpt lat="47.16962" lon="-1.62098">
        <ele>68</ele>
        <time>2020-09-13T07:03:35.000Z</time>
      </trkpt>
      <trkpt lat="47.1697" lon="-1.62082">
        <ele>67</ele>
        <time>2020-09-13T07:03:37.000Z</time>
      </trkpt>
      <trkpt lat="47.16979" lon="-1.62066">
        <ele>67</ele>
        <time>2020-09-13T07:03:39.000Z</time>
      </trkpt>
      <trkpt lat="47.16987" lon="-1.62051">
        <ele>67</ele>
        <time>2020-09-13T07:03:41.000Z</time>
      </trkpt>
      <trkpt lat="47.16997" lon="-1.62036">
        <ele>68</ele>
        <time>2020-09-13T07:03:43.000Z</time>
      </trkpt>
      <trkpt lat="47.17006" lon="-1.62021">
        <ele>68</ele>
        <time>2020-09-13T07:03:45.000Z</time>
      </trkpt>
      <trkpt lat="47.17016" lon="-1.62006">
        <ele>68</ele>
        <time>2020-09-13T07:03:47.000Z</time>
      </trkpt>
      <trkpt lat="47.17025" lon="-1.61992">
        <ele>68</ele>
        <time>2020-09-13T07:03:49.000Z</time>
      </trkpt>
      <trkpt lat="47.17035" lon="-1.61979">
        <ele>68</ele>
        <time>2020-09-13T07:03:51.000Z</time>
      </trkpt>
      <trkpt lat="47.17044" lon="-1.61965">
        <ele>68</ele>
        <time>2020-09-13T07:03:53.000Z</time>
      </trkpt>
      <trkpt lat="47.17054" lon="-1.61952">
        <ele>68</ele>
        <time>2020-09-13T07:03:55.000Z</time>
      </trkpt>
      <trkpt lat="47.17064" lon="-1.61939">
        <ele>68</ele>
        <time>2020-09-13T07:03:57.000Z</time>
      </trkpt>
      <trkpt lat="47.17074" lon="-1.61927">
        <ele>68</ele>
        <time>2020-09-13T07:03:59.000Z</time>
      </trkpt>
      <trkpt lat="47.17084" lon="-1.61916">
        <ele>69</ele>
        <time>2020-09-13T07:04:01.000Z</time>
      </trkpt>
      <trkpt lat="47.17095" lon="-1.61905">
        <ele>68</ele>
        <time>2020-09-13T07:04:03.000Z</time>
      </trkpt>
      <trkpt lat="47.17107" lon="-1.61895">
        <ele>68</ele>
        <time>2020-09-13T07:04:05.000Z</time>
      </trkpt>
      <trkpt lat="47.17118" lon="-1.61884">
        <ele>68</ele>
        <time>2020-09-13T07:04:07.000Z</time>
      </trkpt>
      <trkpt lat="47.17129" lon="-1.61873">
        <ele>68</ele>
        <time>2020-09-13T07:04:09.000Z</time>
      </trkpt>
      <trkpt lat="47.1714" lon="-1.61863">
        <ele>68</ele>
        <time>2020-09-13T07:04:11.000Z</time>
      </trkpt>
      <trkpt lat="47.17151" lon="-1.61852">
        <ele>68</ele>
        <time>2020-09-13T07:04:13.000Z</time>
      </trkpt>
      <trkpt lat="47.17162" lon="-1.61842">
        <ele>68</ele>
        <time>2020-09-13T07:04:15.000Z</time>
      </trkpt>
      <trkpt lat="47.17173" lon="-1.61831">
        <ele>68</ele>
        <time>2020-09-13T07:04:17.000Z</time>
      </trkpt>
      <trkpt lat="47.17183" lon="-1.61821">
        <ele>68</ele>
        <time>2020-09-13T07:04:19.000Z</time>
      </trkpt>
      <trkpt lat="47.17194" lon="-1.6181">
        <ele>67</ele>
        <time>2020-09-13T07:04:21.000Z</time>
      </trkpt>
      <trkpt lat="47.17205" lon="-1.61799">
        <ele>67</ele>
        <time>2020-09-13T07:04:23.000Z</time>
      </trkpt>
      <trkpt lat="47.17216" lon="-1.61787">
        <ele>67</ele>
        <time>2020-09-13T07:04:25.000Z</time>
      </trkpt>
      <trkpt lat="47.17223" lon="-1.61769">
        <ele>67</ele>
        <time>2020-09-13T07:04:27.000Z</time>
      </trkpt>
      <trkpt lat="47.17229" lon="-1.61752">
        <ele>67</ele>
        <time>2020-09-13T07:04:29.000Z</time>
      </trkpt>
      <trkpt lat="47.17239" lon="-1.61739">
        <ele>68</ele>
        <time>2020-09-13T07:04:31.000Z</time>
      </trkpt>
      <trkpt lat="47.17249" lon="-1.61726">
        <ele>68</ele>
        <time>2020-09-13T07:04:33.000Z</time>
      </trkpt>
      <trkpt lat="47.17256" lon="-1.6171">
        <ele>68</ele>
        <time>2020-09-13T07:04:35.000Z</time>
      </trkpt>
      <trkpt lat="47.17264" lon="-1.61694">
        <ele>69</ele>
        <time>2020-09-13T07:04:37.000Z</time>
      </trkpt>
      <trkpt lat="47.17271" lon="-1.61678">
        <ele>69</ele>
        <time>2020-09-13T07:04:39.000Z</time>
      </trkpt>
      <trkpt lat="47.17279" lon="-1.61663">
        <ele>70</ele>
        <time>2020-09-13T07:04:41.000Z</time>
      </trkpt>
      <trkpt lat="47.17287" lon="-1.61648">
        <ele>70</ele>
        <time>2020-09-13T07:04:43.000Z</time>
      </trkpt>
      <trkpt lat="47.17295" lon="-1.61633">
        <ele>70</ele>
        <time>2020-09-13T07:04:45.000Z</time>
      </trkpt>
      <trkpt lat="47.17304" lon="-1.61618">
        <ele>70</ele>
        <time>2020-09-13T07:04:47.000Z</time>
      </trkpt>
      <trkpt lat="47.17313" lon="-1.61605">
        <ele>70</ele>
        <time>2020-09-13T07:04:49.000Z</time>
      </trkpt>
      <trkpt lat="47.17322" lon="-1.61592">
        <ele>70</ele>
        <time>2020-09-13T07:04:51.000Z</time>
      </trkpt>
      <trkpt lat="47.17331" lon="-1.61578">
        <ele>72</ele>
        <time>2020-09-13T07:04:53.000Z</time>
      </trkpt>
      <trkpt lat="47.17341" lon="-1.61566">
        <ele>72</ele>
        <time>2020-09-13T07:04:55.000Z</time>
      </trkpt>
      <trkpt lat="47.17352" lon="-1.61555">
        <ele>71</ele>
        <time>2020-09-13T07:04:57.000Z</time>
      </trkpt>
      <trkpt lat="47.17362" lon="-1.61544">
        <ele>71</ele>
        <time>2020-09-13T07:04:59.000Z</time>
      </trkpt>
      <trkpt lat="47.17373" lon="-1.61534">
        <ele>70</ele>
        <time>2020-09-13T07:05:01.000Z</time>
      </trkpt>
      <trkpt lat="47.17385" lon="-1.61523">
        <ele>69</ele>
        <time>2020-09-13T07:05:03.000Z</time>
      </trkpt>
      <trkpt lat="47.17397" lon="-1.61513">
        <ele>68</ele>
        <time>2020-09-13T07:05:05.000Z</time>
      </trkpt>
      <trkpt lat="47.1741" lon="-1.61504">
        <ele>67</ele>
        <time>2020-09-13T07:05:07.000Z</time>
      </trkpt>
      <trkpt lat="47.17423" lon="-1.61494">
        <ele>67</ele>
        <time>2020-09-13T07:05:09.000Z</time>
      </trkpt>
      <trkpt lat="47.17436" lon="-1.61486">
        <ele>66</ele>
        <time>2020-09-13T07:05:11.000Z</time>
      </trkpt>
      <trkpt lat="47.17449" lon="-1.61478">
        <ele>66</ele>
        <time>2020-09-13T07:05:13.000Z</time>
      </trkpt>
      <trkpt lat="47.17462" lon="-1.61471">
        <ele>66</ele>
        <time>2020-09-13T07:05:15.000Z</time>
      </trkpt>
      <trkpt lat="47.17476" lon="-1.61465">
        <ele>65</ele>
        <time>2020-09-13T07:05:17.000Z</time>
      </trkpt>
      <trkpt lat="47.17489" lon="-1.6146">
        <ele>65</ele>
        <time>2020-09-13T07:05:19.000Z</time>
      </trkpt>
      <trkpt lat="47.17502" lon="-1.61455">
        <ele>65</ele>
        <time>2020-09-13T07:05:21.000Z</time>
      </trkpt>
      <trkpt lat="47.17511" lon="-1.61443">
        <ele>63</ele>
        <time>2020-09-13T07:05:23.000Z</time>
      </trkpt>
      <trkpt lat="47.17515" lon="-1.61421">
        <ele>62</ele>
        <time>2020-09-13T07:05:25.000Z</time>
      </trkpt>
      <trkpt lat="47.1752" lon="-1.61398">
        <ele>61</ele>
        <time>2020-09-13T07:05:27.000Z</time>
      </trkpt>
      <trkpt lat="47.17526" lon="-1.61375">
        <ele>60</ele>
        <time>2020-09-13T07:05:29.000Z</time>
      </trkpt>
      <trkpt lat="47.17528" lon="-1.61355">
        <ele>60</ele>
        <time>2020-09-13T07:05:31.000Z</time>
      </trkpt>
      <trkpt lat="47.17524" lon="-1.61337">
        <ele>60</ele>
        <time>2020-09-13T07:05:33.000Z</time>
      </trkpt>
      <trkpt lat="47.17521" lon="-1.61317">
        <ele>60</ele>
        <time>2020-09-13T07:05:35.000Z</time>
      </trkpt>
      <trkpt lat="47.1752" lon="-1.61298">
        <ele>60</ele>
        <time>2020-09-13T07:05:37.000Z</time>
      </trkpt>
      <trkpt lat="47.17512" lon="-1.61281">
        <ele>60</ele>
        <time>2020-09-13T07:05:39.000Z</time>
      </trkpt>
      <trkpt lat="47.17504" lon="-1.61264">
        <ele>60</ele>
        <time>2020-09-13T07:05:41.000Z</time>
      </trkpt>
      <trkpt lat="47.17496" lon="-1.61246">
        <ele>61</ele>
        <time>2020-09-13T07:05:43.000Z</time>
      </trkpt>
      <trkpt lat="47.17489" lon="-1.61229">
        <ele>60</ele>
        <time>2020-09-13T07:05:45.000Z</time>
      </trkpt>
      <trkpt lat="47.17482" lon="-1.61212">
        <ele>60</ele>
        <time>2020-09-13T07:05:47.000Z</time>
      </trkpt>
      <trkpt lat="47.17475" lon="-1.61195">
        <ele>60</ele>
        <time>2020-09-13T07:05:49.000Z</time>
      </trkpt>
      <trkpt lat="47.17468" lon="-1.61177">
        <ele>60</ele>
        <time>2020-09-13T07:05:51.000Z</time>
      </trkpt>
      <trkpt lat="47.17461" lon="-1.61159">
        <ele>59</ele>
        <time>2020-09-13T07:05:53.000Z</time>
      </trkpt>
      <trkpt lat="47.17454" lon="-1.61141">
        <ele>59</ele>
        <time>2020-09-13T07:05:55.000Z</time>
      </trkpt>
      <trkpt lat="47.17448" lon="-1.61123">
        <ele>59</ele>
        <time>2020-09-13T07:05:57.000Z</time>
      </trkpt>
      <trkpt lat="47.17441" lon="-1.61103">
        <ele>59</ele>
        <time>2020-09-13T07:05:59.000Z</time>
      </trkpt>
      <trkpt lat="47.17436" lon="-1.61082">
        <ele>58</ele>
        <time>2020-09-13T07:06:01.000Z</time>
      </trkpt>
      <trkpt lat="47.17429" lon="-1.61062">
        <ele>57</ele>
        <time>2020-09-13T07:06:03.000Z</time>
      </trkpt>
      <trkpt lat="47.17423" lon="-1.61047">
        <ele>57</ele>
        <time>2020-09-13T07:06:05.000Z</time>
      </trkpt>
      <trkpt lat="47.17421" lon="-1.61029">
        <ele>56</ele>
        <time>2020-09-13T07:06:07.000Z</time>
      </trkpt>
      <trkpt lat="47.17425" lon="-1.61018">
        <ele>56</ele>
        <time>2020-09-13T07:06:09.000Z</time>
      </trkpt>
      <trkpt lat="47.17434" lon="-1.61032">
        <ele>55</ele>
        <time>2020-09-13T07:06:12.000Z</time>
      </trkpt>
      <trkpt lat="47.17439" lon="-1.61049">
        <ele>55</ele>
        <time>2020-09-13T07:06:14.000Z</time>
      </trkpt>
      <trkpt lat="47.17445" lon="-1.61065">
        <ele>54</ele>
        <time>2020-09-13T07:06:16.000Z</time>
      </trkpt>
      <trkpt lat="47.17452" lon="-1.61081">
        <ele>54</ele>
        <time>2020-09-13T07:06:18.000Z</time>
      </trkpt>
      <trkpt lat="47.17464" lon="-1.61093">
        <ele>53</ele>
        <time>2020-09-13T07:06:20.000Z</time>
      </trkpt>
      <trkpt lat="47.17477" lon="-1.61103">
        <ele>53</ele>
        <time>2020-09-13T07:06:22.000Z</time>
      </trkpt>
      <trkpt lat="47.17493" lon="-1.61106">
        <ele>53</ele>
        <time>2020-09-13T07:06:24.000Z</time>
      </trkpt>
      <trkpt lat="47.17508" lon="-1.61102">
        <ele>53</ele>
        <time>2020-09-13T07:06:26.000Z</time>
      </trkpt>
      <trkpt lat="47.17522" lon="-1.61093">
        <ele>52</ele>
        <time>2020-09-13T07:06:28.000Z</time>
      </trkpt>
      <trkpt lat="47.17535" lon="-1.61081">
        <ele>52</ele>
        <time>2020-09-13T07:06:30.000Z</time>
      </trkpt>
      <trkpt lat="47.17548" lon="-1.6107">
        <ele>52</ele>
        <time>2020-09-13T07:06:32.000Z</time>
      </trkpt>
      <trkpt lat="47.17561" lon="-1.61058">
        <ele>52</ele>
        <time>2020-09-13T07:06:34.000Z</time>
      </trkpt>
      <trkpt lat="47.17574" lon="-1.61048">
        <ele>52</ele>
        <time>2020-09-13T07:06:36.000Z</time>
      </trkpt>
      <trkpt lat="47.17587" lon="-1.61036">
        <ele>52</ele>
        <time>2020-09-13T07:06:38.000Z</time>
      </trkpt>
      <trkpt lat="47.176" lon="-1.61025">
        <ele>52</ele>
        <time>2020-09-13T07:06:40.000Z</time>
      </trkpt>
      <trkpt lat="47.17612" lon="-1.61013">
        <ele>52</ele>
        <time>2020-09-13T07:06:42.000Z</time>
      </trkpt>
      <trkpt lat="47.17625" lon="-1.61002">
        <ele>52</ele>
        <time>2020-09-13T07:06:44.000Z</time>
      </trkpt>
      <trkpt lat="47.17638" lon="-1.6099">
        <ele>52</ele>
        <time>2020-09-13T07:06:46.000Z</time>
      </trkpt>
      <trkpt lat="47.17652" lon="-1.60979">
        <ele>52</ele>
        <time>2020-09-13T07:06:48.000Z</time>
      </trkpt>
      <trkpt lat="47.17666" lon="-1.60972">
        <ele>52</ele>
        <time>2020-09-13T07:06:50.000Z</time>
      </trkpt>
      <trkpt lat="47.17681" lon="-1.60972">
        <ele>52</ele>
        <time>2020-09-13T07:06:52.000Z</time>
      </trkpt>
      <trkpt lat="47.17695" lon="-1.60974">
        <ele>53</ele>
        <time>2020-09-13T07:06:54.000Z</time>
      </trkpt>
      <trkpt lat="47.17708" lon="-1.60968">
        <ele>52</ele>
        <time>2020-09-13T07:06:56.000Z</time>
      </trkpt>
      <trkpt lat="47.17721" lon="-1.6096">
        <ele>52</ele>
        <time>2020-09-13T07:06:58.000Z</time>
      </trkpt>
      <trkpt lat="47.17734" lon="-1.60951">
        <ele>52</ele>
        <time>2020-09-13T07:07:00.000Z</time>
      </trkpt>
      <trkpt lat="47.17746" lon="-1.60942">
        <ele>52</ele>
        <time>2020-09-13T07:07:02.000Z</time>
      </trkpt>
      <trkpt lat="47.17758" lon="-1.60932">
        <ele>52</ele>
        <time>2020-09-13T07:07:04.000Z</time>
      </trkpt>
      <trkpt lat="47.17771" lon="-1.60923">
        <ele>52</ele>
        <time>2020-09-13T07:07:06.000Z</time>
      </trkpt>
      <trkpt lat="47.17783" lon="-1.60913">
        <ele>52</ele>
        <time>2020-09-13T07:07:08.000Z</time>
      </trkpt>
      <trkpt lat="47.17796" lon="-1.60903">
        <ele>52</ele>
        <time>2020-09-13T07:07:10.000Z</time>
      </trkpt>
      <trkpt lat="47.17808" lon="-1.60892">
        <ele>52</ele>
        <time>2020-09-13T07:07:12.000Z</time>
      </trkpt>
      <trkpt lat="47.1782" lon="-1.60879">
        <ele>52</ele>
        <time>2020-09-13T07:07:14.000Z</time>
      </trkpt>
      <trkpt lat="47.17829" lon="-1.60864">
        <ele>52</ele>
        <time>2020-09-13T07:07:16.000Z</time>
      </trkpt>
      <trkpt lat="47.17837" lon="-1.60848">
        <ele>52</ele>
        <time>2020-09-13T07:07:18.000Z</time>
      </trkpt>
      <trkpt lat="47.17844" lon="-1.6083">
        <ele>52</ele>
        <time>2020-09-13T07:07:20.000Z</time>
      </trkpt>
      <trkpt lat="47.1785" lon="-1.6081">
        <ele>53</ele>
        <time>2020-09-13T07:07:22.000Z</time>
      </trkpt>
      <trkpt lat="47.17854" lon="-1.60791">
        <ele>53</ele>
        <time>2020-09-13T07:07:24.000Z</time>
      </trkpt>
      <trkpt lat="47.17859" lon="-1.6077">
        <ele>52</ele>
        <time>2020-09-13T07:07:26.000Z</time>
      </trkpt>
      <trkpt lat="47.17863" lon="-1.6075">
        <ele>52</ele>
        <time>2020-09-13T07:07:28.000Z</time>
      </trkpt>
      <trkpt lat="47.17868" lon="-1.6073">
        <ele>52</ele>
        <time>2020-09-13T07:07:30.000Z</time>
      </trkpt>
      <trkpt lat="47.17872" lon="-1.6071">
        <ele>52</ele>
        <time>2020-09-13T07:07:32.000Z</time>
      </trkpt>
      <trkpt lat="47.17878" lon="-1.6069">
        <ele>52</ele>
        <time>2020-09-13T07:07:34.000Z</time>
      </trkpt>
      <trkpt lat="47.17883" lon="-1.6067">
        <ele>52</ele>
        <time>2020-09-13T07:07:36.000Z</time>
      </trkpt>
      <trkpt lat="47.1789" lon="-1.60651">
        <ele>53</ele>
        <time>2020-09-13T07:07:38.000Z</time>
      </trkpt>
      <trkpt lat="47.17895" lon="-1.60635">
        <ele>53</ele>
        <time>2020-09-13T07:07:40.000Z</time>
      </trkpt>
      <trkpt lat="47.179" lon="-1.60618">
        <ele>53</ele>
        <time>2020-09-13T07:07:42.000Z</time>
      </trkpt>
      <trkpt lat="47.17903" lon="-1.60604">
        <ele>53</ele>
        <time>2020-09-13T07:07:44.000Z</time>
      </trkpt>
      <trkpt lat="47.17908" lon="-1.60587">
        <ele>54</ele>
        <time>2020-09-13T07:07:47.000Z</time>
      </trkpt>
      <trkpt lat="47.1792" lon="-1.60584">
        <ele>54</ele>
        <time>2020-09-13T07:07:50.000Z</time>
      </trkpt>
      <trkpt lat="47.17929" lon="-1.60585">
        <ele>54</ele>
        <time>2020-09-13T07:07:52.000Z</time>
      </trkpt>
      <trkpt lat="47.17941" lon="-1.60581">
        <ele>54</ele>
        <time>2020-09-13T07:07:54.000Z</time>
      </trkpt>
      <trkpt lat="47.17952" lon="-1.60575">
        <ele>54</ele>
        <time>2020-09-13T07:07:56.000Z</time>
      </trkpt>
      <trkpt lat="47.17963" lon="-1.60571">
        <ele>54</ele>
        <time>2020-09-13T07:07:58.000Z</time>
      </trkpt>
      <trkpt lat="47.17979" lon="-1.60563">
        <ele>55</ele>
        <time>2020-09-13T07:08:01.000Z</time>
      </trkpt>
      <trkpt lat="47.17994" lon="-1.60559">
        <ele>55</ele>
        <time>2020-09-13T07:08:03.000Z</time>
      </trkpt>
      <trkpt lat="47.18007" lon="-1.60555">
        <ele>54</ele>
        <time>2020-09-13T07:08:05.000Z</time>
      </trkpt>
      <trkpt lat="47.18021" lon="-1.60552">
        <ele>53</ele>
        <time>2020-09-13T07:08:07.000Z</time>
      </trkpt>
      <trkpt lat="47.18035" lon="-1.60555">
        <ele>53</ele>
        <time>2020-09-13T07:08:09.000Z</time>
      </trkpt>
      <trkpt lat="47.18048" lon="-1.60561">
        <ele>53</ele>
        <time>2020-09-13T07:08:11.000Z</time>
      </trkpt>
      <trkpt lat="47.18062" lon="-1.60569">
        <ele>53</ele>
        <time>2020-09-13T07:08:13.000Z</time>
      </trkpt>
      <trkpt lat="47.18075" lon="-1.60576">
        <ele>53</ele>
        <time>2020-09-13T07:08:15.000Z</time>
      </trkpt>
      <trkpt lat="47.18088" lon="-1.60584">
        <ele>53</ele>
        <time>2020-09-13T07:08:17.000Z</time>
      </trkpt>
      <trkpt lat="47.18101" lon="-1.6059">
        <ele>53</ele>
        <time>2020-09-13T07:08:19.000Z</time>
      </trkpt>
      <trkpt lat="47.18115" lon="-1.60595">
        <ele>53</ele>
        <time>2020-09-13T07:08:21.000Z</time>
      </trkpt>
      <trkpt lat="47.18128" lon="-1.60599">
        <ele>53</ele>
        <time>2020-09-13T07:08:23.000Z</time>
      </trkpt>
      <trkpt lat="47.18142" lon="-1.60603">
        <ele>53</ele>
        <time>2020-09-13T07:08:25.000Z</time>
      </trkpt>
      <trkpt lat="47.18155" lon="-1.60604">
        <ele>53</ele>
        <time>2020-09-13T07:08:27.000Z</time>
      </trkpt>
      <trkpt lat="47.18169" lon="-1.60604">
        <ele>52</ele>
        <time>2020-09-13T07:08:29.000Z</time>
      </trkpt>
      <trkpt lat="47.18181" lon="-1.60602">
        <ele>52</ele>
        <time>2020-09-13T07:08:31.000Z</time>
      </trkpt>
      <trkpt lat="47.1819" lon="-1.60593">
        <ele>52</ele>
        <time>2020-09-13T07:08:33.000Z</time>
      </trkpt>
      <trkpt lat="47.18193" lon="-1.60575">
        <ele>52</ele>
        <time>2020-09-13T07:08:35.000Z</time>
      </trkpt>
      <trkpt lat="47.18206" lon="-1.60569">
        <ele>52</ele>
        <time>2020-09-13T07:08:37.000Z</time>
      </trkpt>
      <trkpt lat="47.1822" lon="-1.60564">
        <ele>53</ele>
        <time>2020-09-13T07:08:39.000Z</time>
      </trkpt>
      <trkpt lat="47.18232" lon="-1.60557">
        <ele>54</ele>
        <time>2020-09-13T07:08:41.000Z</time>
      </trkpt>
      <trkpt lat="47.18245" lon="-1.60549">
        <ele>54</ele>
        <time>2020-09-13T07:08:43.000Z</time>
      </trkpt>
      <trkpt lat="47.18258" lon="-1.6054">
        <ele>55</ele>
        <time>2020-09-13T07:08:45.000Z</time>
      </trkpt>
      <trkpt lat="47.1827" lon="-1.60529">
        <ele>54</ele>
        <time>2020-09-13T07:08:47.000Z</time>
      </trkpt>
      <trkpt lat="47.18282" lon="-1.60517">
        <ele>54</ele>
        <time>2020-09-13T07:08:49.000Z</time>
      </trkpt>
      <trkpt lat="47.18293" lon="-1.60504">
        <ele>53</ele>
        <time>2020-09-13T07:08:51.000Z</time>
      </trkpt>
      <trkpt lat="47.18304" lon="-1.60491">
        <ele>53</ele>
        <time>2020-09-13T07:08:53.000Z</time>
      </trkpt>
      <trkpt lat="47.18315" lon="-1.60479">
        <ele>53</ele>
        <time>2020-09-13T07:08:55.000Z</time>
      </trkpt>
      <trkpt lat="47.18326" lon="-1.60466">
        <ele>53</ele>
        <time>2020-09-13T07:08:57.000Z</time>
      </trkpt>
      <trkpt lat="47.18338" lon="-1.60453">
        <ele>53</ele>
        <time>2020-09-13T07:08:59.000Z</time>
      </trkpt>
      <trkpt lat="47.18349" lon="-1.60439">
        <ele>53</ele>
        <time>2020-09-13T07:09:01.000Z</time>
      </trkpt>
      <trkpt lat="47.1836" lon="-1.60425">
        <ele>53</ele>
        <time>2020-09-13T07:09:03.000Z</time>
      </trkpt>
      <trkpt lat="47.1837" lon="-1.60411">
        <ele>53</ele>
        <time>2020-09-13T07:09:05.000Z</time>
      </trkpt>
      <trkpt lat="47.18381" lon="-1.60398">
        <ele>53</ele>
        <time>2020-09-13T07:09:07.000Z</time>
      </trkpt>
      <trkpt lat="47.18391" lon="-1.60384">
        <ele>53</ele>
        <time>2020-09-13T07:09:09.000Z</time>
      </trkpt>
      <trkpt lat="47.18401" lon="-1.60371">
        <ele>53</ele>
        <time>2020-09-13T07:09:11.000Z</time>
      </trkpt>
      <trkpt lat="47.18412" lon="-1.60357">
        <ele>53</ele>
        <time>2020-09-13T07:09:13.000Z</time>
      </trkpt>
      <trkpt lat="47.18422" lon="-1.60342">
        <ele>53</ele>
        <time>2020-09-13T07:09:15.000Z</time>
      </trkpt>
      <trkpt lat="47.18431" lon="-1.60328">
        <ele>53</ele>
        <time>2020-09-13T07:09:17.000Z</time>
      </trkpt>
      <trkpt lat="47.18441" lon="-1.60313">
        <ele>53</ele>
        <time>2020-09-13T07:09:19.000Z</time>
      </trkpt>
      <trkpt lat="47.1845" lon="-1.60298">
        <ele>53</ele>
        <time>2020-09-13T07:09:21.000Z</time>
      </trkpt>
      <trkpt lat="47.18459" lon="-1.60282">
        <ele>53</ele>
        <time>2020-09-13T07:09:23.000Z</time>
      </trkpt>
      <trkpt lat="47.18469" lon="-1.60266">
        <ele>53</ele>
        <time>2020-09-13T07:09:25.000Z</time>
      </trkpt>
      <trkpt lat="47.18478" lon="-1.60249">
        <ele>53</ele>
        <time>2020-09-13T07:09:27.000Z</time>
      </trkpt>
      <trkpt lat="47.18486" lon="-1.60234">
        <ele>53</ele>
        <time>2020-09-13T07:09:29.000Z</time>
      </trkpt>
      <trkpt lat="47.18494" lon="-1.60218">
        <ele>53</ele>
        <time>2020-09-13T07:09:31.000Z</time>
      </trkpt>
      <trkpt lat="47.18503" lon="-1.60202">
        <ele>53</ele>
        <time>2020-09-13T07:09:33.000Z</time>
      </trkpt>
      <trkpt lat="47.1851" lon="-1.60185">
        <ele>53</ele>
        <time>2020-09-13T07:09:35.000Z</time>
      </trkpt>
      <trkpt lat="47.18518" lon="-1.60169">
        <ele>52</ele>
        <time>2020-09-13T07:09:37.000Z</time>
      </trkpt>
      <trkpt lat="47.18526" lon="-1.60153">
        <ele>53</ele>
        <time>2020-09-13T07:09:39.000Z</time>
      </trkpt>
      <trkpt lat="47.18534" lon="-1.60136">
        <ele>53</ele>
        <time>2020-09-13T07:09:41.000Z</time>
      </trkpt>
      <trkpt lat="47.18541" lon="-1.6012">
        <ele>53</ele>
        <time>2020-09-13T07:09:43.000Z</time>
      </trkpt>
      <trkpt lat="47.18548" lon="-1.60103">
        <ele>53</ele>
        <time>2020-09-13T07:09:45.000Z</time>
      </trkpt>
      <trkpt lat="47.18554" lon="-1.60087">
        <ele>53</ele>
        <time>2020-09-13T07:09:47.000Z</time>
      </trkpt>
      <trkpt lat="47.18561" lon="-1.6007">
        <ele>53</ele>
        <time>2020-09-13T07:09:49.000Z</time>
      </trkpt>
      <trkpt lat="47.18568" lon="-1.60053">
        <ele>53</ele>
        <time>2020-09-13T07:09:51.000Z</time>
      </trkpt>
      <trkpt lat="47.18575" lon="-1.60035">
        <ele>53</ele>
        <time>2020-09-13T07:09:53.000Z</time>
      </trkpt>
      <trkpt lat="47.18581" lon="-1.60018">
        <ele>54</ele>
        <time>2020-09-13T07:09:55.000Z</time>
      </trkpt>
      <trkpt lat="47.18587" lon="-1.6">
        <ele>54</ele>
        <time>2020-09-13T07:09:57.000Z</time>
      </trkpt>
      <trkpt lat="47.18592" lon="-1.59983">
        <ele>53</ele>
        <time>2020-09-13T07:09:59.000Z</time>
      </trkpt>
      <trkpt lat="47.18597" lon="-1.59965">
        <ele>53</ele>
        <time>2020-09-13T07:10:01.000Z</time>
      </trkpt>
      <trkpt lat="47.18602" lon="-1.59947">
        <ele>53</ele>
        <time>2020-09-13T07:10:03.000Z</time>
      </trkpt>
      <trkpt lat="47.18607" lon="-1.59929">
        <ele>53</ele>
        <time>2020-09-13T07:10:05.000Z</time>
      </trkpt>
      <trkpt lat="47.18612" lon="-1.59913">
        <ele>53</ele>
        <time>2020-09-13T07:10:07.000Z</time>
      </trkpt>
      <trkpt lat="47.18617" lon="-1.59895">
        <ele>53</ele>
        <time>2020-09-13T07:10:09.000Z</time>
      </trkpt>
      <trkpt lat="47.18621" lon="-1.59878">
        <ele>53</ele>
        <time>2020-09-13T07:10:11.000Z</time>
      </trkpt>
      <trkpt lat="47.18622" lon="-1.59861">
        <ele>52</ele>
        <time>2020-09-13T07:10:13.000Z</time>
      </trkpt>
      <trkpt lat="47.18617" lon="-1.59844">
        <ele>52</ele>
        <time>2020-09-13T07:10:15.000Z</time>
      </trkpt>
      <trkpt lat="47.18619" lon="-1.59829">
        <ele>53</ele>
        <time>2020-09-13T07:10:17.000Z</time>
      </trkpt>
      <trkpt lat="47.18625" lon="-1.59817">
        <ele>53</ele>
        <time>2020-09-13T07:10:19.000Z</time>
      </trkpt>
      <trkpt lat="47.18629" lon="-1.59803">
        <ele>53</ele>
        <time>2020-09-13T07:10:21.000Z</time>
      </trkpt>
      <trkpt lat="47.18632" lon="-1.59786">
        <ele>53</ele>
        <time>2020-09-13T07:10:23.000Z</time>
      </trkpt>
      <trkpt lat="47.18638" lon="-1.5977">
        <ele>53</ele>
        <time>2020-09-13T07:10:25.000Z</time>
      </trkpt>
      <trkpt lat="47.18648" lon="-1.59756">
        <ele>54</ele>
        <time>2020-09-13T07:10:27.000Z</time>
      </trkpt>
      <trkpt lat="47.18654" lon="-1.59741">
        <ele>53</ele>
        <time>2020-09-13T07:10:29.000Z</time>
      </trkpt>
      <trkpt lat="47.18657" lon="-1.59722">
        <ele>54</ele>
        <time>2020-09-13T07:10:31.000Z</time>
      </trkpt>
      <trkpt lat="47.18661" lon="-1.59703">
        <ele>53</ele>
        <time>2020-09-13T07:10:33.000Z</time>
      </trkpt>
      <trkpt lat="47.18664" lon="-1.59684">
        <ele>53</ele>
        <time>2020-09-13T07:10:35.000Z</time>
      </trkpt>
      <trkpt lat="47.18668" lon="-1.59665">
        <ele>53</ele>
        <time>2020-09-13T07:10:37.000Z</time>
      </trkpt>
      <trkpt lat="47.18673" lon="-1.59646">
        <ele>53</ele>
        <time>2020-09-13T07:10:39.000Z</time>
      </trkpt>
      <trkpt lat="47.18676" lon="-1.59627">
        <ele>53</ele>
        <time>2020-09-13T07:10:41.000Z</time>
      </trkpt>
      <trkpt lat="47.18679" lon="-1.59607">
        <ele>53</ele>
        <time>2020-09-13T07:10:43.000Z</time>
      </trkpt>
      <trkpt lat="47.18681" lon="-1.59587">
        <ele>53</ele>
        <time>2020-09-13T07:10:45.000Z</time>
      </trkpt>
      <trkpt lat="47.18684" lon="-1.59567">
        <ele>53</ele>
        <time>2020-09-13T07:10:47.000Z</time>
      </trkpt>
      <trkpt lat="47.18685" lon="-1.59548">
        <ele>54</ele>
        <time>2020-09-13T07:10:49.000Z</time>
      </trkpt>
      <trkpt lat="47.18688" lon="-1.59528">
        <ele>54</ele>
        <time>2020-09-13T07:10:51.000Z</time>
      </trkpt>
      <trkpt lat="47.1869" lon="-1.59509">
        <ele>54</ele>
        <time>2020-09-13T07:10:53.000Z</time>
      </trkpt>
      <trkpt lat="47.18692" lon="-1.59491">
        <ele>55</ele>
        <time>2020-09-13T07:10:55.000Z</time>
      </trkpt>
      <trkpt lat="47.18694" lon="-1.59472">
        <ele>54</ele>
        <time>2020-09-13T07:10:57.000Z</time>
      </trkpt>
      <trkpt lat="47.18697" lon="-1.59453">
        <ele>54</ele>
        <time>2020-09-13T07:10:59.000Z</time>
      </trkpt>
      <trkpt lat="47.18699" lon="-1.59433">
        <ele>54</ele>
        <time>2020-09-13T07:11:01.000Z</time>
      </trkpt>
      <trkpt lat="47.18701" lon="-1.59414">
        <ele>54</ele>
        <time>2020-09-13T07:11:03.000Z</time>
      </trkpt>
      <trkpt lat="47.18703" lon="-1.59395">
        <ele>54</ele>
        <time>2020-09-13T07:11:05.000Z</time>
      </trkpt>
      <trkpt lat="47.18705" lon="-1.59376">
        <ele>54</ele>
        <time>2020-09-13T07:11:07.000Z</time>
      </trkpt>
      <trkpt lat="47.18707" lon="-1.59357">
        <ele>55</ele>
        <time>2020-09-13T07:11:09.000Z</time>
      </trkpt>
      <trkpt lat="47.18709" lon="-1.59338">
        <ele>54</ele>
        <time>2020-09-13T07:11:11.000Z</time>
      </trkpt>
      <trkpt lat="47.18711" lon="-1.59319">
        <ele>54</ele>
        <time>2020-09-13T07:11:13.000Z</time>
      </trkpt>
      <trkpt lat="47.18713" lon="-1.593">
        <ele>54</ele>
        <time>2020-09-13T07:11:15.000Z</time>
      </trkpt>
      <trkpt lat="47.18715" lon="-1.59282">
        <ele>54</ele>
        <time>2020-09-13T07:11:17.000Z</time>
      </trkpt>
      <trkpt lat="47.18717" lon="-1.59262">
        <ele>54</ele>
        <time>2020-09-13T07:11:19.000Z</time>
      </trkpt>
      <trkpt lat="47.18719" lon="-1.59243">
        <ele>54</ele>
        <time>2020-09-13T07:11:21.000Z</time>
      </trkpt>
      <trkpt lat="47.18721" lon="-1.59224">
        <ele>54</ele>
        <time>2020-09-13T07:11:23.000Z</time>
      </trkpt>
      <trkpt lat="47.18723" lon="-1.59205">
        <ele>54</ele>
        <time>2020-09-13T07:11:25.000Z</time>
      </trkpt>
      <trkpt lat="47.18725" lon="-1.59185">
        <ele>54</ele>
        <time>2020-09-13T07:11:27.000Z</time>
      </trkpt>
      <trkpt lat="47.18727" lon="-1.59166">
        <ele>54</ele>
        <time>2020-09-13T07:11:29.000Z</time>
      </trkpt>
      <trkpt lat="47.1873" lon="-1.59147">
        <ele>54</ele>
        <time>2020-09-13T07:11:31.000Z</time>
      </trkpt>
      <trkpt lat="47.18732" lon="-1.59127">
        <ele>54</ele>
        <time>2020-09-13T07:11:33.000Z</time>
      </trkpt>
      <trkpt lat="47.18734" lon="-1.59109">
        <ele>53</ele>
        <time>2020-09-13T07:11:35.000Z</time>
      </trkpt>
      <trkpt lat="47.18736" lon="-1.5909">
        <ele>53</ele>
        <time>2020-09-13T07:11:37.000Z</time>
      </trkpt>
      <trkpt lat="47.18738" lon="-1.5907">
        <ele>53</ele>
        <time>2020-09-13T07:11:39.000Z</time>
      </trkpt>
      <trkpt lat="47.18741" lon="-1.59051">
        <ele>53</ele>
        <time>2020-09-13T07:11:41.000Z</time>
      </trkpt>
      <trkpt lat="47.18743" lon="-1.59031">
        <ele>53</ele>
        <time>2020-09-13T07:11:43.000Z</time>
      </trkpt>
      <trkpt lat="47.18744" lon="-1.59013">
        <ele>53</ele>
        <time>2020-09-13T07:11:45.000Z</time>
      </trkpt>
      <trkpt lat="47.18746" lon="-1.58993">
        <ele>53</ele>
        <time>2020-09-13T07:11:47.000Z</time>
      </trkpt>
      <trkpt lat="47.18748" lon="-1.58975">
        <ele>53</ele>
        <time>2020-09-13T07:11:49.000Z</time>
      </trkpt>
      <trkpt lat="47.1875" lon="-1.58956">
        <ele>54</ele>
        <time>2020-09-13T07:11:51.000Z</time>
      </trkpt>
      <trkpt lat="47.18753" lon="-1.58938">
        <ele>54</ele>
        <time>2020-09-13T07:11:53.000Z</time>
      </trkpt>
      <trkpt lat="47.18755" lon="-1.58919">
        <ele>55</ele>
        <time>2020-09-13T07:11:55.000Z</time>
      </trkpt>
      <trkpt lat="47.18757" lon="-1.589">
        <ele>55</ele>
        <time>2020-09-13T07:11:57.000Z</time>
      </trkpt>
      <trkpt lat="47.18759" lon="-1.58881">
        <ele>55</ele>
        <time>2020-09-13T07:11:59.000Z</time>
      </trkpt>
      <trkpt lat="47.18761" lon="-1.58862">
        <ele>55</ele>
        <time>2020-09-13T07:12:01.000Z</time>
      </trkpt>
      <trkpt lat="47.18763" lon="-1.58843">
        <ele>55</ele>
        <time>2020-09-13T07:12:03.000Z</time>
      </trkpt>
      <trkpt lat="47.18765" lon="-1.58825">
        <ele>55</ele>
        <time>2020-09-13T07:12:05.000Z</time>
      </trkpt>
      <trkpt lat="47.18765" lon="-1.58806">
        <ele>55</ele>
        <time>2020-09-13T07:12:07.000Z</time>
      </trkpt>
      <trkpt lat="47.18764" lon="-1.58786">
        <ele>55</ele>
        <time>2020-09-13T07:12:09.000Z</time>
      </trkpt>
      <trkpt lat="47.18759" lon="-1.5877">
        <ele>55</ele>
        <time>2020-09-13T07:12:11.000Z</time>
      </trkpt>
      <trkpt lat="47.18758" lon="-1.5875">
        <ele>54</ele>
        <time>2020-09-13T07:12:13.000Z</time>
      </trkpt>
      <trkpt lat="47.18763" lon="-1.58731">
        <ele>54</ele>
        <time>2020-09-13T07:12:15.000Z</time>
      </trkpt>
      <trkpt lat="47.1877" lon="-1.58715">
        <ele>54</ele>
        <time>2020-09-13T07:12:17.000Z</time>
      </trkpt>
      <trkpt lat="47.18779" lon="-1.58701">
        <ele>54</ele>
        <time>2020-09-13T07:12:19.000Z</time>
      </trkpt>
      <trkpt lat="47.18786" lon="-1.58686">
        <ele>54</ele>
        <time>2020-09-13T07:12:21.000Z</time>
      </trkpt>
      <trkpt lat="47.18791" lon="-1.58667">
        <ele>53</ele>
        <time>2020-09-13T07:12:23.000Z</time>
      </trkpt>
      <trkpt lat="47.18795" lon="-1.58647">
        <ele>53</ele>
        <time>2020-09-13T07:12:25.000Z</time>
      </trkpt>
      <trkpt lat="47.188" lon="-1.58628">
        <ele>53</ele>
        <time>2020-09-13T07:12:27.000Z</time>
      </trkpt>
      <trkpt lat="47.18806" lon="-1.58609">
        <ele>53</ele>
        <time>2020-09-13T07:12:29.000Z</time>
      </trkpt>
      <trkpt lat="47.1881" lon="-1.5859">
        <ele>53</ele>
        <time>2020-09-13T07:12:31.000Z</time>
      </trkpt>
      <trkpt lat="47.18815" lon="-1.58571">
        <ele>54</ele>
        <time>2020-09-13T07:12:33.000Z</time>
      </trkpt>
      <trkpt lat="47.1882" lon="-1.58553">
        <ele>54</ele>
        <time>2020-09-13T07:12:35.000Z</time>
      </trkpt>
      <trkpt lat="47.18825" lon="-1.58535">
        <ele>54</ele>
        <time>2020-09-13T07:12:37.000Z</time>
      </trkpt>
      <trkpt lat="47.18831" lon="-1.58516">
        <ele>53</ele>
        <time>2020-09-13T07:12:39.000Z</time>
      </trkpt>
      <trkpt lat="47.18837" lon="-1.58498">
        <ele>53</ele>
        <time>2020-09-13T07:12:41.000Z</time>
      </trkpt>
      <trkpt lat="47.18842" lon="-1.5848">
        <ele>53</ele>
        <time>2020-09-13T07:12:43.000Z</time>
      </trkpt>
      <trkpt lat="47.18847" lon="-1.58462">
        <ele>53</ele>
        <time>2020-09-13T07:12:45.000Z</time>
      </trkpt>
      <trkpt lat="47.18853" lon="-1.58444">
        <ele>53</ele>
        <time>2020-09-13T07:12:47.000Z</time>
      </trkpt>
      <trkpt lat="47.18858" lon="-1.58424">
        <ele>53</ele>
        <time>2020-09-13T07:12:49.000Z</time>
      </trkpt>
      <trkpt lat="47.18864" lon="-1.58407">
        <ele>53</ele>
        <time>2020-09-13T07:12:51.000Z</time>
      </trkpt>
      <trkpt lat="47.18869" lon="-1.58389">
        <ele>54</ele>
        <time>2020-09-13T07:12:53.000Z</time>
      </trkpt>
      <trkpt lat="47.18875" lon="-1.5837">
        <ele>54</ele>
        <time>2020-09-13T07:12:55.000Z</time>
      </trkpt>
      <trkpt lat="47.18881" lon="-1.58353">
        <ele>54</ele>
        <time>2020-09-13T07:12:57.000Z</time>
      </trkpt>
      <trkpt lat="47.18887" lon="-1.58335">
        <ele>54</ele>
        <time>2020-09-13T07:12:59.000Z</time>
      </trkpt>
      <trkpt lat="47.18894" lon="-1.58317">
        <ele>54</ele>
        <time>2020-09-13T07:13:01.000Z</time>
      </trkpt>
      <trkpt lat="47.189" lon="-1.58299">
        <ele>54</ele>
        <time>2020-09-13T07:13:03.000Z</time>
      </trkpt>
      <trkpt lat="47.18906" lon="-1.58281">
        <ele>54</ele>
        <time>2020-09-13T07:13:05.000Z</time>
      </trkpt>
      <trkpt lat="47.18912" lon="-1.58264">
        <ele>53</ele>
        <time>2020-09-13T07:13:07.000Z</time>
      </trkpt>
      <trkpt lat="47.18918" lon="-1.58245">
        <ele>53</ele>
        <time>2020-09-13T07:13:09.000Z</time>
      </trkpt>
      <trkpt lat="47.18925" lon="-1.58227">
        <ele>53</ele>
        <time>2020-09-13T07:13:11.000Z</time>
      </trkpt>
      <trkpt lat="47.18932" lon="-1.58209">
        <ele>52</ele>
        <time>2020-09-13T07:13:13.000Z</time>
      </trkpt>
      <trkpt lat="47.18938" lon="-1.58192">
        <ele>52</ele>
        <time>2020-09-13T07:13:15.000Z</time>
      </trkpt>
      <trkpt lat="47.18944" lon="-1.58174">
        <ele>52</ele>
        <time>2020-09-13T07:13:17.000Z</time>
      </trkpt>
      <trkpt lat="47.1895" lon="-1.58157">
        <ele>52</ele>
        <time>2020-09-13T07:13:19.000Z</time>
      </trkpt>
      <trkpt lat="47.18956" lon="-1.58139">
        <ele>53</ele>
        <time>2020-09-13T07:13:21.000Z</time>
      </trkpt>
      <trkpt lat="47.18963" lon="-1.58121">
        <ele>53</ele>
        <time>2020-09-13T07:13:23.000Z</time>
      </trkpt>
      <trkpt lat="47.18969" lon="-1.58104">
        <ele>53</ele>
        <time>2020-09-13T07:13:25.000Z</time>
      </trkpt>
      <trkpt lat="47.18976" lon="-1.58085">
        <ele>53</ele>
        <time>2020-09-13T07:13:27.000Z</time>
      </trkpt>
      <trkpt lat="47.18982" lon="-1.58067">
        <ele>53</ele>
        <time>2020-09-13T07:13:29.000Z</time>
      </trkpt>
      <trkpt lat="47.18988" lon="-1.58048">
        <ele>53</ele>
        <time>2020-09-13T07:13:31.000Z</time>
      </trkpt>
      <trkpt lat="47.18995" lon="-1.5803">
        <ele>53</ele>
        <time>2020-09-13T07:13:33.000Z</time>
      </trkpt>
      <trkpt lat="47.19002" lon="-1.58011">
        <ele>53</ele>
        <time>2020-09-13T07:13:35.000Z</time>
      </trkpt>
      <trkpt lat="47.19008" lon="-1.57993">
        <ele>53</ele>
        <time>2020-09-13T07:13:37.000Z</time>
      </trkpt>
      <trkpt lat="47.19015" lon="-1.57975">
        <ele>53</ele>
        <time>2020-09-13T07:13:39.000Z</time>
      </trkpt>
      <trkpt lat="47.19021" lon="-1.57956">
        <ele>53</ele>
        <time>2020-09-13T07:13:41.000Z</time>
      </trkpt>
      <trkpt lat="47.19028" lon="-1.57938">
        <ele>53</ele>
        <time>2020-09-13T07:13:43.000Z</time>
      </trkpt>
      <trkpt lat="47.19034" lon="-1.5792">
        <ele>54</ele>
        <time>2020-09-13T07:13:45.000Z</time>
      </trkpt>
      <trkpt lat="47.19041" lon="-1.57901">
        <ele>54</ele>
        <time>2020-09-13T07:13:47.000Z</time>
      </trkpt>
      <trkpt lat="47.19047" lon="-1.57882">
        <ele>54</ele>
        <time>2020-09-13T07:13:49.000Z</time>
      </trkpt>
      <trkpt lat="47.19054" lon="-1.57863">
        <ele>54</ele>
        <time>2020-09-13T07:13:51.000Z</time>
      </trkpt>
      <trkpt lat="47.19061" lon="-1.57845">
        <ele>54</ele>
        <time>2020-09-13T07:13:53.000Z</time>
      </trkpt>
      <trkpt lat="47.19067" lon="-1.57826">
        <ele>54</ele>
        <time>2020-09-13T07:13:55.000Z</time>
      </trkpt>
      <trkpt lat="47.19074" lon="-1.57807">
        <ele>54</ele>
        <time>2020-09-13T07:13:57.000Z</time>
      </trkpt>
      <trkpt lat="47.19081" lon="-1.5779">
        <ele>54</ele>
        <time>2020-09-13T07:13:59.000Z</time>
      </trkpt>
      <trkpt lat="47.19088" lon="-1.57771">
        <ele>54</ele>
        <time>2020-09-13T07:14:01.000Z</time>
      </trkpt>
      <trkpt lat="47.19094" lon="-1.57753">
        <ele>54</ele>
        <time>2020-09-13T07:14:03.000Z</time>
      </trkpt>
      <trkpt lat="47.19101" lon="-1.57735">
        <ele>54</ele>
        <time>2020-09-13T07:14:05.000Z</time>
      </trkpt>
      <trkpt lat="47.19107" lon="-1.57717">
        <ele>54</ele>
        <time>2020-09-13T07:14:07.000Z</time>
      </trkpt>
      <trkpt lat="47.19113" lon="-1.57699">
        <ele>54</ele>
        <time>2020-09-13T07:14:09.000Z</time>
      </trkpt>
      <trkpt lat="47.1912" lon="-1.57681">
        <ele>54</ele>
        <time>2020-09-13T07:14:11.000Z</time>
      </trkpt>
      <trkpt lat="47.19126" lon="-1.57663">
        <ele>54</ele>
        <time>2020-09-13T07:14:13.000Z</time>
      </trkpt>
      <trkpt lat="47.19132" lon="-1.57644">
        <ele>54</ele>
        <time>2020-09-13T07:14:15.000Z</time>
      </trkpt>
      <trkpt lat="47.19139" lon="-1.57626">
        <ele>54</ele>
        <time>2020-09-13T07:14:17.000Z</time>
      </trkpt>
      <trkpt lat="47.19145" lon="-1.57608">
        <ele>54</ele>
        <time>2020-09-13T07:14:19.000Z</time>
      </trkpt>
      <trkpt lat="47.19151" lon="-1.5759">
        <ele>54</ele>
        <time>2020-09-13T07:14:21.000Z</time>
      </trkpt>
      <trkpt lat="47.19158" lon="-1.57572">
        <ele>55</ele>
        <time>2020-09-13T07:14:23.000Z</time>
      </trkpt>
      <trkpt lat="47.19164" lon="-1.57555">
        <ele>55</ele>
        <time>2020-09-13T07:14:25.000Z</time>
      </trkpt>
      <trkpt lat="47.1917" lon="-1.57537">
        <ele>55</ele>
        <time>2020-09-13T07:14:27.000Z</time>
      </trkpt>
      <trkpt lat="47.19177" lon="-1.57518">
        <ele>55</ele>
        <time>2020-09-13T07:14:29.000Z</time>
      </trkpt>
      <trkpt lat="47.19183" lon="-1.57499">
        <ele>54</ele>
        <time>2020-09-13T07:14:31.000Z</time>
      </trkpt>
      <trkpt lat="47.19188" lon="-1.5748">
        <ele>55</ele>
        <time>2020-09-13T07:14:33.000Z</time>
      </trkpt>
      <trkpt lat="47.19193" lon="-1.57462">
        <ele>55</ele>
        <time>2020-09-13T07:14:35.000Z</time>
      </trkpt>
      <trkpt lat="47.19199" lon="-1.57444">
        <ele>54</ele>
        <time>2020-09-13T07:14:37.000Z</time>
      </trkpt>
      <trkpt lat="47.19204" lon="-1.57425">
        <ele>54</ele>
        <time>2020-09-13T07:14:39.000Z</time>
      </trkpt>
      <trkpt lat="47.19209" lon="-1.57407">
        <ele>55</ele>
        <time>2020-09-13T07:14:41.000Z</time>
      </trkpt>
      <trkpt lat="47.19214" lon="-1.57389">
        <ele>55</ele>
        <time>2020-09-13T07:14:43.000Z</time>
      </trkpt>
      <trkpt lat="47.19219" lon="-1.57371">
        <ele>55</ele>
        <time>2020-09-13T07:14:45.000Z</time>
      </trkpt>
      <trkpt lat="47.19223" lon="-1.57352">
        <ele>55</ele>
        <time>2020-09-13T07:14:47.000Z</time>
      </trkpt>
      <trkpt lat="47.19227" lon="-1.57333">
        <ele>56</ele>
        <time>2020-09-13T07:14:49.000Z</time>
      </trkpt>
      <trkpt lat="47.19231" lon="-1.57314">
        <ele>56</ele>
        <time>2020-09-13T07:14:51.000Z</time>
      </trkpt>
      <trkpt lat="47.19234" lon="-1.57296">
        <ele>55</ele>
        <time>2020-09-13T07:14:53.000Z</time>
      </trkpt>
      <trkpt lat="47.19237" lon="-1.57277">
        <ele>55</ele>
        <time>2020-09-13T07:14:55.000Z</time>
      </trkpt>
      <trkpt lat="47.1924" lon="-1.57258">
        <ele>55</ele>
        <time>2020-09-13T07:14:57.000Z</time>
      </trkpt>
      <trkpt lat="47.19242" lon="-1.57239">
        <ele>55</ele>
        <time>2020-09-13T07:14:59.000Z</time>
      </trkpt>
      <trkpt lat="47.19244" lon="-1.5722">
        <ele>55</ele>
        <time>2020-09-13T07:15:01.000Z</time>
      </trkpt>
      <trkpt lat="47.19247" lon="-1.57201">
        <ele>55</ele>
        <time>2020-09-13T07:15:03.000Z</time>
      </trkpt>
      <trkpt lat="47.1925" lon="-1.57182">
        <ele>55</ele>
        <time>2020-09-13T07:15:05.000Z</time>
      </trkpt>
      <trkpt lat="47.19253" lon="-1.57163">
        <ele>55</ele>
        <time>2020-09-13T07:15:07.000Z</time>
      </trkpt>
      <trkpt lat="47.19255" lon="-1.57143">
        <ele>55</ele>
        <time>2020-09-13T07:15:09.000Z</time>
      </trkpt>
      <trkpt lat="47.19258" lon="-1.57125">
        <ele>55</ele>
        <time>2020-09-13T07:15:11.000Z</time>
      </trkpt>
      <trkpt lat="47.1926" lon="-1.57106">
        <ele>54</ele>
        <time>2020-09-13T07:15:13.000Z</time>
      </trkpt>
      <trkpt lat="47.19262" lon="-1.57088">
        <ele>54</ele>
        <time>2020-09-13T07:15:15.000Z</time>
      </trkpt>
      <trkpt lat="47.19262" lon="-1.57071">
        <ele>53</ele>
        <time>2020-09-13T07:15:17.000Z</time>
      </trkpt>
      <trkpt lat="47.19258" lon="-1.57054">
        <ele>53</ele>
        <time>2020-09-13T07:15:19.000Z</time>
      </trkpt>
      <trkpt lat="47.1926" lon="-1.57035">
        <ele>53</ele>
        <time>2020-09-13T07:15:21.000Z</time>
      </trkpt>
      <trkpt lat="47.19269" lon="-1.57019">
        <ele>53</ele>
        <time>2020-09-13T07:15:23.000Z</time>
      </trkpt>
      <trkpt lat="47.19273" lon="-1.57002">
        <ele>53</ele>
        <time>2020-09-13T07:15:25.000Z</time>
      </trkpt>
      <trkpt lat="47.19275" lon="-1.56982">
        <ele>53</ele>
        <time>2020-09-13T07:15:27.000Z</time>
      </trkpt>
      <trkpt lat="47.19277" lon="-1.56962">
        <ele>53</ele>
        <time>2020-09-13T07:15:29.000Z</time>
      </trkpt>
      <trkpt lat="47.19279" lon="-1.56942">
        <ele>53</ele>
        <time>2020-09-13T07:15:31.000Z</time>
      </trkpt>
      <trkpt lat="47.1928" lon="-1.56923">
        <ele>53</ele>
        <time>2020-09-13T07:15:33.000Z</time>
      </trkpt>
      <trkpt lat="47.19281" lon="-1.56904">
        <ele>53</ele>
        <time>2020-09-13T07:15:35.000Z</time>
      </trkpt>
      <trkpt lat="47.19283" lon="-1.56885">
        <ele>53</ele>
        <time>2020-09-13T07:15:37.000Z</time>
      </trkpt>
      <trkpt lat="47.19286" lon="-1.56865">
        <ele>53</ele>
        <time>2020-09-13T07:15:39.000Z</time>
      </trkpt>
      <trkpt lat="47.19288" lon="-1.56846">
        <ele>54</ele>
        <time>2020-09-13T07:15:41.000Z</time>
      </trkpt>
      <trkpt lat="47.19289" lon="-1.56827">
        <ele>54</ele>
        <time>2020-09-13T07:15:43.000Z</time>
      </trkpt>
      <trkpt lat="47.1929" lon="-1.56807">
        <ele>54</ele>
        <time>2020-09-13T07:15:45.000Z</time>
      </trkpt>
      <trkpt lat="47.19291" lon="-1.56787">
        <ele>54</ele>
        <time>2020-09-13T07:15:47.000Z</time>
      </trkpt>
      <trkpt lat="47.19291" lon="-1.56767">
        <ele>54</ele>
        <time>2020-09-13T07:15:49.000Z</time>
      </trkpt>
      <trkpt lat="47.19291" lon="-1.56748">
        <ele>53</ele>
        <time>2020-09-13T07:15:51.000Z</time>
      </trkpt>
      <trkpt lat="47.19291" lon="-1.56729">
        <ele>53</ele>
        <time>2020-09-13T07:15:53.000Z</time>
      </trkpt>
      <trkpt lat="47.19291" lon="-1.56709">
        <ele>53</ele>
        <time>2020-09-13T07:15:55.000Z</time>
      </trkpt>
      <trkpt lat="47.1929" lon="-1.56689">
        <ele>52</ele>
        <time>2020-09-13T07:15:57.000Z</time>
      </trkpt>
      <trkpt lat="47.19289" lon="-1.56669">
        <ele>52</ele>
        <time>2020-09-13T07:15:59.000Z</time>
      </trkpt>
      <trkpt lat="47.19288" lon="-1.56649">
        <ele>53</ele>
        <time>2020-09-13T07:16:01.000Z</time>
      </trkpt>
      <trkpt lat="47.19286" lon="-1.5663">
        <ele>53</ele>
        <time>2020-09-13T07:16:03.000Z</time>
      </trkpt>
      <trkpt lat="47.19285" lon="-1.5661">
        <ele>52</ele>
        <time>2020-09-13T07:16:05.000Z</time>
      </trkpt>
      <trkpt lat="47.19283" lon="-1.5659">
        <ele>52</ele>
        <time>2020-09-13T07:16:07.000Z</time>
      </trkpt>
      <trkpt lat="47.19281" lon="-1.56571">
        <ele>52</ele>
        <time>2020-09-13T07:16:09.000Z</time>
      </trkpt>
      <trkpt lat="47.19279" lon="-1.56551">
        <ele>53</ele>
        <time>2020-09-13T07:16:11.000Z</time>
      </trkpt>
      <trkpt lat="47.19277" lon="-1.56531">
        <ele>53</ele>
        <time>2020-09-13T07:16:13.000Z</time>
      </trkpt>
      <trkpt lat="47.19274" lon="-1.56512">
        <ele>54</ele>
        <time>2020-09-13T07:16:15.000Z</time>
      </trkpt>
      <trkpt lat="47.19272" lon="-1.56492">
        <ele>54</ele>
        <time>2020-09-13T07:16:17.000Z</time>
      </trkpt>
      <trkpt lat="47.1927" lon="-1.56473">
        <ele>54</ele>
        <time>2020-09-13T07:16:19.000Z</time>
      </trkpt>
      <trkpt lat="47.19267" lon="-1.56453">
        <ele>54</ele>
        <time>2020-09-13T07:16:21.000Z</time>
      </trkpt>
      <trkpt lat="47.19266" lon="-1.56434">
        <ele>54</ele>
        <time>2020-09-13T07:16:23.000Z</time>
      </trkpt>
      <trkpt lat="47.19265" lon="-1.56414">
        <ele>54</ele>
        <time>2020-09-13T07:16:25.000Z</time>
      </trkpt>
      <trkpt lat="47.19264" lon="-1.56395">
        <ele>54</ele>
        <time>2020-09-13T07:16:27.000Z</time>
      </trkpt>
      <trkpt lat="47.19262" lon="-1.56376">
        <ele>54</ele>
        <time>2020-09-13T07:16:29.000Z</time>
      </trkpt>
      <trkpt lat="47.19259" lon="-1.56357">
        <ele>54</ele>
        <time>2020-09-13T07:16:31.000Z</time>
      </trkpt>
      <trkpt lat="47.19254" lon="-1.56339">
        <ele>54</ele>
        <time>2020-09-13T07:16:33.000Z</time>
      </trkpt>
      <trkpt lat="47.19246" lon="-1.56323">
        <ele>54</ele>
        <time>2020-09-13T07:16:35.000Z</time>
      </trkpt>
      <trkpt lat="47.19237" lon="-1.56309">
        <ele>54</ele>
        <time>2020-09-13T07:16:37.000Z</time>
      </trkpt>
      <trkpt lat="47.19234" lon="-1.5629">
        <ele>54</ele>
        <time>2020-09-13T07:16:39.000Z</time>
      </trkpt>
      <trkpt lat="47.19237" lon="-1.56271">
        <ele>54</ele>
        <time>2020-09-13T07:16:41.000Z</time>
      </trkpt>
      <trkpt lat="47.19244" lon="-1.56254">
        <ele>54</ele>
        <time>2020-09-13T07:16:43.000Z</time>
      </trkpt>
      <trkpt lat="47.19246" lon="-1.56235">
        <ele>54</ele>
        <time>2020-09-13T07:16:45.000Z</time>
      </trkpt>
      <trkpt lat="47.19244" lon="-1.56215">
        <ele>54</ele>
        <time>2020-09-13T07:16:47.000Z</time>
      </trkpt>
      <trkpt lat="47.19245" lon="-1.56195">
        <ele>54</ele>
        <time>2020-09-13T07:16:49.000Z</time>
      </trkpt>
      <trkpt lat="47.19245" lon="-1.56174">
        <ele>54</ele>
        <time>2020-09-13T07:16:51.000Z</time>
      </trkpt>
      <trkpt lat="47.19245" lon="-1.56154">
        <ele>54</ele>
        <time>2020-09-13T07:16:53.000Z</time>
      </trkpt>
      <trkpt lat="47.19244" lon="-1.56134">
        <ele>54</ele>
        <time>2020-09-13T07:16:55.000Z</time>
      </trkpt>
      <trkpt lat="47.19244" lon="-1.56113">
        <ele>54</ele>
        <time>2020-09-13T07:16:57.000Z</time>
      </trkpt>
      <trkpt lat="47.19243" lon="-1.56093">
        <ele>54</ele>
        <time>2020-09-13T07:16:59.000Z</time>
      </trkpt>
      <trkpt lat="47.19242" lon="-1.56073">
        <ele>54</ele>
        <time>2020-09-13T07:17:01.000Z</time>
      </trkpt>
      <trkpt lat="47.19241" lon="-1.56053">
        <ele>54</ele>
        <time>2020-09-13T07:17:03.000Z</time>
      </trkpt>
      <trkpt lat="47.19239" lon="-1.56034">
        <ele>54</ele>
        <time>2020-09-13T07:17:05.000Z</time>
      </trkpt>
      <trkpt lat="47.19237" lon="-1.56014">
        <ele>54</ele>
        <time>2020-09-13T07:17:07.000Z</time>
      </trkpt>
      <trkpt lat="47.19235" lon="-1.55994">
        <ele>54</ele>
        <time>2020-09-13T07:17:09.000Z</time>
      </trkpt>
      <trkpt lat="47.19233" lon="-1.55974">
        <ele>54</ele>
        <time>2020-09-13T07:17:11.000Z</time>
      </trkpt>
      <trkpt lat="47.1923" lon="-1.55955">
        <ele>54</ele>
        <time>2020-09-13T07:17:13.000Z</time>
      </trkpt>
      <trkpt lat="47.19228" lon="-1.55936">
        <ele>54</ele>
        <time>2020-09-13T07:17:15.000Z</time>
      </trkpt>
      <trkpt lat="47.19226" lon="-1.55917">
        <ele>55</ele>
        <time>2020-09-13T07:17:17.000Z</time>
      </trkpt>
      <trkpt lat="47.19224" lon="-1.55898">
        <ele>55</ele>
        <time>2020-09-13T07:17:19.000Z</time>
      </trkpt>
      <trkpt lat="47.19223" lon="-1.55878">
        <ele>55</ele>
        <time>2020-09-13T07:17:21.000Z</time>
      </trkpt>
      <trkpt lat="47.19222" lon="-1.55859">
        <ele>55</ele>
        <time>2020-09-13T07:17:23.000Z</time>
      </trkpt>
      <trkpt lat="47.19221" lon="-1.5584">
        <ele>54</ele>
        <time>2020-09-13T07:17:25.000Z</time>
      </trkpt>
      <trkpt lat="47.1922" lon="-1.55821">
        <ele>54</ele>
        <time>2020-09-13T07:17:27.000Z</time>
      </trkpt>
      <trkpt lat="47.1922" lon="-1.55801">
        <ele>55</ele>
        <time>2020-09-13T07:17:29.000Z</time>
      </trkpt>
      <trkpt lat="47.1922" lon="-1.55782">
        <ele>55</ele>
        <time>2020-09-13T07:17:31.000Z</time>
      </trkpt>
      <trkpt lat="47.19219" lon="-1.55762">
        <ele>55</ele>
        <time>2020-09-13T07:17:33.000Z</time>
      </trkpt>
      <trkpt lat="47.19219" lon="-1.55743">
        <ele>55</ele>
        <time>2020-09-13T07:17:35.000Z</time>
      </trkpt>
      <trkpt lat="47.19218" lon="-1.55724">
        <ele>55</ele>
        <time>2020-09-13T07:17:37.000Z</time>
      </trkpt>
      <trkpt lat="47.19219" lon="-1.55704">
        <ele>55</ele>
        <time>2020-09-13T07:17:39.000Z</time>
      </trkpt>
      <trkpt lat="47.19219" lon="-1.55686">
        <ele>55</ele>
        <time>2020-09-13T07:17:41.000Z</time>
      </trkpt>
      <trkpt lat="47.1922" lon="-1.55667">
        <ele>55</ele>
        <time>2020-09-13T07:17:43.000Z</time>
      </trkpt>
      <trkpt lat="47.19221" lon="-1.55648">
        <ele>55</ele>
        <time>2020-09-13T07:17:45.000Z</time>
      </trkpt>
      <trkpt lat="47.19222" lon="-1.55628">
        <ele>55</ele>
        <time>2020-09-13T07:17:47.000Z</time>
      </trkpt>
      <trkpt lat="47.19224" lon="-1.55609">
        <ele>55</ele>
        <time>2020-09-13T07:17:49.000Z</time>
      </trkpt>
      <trkpt lat="47.19225" lon="-1.55591">
        <ele>55</ele>
        <time>2020-09-13T07:17:51.000Z</time>
      </trkpt>
      <trkpt lat="47.19227" lon="-1.55572">
        <ele>55</ele>
        <time>2020-09-13T07:17:53.000Z</time>
      </trkpt>
      <trkpt lat="47.19229" lon="-1.55553">
        <ele>55</ele>
        <time>2020-09-13T07:17:55.000Z</time>
      </trkpt>
      <trkpt lat="47.1923" lon="-1.55535">
        <ele>55</ele>
        <time>2020-09-13T07:17:57.000Z</time>
      </trkpt>
      <trkpt lat="47.19231" lon="-1.55517">
        <ele>55</ele>
        <time>2020-09-13T07:17:59.000Z</time>
      </trkpt>
      <trkpt lat="47.19232" lon="-1.55498">
        <ele>55</ele>
        <time>2020-09-13T07:18:01.000Z</time>
      </trkpt>
      <trkpt lat="47.19231" lon="-1.55481">
        <ele>55</ele>
        <time>2020-09-13T07:18:03.000Z</time>
      </trkpt>
      <trkpt lat="47.19228" lon="-1.55466">
        <ele>55</ele>
        <time>2020-09-13T07:18:05.000Z</time>
      </trkpt>
      <trkpt lat="47.19218" lon="-1.55454">
        <ele>56</ele>
        <time>2020-09-13T07:18:07.000Z</time>
      </trkpt>
      <trkpt lat="47.19213" lon="-1.55437">
        <ele>56</ele>
        <time>2020-09-13T07:18:09.000Z</time>
      </trkpt>
      <trkpt lat="47.19217" lon="-1.55417">
        <ele>56</ele>
        <time>2020-09-13T07:18:11.000Z</time>
      </trkpt>
      <trkpt lat="47.19228" lon="-1.55405">
        <ele>56</ele>
        <time>2020-09-13T07:18:13.000Z</time>
      </trkpt>
      <trkpt lat="47.19238" lon="-1.55393">
        <ele>56</ele>
        <time>2020-09-13T07:18:15.000Z</time>
      </trkpt>
      <trkpt lat="47.19244" lon="-1.55376">
        <ele>56</ele>
        <time>2020-09-13T07:18:17.000Z</time>
      </trkpt>
      <trkpt lat="47.19249" lon="-1.55358">
        <ele>57</ele>
        <time>2020-09-13T07:18:19.000Z</time>
      </trkpt>
      <trkpt lat="47.19255" lon="-1.5534">
        <ele>56</ele>
        <time>2020-09-13T07:18:21.000Z</time>
      </trkpt>
      <trkpt lat="47.1926" lon="-1.55321">
        <ele>56</ele>
        <time>2020-09-13T07:18:23.000Z</time>
      </trkpt>
      <trkpt lat="47.19264" lon="-1.55302">
        <ele>56</ele>
        <time>2020-09-13T07:18:25.000Z</time>
      </trkpt>
      <trkpt lat="47.19268" lon="-1.55283">
        <ele>56</ele>
        <time>2020-09-13T07:18:27.000Z</time>
      </trkpt>
      <trkpt lat="47.19271" lon="-1.55265">
        <ele>57</ele>
        <time>2020-09-13T07:18:29.000Z</time>
      </trkpt>
      <trkpt lat="47.19275" lon="-1.55247">
        <ele>57</ele>
        <time>2020-09-13T07:18:31.000Z</time>
      </trkpt>
      <trkpt lat="47.19278" lon="-1.55228">
        <ele>57</ele>
        <time>2020-09-13T07:18:33.000Z</time>
      </trkpt>
      <trkpt lat="47.19283" lon="-1.55211">
        <ele>57</ele>
        <time>2020-09-13T07:18:35.000Z</time>
      </trkpt>
      <trkpt lat="47.19288" lon="-1.55193">
        <ele>57</ele>
        <time>2020-09-13T07:18:37.000Z</time>
      </trkpt>
      <trkpt lat="47.19293" lon="-1.55175">
        <ele>57</ele>
        <time>2020-09-13T07:18:39.000Z</time>
      </trkpt>
      <trkpt lat="47.19298" lon="-1.55157">
        <ele>57</ele>
        <time>2020-09-13T07:18:41.000Z</time>
      </trkpt>
      <trkpt lat="47.19302" lon="-1.5514">
        <ele>57</ele>
        <time>2020-09-13T07:18:43.000Z</time>
      </trkpt>
      <trkpt lat="47.19307" lon="-1.55123">
        <ele>58</ele>
        <time>2020-09-13T07:18:45.000Z</time>
      </trkpt>
      <trkpt lat="47.19311" lon="-1.55107">
        <ele>58</ele>
        <time>2020-09-13T07:18:47.000Z</time>
      </trkpt>
      <trkpt lat="47.19315" lon="-1.55091">
        <ele>59</ele>
        <time>2020-09-13T07:18:49.000Z</time>
      </trkpt>
      <trkpt lat="47.19319" lon="-1.55073">
        <ele>59</ele>
        <time>2020-09-13T07:18:51.000Z</time>
      </trkpt>
      <trkpt lat="47.19324" lon="-1.55056">
        <ele>60</ele>
        <time>2020-09-13T07:18:53.000Z</time>
      </trkpt>
      <trkpt lat="47.19328" lon="-1.5504">
        <ele>60</ele>
        <time>2020-09-13T07:18:55.000Z</time>
      </trkpt>
      <trkpt lat="47.19332" lon="-1.55023">
        <ele>60</ele>
        <time>2020-09-13T07:18:57.000Z</time>
      </trkpt>
      <trkpt lat="47.19337" lon="-1.55006">
        <ele>61</ele>
        <time>2020-09-13T07:18:59.000Z</time>
      </trkpt>
      <trkpt lat="47.19341" lon="-1.54989">
        <ele>60</ele>
        <time>2020-09-13T07:19:01.000Z</time>
      </trkpt>
      <trkpt lat="47.19346" lon="-1.54973">
        <ele>61</ele>
        <time>2020-09-13T07:19:03.000Z</time>
      </trkpt>
      <trkpt lat="47.1935" lon="-1.54955">
        <ele>61</ele>
        <time>2020-09-13T07:19:05.000Z</time>
      </trkpt>
      <trkpt lat="47.19355" lon="-1.54939">
        <ele>62</ele>
        <time>2020-09-13T07:19:07.000Z</time>
      </trkpt>
      <trkpt lat="47.19358" lon="-1.54922">
        <ele>61</ele>
        <time>2020-09-13T07:19:09.000Z</time>
      </trkpt>
      <trkpt lat="47.19362" lon="-1.54905">
        <ele>61</ele>
        <time>2020-09-13T07:19:11.000Z</time>
      </trkpt>
      <trkpt lat="47.19367" lon="-1.54887">
        <ele>61</ele>
        <time>2020-09-13T07:19:13.000Z</time>
      </trkpt>
      <trkpt lat="47.1937" lon="-1.54867">
        <ele>62</ele>
        <time>2020-09-13T07:19:15.000Z</time>
      </trkpt>
      <trkpt lat="47.19374" lon="-1.54849">
        <ele>63</ele>
        <time>2020-09-13T07:19:17.000Z</time>
      </trkpt>
      <trkpt lat="47.19379" lon="-1.5483">
        <ele>63</ele>
        <time>2020-09-13T07:19:19.000Z</time>
      </trkpt>
      <trkpt lat="47.19384" lon="-1.54811">
        <ele>62</ele>
        <time>2020-09-13T07:19:21.000Z</time>
      </trkpt>
      <trkpt lat="47.1939" lon="-1.5479">
        <ele>61</ele>
        <time>2020-09-13T07:19:23.000Z</time>
      </trkpt>
      <trkpt lat="47.19395" lon="-1.54768">
        <ele>61</ele>
        <time>2020-09-13T07:19:25.000Z</time>
      </trkpt>
      <trkpt lat="47.19401" lon="-1.54745">
        <ele>59</ele>
        <time>2020-09-13T07:19:27.000Z</time>
      </trkpt>
      <trkpt lat="47.19407" lon="-1.54722">
        <ele>58</ele>
        <time>2020-09-13T07:19:29.000Z</time>
      </trkpt>
      <trkpt lat="47.19412" lon="-1.547">
        <ele>58</ele>
        <time>2020-09-13T07:19:31.000Z</time>
      </trkpt>
      <trkpt lat="47.19417" lon="-1.54679">
        <ele>58</ele>
        <time>2020-09-13T07:19:33.000Z</time>
      </trkpt>
      <trkpt lat="47.19423" lon="-1.5466">
        <ele>58</ele>
        <time>2020-09-13T07:19:35.000Z</time>
      </trkpt>
      <trkpt lat="47.19428" lon="-1.54643">
        <ele>57</ele>
        <time>2020-09-13T07:19:37.000Z</time>
      </trkpt>
      <trkpt lat="47.19431" lon="-1.54625">
        <ele>57</ele>
        <time>2020-09-13T07:19:39.000Z</time>
      </trkpt>
      <trkpt lat="47.19425" lon="-1.5461">
        <ele>57</ele>
        <time>2020-09-13T07:19:41.000Z</time>
      </trkpt>
      <trkpt lat="47.19421" lon="-1.54594">
        <ele>56</ele>
        <time>2020-09-13T07:19:43.000Z</time>
      </trkpt>
      <trkpt lat="47.19426" lon="-1.54577">
        <ele>55</ele>
        <time>2020-09-13T07:19:45.000Z</time>
      </trkpt>
      <trkpt lat="47.19433" lon="-1.54562">
        <ele>56</ele>
        <time>2020-09-13T07:19:47.000Z</time>
      </trkpt>
      <trkpt lat="47.19445" lon="-1.54553">
        <ele>56</ele>
        <time>2020-09-13T07:19:49.000Z</time>
      </trkpt>
      <trkpt lat="47.19453" lon="-1.54538">
        <ele>56</ele>
        <time>2020-09-13T07:19:51.000Z</time>
      </trkpt>
      <trkpt lat="47.19459" lon="-1.5452">
        <ele>56</ele>
        <time>2020-09-13T07:19:53.000Z</time>
      </trkpt>
      <trkpt lat="47.19465" lon="-1.54503">
        <ele>56</ele>
        <time>2020-09-13T07:19:55.000Z</time>
      </trkpt>
      <trkpt lat="47.1947" lon="-1.54486">
        <ele>56</ele>
        <time>2020-09-13T07:19:57.000Z</time>
      </trkpt>
      <trkpt lat="47.19474" lon="-1.54469">
        <ele>56</ele>
        <time>2020-09-13T07:19:59.000Z</time>
      </trkpt>
      <trkpt lat="47.19485" lon="-1.54459">
        <ele>56</ele>
        <time>2020-09-13T07:20:01.000Z</time>
      </trkpt>
      <trkpt lat="47.19497" lon="-1.5445">
        <ele>56</ele>
        <time>2020-09-13T07:20:03.000Z</time>
      </trkpt>
      <trkpt lat="47.19508" lon="-1.54442">
        <ele>57</ele>
        <time>2020-09-13T07:20:05.000Z</time>
      </trkpt>
      <trkpt lat="47.19521" lon="-1.54432">
        <ele>56</ele>
        <time>2020-09-13T07:20:07.000Z</time>
      </trkpt>
      <trkpt lat="47.19533" lon="-1.54422">
        <ele>56</ele>
        <time>2020-09-13T07:20:09.000Z</time>
      </trkpt>
      <trkpt lat="47.19545" lon="-1.54413">
        <ele>56</ele>
        <time>2020-09-13T07:20:11.000Z</time>
      </trkpt>
      <trkpt lat="47.19557" lon="-1.54404">
        <ele>56</ele>
        <time>2020-09-13T07:20:13.000Z</time>
      </trkpt>
      <trkpt lat="47.19569" lon="-1.54394">
        <ele>56</ele>
        <time>2020-09-13T07:20:15.000Z</time>
      </trkpt>
      <trkpt lat="47.19581" lon="-1.54384">
        <ele>56</ele>
        <time>2020-09-13T07:20:17.000Z</time>
      </trkpt>
      <trkpt lat="47.19593" lon="-1.54374">
        <ele>56</ele>
        <time>2020-09-13T07:20:19.000Z</time>
      </trkpt>
      <trkpt lat="47.19605" lon="-1.54363">
        <ele>55</ele>
        <time>2020-09-13T07:20:21.000Z</time>
      </trkpt>
      <trkpt lat="47.19616" lon="-1.5435">
        <ele>56</ele>
        <time>2020-09-13T07:20:23.000Z</time>
      </trkpt>
      <trkpt lat="47.19626" lon="-1.54336">
        <ele>55</ele>
        <time>2020-09-13T07:20:25.000Z</time>
      </trkpt>
      <trkpt lat="47.19637" lon="-1.54323">
        <ele>55</ele>
        <time>2020-09-13T07:20:27.000Z</time>
      </trkpt>
      <trkpt lat="47.19649" lon="-1.5431">
        <ele>56</ele>
        <time>2020-09-13T07:20:29.000Z</time>
      </trkpt>
      <trkpt lat="47.19661" lon="-1.54299">
        <ele>56</ele>
        <time>2020-09-13T07:20:31.000Z</time>
      </trkpt>
      <trkpt lat="47.19673" lon="-1.54287">
        <ele>56</ele>
        <time>2020-09-13T07:20:33.000Z</time>
      </trkpt>
      <trkpt lat="47.19686" lon="-1.54276">
        <ele>55</ele>
        <time>2020-09-13T07:20:35.000Z</time>
      </trkpt>
      <trkpt lat="47.19698" lon="-1.54267">
        <ele>55</ele>
        <time>2020-09-13T07:20:37.000Z</time>
      </trkpt>
      <trkpt lat="47.1971" lon="-1.54259">
        <ele>55</ele>
        <time>2020-09-13T07:20:39.000Z</time>
      </trkpt>
      <trkpt lat="47.19723" lon="-1.54251">
        <ele>55</ele>
        <time>2020-09-13T07:20:41.000Z</time>
      </trkpt>
      <trkpt lat="47.19735" lon="-1.54244">
        <ele>56</ele>
        <time>2020-09-13T07:20:43.000Z</time>
      </trkpt>
      <trkpt lat="47.19744" lon="-1.54236">
        <ele>57</ele>
        <time>2020-09-13T07:20:45.000Z</time>
      </trkpt>
      <trkpt lat="47.19752" lon="-1.54227">
        <ele>57</ele>
        <time>2020-09-13T07:20:47.000Z</time>
      </trkpt>
      <trkpt lat="47.19759" lon="-1.54218">
        <ele>56</ele>
        <time>2020-09-13T07:20:49.000Z</time>
      </trkpt>
      <trkpt lat="47.19769" lon="-1.54206">
        <ele>57</ele>
        <time>2020-09-13T07:20:52.000Z</time>
      </trkpt>
      <trkpt lat="47.19778" lon="-1.542">
        <ele>58</ele>
        <time>2020-09-13T07:20:54.000Z</time>
      </trkpt>
      <trkpt lat="47.19786" lon="-1.54187">
        <ele>58</ele>
        <time>2020-09-13T07:20:56.000Z</time>
      </trkpt>
      <trkpt lat="47.1979" lon="-1.5417">
        <ele>58</ele>
        <time>2020-09-13T07:20:58.000Z</time>
      </trkpt>
      <trkpt lat="47.19793" lon="-1.54157">
        <ele>57</ele>
        <time>2020-09-13T07:21:00.000Z</time>
      </trkpt>
      <trkpt lat="47.19796" lon="-1.54142">
        <ele>57</ele>
        <time>2020-09-13T07:21:02.000Z</time>
      </trkpt>
      <trkpt lat="47.19801" lon="-1.54125">
        <ele>57</ele>
        <time>2020-09-13T07:21:04.000Z</time>
      </trkpt>
      <trkpt lat="47.19811" lon="-1.54111">
        <ele>57</ele>
        <time>2020-09-13T07:21:06.000Z</time>
      </trkpt>
      <trkpt lat="47.19824" lon="-1.541">
        <ele>56</ele>
        <time>2020-09-13T07:21:08.000Z</time>
      </trkpt>
      <trkpt lat="47.19832" lon="-1.54083">
        <ele>56</ele>
        <time>2020-09-13T07:21:10.000Z</time>
      </trkpt>
      <trkpt lat="47.19841" lon="-1.54068">
        <ele>55</ele>
        <time>2020-09-13T07:21:12.000Z</time>
      </trkpt>
      <trkpt lat="47.19849" lon="-1.54049">
        <ele>55</ele>
        <time>2020-09-13T07:21:14.000Z</time>
      </trkpt>
      <trkpt lat="47.19855" lon="-1.54029">
        <ele>56</ele>
        <time>2020-09-13T07:21:16.000Z</time>
      </trkpt>
      <trkpt lat="47.19861" lon="-1.54009">
        <ele>55</ele>
        <time>2020-09-13T07:21:18.000Z</time>
      </trkpt>
      <trkpt lat="47.19867" lon="-1.5399">
        <ele>55</ele>
        <time>2020-09-13T07:21:20.000Z</time>
      </trkpt>
      <trkpt lat="47.19873" lon="-1.5397">
        <ele>55</ele>
        <time>2020-09-13T07:21:22.000Z</time>
      </trkpt>
      <trkpt lat="47.19879" lon="-1.5395">
        <ele>54</ele>
        <time>2020-09-13T07:21:24.000Z</time>
      </trkpt>
      <trkpt lat="47.19885" lon="-1.5393">
        <ele>54</ele>
        <time>2020-09-13T07:21:26.000Z</time>
      </trkpt>
      <trkpt lat="47.1989" lon="-1.53909">
        <ele>53</ele>
        <time>2020-09-13T07:21:28.000Z</time>
      </trkpt>
      <trkpt lat="47.19895" lon="-1.53888">
        <ele>53</ele>
        <time>2020-09-13T07:21:30.000Z</time>
      </trkpt>
      <trkpt lat="47.199" lon="-1.53868">
        <ele>52</ele>
        <time>2020-09-13T07:21:32.000Z</time>
      </trkpt>
      <trkpt lat="47.19905" lon="-1.53848">
        <ele>52</ele>
        <time>2020-09-13T07:21:34.000Z</time>
      </trkpt>
      <trkpt lat="47.1991" lon="-1.53827">
        <ele>51</ele>
        <time>2020-09-13T07:21:36.000Z</time>
      </trkpt>
      <trkpt lat="47.19915" lon="-1.53808">
        <ele>50</ele>
        <time>2020-09-13T07:21:38.000Z</time>
      </trkpt>
      <trkpt lat="47.19921" lon="-1.53789">
        <ele>50</ele>
        <time>2020-09-13T07:21:40.000Z</time>
      </trkpt>
      <trkpt lat="47.19925" lon="-1.5377">
        <ele>50</ele>
        <time>2020-09-13T07:21:42.000Z</time>
      </trkpt>
      <trkpt lat="47.19928" lon="-1.53749">
        <ele>50</ele>
        <time>2020-09-13T07:21:44.000Z</time>
      </trkpt>
      <trkpt lat="47.19932" lon="-1.53728">
        <ele>49</ele>
        <time>2020-09-13T07:21:46.000Z</time>
      </trkpt>
      <trkpt lat="47.19936" lon="-1.53707">
        <ele>50</ele>
        <time>2020-09-13T07:21:48.000Z</time>
      </trkpt>
      <trkpt lat="47.1994" lon="-1.53686">
        <ele>50</ele>
        <time>2020-09-13T07:21:50.000Z</time>
      </trkpt>
      <trkpt lat="47.19945" lon="-1.53666">
        <ele>50</ele>
        <time>2020-09-13T07:21:52.000Z</time>
      </trkpt>
      <trkpt lat="47.19949" lon="-1.53646">
        <ele>50</ele>
        <time>2020-09-13T07:21:54.000Z</time>
      </trkpt>
      <trkpt lat="47.19954" lon="-1.53626">
        <ele>50</ele>
        <time>2020-09-13T07:21:56.000Z</time>
      </trkpt>
      <trkpt lat="47.19959" lon="-1.53606">
        <ele>51</ele>
        <time>2020-09-13T07:21:58.000Z</time>
      </trkpt>
      <trkpt lat="47.19964" lon="-1.53587">
        <ele>51</ele>
        <time>2020-09-13T07:22:00.000Z</time>
      </trkpt>
      <trkpt lat="47.19969" lon="-1.53568">
        <ele>51</ele>
        <time>2020-09-13T07:22:02.000Z</time>
      </trkpt>
      <trkpt lat="47.19974" lon="-1.5355">
        <ele>51</ele>
        <time>2020-09-13T07:22:04.000Z</time>
      </trkpt>
      <trkpt lat="47.19979" lon="-1.53531">
        <ele>51</ele>
        <time>2020-09-13T07:22:06.000Z</time>
      </trkpt>
      <trkpt lat="47.19983" lon="-1.53513">
        <ele>51</ele>
        <time>2020-09-13T07:22:08.000Z</time>
      </trkpt>
      <trkpt lat="47.19987" lon="-1.53495">
        <ele>52</ele>
        <time>2020-09-13T07:22:10.000Z</time>
      </trkpt>
      <trkpt lat="47.19991" lon="-1.53478">
        <ele>52</ele>
        <time>2020-09-13T07:22:12.000Z</time>
      </trkpt>
      <trkpt lat="47.20003" lon="-1.53471">
        <ele>53</ele>
        <time>2020-09-13T07:22:14.000Z</time>
      </trkpt>
      <trkpt lat="47.20017" lon="-1.53469">
        <ele>53</ele>
        <time>2020-09-13T07:22:16.000Z</time>
      </trkpt>
      <trkpt lat="47.20025" lon="-1.53455">
        <ele>54</ele>
        <time>2020-09-13T07:22:18.000Z</time>
      </trkpt>
      <trkpt lat="47.20032" lon="-1.53438">
        <ele>53</ele>
        <time>2020-09-13T07:22:20.000Z</time>
      </trkpt>
      <trkpt lat="47.20038" lon="-1.53421">
        <ele>53</ele>
        <time>2020-09-13T07:22:22.000Z</time>
      </trkpt>
      <trkpt lat="47.20045" lon="-1.53404">
        <ele>53</ele>
        <time>2020-09-13T07:22:24.000Z</time>
      </trkpt>
      <trkpt lat="47.20051" lon="-1.53388">
        <ele>53</ele>
        <time>2020-09-13T07:22:26.000Z</time>
      </trkpt>
      <trkpt lat="47.20058" lon="-1.53375">
        <ele>54</ele>
        <time>2020-09-13T07:22:28.000Z</time>
      </trkpt>
      <trkpt lat="47.20066" lon="-1.53361">
        <ele>55</ele>
        <time>2020-09-13T07:22:30.000Z</time>
      </trkpt>
      <trkpt lat="47.20079" lon="-1.53346">
        <ele>54</ele>
        <time>2020-09-13T07:22:33.000Z</time>
      </trkpt>
      <trkpt lat="47.20085" lon="-1.5333">
        <ele>54</ele>
        <time>2020-09-13T07:22:35.000Z</time>
      </trkpt>
      <trkpt lat="47.20092" lon="-1.53313">
        <ele>53</ele>
        <time>2020-09-13T07:22:37.000Z</time>
      </trkpt>
      <trkpt lat="47.20099" lon="-1.53295">
        <ele>53</ele>
        <time>2020-09-13T07:22:39.000Z</time>
      </trkpt>
      <trkpt lat="47.20105" lon="-1.53277">
        <ele>53</ele>
        <time>2020-09-13T07:22:41.000Z</time>
      </trkpt>
      <trkpt lat="47.20111" lon="-1.53258">
        <ele>53</ele>
        <time>2020-09-13T07:22:43.000Z</time>
      </trkpt>
      <trkpt lat="47.20116" lon="-1.53239">
        <ele>53</ele>
        <time>2020-09-13T07:22:45.000Z</time>
      </trkpt>
      <trkpt lat="47.2012" lon="-1.5322">
        <ele>53</ele>
        <time>2020-09-13T07:22:47.000Z</time>
      </trkpt>
      <trkpt lat="47.20124" lon="-1.532">
        <ele>54</ele>
        <time>2020-09-13T07:22:49.000Z</time>
      </trkpt>
      <trkpt lat="47.20131" lon="-1.53171">
        <ele>54</ele>
        <time>2020-09-13T07:22:52.000Z</time>
      </trkpt>
      <trkpt lat="47.20137" lon="-1.53155">
        <ele>54</ele>
        <time>2020-09-13T07:22:54.000Z</time>
      </trkpt>
      <trkpt lat="47.20144" lon="-1.53137">
        <ele>55</ele>
        <time>2020-09-13T07:22:56.000Z</time>
      </trkpt>
      <trkpt lat="47.20151" lon="-1.5312">
        <ele>55</ele>
        <time>2020-09-13T07:22:58.000Z</time>
      </trkpt>
      <trkpt lat="47.20158" lon="-1.53103">
        <ele>55</ele>
        <time>2020-09-13T07:23:00.000Z</time>
      </trkpt>
      <trkpt lat="47.20166" lon="-1.53086">
        <ele>56</ele>
        <time>2020-09-13T07:23:02.000Z</time>
      </trkpt>
      <trkpt lat="47.20175" lon="-1.53071">
        <ele>57</ele>
        <time>2020-09-13T07:23:04.000Z</time>
      </trkpt>
      <trkpt lat="47.20184" lon="-1.53057">
        <ele>57</ele>
        <time>2020-09-13T07:23:06.000Z</time>
      </trkpt>
      <trkpt lat="47.20199" lon="-1.53037">
        <ele>57</ele>
        <time>2020-09-13T07:23:09.000Z</time>
      </trkpt>
      <trkpt lat="47.20211" lon="-1.53025">
        <ele>57</ele>
        <time>2020-09-13T07:23:11.000Z</time>
      </trkpt>
      <trkpt lat="47.20221" lon="-1.53014">
        <ele>57</ele>
        <time>2020-09-13T07:23:13.000Z</time>
      </trkpt>
      <trkpt lat="47.2023" lon="-1.53">
        <ele>57</ele>
        <time>2020-09-13T07:23:15.000Z</time>
      </trkpt>
      <trkpt lat="47.20239" lon="-1.52985">
        <ele>57</ele>
        <time>2020-09-13T07:23:17.000Z</time>
      </trkpt>
      <trkpt lat="47.20247" lon="-1.52968">
        <ele>58</ele>
        <time>2020-09-13T07:23:19.000Z</time>
      </trkpt>
      <trkpt lat="47.20256" lon="-1.52953">
        <ele>59</ele>
        <time>2020-09-13T07:23:21.000Z</time>
      </trkpt>
      <trkpt lat="47.20265" lon="-1.52938">
        <ele>59</ele>
        <time>2020-09-13T07:23:23.000Z</time>
      </trkpt>
      <trkpt lat="47.20273" lon="-1.52921">
        <ele>58</ele>
        <time>2020-09-13T07:23:25.000Z</time>
      </trkpt>
      <trkpt lat="47.20281" lon="-1.52904">
        <ele>57</ele>
        <time>2020-09-13T07:23:27.000Z</time>
      </trkpt>
      <trkpt lat="47.20287" lon="-1.52886">
        <ele>57</ele>
        <time>2020-09-13T07:23:29.000Z</time>
      </trkpt>
      <trkpt lat="47.20294" lon="-1.52868">
        <ele>57</ele>
        <time>2020-09-13T07:23:31.000Z</time>
      </trkpt>
      <trkpt lat="47.20301" lon="-1.5285">
        <ele>57</ele>
        <time>2020-09-13T07:23:33.000Z</time>
      </trkpt>
      <trkpt lat="47.20308" lon="-1.52833">
        <ele>57</ele>
        <time>2020-09-13T07:23:35.000Z</time>
      </trkpt>
      <trkpt lat="47.20317" lon="-1.52816">
        <ele>58</ele>
        <time>2020-09-13T07:23:37.000Z</time>
      </trkpt>
      <trkpt lat="47.20325" lon="-1.52799">
        <ele>58</ele>
        <time>2020-09-13T07:23:39.000Z</time>
      </trkpt>
      <trkpt lat="47.20333" lon="-1.52783">
        <ele>58</ele>
        <time>2020-09-13T07:23:41.000Z</time>
      </trkpt>
      <trkpt lat="47.20341" lon="-1.52767">
        <ele>58</ele>
        <time>2020-09-13T07:23:43.000Z</time>
      </trkpt>
      <trkpt lat="47.20349" lon="-1.52751">
        <ele>58</ele>
        <time>2020-09-13T07:23:45.000Z</time>
      </trkpt>
      <trkpt lat="47.20357" lon="-1.52734">
        <ele>58</ele>
        <time>2020-09-13T07:23:47.000Z</time>
      </trkpt>
      <trkpt lat="47.20365" lon="-1.52719">
        <ele>57</ele>
        <time>2020-09-13T07:23:49.000Z</time>
      </trkpt>
      <trkpt lat="47.20374" lon="-1.52704">
        <ele>57</ele>
        <time>2020-09-13T07:23:51.000Z</time>
      </trkpt>
      <trkpt lat="47.20383" lon="-1.52689">
        <ele>57</ele>
        <time>2020-09-13T07:23:53.000Z</time>
      </trkpt>
      <trkpt lat="47.20391" lon="-1.52673">
        <ele>57</ele>
        <time>2020-09-13T07:23:55.000Z</time>
      </trkpt>
      <trkpt lat="47.20398" lon="-1.52655">
        <ele>57</ele>
        <time>2020-09-13T07:23:57.000Z</time>
      </trkpt>
      <trkpt lat="47.20405" lon="-1.52639">
        <ele>57</ele>
        <time>2020-09-13T07:23:59.000Z</time>
      </trkpt>
      <trkpt lat="47.20411" lon="-1.52623">
        <ele>57</ele>
        <time>2020-09-13T07:24:01.000Z</time>
      </trkpt>
      <trkpt lat="47.20416" lon="-1.52604">
        <ele>56</ele>
        <time>2020-09-13T07:24:03.000Z</time>
      </trkpt>
      <trkpt lat="47.20421" lon="-1.52586">
        <ele>56</ele>
        <time>2020-09-13T07:24:05.000Z</time>
      </trkpt>
      <trkpt lat="47.20426" lon="-1.52569">
        <ele>56</ele>
        <time>2020-09-13T07:24:07.000Z</time>
      </trkpt>
      <trkpt lat="47.20434" lon="-1.52544">
        <ele>55</ele>
        <time>2020-09-13T07:24:10.000Z</time>
      </trkpt>
      <trkpt lat="47.2044" lon="-1.52527">
        <ele>56</ele>
        <time>2020-09-13T07:24:12.000Z</time>
      </trkpt>
      <trkpt lat="47.20447" lon="-1.52511">
        <ele>56</ele>
        <time>2020-09-13T07:24:14.000Z</time>
      </trkpt>
      <trkpt lat="47.20453" lon="-1.52496">
        <ele>55</ele>
        <time>2020-09-13T07:24:16.000Z</time>
      </trkpt>
      <trkpt lat="47.20458" lon="-1.52479">
        <ele>55</ele>
        <time>2020-09-13T07:24:18.000Z</time>
      </trkpt>
      <trkpt lat="47.20464" lon="-1.52461">
        <ele>55</ele>
        <time>2020-09-13T07:24:20.000Z</time>
      </trkpt>
      <trkpt lat="47.20469" lon="-1.52444">
        <ele>55</ele>
        <time>2020-09-13T07:24:22.000Z</time>
      </trkpt>
      <trkpt lat="47.20475" lon="-1.52427">
        <ele>56</ele>
        <time>2020-09-13T07:24:24.000Z</time>
      </trkpt>
      <trkpt lat="47.2048" lon="-1.52412">
        <ele>56</ele>
        <time>2020-09-13T07:24:26.000Z</time>
      </trkpt>
      <trkpt lat="47.20485" lon="-1.52398">
        <ele>57</ele>
        <time>2020-09-13T07:24:28.000Z</time>
      </trkpt>
      <trkpt lat="47.20492" lon="-1.5238">
        <ele>58</ele>
        <time>2020-09-13T07:24:31.000Z</time>
      </trkpt>
      <trkpt lat="47.20498" lon="-1.52358">
        <ele>57</ele>
        <time>2020-09-13T07:24:34.000Z</time>
      </trkpt>
      <trkpt lat="47.20502" lon="-1.52342">
        <ele>56</ele>
        <time>2020-09-13T07:24:36.000Z</time>
      </trkpt>
      <trkpt lat="47.20508" lon="-1.52324">
        <ele>56</ele>
        <time>2020-09-13T07:24:38.000Z</time>
      </trkpt>
      <trkpt lat="47.20513" lon="-1.52306">
        <ele>55</ele>
        <time>2020-09-13T07:24:40.000Z</time>
      </trkpt>
      <trkpt lat="47.2052" lon="-1.52289">
        <ele>55</ele>
        <time>2020-09-13T07:24:42.000Z</time>
      </trkpt>
      <trkpt lat="47.20528" lon="-1.52274">
        <ele>55</ele>
        <time>2020-09-13T07:24:44.000Z</time>
      </trkpt>
      <trkpt lat="47.20535" lon="-1.52257">
        <ele>55</ele>
        <time>2020-09-13T07:24:46.000Z</time>
      </trkpt>
      <trkpt lat="47.20541" lon="-1.5224">
        <ele>54</ele>
        <time>2020-09-13T07:24:48.000Z</time>
      </trkpt>
      <trkpt lat="47.20549" lon="-1.52226">
        <ele>54</ele>
        <time>2020-09-13T07:24:50.000Z</time>
      </trkpt>
      <trkpt lat="47.20557" lon="-1.52211">
        <ele>55</ele>
        <time>2020-09-13T07:24:52.000Z</time>
      </trkpt>
      <trkpt lat="47.20566" lon="-1.52195">
        <ele>54</ele>
        <time>2020-09-13T07:24:54.000Z</time>
      </trkpt>
      <trkpt lat="47.20575" lon="-1.52177">
        <ele>54</ele>
        <time>2020-09-13T07:24:56.000Z</time>
      </trkpt>
      <trkpt lat="47.20585" lon="-1.52158">
        <ele>54</ele>
        <time>2020-09-13T07:24:58.000Z</time>
      </trkpt>
      <trkpt lat="47.20595" lon="-1.5214">
        <ele>54</ele>
        <time>2020-09-13T07:25:00.000Z</time>
      </trkpt>
      <trkpt lat="47.20604" lon="-1.52121">
        <ele>54</ele>
        <time>2020-09-13T07:25:02.000Z</time>
      </trkpt>
      <trkpt lat="47.20614" lon="-1.52104">
        <ele>54</ele>
        <time>2020-09-13T07:25:04.000Z</time>
      </trkpt>
      <trkpt lat="47.20624" lon="-1.52087">
        <ele>55</ele>
        <time>2020-09-13T07:25:06.000Z</time>
      </trkpt>
      <trkpt lat="47.20634" lon="-1.52069">
        <ele>55</ele>
        <time>2020-09-13T07:25:08.000Z</time>
      </trkpt>
      <trkpt lat="47.20644" lon="-1.52053">
        <ele>55</ele>
        <time>2020-09-13T07:25:10.000Z</time>
      </trkpt>
      <trkpt lat="47.20655" lon="-1.52038">
        <ele>55</ele>
        <time>2020-09-13T07:25:12.000Z</time>
      </trkpt>
      <trkpt lat="47.20665" lon="-1.52021">
        <ele>55</ele>
        <time>2020-09-13T07:25:14.000Z</time>
      </trkpt>
      <trkpt lat="47.20674" lon="-1.52004">
        <ele>55</ele>
        <time>2020-09-13T07:25:16.000Z</time>
      </trkpt>
      <trkpt lat="47.20683" lon="-1.51987">
        <ele>55</ele>
        <time>2020-09-13T07:25:18.000Z</time>
      </trkpt>
      <trkpt lat="47.20693" lon="-1.51971">
        <ele>55</ele>
        <time>2020-09-13T07:25:20.000Z</time>
      </trkpt>
      <trkpt lat="47.20702" lon="-1.51956">
        <ele>55</ele>
        <time>2020-09-13T07:25:22.000Z</time>
      </trkpt>
      <trkpt lat="47.20711" lon="-1.5194">
        <ele>55</ele>
        <time>2020-09-13T07:25:24.000Z</time>
      </trkpt>
      <trkpt lat="47.20719" lon="-1.51923">
        <ele>54</ele>
        <time>2020-09-13T07:25:26.000Z</time>
      </trkpt>
      <trkpt lat="47.20726" lon="-1.51905">
        <ele>54</ele>
        <time>2020-09-13T07:25:28.000Z</time>
      </trkpt>
      <trkpt lat="47.20733" lon="-1.51888">
        <ele>54</ele>
        <time>2020-09-13T07:25:30.000Z</time>
      </trkpt>
      <trkpt lat="47.20741" lon="-1.51871">
        <ele>55</ele>
        <time>2020-09-13T07:25:32.000Z</time>
      </trkpt>
      <trkpt lat="47.20748" lon="-1.51854">
        <ele>54</ele>
        <time>2020-09-13T07:25:34.000Z</time>
      </trkpt>
      <trkpt lat="47.20756" lon="-1.51837">
        <ele>54</ele>
        <time>2020-09-13T07:25:36.000Z</time>
      </trkpt>
      <trkpt lat="47.20762" lon="-1.51818">
        <ele>54</ele>
        <time>2020-09-13T07:25:38.000Z</time>
      </trkpt>
      <trkpt lat="47.20765" lon="-1.51798">
        <ele>54</ele>
        <time>2020-09-13T07:25:40.000Z</time>
      </trkpt>
      <trkpt lat="47.20769" lon="-1.51778">
        <ele>53</ele>
        <time>2020-09-13T07:25:42.000Z</time>
      </trkpt>
      <trkpt lat="47.20774" lon="-1.51758">
        <ele>53</ele>
        <time>2020-09-13T07:25:44.000Z</time>
      </trkpt>
      <trkpt lat="47.20779" lon="-1.51739">
        <ele>53</ele>
        <time>2020-09-13T07:25:46.000Z</time>
      </trkpt>
      <trkpt lat="47.20784" lon="-1.5172">
        <ele>53</ele>
        <time>2020-09-13T07:25:48.000Z</time>
      </trkpt>
      <trkpt lat="47.20787" lon="-1.51701">
        <ele>53</ele>
        <time>2020-09-13T07:25:50.000Z</time>
      </trkpt>
      <trkpt lat="47.2079" lon="-1.51683">
        <ele>54</ele>
        <time>2020-09-13T07:25:52.000Z</time>
      </trkpt>
      <trkpt lat="47.20793" lon="-1.51664">
        <ele>53</ele>
        <time>2020-09-13T07:25:54.000Z</time>
      </trkpt>
      <trkpt lat="47.20797" lon="-1.51645">
        <ele>53</ele>
        <time>2020-09-13T07:25:56.000Z</time>
      </trkpt>
      <trkpt lat="47.20801" lon="-1.51626">
        <ele>53</ele>
        <time>2020-09-13T07:25:58.000Z</time>
      </trkpt>
      <trkpt lat="47.20804" lon="-1.51607">
        <ele>53</ele>
        <time>2020-09-13T07:26:00.000Z</time>
      </trkpt>
      <trkpt lat="47.20806" lon="-1.51587">
        <ele>53</ele>
        <time>2020-09-13T07:26:02.000Z</time>
      </trkpt>
      <trkpt lat="47.20808" lon="-1.51566">
        <ele>54</ele>
        <time>2020-09-13T07:26:04.000Z</time>
      </trkpt>
      <trkpt lat="47.2081" lon="-1.51546">
        <ele>53</ele>
        <time>2020-09-13T07:26:06.000Z</time>
      </trkpt>
      <trkpt lat="47.20813" lon="-1.51526">
        <ele>54</ele>
        <time>2020-09-13T07:26:08.000Z</time>
      </trkpt>
      <trkpt lat="47.20816" lon="-1.51506">
        <ele>54</ele>
        <time>2020-09-13T07:26:10.000Z</time>
      </trkpt>
      <trkpt lat="47.20821" lon="-1.51487">
        <ele>53</ele>
        <time>2020-09-13T07:26:12.000Z</time>
      </trkpt>
      <trkpt lat="47.20824" lon="-1.51468">
        <ele>53</ele>
        <time>2020-09-13T07:26:14.000Z</time>
      </trkpt>
      <trkpt lat="47.20827" lon="-1.51448">
        <ele>53</ele>
        <time>2020-09-13T07:26:16.000Z</time>
      </trkpt>
      <trkpt lat="47.2083" lon="-1.51427">
        <ele>53</ele>
        <time>2020-09-13T07:26:18.000Z</time>
      </trkpt>
      <trkpt lat="47.20833" lon="-1.51407">
        <ele>54</ele>
        <time>2020-09-13T07:26:20.000Z</time>
      </trkpt>
      <trkpt lat="47.20838" lon="-1.51388">
        <ele>54</ele>
        <time>2020-09-13T07:26:22.000Z</time>
      </trkpt>
      <trkpt lat="47.20843" lon="-1.5137">
        <ele>54</ele>
        <time>2020-09-13T07:26:24.000Z</time>
      </trkpt>
      <trkpt lat="47.20847" lon="-1.51353">
        <ele>54</ele>
        <time>2020-09-13T07:26:26.000Z</time>
      </trkpt>
      <trkpt lat="47.20852" lon="-1.51334">
        <ele>54</ele>
        <time>2020-09-13T07:26:28.000Z</time>
      </trkpt>
      <trkpt lat="47.20859" lon="-1.51316">
        <ele>54</ele>
        <time>2020-09-13T07:26:30.000Z</time>
      </trkpt>
      <trkpt lat="47.20867" lon="-1.51299">
        <ele>54</ele>
        <time>2020-09-13T07:26:32.000Z</time>
      </trkpt>
      <trkpt lat="47.20874" lon="-1.51282">
        <ele>54</ele>
        <time>2020-09-13T07:26:34.000Z</time>
      </trkpt>
      <trkpt lat="47.20882" lon="-1.51266">
        <ele>55</ele>
        <time>2020-09-13T07:26:36.000Z</time>
      </trkpt>
      <trkpt lat="47.20889" lon="-1.51249">
        <ele>55</ele>
        <time>2020-09-13T07:26:38.000Z</time>
      </trkpt>
      <trkpt lat="47.20895" lon="-1.51232">
        <ele>55</ele>
        <time>2020-09-13T07:26:40.000Z</time>
      </trkpt>
      <trkpt lat="47.20901" lon="-1.51214">
        <ele>55</ele>
        <time>2020-09-13T07:26:42.000Z</time>
      </trkpt>
      <trkpt lat="47.20907" lon="-1.51196">
        <ele>56</ele>
        <time>2020-09-13T07:26:44.000Z</time>
      </trkpt>
      <trkpt lat="47.20913" lon="-1.51179">
        <ele>56</ele>
        <time>2020-09-13T07:26:46.000Z</time>
      </trkpt>
      <trkpt lat="47.20919" lon="-1.51161">
        <ele>56</ele>
        <time>2020-09-13T07:26:48.000Z</time>
      </trkpt>
      <trkpt lat="47.20925" lon="-1.51144">
        <ele>56</ele>
        <time>2020-09-13T07:26:50.000Z</time>
      </trkpt>
      <trkpt lat="47.20931" lon="-1.51127">
        <ele>56</ele>
        <time>2020-09-13T07:26:52.000Z</time>
      </trkpt>
      <trkpt lat="47.20937" lon="-1.5111">
        <ele>56</ele>
        <time>2020-09-13T07:26:54.000Z</time>
      </trkpt>
      <trkpt lat="47.20942" lon="-1.51093">
        <ele>56</ele>
        <time>2020-09-13T07:26:56.000Z</time>
      </trkpt>
      <trkpt lat="47.20945" lon="-1.51075">
        <ele>55</ele>
        <time>2020-09-13T07:26:58.000Z</time>
      </trkpt>
      <trkpt lat="47.20948" lon="-1.51055">
        <ele>56</ele>
        <time>2020-09-13T07:27:00.000Z</time>
      </trkpt>
      <trkpt lat="47.20951" lon="-1.51036">
        <ele>56</ele>
        <time>2020-09-13T07:27:02.000Z</time>
      </trkpt>
      <trkpt lat="47.20955" lon="-1.51019">
        <ele>56</ele>
        <time>2020-09-13T07:27:04.000Z</time>
      </trkpt>
      <trkpt lat="47.20961" lon="-1.51003">
        <ele>56</ele>
        <time>2020-09-13T07:27:06.000Z</time>
      </trkpt>
      <trkpt lat="47.20965" lon="-1.50985">
        <ele>56</ele>
        <time>2020-09-13T07:27:08.000Z</time>
      </trkpt>
      <trkpt lat="47.20967" lon="-1.50965">
        <ele>56</ele>
        <time>2020-09-13T07:27:10.000Z</time>
      </trkpt>
      <trkpt lat="47.20969" lon="-1.50946">
        <ele>55</ele>
        <time>2020-09-13T07:27:12.000Z</time>
      </trkpt>
      <trkpt lat="47.20971" lon="-1.50927">
        <ele>54</ele>
        <time>2020-09-13T07:27:14.000Z</time>
      </trkpt>
      <trkpt lat="47.20974" lon="-1.50907">
        <ele>54</ele>
        <time>2020-09-13T07:27:16.000Z</time>
      </trkpt>
      <trkpt lat="47.20976" lon="-1.50888">
        <ele>54</ele>
        <time>2020-09-13T07:27:18.000Z</time>
      </trkpt>
      <trkpt lat="47.20979" lon="-1.50869">
        <ele>54</ele>
        <time>2020-09-13T07:27:20.000Z</time>
      </trkpt>
      <trkpt lat="47.20981" lon="-1.50849">
        <ele>54</ele>
        <time>2020-09-13T07:27:22.000Z</time>
      </trkpt>
      <trkpt lat="47.20983" lon="-1.5083">
        <ele>54</ele>
        <time>2020-09-13T07:27:24.000Z</time>
      </trkpt>
      <trkpt lat="47.20985" lon="-1.5081">
        <ele>54</ele>
        <time>2020-09-13T07:27:26.000Z</time>
      </trkpt>
      <trkpt lat="47.20987" lon="-1.50791">
        <ele>54</ele>
        <time>2020-09-13T07:27:28.000Z</time>
      </trkpt>
      <trkpt lat="47.20989" lon="-1.50772">
        <ele>55</ele>
        <time>2020-09-13T07:27:30.000Z</time>
      </trkpt>
      <trkpt lat="47.20992" lon="-1.50753">
        <ele>55</ele>
        <time>2020-09-13T07:27:32.000Z</time>
      </trkpt>
      <trkpt lat="47.20994" lon="-1.50733">
        <ele>55</ele>
        <time>2020-09-13T07:27:34.000Z</time>
      </trkpt>
      <trkpt lat="47.20995" lon="-1.50715">
        <ele>55</ele>
        <time>2020-09-13T07:27:36.000Z</time>
      </trkpt>
      <trkpt lat="47.20997" lon="-1.50696">
        <ele>55</ele>
        <time>2020-09-13T07:27:38.000Z</time>
      </trkpt>
      <trkpt lat="47.20999" lon="-1.50677">
        <ele>55</ele>
        <time>2020-09-13T07:27:40.000Z</time>
      </trkpt>
      <trkpt lat="47.21" lon="-1.50657">
        <ele>55</ele>
        <time>2020-09-13T07:27:42.000Z</time>
      </trkpt>
      <trkpt lat="47.21001" lon="-1.50637">
        <ele>55</ele>
        <time>2020-09-13T07:27:44.000Z</time>
      </trkpt>
      <trkpt lat="47.21002" lon="-1.50618">
        <ele>55</ele>
        <time>2020-09-13T07:27:46.000Z</time>
      </trkpt>
      <trkpt lat="47.21002" lon="-1.50598">
        <ele>55</ele>
        <time>2020-09-13T07:27:48.000Z</time>
      </trkpt>
      <trkpt lat="47.21002" lon="-1.50578">
        <ele>55</ele>
        <time>2020-09-13T07:27:50.000Z</time>
      </trkpt>
      <trkpt lat="47.21002" lon="-1.50559">
        <ele>55</ele>
        <time>2020-09-13T07:27:52.000Z</time>
      </trkpt>
      <trkpt lat="47.21002" lon="-1.5054">
        <ele>55</ele>
        <time>2020-09-13T07:27:54.000Z</time>
      </trkpt>
      <trkpt lat="47.21002" lon="-1.5052">
        <ele>55</ele>
        <time>2020-09-13T07:27:56.000Z</time>
      </trkpt>
      <trkpt lat="47.21002" lon="-1.50501">
        <ele>55</ele>
        <time>2020-09-13T07:27:58.000Z</time>
      </trkpt>
      <trkpt lat="47.21001" lon="-1.50482">
        <ele>55</ele>
        <time>2020-09-13T07:28:00.000Z</time>
      </trkpt>
      <trkpt lat="47.21001" lon="-1.50463">
        <ele>55</ele>
        <time>2020-09-13T07:28:02.000Z</time>
      </trkpt>
      <trkpt lat="47.21" lon="-1.50443">
        <ele>55</ele>
        <time>2020-09-13T07:28:04.000Z</time>
      </trkpt>
      <trkpt lat="47.21" lon="-1.50423">
        <ele>55</ele>
        <time>2020-09-13T07:28:06.000Z</time>
      </trkpt>
      <trkpt lat="47.21" lon="-1.50403">
        <ele>54</ele>
        <time>2020-09-13T07:28:08.000Z</time>
      </trkpt>
      <trkpt lat="47.20999" lon="-1.50383">
        <ele>55</ele>
        <time>2020-09-13T07:28:10.000Z</time>
      </trkpt>
      <trkpt lat="47.20999" lon="-1.50363">
        <ele>54</ele>
        <time>2020-09-13T07:28:12.000Z</time>
      </trkpt>
      <trkpt lat="47.20999" lon="-1.50344">
        <ele>55</ele>
        <time>2020-09-13T07:28:14.000Z</time>
      </trkpt>
      <trkpt lat="47.20999" lon="-1.50325">
        <ele>55</ele>
        <time>2020-09-13T07:28:16.000Z</time>
      </trkpt>
      <trkpt lat="47.21001" lon="-1.50306">
        <ele>55</ele>
        <time>2020-09-13T07:28:18.000Z</time>
      </trkpt>
      <trkpt lat="47.21002" lon="-1.50288">
        <ele>55</ele>
        <time>2020-09-13T07:28:20.000Z</time>
      </trkpt>
      <trkpt lat="47.21004" lon="-1.50269">
        <ele>55</ele>
        <time>2020-09-13T07:28:22.000Z</time>
      </trkpt>
      <trkpt lat="47.21009" lon="-1.50253">
        <ele>55</ele>
        <time>2020-09-13T07:28:24.000Z</time>
      </trkpt>
      <trkpt lat="47.21016" lon="-1.50239">
        <ele>54</ele>
        <time>2020-09-13T07:28:26.000Z</time>
      </trkpt>
      <trkpt lat="47.21018" lon="-1.50222">
        <ele>55</ele>
        <time>2020-09-13T07:28:28.000Z</time>
      </trkpt>
      <trkpt lat="47.21014" lon="-1.50206">
        <ele>55</ele>
        <time>2020-09-13T07:28:30.000Z</time>
      </trkpt>
      <trkpt lat="47.21015" lon="-1.50187">
        <ele>55</ele>
        <time>2020-09-13T07:28:32.000Z</time>
      </trkpt>
      <trkpt lat="47.21019" lon="-1.50168">
        <ele>56</ele>
        <time>2020-09-13T07:28:34.000Z</time>
      </trkpt>
      <trkpt lat="47.21023" lon="-1.50149">
        <ele>56</ele>
        <time>2020-09-13T07:28:36.000Z</time>
      </trkpt>
      <trkpt lat="47.21027" lon="-1.5013">
        <ele>55</ele>
        <time>2020-09-13T07:28:38.000Z</time>
      </trkpt>
      <trkpt lat="47.21032" lon="-1.50112">
        <ele>56</ele>
        <time>2020-09-13T07:28:40.000Z</time>
      </trkpt>
      <trkpt lat="47.21037" lon="-1.50094">
        <ele>56</ele>
        <time>2020-09-13T07:28:42.000Z</time>
      </trkpt>
      <trkpt lat="47.21041" lon="-1.50077">
        <ele>56</ele>
        <time>2020-09-13T07:28:44.000Z</time>
      </trkpt>
      <trkpt lat="47.21046" lon="-1.5006">
        <ele>55</ele>
        <time>2020-09-13T07:28:46.000Z</time>
      </trkpt>
      <trkpt lat="47.2105" lon="-1.50044">
        <ele>55</ele>
        <time>2020-09-13T07:28:48.000Z</time>
      </trkpt>
      <trkpt lat="47.21054" lon="-1.50027">
        <ele>55</ele>
        <time>2020-09-13T07:28:50.000Z</time>
      </trkpt>
      <trkpt lat="47.21058" lon="-1.50011">
        <ele>55</ele>
        <time>2020-09-13T07:28:52.000Z</time>
      </trkpt>
      <trkpt lat="47.21062" lon="-1.49993">
        <ele>55</ele>
        <time>2020-09-13T07:28:54.000Z</time>
      </trkpt>
      <trkpt lat="47.21067" lon="-1.49977">
        <ele>55</ele>
        <time>2020-09-13T07:28:56.000Z</time>
      </trkpt>
      <trkpt lat="47.21071" lon="-1.49961">
        <ele>55</ele>
        <time>2020-09-13T07:28:58.000Z</time>
      </trkpt>
      <trkpt lat="47.21075" lon="-1.49944">
        <ele>54</ele>
        <time>2020-09-13T07:29:00.000Z</time>
      </trkpt>
      <trkpt lat="47.21079" lon="-1.49928">
        <ele>54</ele>
        <time>2020-09-13T07:29:02.000Z</time>
      </trkpt>
      <trkpt lat="47.21084" lon="-1.49914">
        <ele>54</ele>
        <time>2020-09-13T07:29:04.000Z</time>
      </trkpt>
      <trkpt lat="47.21088" lon="-1.499">
        <ele>54</ele>
        <time>2020-09-13T07:29:06.000Z</time>
      </trkpt>
      <trkpt lat="47.21092" lon="-1.49888">
        <ele>54</ele>
        <time>2020-09-13T07:29:08.000Z</time>
      </trkpt>
      <trkpt lat="47.21096" lon="-1.49876">
        <ele>54</ele>
        <time>2020-09-13T07:29:10.000Z</time>
      </trkpt>
      <trkpt lat="47.21098" lon="-1.4986">
        <ele>54</ele>
        <time>2020-09-13T07:29:12.000Z</time>
      </trkpt>
      <trkpt lat="47.211" lon="-1.49845">
        <ele>55</ele>
        <time>2020-09-13T07:29:14.000Z</time>
      </trkpt>
      <trkpt lat="47.21103" lon="-1.49828">
        <ele>55</ele>
        <time>2020-09-13T07:29:16.000Z</time>
      </trkpt>
      <trkpt lat="47.21107" lon="-1.49811">
        <ele>55</ele>
        <time>2020-09-13T07:29:18.000Z</time>
      </trkpt>
      <trkpt lat="47.21109" lon="-1.49793">
        <ele>55</ele>
        <time>2020-09-13T07:29:20.000Z</time>
      </trkpt>
      <trkpt lat="47.21112" lon="-1.49775">
        <ele>55</ele>
        <time>2020-09-13T07:29:22.000Z</time>
      </trkpt>
      <trkpt lat="47.21114" lon="-1.49756">
        <ele>55</ele>
        <time>2020-09-13T07:29:24.000Z</time>
      </trkpt>
      <trkpt lat="47.21115" lon="-1.49737">
        <ele>55</ele>
        <time>2020-09-13T07:29:26.000Z</time>
      </trkpt>
      <trkpt lat="47.21117" lon="-1.49716">
        <ele>55</ele>
        <time>2020-09-13T07:29:28.000Z</time>
      </trkpt>
      <trkpt lat="47.21118" lon="-1.49696">
        <ele>55</ele>
        <time>2020-09-13T07:29:30.000Z</time>
      </trkpt>
      <trkpt lat="47.2112" lon="-1.49674">
        <ele>55</ele>
        <time>2020-09-13T07:29:32.000Z</time>
      </trkpt>
      <trkpt lat="47.21121" lon="-1.49649">
        <ele>55</ele>
        <time>2020-09-13T07:29:34.000Z</time>
      </trkpt>
      <trkpt lat="47.21123" lon="-1.49625">
        <ele>55</ele>
        <time>2020-09-13T07:29:36.000Z</time>
      </trkpt>
      <trkpt lat="47.21127" lon="-1.49603">
        <ele>55</ele>
        <time>2020-09-13T07:29:38.000Z</time>
      </trkpt>
      <trkpt lat="47.21136" lon="-1.49584">
        <ele>55</ele>
        <time>2020-09-13T07:29:40.000Z</time>
      </trkpt>
      <trkpt lat="47.21134" lon="-1.49561">
        <ele>55</ele>
        <time>2020-09-13T07:29:42.000Z</time>
      </trkpt>
      <trkpt lat="47.21127" lon="-1.49542">
        <ele>55</ele>
        <time>2020-09-13T07:29:44.000Z</time>
      </trkpt>
      <trkpt lat="47.21125" lon="-1.4952">
        <ele>55</ele>
        <time>2020-09-13T07:29:46.000Z</time>
      </trkpt>
      <trkpt lat="47.21125" lon="-1.49497">
        <ele>55</ele>
        <time>2020-09-13T07:29:48.000Z</time>
      </trkpt>
      <trkpt lat="47.21126" lon="-1.49473">
        <ele>55</ele>
        <time>2020-09-13T07:29:50.000Z</time>
      </trkpt>
      <trkpt lat="47.21126" lon="-1.4945">
        <ele>55</ele>
        <time>2020-09-13T07:29:52.000Z</time>
      </trkpt>
      <trkpt lat="47.21127" lon="-1.49426">
        <ele>54</ele>
        <time>2020-09-13T07:29:54.000Z</time>
      </trkpt>
      <trkpt lat="47.21128" lon="-1.49403">
        <ele>55</ele>
        <time>2020-09-13T07:29:56.000Z</time>
      </trkpt>
      <trkpt lat="47.21129" lon="-1.49381">
        <ele>54</ele>
        <time>2020-09-13T07:29:58.000Z</time>
      </trkpt>
      <trkpt lat="47.2113" lon="-1.49358">
        <ele>55</ele>
        <time>2020-09-13T07:30:00.000Z</time>
      </trkpt>
      <trkpt lat="47.21131" lon="-1.49335">
        <ele>55</ele>
        <time>2020-09-13T07:30:02.000Z</time>
      </trkpt>
      <trkpt lat="47.21133" lon="-1.49313">
        <ele>54</ele>
        <time>2020-09-13T07:30:04.000Z</time>
      </trkpt>
      <trkpt lat="47.21134" lon="-1.49292">
        <ele>55</ele>
        <time>2020-09-13T07:30:06.000Z</time>
      </trkpt>
      <trkpt lat="47.21134" lon="-1.4927">
        <ele>55</ele>
        <time>2020-09-13T07:30:08.000Z</time>
      </trkpt>
      <trkpt lat="47.21136" lon="-1.49248">
        <ele>55</ele>
        <time>2020-09-13T07:30:10.000Z</time>
      </trkpt>
      <trkpt lat="47.21138" lon="-1.49226">
        <ele>55</ele>
        <time>2020-09-13T07:30:12.000Z</time>
      </trkpt>
      <trkpt lat="47.2114" lon="-1.49204">
        <ele>55</ele>
        <time>2020-09-13T07:30:14.000Z</time>
      </trkpt>
      <trkpt lat="47.21142" lon="-1.49182">
        <ele>55</ele>
        <time>2020-09-13T07:30:16.000Z</time>
      </trkpt>
      <trkpt lat="47.21144" lon="-1.49161">
        <ele>55</ele>
        <time>2020-09-13T07:30:18.000Z</time>
      </trkpt>
      <trkpt lat="47.21147" lon="-1.4914">
        <ele>55</ele>
        <time>2020-09-13T07:30:20.000Z</time>
      </trkpt>
      <trkpt lat="47.2115" lon="-1.49119">
        <ele>55</ele>
        <time>2020-09-13T07:30:22.000Z</time>
      </trkpt>
      <trkpt lat="47.21155" lon="-1.491">
        <ele>55</ele>
        <time>2020-09-13T07:30:24.000Z</time>
      </trkpt>
      <trkpt lat="47.21161" lon="-1.49082">
        <ele>55</ele>
        <time>2020-09-13T07:30:26.000Z</time>
      </trkpt>
      <trkpt lat="47.21157" lon="-1.49063">
        <ele>55</ele>
        <time>2020-09-13T07:30:28.000Z</time>
      </trkpt>
      <trkpt lat="47.21152" lon="-1.49045">
        <ele>55</ele>
        <time>2020-09-13T07:30:30.000Z</time>
      </trkpt>
      <trkpt lat="47.21155" lon="-1.49024">
        <ele>55</ele>
        <time>2020-09-13T07:30:32.000Z</time>
      </trkpt>
      <trkpt lat="47.21158" lon="-1.49003">
        <ele>55</ele>
        <time>2020-09-13T07:30:34.000Z</time>
      </trkpt>
      <trkpt lat="47.21161" lon="-1.48982">
        <ele>56</ele>
        <time>2020-09-13T07:30:36.000Z</time>
      </trkpt>
      <trkpt lat="47.21164" lon="-1.48961">
        <ele>58</ele>
        <time>2020-09-13T07:30:38.000Z</time>
      </trkpt>
      <trkpt lat="47.21168" lon="-1.48941">
        <ele>58</ele>
        <time>2020-09-13T07:30:40.000Z</time>
      </trkpt>
      <trkpt lat="47.21171" lon="-1.48921">
        <ele>58</ele>
        <time>2020-09-13T07:30:42.000Z</time>
      </trkpt>
      <trkpt lat="47.21176" lon="-1.48902">
        <ele>57</ele>
        <time>2020-09-13T07:30:44.000Z</time>
      </trkpt>
      <trkpt lat="47.21181" lon="-1.48882">
        <ele>57</ele>
        <time>2020-09-13T07:30:46.000Z</time>
      </trkpt>
      <trkpt lat="47.21185" lon="-1.48862">
        <ele>57</ele>
        <time>2020-09-13T07:30:48.000Z</time>
      </trkpt>
      <trkpt lat="47.21188" lon="-1.48842">
        <ele>57</ele>
        <time>2020-09-13T07:30:50.000Z</time>
      </trkpt>
      <trkpt lat="47.21191" lon="-1.48821">
        <ele>57</ele>
        <time>2020-09-13T07:30:52.000Z</time>
      </trkpt>
      <trkpt lat="47.21196" lon="-1.488">
        <ele>57</ele>
        <time>2020-09-13T07:30:54.000Z</time>
      </trkpt>
      <trkpt lat="47.212" lon="-1.4878">
        <ele>56</ele>
        <time>2020-09-13T07:30:56.000Z</time>
      </trkpt>
      <trkpt lat="47.21205" lon="-1.4876">
        <ele>56</ele>
        <time>2020-09-13T07:30:58.000Z</time>
      </trkpt>
      <trkpt lat="47.2121" lon="-1.4874">
        <ele>56</ele>
        <time>2020-09-13T07:31:00.000Z</time>
      </trkpt>
      <trkpt lat="47.21215" lon="-1.4872">
        <ele>56</ele>
        <time>2020-09-13T07:31:02.000Z</time>
      </trkpt>
      <trkpt lat="47.2122" lon="-1.48701">
        <ele>55</ele>
        <time>2020-09-13T07:31:04.000Z</time>
      </trkpt>
      <trkpt lat="47.21225" lon="-1.48682">
        <ele>56</ele>
        <time>2020-09-13T07:31:06.000Z</time>
      </trkpt>
      <trkpt lat="47.2123" lon="-1.48662">
        <ele>56</ele>
        <time>2020-09-13T07:31:08.000Z</time>
      </trkpt>
      <trkpt lat="47.21235" lon="-1.48643">
        <ele>56</ele>
        <time>2020-09-13T07:31:10.000Z</time>
      </trkpt>
      <trkpt lat="47.2124" lon="-1.48623">
        <ele>56</ele>
        <time>2020-09-13T07:31:12.000Z</time>
      </trkpt>
      <trkpt lat="47.21246" lon="-1.48604">
        <ele>56</ele>
        <time>2020-09-13T07:31:14.000Z</time>
      </trkpt>
      <trkpt lat="47.2125" lon="-1.48584">
        <ele>56</ele>
        <time>2020-09-13T07:31:16.000Z</time>
      </trkpt>
      <trkpt lat="47.21255" lon="-1.48566">
        <ele>55</ele>
        <time>2020-09-13T07:31:18.000Z</time>
      </trkpt>
      <trkpt lat="47.21261" lon="-1.48547">
        <ele>55</ele>
        <time>2020-09-13T07:31:20.000Z</time>
      </trkpt>
      <trkpt lat="47.21267" lon="-1.48529">
        <ele>55</ele>
        <time>2020-09-13T07:31:22.000Z</time>
      </trkpt>
      <trkpt lat="47.21278" lon="-1.48519">
        <ele>55</ele>
        <time>2020-09-13T07:31:24.000Z</time>
      </trkpt>
      <trkpt lat="47.21292" lon="-1.48511">
        <ele>54</ele>
        <time>2020-09-13T07:31:26.000Z</time>
      </trkpt>
      <trkpt lat="47.21298" lon="-1.48491">
        <ele>54</ele>
        <time>2020-09-13T07:31:28.000Z</time>
      </trkpt>
      <trkpt lat="47.213" lon="-1.4847">
        <ele>54</ele>
        <time>2020-09-13T07:31:30.000Z</time>
      </trkpt>
      <trkpt lat="47.21304" lon="-1.48449">
        <ele>53</ele>
        <time>2020-09-13T07:31:32.000Z</time>
      </trkpt>
      <trkpt lat="47.21309" lon="-1.48429">
        <ele>53</ele>
        <time>2020-09-13T07:31:34.000Z</time>
      </trkpt>
      <trkpt lat="47.21315" lon="-1.48409">
        <ele>53</ele>
        <time>2020-09-13T07:31:36.000Z</time>
      </trkpt>
      <trkpt lat="47.21321" lon="-1.48389">
        <ele>53</ele>
        <time>2020-09-13T07:31:38.000Z</time>
      </trkpt>
      <trkpt lat="47.21328" lon="-1.4837">
        <ele>53</ele>
        <time>2020-09-13T07:31:40.000Z</time>
      </trkpt>
      <trkpt lat="47.21334" lon="-1.4835">
        <ele>53</ele>
        <time>2020-09-13T07:31:42.000Z</time>
      </trkpt>
      <trkpt lat="47.2134" lon="-1.48331">
        <ele>53</ele>
        <time>2020-09-13T07:31:44.000Z</time>
      </trkpt>
      <trkpt lat="47.21346" lon="-1.48311">
        <ele>53</ele>
        <time>2020-09-13T07:31:46.000Z</time>
      </trkpt>
      <trkpt lat="47.21353" lon="-1.48292">
        <ele>53</ele>
        <time>2020-09-13T07:31:48.000Z</time>
      </trkpt>
      <trkpt lat="47.21359" lon="-1.48273">
        <ele>53</ele>
        <time>2020-09-13T07:31:50.000Z</time>
      </trkpt>
      <trkpt lat="47.21365" lon="-1.48253">
        <ele>53</ele>
        <time>2020-09-13T07:31:52.000Z</time>
      </trkpt>
      <trkpt lat="47.21372" lon="-1.48234">
        <ele>53</ele>
        <time>2020-09-13T07:31:54.000Z</time>
      </trkpt>
      <trkpt lat="47.21379" lon="-1.48215">
        <ele>53</ele>
        <time>2020-09-13T07:31:56.000Z</time>
      </trkpt>
      <trkpt lat="47.21387" lon="-1.48197">
        <ele>53</ele>
        <time>2020-09-13T07:31:58.000Z</time>
      </trkpt>
      <trkpt lat="47.21396" lon="-1.48179">
        <ele>53</ele>
        <time>2020-09-13T07:32:00.000Z</time>
      </trkpt>
      <trkpt lat="47.21404" lon="-1.48162">
        <ele>54</ele>
        <time>2020-09-13T07:32:02.000Z</time>
      </trkpt>
      <trkpt lat="47.21413" lon="-1.48144">
        <ele>53</ele>
        <time>2020-09-13T07:32:04.000Z</time>
      </trkpt>
      <trkpt lat="47.21422" lon="-1.48128">
        <ele>54</ele>
        <time>2020-09-13T07:32:06.000Z</time>
      </trkpt>
      <trkpt lat="47.21431" lon="-1.48111">
        <ele>54</ele>
        <time>2020-09-13T07:32:08.000Z</time>
      </trkpt>
      <trkpt lat="47.2144" lon="-1.48094">
        <ele>54</ele>
        <time>2020-09-13T07:32:10.000Z</time>
      </trkpt>
      <trkpt lat="47.2145" lon="-1.48078">
        <ele>54</ele>
        <time>2020-09-13T07:32:12.000Z</time>
      </trkpt>
      <trkpt lat="47.2146" lon="-1.48062">
        <ele>54</ele>
        <time>2020-09-13T07:32:14.000Z</time>
      </trkpt>
      <trkpt lat="47.21471" lon="-1.48048">
        <ele>54</ele>
        <time>2020-09-13T07:32:16.000Z</time>
      </trkpt>
      <trkpt lat="47.21483" lon="-1.48034">
        <ele>54</ele>
        <time>2020-09-13T07:32:18.000Z</time>
      </trkpt>
      <trkpt lat="47.21494" lon="-1.48021">
        <ele>54</ele>
        <time>2020-09-13T07:32:20.000Z</time>
      </trkpt>
      <trkpt lat="47.21505" lon="-1.48008">
        <ele>54</ele>
        <time>2020-09-13T07:32:22.000Z</time>
      </trkpt>
      <trkpt lat="47.21516" lon="-1.47995">
        <ele>55</ele>
        <time>2020-09-13T07:32:24.000Z</time>
      </trkpt>
      <trkpt lat="47.21527" lon="-1.47984">
        <ele>56</ele>
        <time>2020-09-13T07:32:26.000Z</time>
      </trkpt>
      <trkpt lat="47.21538" lon="-1.47972">
        <ele>56</ele>
        <time>2020-09-13T07:32:28.000Z</time>
      </trkpt>
      <trkpt lat="47.21549" lon="-1.47961">
        <ele>56</ele>
        <time>2020-09-13T07:32:30.000Z</time>
      </trkpt>
      <trkpt lat="47.2156" lon="-1.4795">
        <ele>56</ele>
        <time>2020-09-13T07:32:32.000Z</time>
      </trkpt>
      <trkpt lat="47.21572" lon="-1.47939">
        <ele>56</ele>
        <time>2020-09-13T07:32:34.000Z</time>
      </trkpt>
      <trkpt lat="47.21583" lon="-1.47928">
        <ele>56</ele>
        <time>2020-09-13T07:32:36.000Z</time>
      </trkpt>
      <trkpt lat="47.21595" lon="-1.47917">
        <ele>56</ele>
        <time>2020-09-13T07:32:38.000Z</time>
      </trkpt>
      <trkpt lat="47.21607" lon="-1.47906">
        <ele>56</ele>
        <time>2020-09-13T07:32:40.000Z</time>
      </trkpt>
      <trkpt lat="47.21618" lon="-1.47896">
        <ele>56</ele>
        <time>2020-09-13T07:32:42.000Z</time>
      </trkpt>
      <trkpt lat="47.21629" lon="-1.47885">
        <ele>57</ele>
        <time>2020-09-13T07:32:44.000Z</time>
      </trkpt>
      <trkpt lat="47.21641" lon="-1.47874">
        <ele>56</ele>
        <time>2020-09-13T07:32:46.000Z</time>
      </trkpt>
      <trkpt lat="47.21653" lon="-1.47863">
        <ele>56</ele>
        <time>2020-09-13T07:32:48.000Z</time>
      </trkpt>
      <trkpt lat="47.21666" lon="-1.47852">
        <ele>56</ele>
        <time>2020-09-13T07:32:50.000Z</time>
      </trkpt>
      <trkpt lat="47.21678" lon="-1.47841">
        <ele>57</ele>
        <time>2020-09-13T07:32:52.000Z</time>
      </trkpt>
      <trkpt lat="47.2169" lon="-1.4783">
        <ele>56</ele>
        <time>2020-09-13T07:32:54.000Z</time>
      </trkpt>
      <trkpt lat="47.21701" lon="-1.4782">
        <ele>56</ele>
        <time>2020-09-13T07:32:56.000Z</time>
      </trkpt>
      <trkpt lat="47.21713" lon="-1.47808">
        <ele>56</ele>
        <time>2020-09-13T07:32:58.000Z</time>
      </trkpt>
      <trkpt lat="47.21725" lon="-1.47798">
        <ele>56</ele>
        <time>2020-09-13T07:33:00.000Z</time>
      </trkpt>
      <trkpt lat="47.21736" lon="-1.47787">
        <ele>57</ele>
        <time>2020-09-13T07:33:02.000Z</time>
      </trkpt>
      <trkpt lat="47.21748" lon="-1.47777">
        <ele>56</ele>
        <time>2020-09-13T07:33:04.000Z</time>
      </trkpt>
      <trkpt lat="47.2176" lon="-1.47767">
        <ele>56</ele>
        <time>2020-09-13T07:33:06.000Z</time>
      </trkpt>
      <trkpt lat="47.21772" lon="-1.47755">
        <ele>56</ele>
        <time>2020-09-13T07:33:08.000Z</time>
      </trkpt>
      <trkpt lat="47.21784" lon="-1.47745">
        <ele>56</ele>
        <time>2020-09-13T07:33:10.000Z</time>
      </trkpt>
      <trkpt lat="47.21797" lon="-1.47736">
        <ele>57</ele>
        <time>2020-09-13T07:33:12.000Z</time>
      </trkpt>
      <trkpt lat="47.21809" lon="-1.47727">
        <ele>57</ele>
        <time>2020-09-13T07:33:14.000Z</time>
      </trkpt>
      <trkpt lat="47.21822" lon="-1.47717">
        <ele>56</ele>
        <time>2020-09-13T07:33:16.000Z</time>
      </trkpt>
      <trkpt lat="47.21834" lon="-1.47706">
        <ele>56</ele>
        <time>2020-09-13T07:33:18.000Z</time>
      </trkpt>
      <trkpt lat="47.21847" lon="-1.47696">
        <ele>56</ele>
        <time>2020-09-13T07:33:20.000Z</time>
      </trkpt>
      <trkpt lat="47.21859" lon="-1.47684">
        <ele>55</ele>
        <time>2020-09-13T07:33:22.000Z</time>
      </trkpt>
      <trkpt lat="47.21872" lon="-1.47672">
        <ele>55</ele>
        <time>2020-09-13T07:33:24.000Z</time>
      </trkpt>
      <trkpt lat="47.21884" lon="-1.4766">
        <ele>55</ele>
        <time>2020-09-13T07:33:26.000Z</time>
      </trkpt>
      <trkpt lat="47.21897" lon="-1.47649">
        <ele>55</ele>
        <time>2020-09-13T07:33:28.000Z</time>
      </trkpt>
      <trkpt lat="47.21909" lon="-1.47637">
        <ele>55</ele>
        <time>2020-09-13T07:33:30.000Z</time>
      </trkpt>
      <trkpt lat="47.21922" lon="-1.47626">
        <ele>54</ele>
        <time>2020-09-13T07:33:32.000Z</time>
      </trkpt>
      <trkpt lat="47.21933" lon="-1.47615">
        <ele>55</ele>
        <time>2020-09-13T07:33:34.000Z</time>
      </trkpt>
      <trkpt lat="47.21945" lon="-1.47604">
        <ele>55</ele>
        <time>2020-09-13T07:33:36.000Z</time>
      </trkpt>
      <trkpt lat="47.21957" lon="-1.47593">
        <ele>55</ele>
        <time>2020-09-13T07:33:38.000Z</time>
      </trkpt>
      <trkpt lat="47.2197" lon="-1.47582">
        <ele>55</ele>
        <time>2020-09-13T07:33:40.000Z</time>
      </trkpt>
      <trkpt lat="47.21982" lon="-1.4757">
        <ele>55</ele>
        <time>2020-09-13T07:33:42.000Z</time>
      </trkpt>
      <trkpt lat="47.21994" lon="-1.47559">
        <ele>54</ele>
        <time>2020-09-13T07:33:44.000Z</time>
      </trkpt>
      <trkpt lat="47.22007" lon="-1.47547">
        <ele>54</ele>
        <time>2020-09-13T07:33:46.000Z</time>
      </trkpt>
      <trkpt lat="47.22019" lon="-1.47537">
        <ele>55</ele>
        <time>2020-09-13T07:33:48.000Z</time>
      </trkpt>
      <trkpt lat="47.22031" lon="-1.47526">
        <ele>54</ele>
        <time>2020-09-13T07:33:50.000Z</time>
      </trkpt>
      <trkpt lat="47.22042" lon="-1.47515">
        <ele>55</ele>
        <time>2020-09-13T07:33:52.000Z</time>
      </trkpt>
      <trkpt lat="47.22054" lon="-1.47504">
        <ele>55</ele>
        <time>2020-09-13T07:33:54.000Z</time>
      </trkpt>
      <trkpt lat="47.22066" lon="-1.47493">
        <ele>55</ele>
        <time>2020-09-13T07:33:56.000Z</time>
      </trkpt>
      <trkpt lat="47.22078" lon="-1.47482">
        <ele>55</ele>
        <time>2020-09-13T07:33:58.000Z</time>
      </trkpt>
      <trkpt lat="47.22091" lon="-1.47472">
        <ele>55</ele>
        <time>2020-09-13T07:34:00.000Z</time>
      </trkpt>
      <trkpt lat="47.22103" lon="-1.47462">
        <ele>55</ele>
        <time>2020-09-13T07:34:02.000Z</time>
      </trkpt>
      <trkpt lat="47.22115" lon="-1.47452">
        <ele>55</ele>
        <time>2020-09-13T07:34:04.000Z</time>
      </trkpt>
      <trkpt lat="47.22127" lon="-1.47442">
        <ele>55</ele>
        <time>2020-09-13T07:34:06.000Z</time>
      </trkpt>
      <trkpt lat="47.22138" lon="-1.47433">
        <ele>55</ele>
        <time>2020-09-13T07:34:08.000Z</time>
      </trkpt>
      <trkpt lat="47.22149" lon="-1.47425">
        <ele>55</ele>
        <time>2020-09-13T07:34:10.000Z</time>
      </trkpt>
      <trkpt lat="47.22159" lon="-1.47417">
        <ele>55</ele>
        <time>2020-09-13T07:34:12.000Z</time>
      </trkpt>
      <trkpt lat="47.2217" lon="-1.47409">
        <ele>55</ele>
        <time>2020-09-13T07:34:14.000Z</time>
      </trkpt>
      <trkpt lat="47.22181" lon="-1.47399">
        <ele>55</ele>
        <time>2020-09-13T07:34:16.000Z</time>
      </trkpt>
      <trkpt lat="47.22193" lon="-1.47388">
        <ele>55</ele>
        <time>2020-09-13T07:34:18.000Z</time>
      </trkpt>
      <trkpt lat="47.22205" lon="-1.47377">
        <ele>54</ele>
        <time>2020-09-13T07:34:20.000Z</time>
      </trkpt>
      <trkpt lat="47.22218" lon="-1.47368">
        <ele>54</ele>
        <time>2020-09-13T07:34:22.000Z</time>
      </trkpt>
      <trkpt lat="47.22231" lon="-1.47359">
        <ele>54</ele>
        <time>2020-09-13T07:34:24.000Z</time>
      </trkpt>
      <trkpt lat="47.22244" lon="-1.4735">
        <ele>54</ele>
        <time>2020-09-13T07:34:26.000Z</time>
      </trkpt>
      <trkpt lat="47.22257" lon="-1.47341">
        <ele>55</ele>
        <time>2020-09-13T07:34:28.000Z</time>
      </trkpt>
      <trkpt lat="47.2227" lon="-1.47332">
        <ele>55</ele>
        <time>2020-09-13T07:34:30.000Z</time>
      </trkpt>
      <trkpt lat="47.22282" lon="-1.47321">
        <ele>55</ele>
        <time>2020-09-13T07:34:32.000Z</time>
      </trkpt>
      <trkpt lat="47.22295" lon="-1.47311">
        <ele>55</ele>
        <time>2020-09-13T07:34:34.000Z</time>
      </trkpt>
      <trkpt lat="47.22307" lon="-1.47301">
        <ele>54</ele>
        <time>2020-09-13T07:34:36.000Z</time>
      </trkpt>
      <trkpt lat="47.2232" lon="-1.4729">
        <ele>54</ele>
        <time>2020-09-13T07:34:38.000Z</time>
      </trkpt>
      <trkpt lat="47.22333" lon="-1.4728">
        <ele>54</ele>
        <time>2020-09-13T07:34:40.000Z</time>
      </trkpt>
      <trkpt lat="47.22345" lon="-1.47269">
        <ele>54</ele>
        <time>2020-09-13T07:34:42.000Z</time>
      </trkpt>
      <trkpt lat="47.22358" lon="-1.47258">
        <ele>54</ele>
        <time>2020-09-13T07:34:44.000Z</time>
      </trkpt>
      <trkpt lat="47.2237" lon="-1.47248">
        <ele>55</ele>
        <time>2020-09-13T07:34:46.000Z</time>
      </trkpt>
      <trkpt lat="47.22381" lon="-1.47237">
        <ele>54</ele>
        <time>2020-09-13T07:34:48.000Z</time>
      </trkpt>
      <trkpt lat="47.22392" lon="-1.47225">
        <ele>54</ele>
        <time>2020-09-13T07:34:50.000Z</time>
      </trkpt>
      <trkpt lat="47.22403" lon="-1.47213">
        <ele>55</ele>
        <time>2020-09-13T07:34:52.000Z</time>
      </trkpt>
      <trkpt lat="47.22415" lon="-1.472">
        <ele>55</ele>
        <time>2020-09-13T07:34:54.000Z</time>
      </trkpt>
      <trkpt lat="47.22426" lon="-1.47188">
        <ele>55</ele>
        <time>2020-09-13T07:34:56.000Z</time>
      </trkpt>
      <trkpt lat="47.22437" lon="-1.47177">
        <ele>56</ele>
        <time>2020-09-13T07:34:58.000Z</time>
      </trkpt>
      <trkpt lat="47.22449" lon="-1.47167">
        <ele>56</ele>
        <time>2020-09-13T07:35:00.000Z</time>
      </trkpt>
      <trkpt lat="47.22459" lon="-1.47157">
        <ele>56</ele>
        <time>2020-09-13T07:35:02.000Z</time>
      </trkpt>
      <trkpt lat="47.22472" lon="-1.47147">
        <ele>56</ele>
        <time>2020-09-13T07:35:04.000Z</time>
      </trkpt>
      <trkpt lat="47.22484" lon="-1.4714">
        <ele>57</ele>
        <time>2020-09-13T07:35:06.000Z</time>
      </trkpt>
      <trkpt lat="47.22498" lon="-1.47135">
        <ele>57</ele>
        <time>2020-09-13T07:35:08.000Z</time>
      </trkpt>
      <trkpt lat="47.22512" lon="-1.47131">
        <ele>57</ele>
        <time>2020-09-13T07:35:10.000Z</time>
      </trkpt>
      <trkpt lat="47.22526" lon="-1.47128">
        <ele>56</ele>
        <time>2020-09-13T07:35:12.000Z</time>
      </trkpt>
      <trkpt lat="47.2254" lon="-1.47125">
        <ele>56</ele>
        <time>2020-09-13T07:35:14.000Z</time>
      </trkpt>
      <trkpt lat="47.22555" lon="-1.47123">
        <ele>55</ele>
        <time>2020-09-13T07:35:16.000Z</time>
      </trkpt>
      <trkpt lat="47.22569" lon="-1.47117">
        <ele>55</ele>
        <time>2020-09-13T07:35:18.000Z</time>
      </trkpt>
      <trkpt lat="47.22582" lon="-1.47109">
        <ele>55</ele>
        <time>2020-09-13T07:35:20.000Z</time>
      </trkpt>
      <trkpt lat="47.22594" lon="-1.47095">
        <ele>54</ele>
        <time>2020-09-13T07:35:22.000Z</time>
      </trkpt>
      <trkpt lat="47.22605" lon="-1.4708">
        <ele>54</ele>
        <time>2020-09-13T07:35:24.000Z</time>
      </trkpt>
      <trkpt lat="47.22613" lon="-1.47063">
        <ele>54</ele>
        <time>2020-09-13T07:35:26.000Z</time>
      </trkpt>
      <trkpt lat="47.22622" lon="-1.47047">
        <ele>54</ele>
        <time>2020-09-13T07:35:28.000Z</time>
      </trkpt>
      <trkpt lat="47.22632" lon="-1.47032">
        <ele>54</ele>
        <time>2020-09-13T07:35:30.000Z</time>
      </trkpt>
      <trkpt lat="47.22642" lon="-1.47018">
        <ele>54</ele>
        <time>2020-09-13T07:35:32.000Z</time>
      </trkpt>
      <trkpt lat="47.22653" lon="-1.47006">
        <ele>54</ele>
        <time>2020-09-13T07:35:34.000Z</time>
      </trkpt>
      <trkpt lat="47.22665" lon="-1.46994">
        <ele>55</ele>
        <time>2020-09-13T07:35:36.000Z</time>
      </trkpt>
      <trkpt lat="47.22677" lon="-1.46984">
        <ele>55</ele>
        <time>2020-09-13T07:35:38.000Z</time>
      </trkpt>
      <trkpt lat="47.22689" lon="-1.46976">
        <ele>54</ele>
        <time>2020-09-13T07:35:40.000Z</time>
      </trkpt>
      <trkpt lat="47.22701" lon="-1.46968">
        <ele>55</ele>
        <time>2020-09-13T07:35:42.000Z</time>
      </trkpt>
      <trkpt lat="47.22715" lon="-1.46963">
        <ele>54</ele>
        <time>2020-09-13T07:35:44.000Z</time>
      </trkpt>
      <trkpt lat="47.22729" lon="-1.46958">
        <ele>54</ele>
        <time>2020-09-13T07:35:46.000Z</time>
      </trkpt>
      <trkpt lat="47.22742" lon="-1.46956">
        <ele>54</ele>
        <time>2020-09-13T07:35:48.000Z</time>
      </trkpt>
      <trkpt lat="47.22756" lon="-1.46955">
        <ele>54</ele>
        <time>2020-09-13T07:35:50.000Z</time>
      </trkpt>
      <trkpt lat="47.2277" lon="-1.46955">
        <ele>54</ele>
        <time>2020-09-13T07:35:52.000Z</time>
      </trkpt>
      <trkpt lat="47.22784" lon="-1.46957">
        <ele>54</ele>
        <time>2020-09-13T07:35:54.000Z</time>
      </trkpt>
      <trkpt lat="47.22797" lon="-1.46959">
        <ele>54</ele>
        <time>2020-09-13T07:35:56.000Z</time>
      </trkpt>
      <trkpt lat="47.22811" lon="-1.46964">
        <ele>54</ele>
        <time>2020-09-13T07:35:58.000Z</time>
      </trkpt>
      <trkpt lat="47.22824" lon="-1.4697">
        <ele>54</ele>
        <time>2020-09-13T07:36:00.000Z</time>
      </trkpt>
      <trkpt lat="47.22837" lon="-1.46977">
        <ele>54</ele>
        <time>2020-09-13T07:36:02.000Z</time>
      </trkpt>
      <trkpt lat="47.2285" lon="-1.46983">
        <ele>54</ele>
        <time>2020-09-13T07:36:04.000Z</time>
      </trkpt>
      <trkpt lat="47.22862" lon="-1.4699">
        <ele>55</ele>
        <time>2020-09-13T07:36:06.000Z</time>
      </trkpt>
      <trkpt lat="47.22875" lon="-1.46997">
        <ele>55</ele>
        <time>2020-09-13T07:36:08.000Z</time>
      </trkpt>
      <trkpt lat="47.22888" lon="-1.47002">
        <ele>54</ele>
        <time>2020-09-13T07:36:10.000Z</time>
      </trkpt>
      <trkpt lat="47.22901" lon="-1.46999">
        <ele>54</ele>
        <time>2020-09-13T07:36:12.000Z</time>
      </trkpt>
      <trkpt lat="47.2291" lon="-1.46984">
        <ele>54</ele>
        <time>2020-09-13T07:36:14.000Z</time>
      </trkpt>
      <trkpt lat="47.22915" lon="-1.46963">
        <ele>54</ele>
        <time>2020-09-13T07:36:16.000Z</time>
      </trkpt>
      <trkpt lat="47.2292" lon="-1.46944">
        <ele>53</ele>
        <time>2020-09-13T07:36:18.000Z</time>
      </trkpt>
      <trkpt lat="47.22925" lon="-1.46925">
        <ele>53</ele>
        <time>2020-09-13T07:36:20.000Z</time>
      </trkpt>
      <trkpt lat="47.2293" lon="-1.46906">
        <ele>53</ele>
        <time>2020-09-13T07:36:22.000Z</time>
      </trkpt>
      <trkpt lat="47.22934" lon="-1.46887">
        <ele>53</ele>
        <time>2020-09-13T07:36:24.000Z</time>
      </trkpt>
      <trkpt lat="47.22938" lon="-1.46867">
        <ele>53</ele>
        <time>2020-09-13T07:36:26.000Z</time>
      </trkpt>
      <trkpt lat="47.22943" lon="-1.46848">
        <ele>54</ele>
        <time>2020-09-13T07:36:28.000Z</time>
      </trkpt>
      <trkpt lat="47.22952" lon="-1.46835">
        <ele>54</ele>
        <time>2020-09-13T07:36:30.000Z</time>
      </trkpt>
      <trkpt lat="47.22966" lon="-1.46825">
        <ele>54</ele>
        <time>2020-09-13T07:36:32.000Z</time>
      </trkpt>
      <trkpt lat="47.22973" lon="-1.46808">
        <ele>54</ele>
        <time>2020-09-13T07:36:34.000Z</time>
      </trkpt>
      <trkpt lat="47.22979" lon="-1.46789">
        <ele>55</ele>
        <time>2020-09-13T07:36:36.000Z</time>
      </trkpt>
      <trkpt lat="47.22986" lon="-1.46775">
        <ele>55</ele>
        <time>2020-09-13T07:36:38.000Z</time>
      </trkpt>
      <trkpt lat="47.22996" lon="-1.46765">
        <ele>56</ele>
        <time>2020-09-13T07:36:40.000Z</time>
      </trkpt>
      <trkpt lat="47.23006" lon="-1.46757">
        <ele>56</ele>
        <time>2020-09-13T07:36:42.000Z</time>
      </trkpt>
      <trkpt lat="47.23015" lon="-1.4675">
        <ele>56</ele>
        <time>2020-09-13T07:36:44.000Z</time>
      </trkpt>
      <trkpt lat="47.23025" lon="-1.46745">
        <ele>56</ele>
        <time>2020-09-13T07:36:46.000Z</time>
      </trkpt>
      <trkpt lat="47.23035" lon="-1.4674">
        <ele>55</ele>
        <time>2020-09-13T07:36:48.000Z</time>
      </trkpt>
      <trkpt lat="47.23043" lon="-1.46732">
        <ele>52</ele>
        <time>2020-09-13T07:36:50.000Z</time>
      </trkpt>
      <trkpt lat="47.23047" lon="-1.46716">
        <ele>52</ele>
        <time>2020-09-13T07:36:52.000Z</time>
      </trkpt>
      <trkpt lat="47.23048" lon="-1.46702">
        <ele>52</ele>
        <time>2020-09-13T07:36:54.000Z</time>
      </trkpt>
      <trkpt lat="47.2305" lon="-1.46689">
        <ele>52</ele>
        <time>2020-09-13T07:36:57.000Z</time>
      </trkpt>
      <trkpt lat="47.23055" lon="-1.46673">
        <ele>52</ele>
        <time>2020-09-13T07:37:01.000Z</time>
      </trkpt>
      <trkpt lat="47.23061" lon="-1.46657">
        <ele>53</ele>
        <time>2020-09-13T07:37:04.000Z</time>
      </trkpt>
      <trkpt lat="47.23066" lon="-1.46643">
        <ele>53</ele>
        <time>2020-09-13T07:37:07.000Z</time>
      </trkpt>
      <trkpt lat="47.23074" lon="-1.46631">
        <ele>54</ele>
        <time>2020-09-13T07:37:10.000Z</time>
      </trkpt>
      <trkpt lat="47.23082" lon="-1.4662">
        <ele>55</ele>
        <time>2020-09-13T07:37:12.000Z</time>
      </trkpt>
      <trkpt lat="47.23093" lon="-1.46608">
        <ele>55</ele>
        <time>2020-09-13T07:37:14.000Z</time>
      </trkpt>
      <trkpt lat="47.23102" lon="-1.46596">
        <ele>55</ele>
        <time>2020-09-13T07:37:16.000Z</time>
      </trkpt>
      <trkpt lat="47.23112" lon="-1.46584">
        <ele>55</ele>
        <time>2020-09-13T07:37:18.000Z</time>
      </trkpt>
      <trkpt lat="47.23122" lon="-1.46573">
        <ele>56</ele>
        <time>2020-09-13T07:37:20.000Z</time>
      </trkpt>
      <trkpt lat="47.23133" lon="-1.46561">
        <ele>55</ele>
        <time>2020-09-13T07:37:22.000Z</time>
      </trkpt>
      <trkpt lat="47.23143" lon="-1.46549">
        <ele>56</ele>
        <time>2020-09-13T07:37:24.000Z</time>
      </trkpt>
      <trkpt lat="47.23154" lon="-1.46538">
        <ele>56</ele>
        <time>2020-09-13T07:37:26.000Z</time>
      </trkpt>
      <trkpt lat="47.23164" lon="-1.46526">
        <ele>55</ele>
        <time>2020-09-13T07:37:28.000Z</time>
      </trkpt>
      <trkpt lat="47.23174" lon="-1.46514">
        <ele>55</ele>
        <time>2020-09-13T07:37:30.000Z</time>
      </trkpt>
      <trkpt lat="47.23183" lon="-1.46502">
        <ele>55</ele>
        <time>2020-09-13T07:37:32.000Z</time>
      </trkpt>
      <trkpt lat="47.23193" lon="-1.4649">
        <ele>55</ele>
        <time>2020-09-13T07:37:34.000Z</time>
      </trkpt>
      <trkpt lat="47.23203" lon="-1.46477">
        <ele>55</ele>
        <time>2020-09-13T07:37:36.000Z</time>
      </trkpt>
      <trkpt lat="47.23212" lon="-1.46465">
        <ele>55</ele>
        <time>2020-09-13T07:37:38.000Z</time>
      </trkpt>
      <trkpt lat="47.23222" lon="-1.46453">
        <ele>55</ele>
        <time>2020-09-13T07:37:40.000Z</time>
      </trkpt>
      <trkpt lat="47.23231" lon="-1.46441">
        <ele>55</ele>
        <time>2020-09-13T07:37:42.000Z</time>
      </trkpt>
      <trkpt lat="47.23241" lon="-1.46429">
        <ele>55</ele>
        <time>2020-09-13T07:37:44.000Z</time>
      </trkpt>
      <trkpt lat="47.2325" lon="-1.46416">
        <ele>55</ele>
        <time>2020-09-13T07:37:46.000Z</time>
      </trkpt>
      <trkpt lat="47.23259" lon="-1.46404">
        <ele>55</ele>
        <time>2020-09-13T07:37:48.000Z</time>
      </trkpt>
      <trkpt lat="47.23268" lon="-1.46393">
        <ele>55</ele>
        <time>2020-09-13T07:37:50.000Z</time>
      </trkpt>
      <trkpt lat="47.23279" lon="-1.46381">
        <ele>55</ele>
        <time>2020-09-13T07:37:52.000Z</time>
      </trkpt>
      <trkpt lat="47.23289" lon="-1.4637">
        <ele>55</ele>
        <time>2020-09-13T07:37:54.000Z</time>
      </trkpt>
      <trkpt lat="47.23298" lon="-1.46357">
        <ele>55</ele>
        <time>2020-09-13T07:37:56.000Z</time>
      </trkpt>
      <trkpt lat="47.23307" lon="-1.46343">
        <ele>55</ele>
        <time>2020-09-13T07:37:58.000Z</time>
      </trkpt>
      <trkpt lat="47.23316" lon="-1.46329">
        <ele>56</ele>
        <time>2020-09-13T07:38:00.000Z</time>
      </trkpt>
      <trkpt lat="47.23326" lon="-1.46317">
        <ele>56</ele>
        <time>2020-09-13T07:38:02.000Z</time>
      </trkpt>
      <trkpt lat="47.23335" lon="-1.46305">
        <ele>56</ele>
        <time>2020-09-13T07:38:04.000Z</time>
      </trkpt>
      <trkpt lat="47.23345" lon="-1.46292">
        <ele>56</ele>
        <time>2020-09-13T07:38:06.000Z</time>
      </trkpt>
      <trkpt lat="47.23355" lon="-1.4628">
        <ele>56</ele>
        <time>2020-09-13T07:38:08.000Z</time>
      </trkpt>
      <trkpt lat="47.23365" lon="-1.46267">
        <ele>56</ele>
        <time>2020-09-13T07:38:10.000Z</time>
      </trkpt>
      <trkpt lat="47.23374" lon="-1.46255">
        <ele>56</ele>
        <time>2020-09-13T07:38:12.000Z</time>
      </trkpt>
      <trkpt lat="47.23384" lon="-1.46243">
        <ele>55</ele>
        <time>2020-09-13T07:38:14.000Z</time>
      </trkpt>
      <trkpt lat="47.23394" lon="-1.4623">
        <ele>56</ele>
        <time>2020-09-13T07:38:16.000Z</time>
      </trkpt>
      <trkpt lat="47.23403" lon="-1.46218">
        <ele>56</ele>
        <time>2020-09-13T07:38:18.000Z</time>
      </trkpt>
      <trkpt lat="47.23413" lon="-1.46205">
        <ele>56</ele>
        <time>2020-09-13T07:38:20.000Z</time>
      </trkpt>
      <trkpt lat="47.23423" lon="-1.46194">
        <ele>56</ele>
        <time>2020-09-13T07:38:22.000Z</time>
      </trkpt>
      <trkpt lat="47.23434" lon="-1.46182">
        <ele>56</ele>
        <time>2020-09-13T07:38:24.000Z</time>
      </trkpt>
      <trkpt lat="47.23444" lon="-1.46171">
        <ele>56</ele>
        <time>2020-09-13T07:38:26.000Z</time>
      </trkpt>
      <trkpt lat="47.23454" lon="-1.4616">
        <ele>56</ele>
        <time>2020-09-13T07:38:28.000Z</time>
      </trkpt>
      <trkpt lat="47.23465" lon="-1.4615">
        <ele>56</ele>
        <time>2020-09-13T07:38:30.000Z</time>
      </trkpt>
      <trkpt lat="47.23476" lon="-1.46139">
        <ele>56</ele>
        <time>2020-09-13T07:38:32.000Z</time>
      </trkpt>
      <trkpt lat="47.23488" lon="-1.46129">
        <ele>56</ele>
        <time>2020-09-13T07:38:34.000Z</time>
      </trkpt>
      <trkpt lat="47.23498" lon="-1.46118">
        <ele>57</ele>
        <time>2020-09-13T07:38:36.000Z</time>
      </trkpt>
      <trkpt lat="47.23507" lon="-1.46108">
        <ele>58</ele>
        <time>2020-09-13T07:38:38.000Z</time>
      </trkpt>
      <trkpt lat="47.23515" lon="-1.46099">
        <ele>58</ele>
        <time>2020-09-13T07:38:40.000Z</time>
      </trkpt>
      <trkpt lat="47.23525" lon="-1.4609">
        <ele>58</ele>
        <time>2020-09-13T07:38:42.000Z</time>
      </trkpt>
      <trkpt lat="47.23535" lon="-1.46081">
        <ele>58</ele>
        <time>2020-09-13T07:38:44.000Z</time>
      </trkpt>
      <trkpt lat="47.23546" lon="-1.46071">
        <ele>57</ele>
        <time>2020-09-13T07:38:46.000Z</time>
      </trkpt>
      <trkpt lat="47.23557" lon="-1.46062">
        <ele>57</ele>
        <time>2020-09-13T07:38:48.000Z</time>
      </trkpt>
      <trkpt lat="47.23568" lon="-1.46058">
        <ele>56</ele>
        <time>2020-09-13T07:38:50.000Z</time>
      </trkpt>
      <trkpt lat="47.2358" lon="-1.46053">
        <ele>54</ele>
        <time>2020-09-13T07:38:52.000Z</time>
      </trkpt>
      <trkpt lat="47.23593" lon="-1.46041">
        <ele>53</ele>
        <time>2020-09-13T07:38:54.000Z</time>
      </trkpt>
      <trkpt lat="47.23605" lon="-1.4603">
        <ele>54</ele>
        <time>2020-09-13T07:38:56.000Z</time>
      </trkpt>
      <trkpt lat="47.23618" lon="-1.46021">
        <ele>54</ele>
        <time>2020-09-13T07:38:58.000Z</time>
      </trkpt>
      <trkpt lat="47.23631" lon="-1.46014">
        <ele>55</ele>
        <time>2020-09-13T07:39:00.000Z</time>
      </trkpt>
      <trkpt lat="47.23645" lon="-1.4601">
        <ele>56</ele>
        <time>2020-09-13T07:39:02.000Z</time>
      </trkpt>
      <trkpt lat="47.23659" lon="-1.46006">
        <ele>56</ele>
        <time>2020-09-13T07:39:04.000Z</time>
      </trkpt>
      <trkpt lat="47.23673" lon="-1.46004">
        <ele>56</ele>
        <time>2020-09-13T07:39:06.000Z</time>
      </trkpt>
      <trkpt lat="47.23687" lon="-1.46001">
        <ele>55</ele>
        <time>2020-09-13T07:39:08.000Z</time>
      </trkpt>
      <trkpt lat="47.23701" lon="-1.45997">
        <ele>55</ele>
        <time>2020-09-13T07:39:10.000Z</time>
      </trkpt>
      <trkpt lat="47.23714" lon="-1.45993">
        <ele>56</ele>
        <time>2020-09-13T07:39:12.000Z</time>
      </trkpt>
      <trkpt lat="47.23728" lon="-1.4599">
        <ele>56</ele>
        <time>2020-09-13T07:39:14.000Z</time>
      </trkpt>
      <trkpt lat="47.23741" lon="-1.45987">
        <ele>56</ele>
        <time>2020-09-13T07:39:16.000Z</time>
      </trkpt>
      <trkpt lat="47.23755" lon="-1.45983">
        <ele>56</ele>
        <time>2020-09-13T07:39:18.000Z</time>
      </trkpt>
      <trkpt lat="47.23768" lon="-1.4598">
        <ele>56</ele>
        <time>2020-09-13T07:39:20.000Z</time>
      </trkpt>
      <trkpt lat="47.2378" lon="-1.45974">
        <ele>56</ele>
        <time>2020-09-13T07:39:22.000Z</time>
      </trkpt>
      <trkpt lat="47.23792" lon="-1.4597">
        <ele>56</ele>
        <time>2020-09-13T07:39:24.000Z</time>
      </trkpt>
      <trkpt lat="47.23804" lon="-1.45964">
        <ele>56</ele>
        <time>2020-09-13T07:39:26.000Z</time>
      </trkpt>
      <trkpt lat="47.23818" lon="-1.4596">
        <ele>56</ele>
        <time>2020-09-13T07:39:28.000Z</time>
      </trkpt>
      <trkpt lat="47.23832" lon="-1.45956">
        <ele>56</ele>
        <time>2020-09-13T07:39:30.000Z</time>
      </trkpt>
      <trkpt lat="47.23845" lon="-1.45953">
        <ele>57</ele>
        <time>2020-09-13T07:39:32.000Z</time>
      </trkpt>
      <trkpt lat="47.23858" lon="-1.45949">
        <ele>57</ele>
        <time>2020-09-13T07:39:34.000Z</time>
      </trkpt>
      <trkpt lat="47.23872" lon="-1.45946">
        <ele>56</ele>
        <time>2020-09-13T07:39:36.000Z</time>
      </trkpt>
      <trkpt lat="47.23885" lon="-1.45943">
        <ele>56</ele>
        <time>2020-09-13T07:39:38.000Z</time>
      </trkpt>
      <trkpt lat="47.23899" lon="-1.45939">
        <ele>56</ele>
        <time>2020-09-13T07:39:40.000Z</time>
      </trkpt>
      <trkpt lat="47.23912" lon="-1.45936">
        <ele>56</ele>
        <time>2020-09-13T07:39:42.000Z</time>
      </trkpt>
      <trkpt lat="47.23925" lon="-1.45932">
        <ele>56</ele>
        <time>2020-09-13T07:39:44.000Z</time>
      </trkpt>
      <trkpt lat="47.23938" lon="-1.45928">
        <ele>56</ele>
        <time>2020-09-13T07:39:46.000Z</time>
      </trkpt>
      <trkpt lat="47.2395" lon="-1.45921">
        <ele>56</ele>
        <time>2020-09-13T07:39:48.000Z</time>
      </trkpt>
      <trkpt lat="47.23961" lon="-1.4591">
        <ele>56</ele>
        <time>2020-09-13T07:39:50.000Z</time>
      </trkpt>
      <trkpt lat="47.2397" lon="-1.45895">
        <ele>57</ele>
        <time>2020-09-13T07:39:52.000Z</time>
      </trkpt>
      <trkpt lat="47.2398" lon="-1.45881">
        <ele>56</ele>
        <time>2020-09-13T07:39:54.000Z</time>
      </trkpt>
      <trkpt lat="47.23989" lon="-1.45866">
        <ele>56</ele>
        <time>2020-09-13T07:39:56.000Z</time>
      </trkpt>
      <trkpt lat="47.23999" lon="-1.45852">
        <ele>56</ele>
        <time>2020-09-13T07:39:58.000Z</time>
      </trkpt>
      <trkpt lat="47.24008" lon="-1.45838">
        <ele>55</ele>
        <time>2020-09-13T07:40:00.000Z</time>
      </trkpt>
      <trkpt lat="47.24018" lon="-1.45823">
        <ele>55</ele>
        <time>2020-09-13T07:40:02.000Z</time>
      </trkpt>
      <trkpt lat="47.24027" lon="-1.45808">
        <ele>55</ele>
        <time>2020-09-13T07:40:04.000Z</time>
      </trkpt>
      <trkpt lat="47.24036" lon="-1.45794">
        <ele>55</ele>
        <time>2020-09-13T07:40:06.000Z</time>
      </trkpt>
      <trkpt lat="47.24046" lon="-1.45779">
        <ele>55</ele>
        <time>2020-09-13T07:40:08.000Z</time>
      </trkpt>
      <trkpt lat="47.24055" lon="-1.45766">
        <ele>55</ele>
        <time>2020-09-13T07:40:10.000Z</time>
      </trkpt>
      <trkpt lat="47.24064" lon="-1.45751">
        <ele>54</ele>
        <time>2020-09-13T07:40:12.000Z</time>
      </trkpt>
      <trkpt lat="47.24073" lon="-1.45737">
        <ele>54</ele>
        <time>2020-09-13T07:40:14.000Z</time>
      </trkpt>
      <trkpt lat="47.24082" lon="-1.45723">
        <ele>55</ele>
        <time>2020-09-13T07:40:16.000Z</time>
      </trkpt>
      <trkpt lat="47.24091" lon="-1.45708">
        <ele>55</ele>
        <time>2020-09-13T07:40:18.000Z</time>
      </trkpt>
      <trkpt lat="47.241" lon="-1.45693">
        <ele>54</ele>
        <time>2020-09-13T07:40:20.000Z</time>
      </trkpt>
      <trkpt lat="47.24108" lon="-1.45677">
        <ele>54</ele>
        <time>2020-09-13T07:40:22.000Z</time>
      </trkpt>
      <trkpt lat="47.24115" lon="-1.45661">
        <ele>54</ele>
        <time>2020-09-13T07:40:24.000Z</time>
      </trkpt>
      <trkpt lat="47.24123" lon="-1.45645">
        <ele>54</ele>
        <time>2020-09-13T07:40:26.000Z</time>
      </trkpt>
      <trkpt lat="47.2413" lon="-1.45628">
        <ele>54</ele>
        <time>2020-09-13T07:40:28.000Z</time>
      </trkpt>
      <trkpt lat="47.24137" lon="-1.4561">
        <ele>54</ele>
        <time>2020-09-13T07:40:30.000Z</time>
      </trkpt>
      <trkpt lat="47.24143" lon="-1.45593">
        <ele>53</ele>
        <time>2020-09-13T07:40:32.000Z</time>
      </trkpt>
      <trkpt lat="47.24149" lon="-1.45574">
        <ele>53</ele>
        <time>2020-09-13T07:40:34.000Z</time>
      </trkpt>
      <trkpt lat="47.24155" lon="-1.45557">
        <ele>54</ele>
        <time>2020-09-13T07:40:36.000Z</time>
      </trkpt>
      <trkpt lat="47.2416" lon="-1.45538">
        <ele>54</ele>
        <time>2020-09-13T07:40:38.000Z</time>
      </trkpt>
      <trkpt lat="47.24166" lon="-1.45521">
        <ele>53</ele>
        <time>2020-09-13T07:40:40.000Z</time>
      </trkpt>
      <trkpt lat="47.24171" lon="-1.45503">
        <ele>54</ele>
        <time>2020-09-13T07:40:42.000Z</time>
      </trkpt>
      <trkpt lat="47.24176" lon="-1.45485">
        <ele>54</ele>
        <time>2020-09-13T07:40:44.000Z</time>
      </trkpt>
      <trkpt lat="47.2418" lon="-1.45469">
        <ele>56</ele>
        <time>2020-09-13T07:40:46.000Z</time>
      </trkpt>
      <trkpt lat="47.24185" lon="-1.45455">
        <ele>56</ele>
        <time>2020-09-13T07:40:48.000Z</time>
      </trkpt>
      <trkpt lat="47.2419" lon="-1.4544">
        <ele>56</ele>
        <time>2020-09-13T07:40:50.000Z</time>
      </trkpt>
      <trkpt lat="47.24196" lon="-1.45421">
        <ele>55</ele>
        <time>2020-09-13T07:40:52.000Z</time>
      </trkpt>
      <trkpt lat="47.24202" lon="-1.45403">
        <ele>55</ele>
        <time>2020-09-13T07:40:54.000Z</time>
      </trkpt>
      <trkpt lat="47.24208" lon="-1.45385">
        <ele>55</ele>
        <time>2020-09-13T07:40:56.000Z</time>
      </trkpt>
      <trkpt lat="47.24214" lon="-1.45367">
        <ele>55</ele>
        <time>2020-09-13T07:40:58.000Z</time>
      </trkpt>
      <trkpt lat="47.24219" lon="-1.4535">
        <ele>55</ele>
        <time>2020-09-13T07:41:00.000Z</time>
      </trkpt>
      <trkpt lat="47.24225" lon="-1.45333">
        <ele>56</ele>
        <time>2020-09-13T07:41:02.000Z</time>
      </trkpt>
      <trkpt lat="47.24231" lon="-1.45316">
        <ele>55</ele>
        <time>2020-09-13T07:41:04.000Z</time>
      </trkpt>
      <trkpt lat="47.24235" lon="-1.45299">
        <ele>55</ele>
        <time>2020-09-13T07:41:06.000Z</time>
      </trkpt>
      <trkpt lat="47.24241" lon="-1.45282">
        <ele>55</ele>
        <time>2020-09-13T07:41:08.000Z</time>
      </trkpt>
      <trkpt lat="47.24248" lon="-1.45267">
        <ele>55</ele>
        <time>2020-09-13T07:41:10.000Z</time>
      </trkpt>
      <trkpt lat="47.24257" lon="-1.45252">
        <ele>54</ele>
        <time>2020-09-13T07:41:12.000Z</time>
      </trkpt>
      <trkpt lat="47.24261" lon="-1.45231">
        <ele>54</ele>
        <time>2020-09-13T07:41:14.000Z</time>
      </trkpt>
      <trkpt lat="47.24263" lon="-1.4521">
        <ele>54</ele>
        <time>2020-09-13T07:41:16.000Z</time>
      </trkpt>
      <trkpt lat="47.24265" lon="-1.45189">
        <ele>53</ele>
        <time>2020-09-13T07:41:18.000Z</time>
      </trkpt>
      <trkpt lat="47.24267" lon="-1.45169">
        <ele>53</ele>
        <time>2020-09-13T07:41:20.000Z</time>
      </trkpt>
      <trkpt lat="47.24269" lon="-1.45148">
        <ele>53</ele>
        <time>2020-09-13T07:41:22.000Z</time>
      </trkpt>
      <trkpt lat="47.24271" lon="-1.45127">
        <ele>53</ele>
        <time>2020-09-13T07:41:24.000Z</time>
      </trkpt>
      <trkpt lat="47.24272" lon="-1.45107">
        <ele>52</ele>
        <time>2020-09-13T07:41:26.000Z</time>
      </trkpt>
      <trkpt lat="47.24274" lon="-1.45085">
        <ele>53</ele>
        <time>2020-09-13T07:41:28.000Z</time>
      </trkpt>
      <trkpt lat="47.24276" lon="-1.45065">
        <ele>53</ele>
        <time>2020-09-13T07:41:30.000Z</time>
      </trkpt>
      <trkpt lat="47.24277" lon="-1.45043">
        <ele>52</ele>
        <time>2020-09-13T07:41:32.000Z</time>
      </trkpt>
      <trkpt lat="47.24279" lon="-1.45022">
        <ele>53</ele>
        <time>2020-09-13T07:41:34.000Z</time>
      </trkpt>
      <trkpt lat="47.24281" lon="-1.45">
        <ele>53</ele>
        <time>2020-09-13T07:41:36.000Z</time>
      </trkpt>
      <trkpt lat="47.24282" lon="-1.44979">
        <ele>53</ele>
        <time>2020-09-13T07:41:38.000Z</time>
      </trkpt>
      <trkpt lat="47.24284" lon="-1.44958">
        <ele>52</ele>
        <time>2020-09-13T07:41:40.000Z</time>
      </trkpt>
      <trkpt lat="47.24286" lon="-1.44937">
        <ele>52</ele>
        <time>2020-09-13T07:41:42.000Z</time>
      </trkpt>
      <trkpt lat="47.24287" lon="-1.44916">
        <ele>53</ele>
        <time>2020-09-13T07:41:44.000Z</time>
      </trkpt>
      <trkpt lat="47.24288" lon="-1.44895">
        <ele>53</ele>
        <time>2020-09-13T07:41:46.000Z</time>
      </trkpt>
      <trkpt lat="47.2429" lon="-1.44875">
        <ele>53</ele>
        <time>2020-09-13T07:41:48.000Z</time>
      </trkpt>
      <trkpt lat="47.24291" lon="-1.44854">
        <ele>53</ele>
        <time>2020-09-13T07:41:50.000Z</time>
      </trkpt>
      <trkpt lat="47.24293" lon="-1.44833">
        <ele>53</ele>
        <time>2020-09-13T07:41:52.000Z</time>
      </trkpt>
      <trkpt lat="47.24295" lon="-1.44813">
        <ele>53</ele>
        <time>2020-09-13T07:41:54.000Z</time>
      </trkpt>
      <trkpt lat="47.24296" lon="-1.44792">
        <ele>53</ele>
        <time>2020-09-13T07:41:56.000Z</time>
      </trkpt>
      <trkpt lat="47.24298" lon="-1.44771">
        <ele>53</ele>
        <time>2020-09-13T07:41:58.000Z</time>
      </trkpt>
      <trkpt lat="47.243" lon="-1.44751">
        <ele>53</ele>
        <time>2020-09-13T07:42:00.000Z</time>
      </trkpt>
      <trkpt lat="47.24302" lon="-1.44729">
        <ele>53</ele>
        <time>2020-09-13T07:42:02.000Z</time>
      </trkpt>
      <trkpt lat="47.24304" lon="-1.44709">
        <ele>54</ele>
        <time>2020-09-13T07:42:04.000Z</time>
      </trkpt>
      <trkpt lat="47.24305" lon="-1.44688">
        <ele>54</ele>
        <time>2020-09-13T07:42:06.000Z</time>
      </trkpt>
      <trkpt lat="47.24307" lon="-1.44668">
        <ele>54</ele>
        <time>2020-09-13T07:42:08.000Z</time>
      </trkpt>
      <trkpt lat="47.24309" lon="-1.44648">
        <ele>54</ele>
        <time>2020-09-13T07:42:10.000Z</time>
      </trkpt>
      <trkpt lat="47.24312" lon="-1.44629">
        <ele>54</ele>
        <time>2020-09-13T07:42:12.000Z</time>
      </trkpt>
      <trkpt lat="47.24315" lon="-1.44608">
        <ele>54</ele>
        <time>2020-09-13T07:42:14.000Z</time>
      </trkpt>
      <trkpt lat="47.24315" lon="-1.44587">
        <ele>54</ele>
        <time>2020-09-13T07:42:16.000Z</time>
      </trkpt>
      <trkpt lat="47.24315" lon="-1.44567">
        <ele>53</ele>
        <time>2020-09-13T07:42:18.000Z</time>
      </trkpt>
      <trkpt lat="47.24316" lon="-1.44546">
        <ele>53</ele>
        <time>2020-09-13T07:42:20.000Z</time>
      </trkpt>
      <trkpt lat="47.24318" lon="-1.44526">
        <ele>53</ele>
        <time>2020-09-13T07:42:22.000Z</time>
      </trkpt>
      <trkpt lat="47.24319" lon="-1.44506">
        <ele>53</ele>
        <time>2020-09-13T07:42:24.000Z</time>
      </trkpt>
      <trkpt lat="47.24321" lon="-1.44486">
        <ele>54</ele>
        <time>2020-09-13T07:42:26.000Z</time>
      </trkpt>
      <trkpt lat="47.24322" lon="-1.44466">
        <ele>54</ele>
        <time>2020-09-13T07:42:28.000Z</time>
      </trkpt>
      <trkpt lat="47.24324" lon="-1.44446">
        <ele>54</ele>
        <time>2020-09-13T07:42:30.000Z</time>
      </trkpt>
      <trkpt lat="47.24325" lon="-1.44426">
        <ele>54</ele>
        <time>2020-09-13T07:42:32.000Z</time>
      </trkpt>
      <trkpt lat="47.24327" lon="-1.44406">
        <ele>54</ele>
        <time>2020-09-13T07:42:34.000Z</time>
      </trkpt>
      <trkpt lat="47.24329" lon="-1.44385">
        <ele>54</ele>
        <time>2020-09-13T07:42:36.000Z</time>
      </trkpt>
      <trkpt lat="47.2433" lon="-1.44365">
        <ele>53</ele>
        <time>2020-09-13T07:42:38.000Z</time>
      </trkpt>
      <trkpt lat="47.24331" lon="-1.44345">
        <ele>54</ele>
        <time>2020-09-13T07:42:40.000Z</time>
      </trkpt>
      <trkpt lat="47.24333" lon="-1.44325">
        <ele>54</ele>
        <time>2020-09-13T07:42:42.000Z</time>
      </trkpt>
      <trkpt lat="47.24336" lon="-1.44306">
        <ele>54</ele>
        <time>2020-09-13T07:42:44.000Z</time>
      </trkpt>
      <trkpt lat="47.24341" lon="-1.44286">
        <ele>54</ele>
        <time>2020-09-13T07:42:46.000Z</time>
      </trkpt>
      <trkpt lat="47.24341" lon="-1.44266">
        <ele>54</ele>
        <time>2020-09-13T07:42:48.000Z</time>
      </trkpt>
      <trkpt lat="47.2434" lon="-1.44246">
        <ele>54</ele>
        <time>2020-09-13T07:42:50.000Z</time>
      </trkpt>
      <trkpt lat="47.2434" lon="-1.44226">
        <ele>54</ele>
        <time>2020-09-13T07:42:52.000Z</time>
      </trkpt>
      <trkpt lat="47.24343" lon="-1.44207">
        <ele>55</ele>
        <time>2020-09-13T07:42:54.000Z</time>
      </trkpt>
      <trkpt lat="47.24347" lon="-1.44189">
        <ele>55</ele>
        <time>2020-09-13T07:42:56.000Z</time>
      </trkpt>
      <trkpt lat="47.24352" lon="-1.4417">
        <ele>55</ele>
        <time>2020-09-13T07:42:58.000Z</time>
      </trkpt>
      <trkpt lat="47.2436" lon="-1.44153">
        <ele>55</ele>
        <time>2020-09-13T07:43:00.000Z</time>
      </trkpt>
      <trkpt lat="47.24367" lon="-1.44136">
        <ele>55</ele>
        <time>2020-09-13T07:43:02.000Z</time>
      </trkpt>
      <trkpt lat="47.24376" lon="-1.4412">
        <ele>54</ele>
        <time>2020-09-13T07:43:04.000Z</time>
      </trkpt>
      <trkpt lat="47.24384" lon="-1.44104">
        <ele>54</ele>
        <time>2020-09-13T07:43:06.000Z</time>
      </trkpt>
      <trkpt lat="47.24393" lon="-1.44088">
        <ele>54</ele>
        <time>2020-09-13T07:43:08.000Z</time>
      </trkpt>
      <trkpt lat="47.24401" lon="-1.44071">
        <ele>54</ele>
        <time>2020-09-13T07:43:10.000Z</time>
      </trkpt>
      <trkpt lat="47.24408" lon="-1.44055">
        <ele>54</ele>
        <time>2020-09-13T07:43:12.000Z</time>
      </trkpt>
      <trkpt lat="47.24416" lon="-1.44039">
        <ele>53</ele>
        <time>2020-09-13T07:43:14.000Z</time>
      </trkpt>
      <trkpt lat="47.24424" lon="-1.44023">
        <ele>53</ele>
        <time>2020-09-13T07:43:16.000Z</time>
      </trkpt>
      <trkpt lat="47.24433" lon="-1.44008">
        <ele>54</ele>
        <time>2020-09-13T07:43:18.000Z</time>
      </trkpt>
      <trkpt lat="47.24443" lon="-1.43995">
        <ele>54</ele>
        <time>2020-09-13T07:43:20.000Z</time>
      </trkpt>
      <trkpt lat="47.2445" lon="-1.4398">
        <ele>54</ele>
        <time>2020-09-13T07:43:22.000Z</time>
      </trkpt>
      <trkpt lat="47.24456" lon="-1.43963">
        <ele>54</ele>
        <time>2020-09-13T07:43:24.000Z</time>
      </trkpt>
      <trkpt lat="47.24462" lon="-1.43946">
        <ele>54</ele>
        <time>2020-09-13T07:43:26.000Z</time>
      </trkpt>
      <trkpt lat="47.24469" lon="-1.43928">
        <ele>54</ele>
        <time>2020-09-13T07:43:28.000Z</time>
      </trkpt>
      <trkpt lat="47.24477" lon="-1.43911">
        <ele>54</ele>
        <time>2020-09-13T07:43:30.000Z</time>
      </trkpt>
      <trkpt lat="47.24483" lon="-1.43893">
        <ele>54</ele>
        <time>2020-09-13T07:43:32.000Z</time>
      </trkpt>
      <trkpt lat="47.2449" lon="-1.43875">
        <ele>54</ele>
        <time>2020-09-13T07:43:34.000Z</time>
      </trkpt>
      <trkpt lat="47.24495" lon="-1.43857">
        <ele>53</ele>
        <time>2020-09-13T07:43:36.000Z</time>
      </trkpt>
      <trkpt lat="47.24501" lon="-1.43838">
        <ele>53</ele>
        <time>2020-09-13T07:43:38.000Z</time>
      </trkpt>
      <trkpt lat="47.24506" lon="-1.4382">
        <ele>54</ele>
        <time>2020-09-13T07:43:40.000Z</time>
      </trkpt>
      <trkpt lat="47.24512" lon="-1.43802">
        <ele>54</ele>
        <time>2020-09-13T07:43:42.000Z</time>
      </trkpt>
      <trkpt lat="47.24517" lon="-1.43783">
        <ele>54</ele>
        <time>2020-09-13T07:43:44.000Z</time>
      </trkpt>
      <trkpt lat="47.24523" lon="-1.43765">
        <ele>54</ele>
        <time>2020-09-13T07:43:46.000Z</time>
      </trkpt>
      <trkpt lat="47.24528" lon="-1.43747">
        <ele>54</ele>
        <time>2020-09-13T07:43:48.000Z</time>
      </trkpt>
      <trkpt lat="47.24535" lon="-1.4373">
        <ele>53</ele>
        <time>2020-09-13T07:43:50.000Z</time>
      </trkpt>
      <trkpt lat="47.24543" lon="-1.43714">
        <ele>54</ele>
        <time>2020-09-13T07:43:52.000Z</time>
      </trkpt>
      <trkpt lat="47.24554" lon="-1.43702">
        <ele>53</ele>
        <time>2020-09-13T07:43:54.000Z</time>
      </trkpt>
      <trkpt lat="47.24566" lon="-1.43693">
        <ele>54</ele>
        <time>2020-09-13T07:43:56.000Z</time>
      </trkpt>
      <trkpt lat="47.24577" lon="-1.4368">
        <ele>54</ele>
        <time>2020-09-13T07:43:58.000Z</time>
      </trkpt>
      <trkpt lat="47.24587" lon="-1.43668">
        <ele>54</ele>
        <time>2020-09-13T07:44:00.000Z</time>
      </trkpt>
      <trkpt lat="47.24596" lon="-1.43652">
        <ele>54</ele>
        <time>2020-09-13T07:44:02.000Z</time>
      </trkpt>
      <trkpt lat="47.24607" lon="-1.4364">
        <ele>55</ele>
        <time>2020-09-13T07:44:04.000Z</time>
      </trkpt>
      <trkpt lat="47.24618" lon="-1.4363">
        <ele>54</ele>
        <time>2020-09-13T07:44:06.000Z</time>
      </trkpt>
      <trkpt lat="47.2463" lon="-1.43621">
        <ele>55</ele>
        <time>2020-09-13T07:44:08.000Z</time>
      </trkpt>
      <trkpt lat="47.24641" lon="-1.43611">
        <ele>55</ele>
        <time>2020-09-13T07:44:10.000Z</time>
      </trkpt>
      <trkpt lat="47.24652" lon="-1.43599">
        <ele>54</ele>
        <time>2020-09-13T07:44:12.000Z</time>
      </trkpt>
      <trkpt lat="47.24663" lon="-1.43587">
        <ele>55</ele>
        <time>2020-09-13T07:44:14.000Z</time>
      </trkpt>
      <trkpt lat="47.24674" lon="-1.43578">
        <ele>54</ele>
        <time>2020-09-13T07:44:16.000Z</time>
      </trkpt>
      <trkpt lat="47.24685" lon="-1.43567">
        <ele>54</ele>
        <time>2020-09-13T07:44:18.000Z</time>
      </trkpt>
      <trkpt lat="47.24692" lon="-1.4355">
        <ele>53</ele>
        <time>2020-09-13T07:44:20.000Z</time>
      </trkpt>
      <trkpt lat="47.24698" lon="-1.43531">
        <ele>53</ele>
        <time>2020-09-13T07:44:22.000Z</time>
      </trkpt>
      <trkpt lat="47.24703" lon="-1.43514">
        <ele>53</ele>
        <time>2020-09-13T07:44:24.000Z</time>
      </trkpt>
      <trkpt lat="47.24709" lon="-1.43496">
        <ele>54</ele>
        <time>2020-09-13T07:44:26.000Z</time>
      </trkpt>
      <trkpt lat="47.24716" lon="-1.43479">
        <ele>54</ele>
        <time>2020-09-13T07:44:28.000Z</time>
      </trkpt>
      <trkpt lat="47.24724" lon="-1.43463">
        <ele>54</ele>
        <time>2020-09-13T07:44:30.000Z</time>
      </trkpt>
      <trkpt lat="47.24733" lon="-1.43449">
        <ele>54</ele>
        <time>2020-09-13T07:44:32.000Z</time>
      </trkpt>
      <trkpt lat="47.24742" lon="-1.43434">
        <ele>54</ele>
        <time>2020-09-13T07:44:34.000Z</time>
      </trkpt>
      <trkpt lat="47.24751" lon="-1.43421">
        <ele>54</ele>
        <time>2020-09-13T07:44:36.000Z</time>
      </trkpt>
      <trkpt lat="47.2476" lon="-1.43407">
        <ele>54</ele>
        <time>2020-09-13T07:44:38.000Z</time>
      </trkpt>
      <trkpt lat="47.2477" lon="-1.43395">
        <ele>54</ele>
        <time>2020-09-13T07:44:40.000Z</time>
      </trkpt>
      <trkpt lat="47.2478" lon="-1.43384">
        <ele>54</ele>
        <time>2020-09-13T07:44:42.000Z</time>
      </trkpt>
      <trkpt lat="47.24789" lon="-1.43374">
        <ele>55</ele>
        <time>2020-09-13T07:44:44.000Z</time>
      </trkpt>
      <trkpt lat="47.24797" lon="-1.43366">
        <ele>56</ele>
        <time>2020-09-13T07:44:46.000Z</time>
      </trkpt>
      <trkpt lat="47.24805" lon="-1.43359">
        <ele>56</ele>
        <time>2020-09-13T07:44:48.000Z</time>
      </trkpt>
      <trkpt lat="47.24816" lon="-1.43352">
        <ele>56</ele>
        <time>2020-09-13T07:44:50.000Z</time>
      </trkpt>
      <trkpt lat="47.24827" lon="-1.43345">
        <ele>56</ele>
        <time>2020-09-13T07:44:52.000Z</time>
      </trkpt>
      <trkpt lat="47.24837" lon="-1.43337">
        <ele>56</ele>
        <time>2020-09-13T07:44:54.000Z</time>
      </trkpt>
      <trkpt lat="47.24848" lon="-1.4333">
        <ele>56</ele>
        <time>2020-09-13T07:44:56.000Z</time>
      </trkpt>
      <trkpt lat="47.24859" lon="-1.43322">
        <ele>56</ele>
        <time>2020-09-13T07:44:58.000Z</time>
      </trkpt>
      <trkpt lat="47.2487" lon="-1.43315">
        <ele>56</ele>
        <time>2020-09-13T07:45:00.000Z</time>
      </trkpt>
      <trkpt lat="47.24881" lon="-1.43308">
        <ele>56</ele>
        <time>2020-09-13T07:45:02.000Z</time>
      </trkpt>
      <trkpt lat="47.24892" lon="-1.43301">
        <ele>55</ele>
        <time>2020-09-13T07:45:04.000Z</time>
      </trkpt>
      <trkpt lat="47.24903" lon="-1.43293">
        <ele>55</ele>
        <time>2020-09-13T07:45:06.000Z</time>
      </trkpt>
      <trkpt lat="47.24914" lon="-1.43285">
        <ele>55</ele>
        <time>2020-09-13T07:45:08.000Z</time>
      </trkpt>
      <trkpt lat="47.24926" lon="-1.43277">
        <ele>55</ele>
        <time>2020-09-13T07:45:10.000Z</time>
      </trkpt>
      <trkpt lat="47.24938" lon="-1.43269">
        <ele>54</ele>
        <time>2020-09-13T07:45:12.000Z</time>
      </trkpt>
      <trkpt lat="47.24952" lon="-1.4326">
        <ele>54</ele>
        <time>2020-09-13T07:45:14.000Z</time>
      </trkpt>
      <trkpt lat="47.24965" lon="-1.43253">
        <ele>54</ele>
        <time>2020-09-13T07:45:16.000Z</time>
      </trkpt>
      <trkpt lat="47.24978" lon="-1.43246">
        <ele>54</ele>
        <time>2020-09-13T07:45:18.000Z</time>
      </trkpt>
      <trkpt lat="47.24991" lon="-1.43238">
        <ele>54</ele>
        <time>2020-09-13T07:45:20.000Z</time>
      </trkpt>
      <trkpt lat="47.25004" lon="-1.43228">
        <ele>54</ele>
        <time>2020-09-13T07:45:22.000Z</time>
      </trkpt>
      <trkpt lat="47.25016" lon="-1.43218">
        <ele>54</ele>
        <time>2020-09-13T07:45:24.000Z</time>
      </trkpt>
      <trkpt lat="47.25028" lon="-1.43208">
        <ele>54</ele>
        <time>2020-09-13T07:45:26.000Z</time>
      </trkpt>
      <trkpt lat="47.2504" lon="-1.43198">
        <ele>54</ele>
        <time>2020-09-13T07:45:28.000Z</time>
      </trkpt>
      <trkpt lat="47.25051" lon="-1.43188">
        <ele>54</ele>
        <time>2020-09-13T07:45:30.000Z</time>
      </trkpt>
      <trkpt lat="47.25061" lon="-1.43177">
        <ele>54</ele>
        <time>2020-09-13T07:45:32.000Z</time>
      </trkpt>
      <trkpt lat="47.25071" lon="-1.43165">
        <ele>54</ele>
        <time>2020-09-13T07:45:34.000Z</time>
      </trkpt>
      <trkpt lat="47.25082" lon="-1.43152">
        <ele>54</ele>
        <time>2020-09-13T07:45:36.000Z</time>
      </trkpt>
      <trkpt lat="47.25092" lon="-1.43139">
        <ele>54</ele>
        <time>2020-09-13T07:45:38.000Z</time>
      </trkpt>
      <trkpt lat="47.25102" lon="-1.43126">
        <ele>54</ele>
        <time>2020-09-13T07:45:40.000Z</time>
      </trkpt>
      <trkpt lat="47.25112" lon="-1.43113">
        <ele>54</ele>
        <time>2020-09-13T07:45:42.000Z</time>
      </trkpt>
      <trkpt lat="47.25122" lon="-1.43101">
        <ele>54</ele>
        <time>2020-09-13T07:45:44.000Z</time>
      </trkpt>
      <trkpt lat="47.25132" lon="-1.43088">
        <ele>55</ele>
        <time>2020-09-13T07:45:46.000Z</time>
      </trkpt>
      <trkpt lat="47.25142" lon="-1.43075">
        <ele>55</ele>
        <time>2020-09-13T07:45:48.000Z</time>
      </trkpt>
      <trkpt lat="47.25152" lon="-1.43064">
        <ele>55</ele>
        <time>2020-09-13T07:45:50.000Z</time>
      </trkpt>
      <trkpt lat="47.25162" lon="-1.43054">
        <ele>54</ele>
        <time>2020-09-13T07:45:52.000Z</time>
      </trkpt>
      <trkpt lat="47.25173" lon="-1.43042">
        <ele>54</ele>
        <time>2020-09-13T07:45:54.000Z</time>
      </trkpt>
      <trkpt lat="47.25184" lon="-1.43028">
        <ele>54</ele>
        <time>2020-09-13T07:45:56.000Z</time>
      </trkpt>
      <trkpt lat="47.25195" lon="-1.43014">
        <ele>54</ele>
        <time>2020-09-13T07:45:58.000Z</time>
      </trkpt>
      <trkpt lat="47.25206" lon="-1.43002">
        <ele>54</ele>
        <time>2020-09-13T07:46:00.000Z</time>
      </trkpt>
      <trkpt lat="47.25217" lon="-1.42991">
        <ele>54</ele>
        <time>2020-09-13T07:46:02.000Z</time>
      </trkpt>
      <trkpt lat="47.25229" lon="-1.42982">
        <ele>54</ele>
        <time>2020-09-13T07:46:04.000Z</time>
      </trkpt>
      <trkpt lat="47.25242" lon="-1.42974">
        <ele>53</ele>
        <time>2020-09-13T07:46:06.000Z</time>
      </trkpt>
      <trkpt lat="47.25254" lon="-1.42966">
        <ele>53</ele>
        <time>2020-09-13T07:46:08.000Z</time>
      </trkpt>
      <trkpt lat="47.25267" lon="-1.42958">
        <ele>54</ele>
        <time>2020-09-13T07:46:10.000Z</time>
      </trkpt>
      <trkpt lat="47.25279" lon="-1.42951">
        <ele>54</ele>
        <time>2020-09-13T07:46:12.000Z</time>
      </trkpt>
      <trkpt lat="47.25292" lon="-1.42944">
        <ele>54</ele>
        <time>2020-09-13T07:46:14.000Z</time>
      </trkpt>
      <trkpt lat="47.25305" lon="-1.42936">
        <ele>54</ele>
        <time>2020-09-13T07:46:16.000Z</time>
      </trkpt>
      <trkpt lat="47.25317" lon="-1.42928">
        <ele>54</ele>
        <time>2020-09-13T07:46:18.000Z</time>
      </trkpt>
      <trkpt lat="47.25329" lon="-1.42921">
        <ele>55</ele>
        <time>2020-09-13T07:46:20.000Z</time>
      </trkpt>
      <trkpt lat="47.25342" lon="-1.42915">
        <ele>55</ele>
        <time>2020-09-13T07:46:22.000Z</time>
      </trkpt>
      <trkpt lat="47.25354" lon="-1.42909">
        <ele>55</ele>
        <time>2020-09-13T07:46:24.000Z</time>
      </trkpt>
      <trkpt lat="47.25366" lon="-1.42902">
        <ele>55</ele>
        <time>2020-09-13T07:46:26.000Z</time>
      </trkpt>
      <trkpt lat="47.25378" lon="-1.42894">
        <ele>55</ele>
        <time>2020-09-13T07:46:28.000Z</time>
      </trkpt>
      <trkpt lat="47.2539" lon="-1.42885">
        <ele>55</ele>
        <time>2020-09-13T07:46:30.000Z</time>
      </trkpt>
      <trkpt lat="47.25402" lon="-1.42877">
        <ele>55</ele>
        <time>2020-09-13T07:46:32.000Z</time>
      </trkpt>
      <trkpt lat="47.25413" lon="-1.42869">
        <ele>55</ele>
        <time>2020-09-13T07:46:34.000Z</time>
      </trkpt>
      <trkpt lat="47.25425" lon="-1.42862">
        <ele>55</ele>
        <time>2020-09-13T07:46:36.000Z</time>
      </trkpt>
      <trkpt lat="47.25437" lon="-1.42854">
        <ele>55</ele>
        <time>2020-09-13T07:46:38.000Z</time>
      </trkpt>
      <trkpt lat="47.25449" lon="-1.42846">
        <ele>55</ele>
        <time>2020-09-13T07:46:40.000Z</time>
      </trkpt>
      <trkpt lat="47.2546" lon="-1.42838">
        <ele>55</ele>
        <time>2020-09-13T07:46:42.000Z</time>
      </trkpt>
      <trkpt lat="47.25471" lon="-1.42829">
        <ele>55</ele>
        <time>2020-09-13T07:46:44.000Z</time>
      </trkpt>
      <trkpt lat="47.25482" lon="-1.42821">
        <ele>55</ele>
        <time>2020-09-13T07:46:46.000Z</time>
      </trkpt>
      <trkpt lat="47.25493" lon="-1.42811">
        <ele>55</ele>
        <time>2020-09-13T07:46:48.000Z</time>
      </trkpt>
      <trkpt lat="47.25505" lon="-1.42802">
        <ele>55</ele>
        <time>2020-09-13T07:46:50.000Z</time>
      </trkpt>
      <trkpt lat="47.25517" lon="-1.42793">
        <ele>55</ele>
        <time>2020-09-13T07:46:52.000Z</time>
      </trkpt>
      <trkpt lat="47.25528" lon="-1.42783">
        <ele>55</ele>
        <time>2020-09-13T07:46:54.000Z</time>
      </trkpt>
      <trkpt lat="47.2554" lon="-1.42774">
        <ele>55</ele>
        <time>2020-09-13T07:46:56.000Z</time>
      </trkpt>
      <trkpt lat="47.25551" lon="-1.42765">
        <ele>55</ele>
        <time>2020-09-13T07:46:58.000Z</time>
      </trkpt>
      <trkpt lat="47.25562" lon="-1.42755">
        <ele>55</ele>
        <time>2020-09-13T07:47:00.000Z</time>
      </trkpt>
      <trkpt lat="47.25573" lon="-1.42746">
        <ele>55</ele>
        <time>2020-09-13T07:47:02.000Z</time>
      </trkpt>
      <trkpt lat="47.25585" lon="-1.42737">
        <ele>55</ele>
        <time>2020-09-13T07:47:04.000Z</time>
      </trkpt>
      <trkpt lat="47.25596" lon="-1.42728">
        <ele>55</ele>
        <time>2020-09-13T07:47:06.000Z</time>
      </trkpt>
      <trkpt lat="47.25608" lon="-1.42718">
        <ele>55</ele>
        <time>2020-09-13T07:47:08.000Z</time>
      </trkpt>
      <trkpt lat="47.25619" lon="-1.4271">
        <ele>55</ele>
        <time>2020-09-13T07:47:10.000Z</time>
      </trkpt>
      <trkpt lat="47.2563" lon="-1.42701">
        <ele>55</ele>
        <time>2020-09-13T07:47:12.000Z</time>
      </trkpt>
      <trkpt lat="47.25642" lon="-1.42692">
        <ele>55</ele>
        <time>2020-09-13T07:47:14.000Z</time>
      </trkpt>
      <trkpt lat="47.25654" lon="-1.42682">
        <ele>55</ele>
        <time>2020-09-13T07:47:16.000Z</time>
      </trkpt>
      <trkpt lat="47.25663" lon="-1.42672">
        <ele>56</ele>
        <time>2020-09-13T07:47:18.000Z</time>
      </trkpt>
      <trkpt lat="47.25671" lon="-1.42662">
        <ele>57</ele>
        <time>2020-09-13T07:47:20.000Z</time>
      </trkpt>
      <trkpt lat="47.25679" lon="-1.42655">
        <ele>58</ele>
        <time>2020-09-13T07:47:22.000Z</time>
      </trkpt>
      <trkpt lat="47.25688" lon="-1.42649">
        <ele>58</ele>
        <time>2020-09-13T07:47:24.000Z</time>
      </trkpt>
      <trkpt lat="47.25699" lon="-1.42645">
        <ele>57</ele>
        <time>2020-09-13T07:47:26.000Z</time>
      </trkpt>
      <trkpt lat="47.25712" lon="-1.42646">
        <ele>57</ele>
        <time>2020-09-13T07:47:28.000Z</time>
      </trkpt>
      <trkpt lat="47.25726" lon="-1.42647">
        <ele>56</ele>
        <time>2020-09-13T07:47:30.000Z</time>
      </trkpt>
      <trkpt lat="47.25738" lon="-1.42643">
        <ele>55</ele>
        <time>2020-09-13T07:47:32.000Z</time>
      </trkpt>
      <trkpt lat="47.25746" lon="-1.42631">
        <ele>55</ele>
        <time>2020-09-13T07:47:34.000Z</time>
      </trkpt>
      <trkpt lat="47.25753" lon="-1.42616">
        <ele>56</ele>
        <time>2020-09-13T07:47:36.000Z</time>
      </trkpt>
      <trkpt lat="47.25762" lon="-1.42604">
        <ele>56</ele>
        <time>2020-09-13T07:47:38.000Z</time>
      </trkpt>
      <trkpt lat="47.25771" lon="-1.42589">
        <ele>54</ele>
        <time>2020-09-13T07:47:40.000Z</time>
      </trkpt>
      <trkpt lat="47.25782" lon="-1.42576">
        <ele>54</ele>
        <time>2020-09-13T07:47:42.000Z</time>
      </trkpt>
      <trkpt lat="47.25794" lon="-1.42566">
        <ele>53</ele>
        <time>2020-09-13T07:47:44.000Z</time>
      </trkpt>
      <trkpt lat="47.25806" lon="-1.42558">
        <ele>53</ele>
        <time>2020-09-13T07:47:46.000Z</time>
      </trkpt>
      <trkpt lat="47.25817" lon="-1.42548">
        <ele>54</ele>
        <time>2020-09-13T07:47:48.000Z</time>
      </trkpt>
      <trkpt lat="47.25829" lon="-1.42538">
        <ele>53</ele>
        <time>2020-09-13T07:47:50.000Z</time>
      </trkpt>
      <trkpt lat="47.25841" lon="-1.42529">
        <ele>54</ele>
        <time>2020-09-13T07:47:52.000Z</time>
      </trkpt>
      <trkpt lat="47.25852" lon="-1.42519">
        <ele>54</ele>
        <time>2020-09-13T07:47:54.000Z</time>
      </trkpt>
      <trkpt lat="47.25864" lon="-1.4251">
        <ele>54</ele>
        <time>2020-09-13T07:47:56.000Z</time>
      </trkpt>
      <trkpt lat="47.25877" lon="-1.42502">
        <ele>54</ele>
        <time>2020-09-13T07:47:58.000Z</time>
      </trkpt>
      <trkpt lat="47.25889" lon="-1.42493">
        <ele>54</ele>
        <time>2020-09-13T07:48:00.000Z</time>
      </trkpt>
      <trkpt lat="47.259" lon="-1.42482">
        <ele>55</ele>
        <time>2020-09-13T07:48:02.000Z</time>
      </trkpt>
      <trkpt lat="47.25909" lon="-1.4247">
        <ele>54</ele>
        <time>2020-09-13T07:48:04.000Z</time>
      </trkpt>
      <trkpt lat="47.25919" lon="-1.42456">
        <ele>54</ele>
        <time>2020-09-13T07:48:06.000Z</time>
      </trkpt>
      <trkpt lat="47.25929" lon="-1.42443">
        <ele>55</ele>
        <time>2020-09-13T07:48:08.000Z</time>
      </trkpt>
      <trkpt lat="47.2594" lon="-1.4243">
        <ele>54</ele>
        <time>2020-09-13T07:48:10.000Z</time>
      </trkpt>
      <trkpt lat="47.2595" lon="-1.42418">
        <ele>54</ele>
        <time>2020-09-13T07:48:12.000Z</time>
      </trkpt>
      <trkpt lat="47.25959" lon="-1.42405">
        <ele>54</ele>
        <time>2020-09-13T07:48:14.000Z</time>
      </trkpt>
      <trkpt lat="47.25969" lon="-1.42392">
        <ele>54</ele>
        <time>2020-09-13T07:48:16.000Z</time>
      </trkpt>
      <trkpt lat="47.2598" lon="-1.42379">
        <ele>54</ele>
        <time>2020-09-13T07:48:18.000Z</time>
      </trkpt>
      <trkpt lat="47.25991" lon="-1.42367">
        <ele>54</ele>
        <time>2020-09-13T07:48:20.000Z</time>
      </trkpt>
      <trkpt lat="47.26001" lon="-1.42355">
        <ele>55</ele>
        <time>2020-09-13T07:48:22.000Z</time>
      </trkpt>
      <trkpt lat="47.2601" lon="-1.42342">
        <ele>55</ele>
        <time>2020-09-13T07:48:24.000Z</time>
      </trkpt>
      <trkpt lat="47.26019" lon="-1.42328">
        <ele>55</ele>
        <time>2020-09-13T07:48:26.000Z</time>
      </trkpt>
      <trkpt lat="47.26028" lon="-1.42315">
        <ele>55</ele>
        <time>2020-09-13T07:48:28.000Z</time>
      </trkpt>
      <trkpt lat="47.26038" lon="-1.42303">
        <ele>55</ele>
        <time>2020-09-13T07:48:30.000Z</time>
      </trkpt>
      <trkpt lat="47.26048" lon="-1.4229">
        <ele>55</ele>
        <time>2020-09-13T07:48:32.000Z</time>
      </trkpt>
      <trkpt lat="47.26058" lon="-1.42277">
        <ele>54</ele>
        <time>2020-09-13T07:48:34.000Z</time>
      </trkpt>
      <trkpt lat="47.26068" lon="-1.42265">
        <ele>54</ele>
        <time>2020-09-13T07:48:36.000Z</time>
      </trkpt>
      <trkpt lat="47.26078" lon="-1.42252">
        <ele>54</ele>
        <time>2020-09-13T07:48:38.000Z</time>
      </trkpt>
      <trkpt lat="47.26088" lon="-1.42239">
        <ele>54</ele>
        <time>2020-09-13T07:48:40.000Z</time>
      </trkpt>
      <trkpt lat="47.26098" lon="-1.42227">
        <ele>54</ele>
        <time>2020-09-13T07:48:42.000Z</time>
      </trkpt>
      <trkpt lat="47.26107" lon="-1.42214">
        <ele>55</ele>
        <time>2020-09-13T07:48:44.000Z</time>
      </trkpt>
      <trkpt lat="47.26117" lon="-1.42201">
        <ele>55</ele>
        <time>2020-09-13T07:48:46.000Z</time>
      </trkpt>
      <trkpt lat="47.26126" lon="-1.42188">
        <ele>55</ele>
        <time>2020-09-13T07:48:48.000Z</time>
      </trkpt>
      <trkpt lat="47.26136" lon="-1.42175">
        <ele>55</ele>
        <time>2020-09-13T07:48:50.000Z</time>
      </trkpt>
      <trkpt lat="47.26144" lon="-1.42161">
        <ele>55</ele>
        <time>2020-09-13T07:48:52.000Z</time>
      </trkpt>
      <trkpt lat="47.26151" lon="-1.42146">
        <ele>56</ele>
        <time>2020-09-13T07:48:54.000Z</time>
      </trkpt>
      <trkpt lat="47.26157" lon="-1.42134">
        <ele>57</ele>
        <time>2020-09-13T07:48:56.000Z</time>
      </trkpt>
      <trkpt lat="47.26164" lon="-1.42122">
        <ele>57</ele>
        <time>2020-09-13T07:48:58.000Z</time>
      </trkpt>
      <trkpt lat="47.26172" lon="-1.4211">
        <ele>57</ele>
        <time>2020-09-13T07:49:00.000Z</time>
      </trkpt>
      <trkpt lat="47.26181" lon="-1.42095">
        <ele>56</ele>
        <time>2020-09-13T07:49:02.000Z</time>
      </trkpt>
      <trkpt lat="47.2619" lon="-1.42081">
        <ele>56</ele>
        <time>2020-09-13T07:49:04.000Z</time>
      </trkpt>
      <trkpt lat="47.26202" lon="-1.42073">
        <ele>56</ele>
        <time>2020-09-13T07:49:06.000Z</time>
      </trkpt>
      <trkpt lat="47.26211" lon="-1.42063">
        <ele>55</ele>
        <time>2020-09-13T07:49:08.000Z</time>
      </trkpt>
      <trkpt lat="47.26218" lon="-1.42044">
        <ele>55</ele>
        <time>2020-09-13T07:49:10.000Z</time>
      </trkpt>
      <trkpt lat="47.26225" lon="-1.42026">
        <ele>55</ele>
        <time>2020-09-13T07:49:12.000Z</time>
      </trkpt>
      <trkpt lat="47.26234" lon="-1.4201">
        <ele>55</ele>
        <time>2020-09-13T07:49:14.000Z</time>
      </trkpt>
      <trkpt lat="47.26242" lon="-1.41995">
        <ele>55</ele>
        <time>2020-09-13T07:49:16.000Z</time>
      </trkpt>
      <trkpt lat="47.26251" lon="-1.4198">
        <ele>55</ele>
        <time>2020-09-13T07:49:18.000Z</time>
      </trkpt>
      <trkpt lat="47.26259" lon="-1.41965">
        <ele>55</ele>
        <time>2020-09-13T07:49:20.000Z</time>
      </trkpt>
      <trkpt lat="47.26268" lon="-1.4195">
        <ele>55</ele>
        <time>2020-09-13T07:49:22.000Z</time>
      </trkpt>
      <trkpt lat="47.26277" lon="-1.41935">
        <ele>55</ele>
        <time>2020-09-13T07:49:24.000Z</time>
      </trkpt>
      <trkpt lat="47.26285" lon="-1.41921">
        <ele>55</ele>
        <time>2020-09-13T07:49:26.000Z</time>
      </trkpt>
      <trkpt lat="47.26293" lon="-1.41906">
        <ele>55</ele>
        <time>2020-09-13T07:49:28.000Z</time>
      </trkpt>
      <trkpt lat="47.26302" lon="-1.41892">
        <ele>55</ele>
        <time>2020-09-13T07:49:30.000Z</time>
      </trkpt>
      <trkpt lat="47.26311" lon="-1.41877">
        <ele>54</ele>
        <time>2020-09-13T07:49:32.000Z</time>
      </trkpt>
      <trkpt lat="47.26319" lon="-1.41863">
        <ele>54</ele>
        <time>2020-09-13T07:49:34.000Z</time>
      </trkpt>
      <trkpt lat="47.26328" lon="-1.41848">
        <ele>54</ele>
        <time>2020-09-13T07:49:36.000Z</time>
      </trkpt>
      <trkpt lat="47.26336" lon="-1.41832">
        <ele>54</ele>
        <time>2020-09-13T07:49:38.000Z</time>
      </trkpt>
      <trkpt lat="47.26345" lon="-1.41818">
        <ele>53</ele>
        <time>2020-09-13T07:49:40.000Z</time>
      </trkpt>
      <trkpt lat="47.26353" lon="-1.41803">
        <ele>54</ele>
        <time>2020-09-13T07:49:42.000Z</time>
      </trkpt>
      <trkpt lat="47.26362" lon="-1.41789">
        <ele>54</ele>
        <time>2020-09-13T07:49:44.000Z</time>
      </trkpt>
      <trkpt lat="47.2637" lon="-1.41773">
        <ele>54</ele>
        <time>2020-09-13T07:49:46.000Z</time>
      </trkpt>
      <trkpt lat="47.26378" lon="-1.41759">
        <ele>54</ele>
        <time>2020-09-13T07:49:48.000Z</time>
      </trkpt>
      <trkpt lat="47.26387" lon="-1.41745">
        <ele>54</ele>
        <time>2020-09-13T07:49:50.000Z</time>
      </trkpt>
      <trkpt lat="47.26396" lon="-1.4173">
        <ele>54</ele>
        <time>2020-09-13T07:49:52.000Z</time>
      </trkpt>
      <trkpt lat="47.26404" lon="-1.41716">
        <ele>54</ele>
        <time>2020-09-13T07:49:54.000Z</time>
      </trkpt>
      <trkpt lat="47.26413" lon="-1.41701">
        <ele>54</ele>
        <time>2020-09-13T07:49:56.000Z</time>
      </trkpt>
      <trkpt lat="47.26422" lon="-1.41686">
        <ele>54</ele>
        <time>2020-09-13T07:49:58.000Z</time>
      </trkpt>
      <trkpt lat="47.2643" lon="-1.41672">
        <ele>54</ele>
        <time>2020-09-13T07:50:00.000Z</time>
      </trkpt>
      <trkpt lat="47.26439" lon="-1.41657">
        <ele>54</ele>
        <time>2020-09-13T07:50:02.000Z</time>
      </trkpt>
      <trkpt lat="47.26447" lon="-1.41643">
        <ele>54</ele>
        <time>2020-09-13T07:50:04.000Z</time>
      </trkpt>
      <trkpt lat="47.26456" lon="-1.41628">
        <ele>53</ele>
        <time>2020-09-13T07:50:06.000Z</time>
      </trkpt>
      <trkpt lat="47.26464" lon="-1.41614">
        <ele>54</ele>
        <time>2020-09-13T07:50:08.000Z</time>
      </trkpt>
      <trkpt lat="47.26472" lon="-1.41599">
        <ele>54</ele>
        <time>2020-09-13T07:50:10.000Z</time>
      </trkpt>
      <trkpt lat="47.26481" lon="-1.41585">
        <ele>54</ele>
        <time>2020-09-13T07:50:12.000Z</time>
      </trkpt>
      <trkpt lat="47.26489" lon="-1.4157">
        <ele>54</ele>
        <time>2020-09-13T07:50:14.000Z</time>
      </trkpt>
      <trkpt lat="47.26497" lon="-1.41556">
        <ele>54</ele>
        <time>2020-09-13T07:50:16.000Z</time>
      </trkpt>
      <trkpt lat="47.26506" lon="-1.41542">
        <ele>54</ele>
        <time>2020-09-13T07:50:18.000Z</time>
      </trkpt>
      <trkpt lat="47.26514" lon="-1.41527">
        <ele>54</ele>
        <time>2020-09-13T07:50:20.000Z</time>
      </trkpt>
      <trkpt lat="47.26523" lon="-1.41513">
        <ele>55</ele>
        <time>2020-09-13T07:50:22.000Z</time>
      </trkpt>
      <trkpt lat="47.26532" lon="-1.41498">
        <ele>55</ele>
        <time>2020-09-13T07:50:24.000Z</time>
      </trkpt>
      <trkpt lat="47.26541" lon="-1.41484">
        <ele>55</ele>
        <time>2020-09-13T07:50:26.000Z</time>
      </trkpt>
      <trkpt lat="47.2655" lon="-1.41472">
        <ele>55</ele>
        <time>2020-09-13T07:50:28.000Z</time>
      </trkpt>
      <trkpt lat="47.26559" lon="-1.41458">
        <ele>54</ele>
        <time>2020-09-13T07:50:30.000Z</time>
      </trkpt>
      <trkpt lat="47.26567" lon="-1.41442">
        <ele>54</ele>
        <time>2020-09-13T07:50:32.000Z</time>
      </trkpt>
      <trkpt lat="47.26575" lon="-1.41423">
        <ele>54</ele>
        <time>2020-09-13T07:50:34.000Z</time>
      </trkpt>
      <trkpt lat="47.26582" lon="-1.41406">
        <ele>54</ele>
        <time>2020-09-13T07:50:36.000Z</time>
      </trkpt>
      <trkpt lat="47.26589" lon="-1.41388">
        <ele>53</ele>
        <time>2020-09-13T07:50:38.000Z</time>
      </trkpt>
      <trkpt lat="47.26596" lon="-1.4137">
        <ele>53</ele>
        <time>2020-09-13T07:50:40.000Z</time>
      </trkpt>
      <trkpt lat="47.26603" lon="-1.41353">
        <ele>54</ele>
        <time>2020-09-13T07:50:42.000Z</time>
      </trkpt>
      <trkpt lat="47.2661" lon="-1.41336">
        <ele>54</ele>
        <time>2020-09-13T07:50:44.000Z</time>
      </trkpt>
      <trkpt lat="47.26619" lon="-1.4132">
        <ele>54</ele>
        <time>2020-09-13T07:50:46.000Z</time>
      </trkpt>
      <trkpt lat="47.26628" lon="-1.41305">
        <ele>54</ele>
        <time>2020-09-13T07:50:48.000Z</time>
      </trkpt>
      <trkpt lat="47.26637" lon="-1.41291">
        <ele>53</ele>
        <time>2020-09-13T07:50:50.000Z</time>
      </trkpt>
      <trkpt lat="47.26648" lon="-1.41278">
        <ele>53</ele>
        <time>2020-09-13T07:50:52.000Z</time>
      </trkpt>
      <trkpt lat="47.26656" lon="-1.41263">
        <ele>53</ele>
        <time>2020-09-13T07:50:54.000Z</time>
      </trkpt>
      <trkpt lat="47.26665" lon="-1.41248">
        <ele>54</ele>
        <time>2020-09-13T07:50:56.000Z</time>
      </trkpt>
      <trkpt lat="47.26674" lon="-1.41232">
        <ele>54</ele>
        <time>2020-09-13T07:50:58.000Z</time>
      </trkpt>
      <trkpt lat="47.26684" lon="-1.4122">
        <ele>54</ele>
        <time>2020-09-13T07:51:00.000Z</time>
      </trkpt>
      <trkpt lat="47.26694" lon="-1.41208">
        <ele>54</ele>
        <time>2020-09-13T07:51:02.000Z</time>
      </trkpt>
      <trkpt lat="47.26705" lon="-1.41197">
        <ele>54</ele>
        <time>2020-09-13T07:51:04.000Z</time>
      </trkpt>
      <trkpt lat="47.26715" lon="-1.41185">
        <ele>54</ele>
        <time>2020-09-13T07:51:06.000Z</time>
      </trkpt>
      <trkpt lat="47.26725" lon="-1.41172">
        <ele>54</ele>
        <time>2020-09-13T07:51:08.000Z</time>
      </trkpt>
      <trkpt lat="47.26735" lon="-1.4116">
        <ele>54</ele>
        <time>2020-09-13T07:51:10.000Z</time>
      </trkpt>
      <trkpt lat="47.26746" lon="-1.41148">
        <ele>54</ele>
        <time>2020-09-13T07:51:12.000Z</time>
      </trkpt>
      <trkpt lat="47.26756" lon="-1.41136">
        <ele>54</ele>
        <time>2020-09-13T07:51:14.000Z</time>
      </trkpt>
      <trkpt lat="47.26765" lon="-1.41123">
        <ele>54</ele>
        <time>2020-09-13T07:51:16.000Z</time>
      </trkpt>
      <trkpt lat="47.26773" lon="-1.41107">
        <ele>54</ele>
        <time>2020-09-13T07:51:18.000Z</time>
      </trkpt>
      <trkpt lat="47.26777" lon="-1.4109">
        <ele>54</ele>
        <time>2020-09-13T07:51:20.000Z</time>
      </trkpt>
      <trkpt lat="47.26782" lon="-1.41072">
        <ele>54</ele>
        <time>2020-09-13T07:51:22.000Z</time>
      </trkpt>
      <trkpt lat="47.26788" lon="-1.41055">
        <ele>54</ele>
        <time>2020-09-13T07:51:24.000Z</time>
      </trkpt>
      <trkpt lat="47.26794" lon="-1.41039">
        <ele>54</ele>
        <time>2020-09-13T07:51:26.000Z</time>
      </trkpt>
      <trkpt lat="47.26802" lon="-1.41023">
        <ele>54</ele>
        <time>2020-09-13T07:51:28.000Z</time>
      </trkpt>
      <trkpt lat="47.26813" lon="-1.41011">
        <ele>53</ele>
        <time>2020-09-13T07:51:30.000Z</time>
      </trkpt>
      <trkpt lat="47.26823" lon="-1.40998">
        <ele>53</ele>
        <time>2020-09-13T07:51:32.000Z</time>
      </trkpt>
      <trkpt lat="47.2683" lon="-1.40984">
        <ele>53</ele>
        <time>2020-09-13T07:51:34.000Z</time>
      </trkpt>
      <trkpt lat="47.26836" lon="-1.40968">
        <ele>54</ele>
        <time>2020-09-13T07:51:36.000Z</time>
      </trkpt>
      <trkpt lat="47.26843" lon="-1.40954">
        <ele>55</ele>
        <time>2020-09-13T07:51:38.000Z</time>
      </trkpt>
      <trkpt lat="47.2685" lon="-1.40939">
        <ele>55</ele>
        <time>2020-09-13T07:51:40.000Z</time>
      </trkpt>
      <trkpt lat="47.2686" lon="-1.40926">
        <ele>55</ele>
        <time>2020-09-13T07:51:42.000Z</time>
      </trkpt>
      <trkpt lat="47.2687" lon="-1.40911">
        <ele>54</ele>
        <time>2020-09-13T07:51:44.000Z</time>
      </trkpt>
      <trkpt lat="47.26875" lon="-1.40891">
        <ele>54</ele>
        <time>2020-09-13T07:51:46.000Z</time>
      </trkpt>
      <trkpt lat="47.26883" lon="-1.40872">
        <ele>53</ele>
        <time>2020-09-13T07:51:48.000Z</time>
      </trkpt>
      <trkpt lat="47.26894" lon="-1.40856">
        <ele>53</ele>
        <time>2020-09-13T07:51:50.000Z</time>
      </trkpt>
      <trkpt lat="47.26903" lon="-1.4084">
        <ele>54</ele>
        <time>2020-09-13T07:51:52.000Z</time>
      </trkpt>
      <trkpt lat="47.26911" lon="-1.40825">
        <ele>54</ele>
        <time>2020-09-13T07:51:54.000Z</time>
      </trkpt>
      <trkpt lat="47.26919" lon="-1.4081">
        <ele>54</ele>
        <time>2020-09-13T07:51:56.000Z</time>
      </trkpt>
      <trkpt lat="47.26927" lon="-1.40793">
        <ele>54</ele>
        <time>2020-09-13T07:51:58.000Z</time>
      </trkpt>
      <trkpt lat="47.26931" lon="-1.40775">
        <ele>54</ele>
        <time>2020-09-13T07:52:00.000Z</time>
      </trkpt>
      <trkpt lat="47.26932" lon="-1.40756">
        <ele>54</ele>
        <time>2020-09-13T07:52:02.000Z</time>
      </trkpt>
      <trkpt lat="47.26933" lon="-1.40734">
        <ele>53</ele>
        <time>2020-09-13T07:52:04.000Z</time>
      </trkpt>
      <trkpt lat="47.26933" lon="-1.40713">
        <ele>53</ele>
        <time>2020-09-13T07:52:06.000Z</time>
      </trkpt>
      <trkpt lat="47.26933" lon="-1.40693">
        <ele>53</ele>
        <time>2020-09-13T07:52:08.000Z</time>
      </trkpt>
      <trkpt lat="47.26935" lon="-1.40674">
        <ele>52</ele>
        <time>2020-09-13T07:52:10.000Z</time>
      </trkpt>
      <trkpt lat="47.26937" lon="-1.40655">
        <ele>53</ele>
        <time>2020-09-13T07:52:12.000Z</time>
      </trkpt>
      <trkpt lat="47.26938" lon="-1.40637">
        <ele>53</ele>
        <time>2020-09-13T07:52:14.000Z</time>
      </trkpt>
      <trkpt lat="47.26941" lon="-1.4062">
        <ele>54</ele>
        <time>2020-09-13T07:52:16.000Z</time>
      </trkpt>
      <trkpt lat="47.26945" lon="-1.40602">
        <ele>54</ele>
        <time>2020-09-13T07:52:18.000Z</time>
      </trkpt>
      <trkpt lat="47.26949" lon="-1.40584">
        <ele>54</ele>
        <time>2020-09-13T07:52:20.000Z</time>
      </trkpt>
      <trkpt lat="47.26956" lon="-1.40566">
        <ele>54</ele>
        <time>2020-09-13T07:52:22.000Z</time>
      </trkpt>
      <trkpt lat="47.26963" lon="-1.40549">
        <ele>54</ele>
        <time>2020-09-13T07:52:24.000Z</time>
      </trkpt>
      <trkpt lat="47.26971" lon="-1.40533">
        <ele>55</ele>
        <time>2020-09-13T07:52:26.000Z</time>
      </trkpt>
      <trkpt lat="47.2698" lon="-1.40519">
        <ele>55</ele>
        <time>2020-09-13T07:52:28.000Z</time>
      </trkpt>
      <trkpt lat="47.26989" lon="-1.40504">
        <ele>54</ele>
        <time>2020-09-13T07:52:30.000Z</time>
      </trkpt>
      <trkpt lat="47.26998" lon="-1.4049">
        <ele>54</ele>
        <time>2020-09-13T07:52:32.000Z</time>
      </trkpt>
      <trkpt lat="47.27008" lon="-1.40475">
        <ele>55</ele>
        <time>2020-09-13T07:52:34.000Z</time>
      </trkpt>
      <trkpt lat="47.27017" lon="-1.40461">
        <ele>55</ele>
        <time>2020-09-13T07:52:36.000Z</time>
      </trkpt>
      <trkpt lat="47.27026" lon="-1.40446">
        <ele>55</ele>
        <time>2020-09-13T07:52:38.000Z</time>
      </trkpt>
      <trkpt lat="47.27035" lon="-1.40432">
        <ele>55</ele>
        <time>2020-09-13T07:52:40.000Z</time>
      </trkpt>
      <trkpt lat="47.27044" lon="-1.40418">
        <ele>55</ele>
        <time>2020-09-13T07:52:42.000Z</time>
      </trkpt>
      <trkpt lat="47.27053" lon="-1.40403">
        <ele>55</ele>
        <time>2020-09-13T07:52:44.000Z</time>
      </trkpt>
      <trkpt lat="47.27062" lon="-1.40389">
        <ele>55</ele>
        <time>2020-09-13T07:52:46.000Z</time>
      </trkpt>
      <trkpt lat="47.27071" lon="-1.40375">
        <ele>55</ele>
        <time>2020-09-13T07:52:48.000Z</time>
      </trkpt>
      <trkpt lat="47.2708" lon="-1.40361">
        <ele>56</ele>
        <time>2020-09-13T07:52:50.000Z</time>
      </trkpt>
      <trkpt lat="47.27088" lon="-1.40347">
        <ele>57</ele>
        <time>2020-09-13T07:52:52.000Z</time>
      </trkpt>
      <trkpt lat="47.27098" lon="-1.40332">
        <ele>57</ele>
        <time>2020-09-13T07:52:54.000Z</time>
      </trkpt>
      <trkpt lat="47.27107" lon="-1.40318">
        <ele>57</ele>
        <time>2020-09-13T07:52:56.000Z</time>
      </trkpt>
      <trkpt lat="47.27116" lon="-1.40304">
        <ele>57</ele>
        <time>2020-09-13T07:52:58.000Z</time>
      </trkpt>
      <trkpt lat="47.27125" lon="-1.4029">
        <ele>56</ele>
        <time>2020-09-13T07:53:00.000Z</time>
      </trkpt>
      <trkpt lat="47.27134" lon="-1.40276">
        <ele>56</ele>
        <time>2020-09-13T07:53:02.000Z</time>
      </trkpt>
      <trkpt lat="47.27143" lon="-1.40262">
        <ele>56</ele>
        <time>2020-09-13T07:53:04.000Z</time>
      </trkpt>
      <trkpt lat="47.27153" lon="-1.40247">
        <ele>56</ele>
        <time>2020-09-13T07:53:06.000Z</time>
      </trkpt>
      <trkpt lat="47.27162" lon="-1.40233">
        <ele>56</ele>
        <time>2020-09-13T07:53:08.000Z</time>
      </trkpt>
      <trkpt lat="47.2717" lon="-1.40219">
        <ele>56</ele>
        <time>2020-09-13T07:53:10.000Z</time>
      </trkpt>
      <trkpt lat="47.27179" lon="-1.40205">
        <ele>55</ele>
        <time>2020-09-13T07:53:12.000Z</time>
      </trkpt>
      <trkpt lat="47.27189" lon="-1.40193">
        <ele>55</ele>
        <time>2020-09-13T07:53:14.000Z</time>
      </trkpt>
      <trkpt lat="47.27199" lon="-1.4018">
        <ele>55</ele>
        <time>2020-09-13T07:53:16.000Z</time>
      </trkpt>
      <trkpt lat="47.27207" lon="-1.40167">
        <ele>55</ele>
        <time>2020-09-13T07:53:18.000Z</time>
      </trkpt>
      <trkpt lat="47.27214" lon="-1.40151">
        <ele>55</ele>
        <time>2020-09-13T07:53:20.000Z</time>
      </trkpt>
      <trkpt lat="47.27223" lon="-1.40137">
        <ele>55</ele>
        <time>2020-09-13T07:53:22.000Z</time>
      </trkpt>
      <trkpt lat="47.27232" lon="-1.40124">
        <ele>55</ele>
        <time>2020-09-13T07:53:24.000Z</time>
      </trkpt>
      <trkpt lat="47.27241" lon="-1.4011">
        <ele>55</ele>
        <time>2020-09-13T07:53:26.000Z</time>
      </trkpt>
      <trkpt lat="47.27249" lon="-1.40096">
        <ele>55</ele>
        <time>2020-09-13T07:53:28.000Z</time>
      </trkpt>
      <trkpt lat="47.27258" lon="-1.40082">
        <ele>56</ele>
        <time>2020-09-13T07:53:30.000Z</time>
      </trkpt>
      <trkpt lat="47.27267" lon="-1.40069">
        <ele>55</ele>
        <time>2020-09-13T07:53:32.000Z</time>
      </trkpt>
      <trkpt lat="47.27276" lon="-1.40055">
        <ele>55</ele>
        <time>2020-09-13T07:53:34.000Z</time>
      </trkpt>
      <trkpt lat="47.27285" lon="-1.40041">
        <ele>55</ele>
        <time>2020-09-13T07:53:36.000Z</time>
      </trkpt>
      <trkpt lat="47.27293" lon="-1.40027">
        <ele>55</ele>
        <time>2020-09-13T07:53:38.000Z</time>
      </trkpt>
      <trkpt lat="47.27302" lon="-1.40014">
        <ele>55</ele>
        <time>2020-09-13T07:53:40.000Z</time>
      </trkpt>
      <trkpt lat="47.27311" lon="-1.4">
        <ele>55</ele>
        <time>2020-09-13T07:53:42.000Z</time>
      </trkpt>
      <trkpt lat="47.2732" lon="-1.39985">
        <ele>55</ele>
        <time>2020-09-13T07:53:44.000Z</time>
      </trkpt>
      <trkpt lat="47.27328" lon="-1.39971">
        <ele>55</ele>
        <time>2020-09-13T07:53:46.000Z</time>
      </trkpt>
      <trkpt lat="47.27337" lon="-1.39958">
        <ele>55</ele>
        <time>2020-09-13T07:53:48.000Z</time>
      </trkpt>
      <trkpt lat="47.27346" lon="-1.39944">
        <ele>55</ele>
        <time>2020-09-13T07:53:50.000Z</time>
      </trkpt>
      <trkpt lat="47.27355" lon="-1.39929">
        <ele>55</ele>
        <time>2020-09-13T07:53:52.000Z</time>
      </trkpt>
      <trkpt lat="47.27363" lon="-1.39915">
        <ele>56</ele>
        <time>2020-09-13T07:53:54.000Z</time>
      </trkpt>
      <trkpt lat="47.27372" lon="-1.39902">
        <ele>55</ele>
        <time>2020-09-13T07:53:56.000Z</time>
      </trkpt>
      <trkpt lat="47.27382" lon="-1.39891">
        <ele>56</ele>
        <time>2020-09-13T07:53:58.000Z</time>
      </trkpt>
      <trkpt lat="47.27394" lon="-1.39888">
        <ele>55</ele>
        <time>2020-09-13T07:54:00.000Z</time>
      </trkpt>
      <trkpt lat="47.27406" lon="-1.39892">
        <ele>55</ele>
        <time>2020-09-13T07:54:02.000Z</time>
      </trkpt>
      <trkpt lat="47.27417" lon="-1.39892">
        <ele>55</ele>
        <time>2020-09-13T07:54:04.000Z</time>
      </trkpt>
      <trkpt lat="47.27425" lon="-1.39883">
        <ele>55</ele>
        <time>2020-09-13T07:54:06.000Z</time>
      </trkpt>
      <trkpt lat="47.27429" lon="-1.39867">
        <ele>55</ele>
        <time>2020-09-13T07:54:08.000Z</time>
      </trkpt>
      <trkpt lat="47.27434" lon="-1.3985">
        <ele>55</ele>
        <time>2020-09-13T07:54:10.000Z</time>
      </trkpt>
      <trkpt lat="47.27438" lon="-1.39831">
        <ele>54</ele>
        <time>2020-09-13T07:54:12.000Z</time>
      </trkpt>
      <trkpt lat="47.27444" lon="-1.39813">
        <ele>54</ele>
        <time>2020-09-13T07:54:14.000Z</time>
      </trkpt>
      <trkpt lat="47.27453" lon="-1.39796">
        <ele>53</ele>
        <time>2020-09-13T07:54:16.000Z</time>
      </trkpt>
      <trkpt lat="47.27461" lon="-1.39778">
        <ele>53</ele>
        <time>2020-09-13T07:54:18.000Z</time>
      </trkpt>
      <trkpt lat="47.2747" lon="-1.39761">
        <ele>53</ele>
        <time>2020-09-13T07:54:20.000Z</time>
      </trkpt>
      <trkpt lat="47.27478" lon="-1.39746">
        <ele>54</ele>
        <time>2020-09-13T07:54:22.000Z</time>
      </trkpt>
      <trkpt lat="47.27485" lon="-1.39732">
        <ele>54</ele>
        <time>2020-09-13T07:54:24.000Z</time>
      </trkpt>
      <trkpt lat="47.27491" lon="-1.39716">
        <ele>54</ele>
        <time>2020-09-13T07:54:26.000Z</time>
      </trkpt>
      <trkpt lat="47.27499" lon="-1.39702">
        <ele>54</ele>
        <time>2020-09-13T07:54:28.000Z</time>
      </trkpt>
      <trkpt lat="47.27508" lon="-1.39688">
        <ele>55</ele>
        <time>2020-09-13T07:54:30.000Z</time>
      </trkpt>
      <trkpt lat="47.27517" lon="-1.39674">
        <ele>55</ele>
        <time>2020-09-13T07:54:32.000Z</time>
      </trkpt>
      <trkpt lat="47.27526" lon="-1.3966">
        <ele>55</ele>
        <time>2020-09-13T07:54:34.000Z</time>
      </trkpt>
      <trkpt lat="47.27535" lon="-1.39647">
        <ele>55</ele>
        <time>2020-09-13T07:54:36.000Z</time>
      </trkpt>
      <trkpt lat="47.27544" lon="-1.39632">
        <ele>55</ele>
        <time>2020-09-13T07:54:38.000Z</time>
      </trkpt>
      <trkpt lat="47.27553" lon="-1.39619">
        <ele>55</ele>
        <time>2020-09-13T07:54:40.000Z</time>
      </trkpt>
      <trkpt lat="47.27562" lon="-1.39604">
        <ele>55</ele>
        <time>2020-09-13T07:54:42.000Z</time>
      </trkpt>
      <trkpt lat="47.27571" lon="-1.3959">
        <ele>55</ele>
        <time>2020-09-13T07:54:44.000Z</time>
      </trkpt>
      <trkpt lat="47.2758" lon="-1.39576">
        <ele>55</ele>
        <time>2020-09-13T07:54:46.000Z</time>
      </trkpt>
      <trkpt lat="47.27589" lon="-1.39562">
        <ele>55</ele>
        <time>2020-09-13T07:54:48.000Z</time>
      </trkpt>
      <trkpt lat="47.27598" lon="-1.39548">
        <ele>55</ele>
        <time>2020-09-13T07:54:50.000Z</time>
      </trkpt>
      <trkpt lat="47.27607" lon="-1.39535">
        <ele>54</ele>
        <time>2020-09-13T07:54:52.000Z</time>
      </trkpt>
      <trkpt lat="47.27617" lon="-1.39524">
        <ele>54</ele>
        <time>2020-09-13T07:54:54.000Z</time>
      </trkpt>
      <trkpt lat="47.27626" lon="-1.39515">
        <ele>54</ele>
        <time>2020-09-13T07:54:56.000Z</time>
      </trkpt>
      <trkpt lat="47.27633" lon="-1.395">
        <ele>54</ele>
        <time>2020-09-13T07:54:58.000Z</time>
      </trkpt>
      <trkpt lat="47.27641" lon="-1.39485">
        <ele>54</ele>
        <time>2020-09-13T07:55:00.000Z</time>
      </trkpt>
      <trkpt lat="47.27649" lon="-1.3947">
        <ele>54</ele>
        <time>2020-09-13T07:55:02.000Z</time>
      </trkpt>
      <trkpt lat="47.27657" lon="-1.39455">
        <ele>54</ele>
        <time>2020-09-13T07:55:04.000Z</time>
      </trkpt>
      <trkpt lat="47.27666" lon="-1.3944">
        <ele>54</ele>
        <time>2020-09-13T07:55:06.000Z</time>
      </trkpt>
      <trkpt lat="47.27674" lon="-1.39424">
        <ele>54</ele>
        <time>2020-09-13T07:55:08.000Z</time>
      </trkpt>
      <trkpt lat="47.27682" lon="-1.39409">
        <ele>54</ele>
        <time>2020-09-13T07:55:10.000Z</time>
      </trkpt>
      <trkpt lat="47.2769" lon="-1.39393">
        <ele>54</ele>
        <time>2020-09-13T07:55:12.000Z</time>
      </trkpt>
      <trkpt lat="47.27697" lon="-1.39377">
        <ele>54</ele>
        <time>2020-09-13T07:55:14.000Z</time>
      </trkpt>
      <trkpt lat="47.27704" lon="-1.39362">
        <ele>54</ele>
        <time>2020-09-13T07:55:16.000Z</time>
      </trkpt>
      <trkpt lat="47.27712" lon="-1.39346">
        <ele>54</ele>
        <time>2020-09-13T07:55:18.000Z</time>
      </trkpt>
      <trkpt lat="47.27719" lon="-1.39332">
        <ele>54</ele>
        <time>2020-09-13T07:55:20.000Z</time>
      </trkpt>
      <trkpt lat="47.27726" lon="-1.39317">
        <ele>55</ele>
        <time>2020-09-13T07:55:22.000Z</time>
      </trkpt>
      <trkpt lat="47.27733" lon="-1.39301">
        <ele>55</ele>
        <time>2020-09-13T07:55:24.000Z</time>
      </trkpt>
      <trkpt lat="47.2774" lon="-1.39285">
        <ele>55</ele>
        <time>2020-09-13T07:55:26.000Z</time>
      </trkpt>
      <trkpt lat="47.27748" lon="-1.39269">
        <ele>54</ele>
        <time>2020-09-13T07:55:28.000Z</time>
      </trkpt>
      <trkpt lat="47.27756" lon="-1.39253">
        <ele>54</ele>
        <time>2020-09-13T07:55:30.000Z</time>
      </trkpt>
      <trkpt lat="47.27763" lon="-1.39238">
        <ele>55</ele>
        <time>2020-09-13T07:55:32.000Z</time>
      </trkpt>
      <trkpt lat="47.2777" lon="-1.39222">
        <ele>54</ele>
        <time>2020-09-13T07:55:34.000Z</time>
      </trkpt>
      <trkpt lat="47.27777" lon="-1.39207">
        <ele>54</ele>
        <time>2020-09-13T07:55:36.000Z</time>
      </trkpt>
      <trkpt lat="47.27785" lon="-1.39192">
        <ele>55</ele>
        <time>2020-09-13T07:55:38.000Z</time>
      </trkpt>
      <trkpt lat="47.27792" lon="-1.39178">
        <ele>55</ele>
        <time>2020-09-13T07:55:40.000Z</time>
      </trkpt>
      <trkpt lat="47.278" lon="-1.39163">
        <ele>55</ele>
        <time>2020-09-13T07:55:42.000Z</time>
      </trkpt>
      <trkpt lat="47.27809" lon="-1.39149">
        <ele>55</ele>
        <time>2020-09-13T07:55:44.000Z</time>
      </trkpt>
      <trkpt lat="47.27818" lon="-1.39135">
        <ele>55</ele>
        <time>2020-09-13T07:55:46.000Z</time>
      </trkpt>
      <trkpt lat="47.27826" lon="-1.39121">
        <ele>55</ele>
        <time>2020-09-13T07:55:48.000Z</time>
      </trkpt>
      <trkpt lat="47.27835" lon="-1.39107">
        <ele>56</ele>
        <time>2020-09-13T07:55:50.000Z</time>
      </trkpt>
      <trkpt lat="47.27844" lon="-1.39092">
        <ele>55</ele>
        <time>2020-09-13T07:55:52.000Z</time>
      </trkpt>
      <trkpt lat="47.27853" lon="-1.39077">
        <ele>55</ele>
        <time>2020-09-13T07:55:54.000Z</time>
      </trkpt>
      <trkpt lat="47.27861" lon="-1.39063">
        <ele>55</ele>
        <time>2020-09-13T07:55:56.000Z</time>
      </trkpt>
      <trkpt lat="47.2787" lon="-1.3905">
        <ele>55</ele>
        <time>2020-09-13T07:55:58.000Z</time>
      </trkpt>
      <trkpt lat="47.27878" lon="-1.39036">
        <ele>55</ele>
        <time>2020-09-13T07:56:00.000Z</time>
      </trkpt>
      <trkpt lat="47.27886" lon="-1.39022">
        <ele>55</ele>
        <time>2020-09-13T07:56:02.000Z</time>
      </trkpt>
      <trkpt lat="47.27895" lon="-1.39009">
        <ele>55</ele>
        <time>2020-09-13T07:56:04.000Z</time>
      </trkpt>
      <trkpt lat="47.27905" lon="-1.38997">
        <ele>55</ele>
        <time>2020-09-13T07:56:06.000Z</time>
      </trkpt>
      <trkpt lat="47.27913" lon="-1.38983">
        <ele>55</ele>
        <time>2020-09-13T07:56:08.000Z</time>
      </trkpt>
      <trkpt lat="47.2792" lon="-1.38968">
        <ele>55</ele>
        <time>2020-09-13T07:56:10.000Z</time>
      </trkpt>
      <trkpt lat="47.27929" lon="-1.38954">
        <ele>55</ele>
        <time>2020-09-13T07:56:12.000Z</time>
      </trkpt>
      <trkpt lat="47.27938" lon="-1.3894">
        <ele>56</ele>
        <time>2020-09-13T07:56:14.000Z</time>
      </trkpt>
      <trkpt lat="47.27946" lon="-1.38926">
        <ele>56</ele>
        <time>2020-09-13T07:56:16.000Z</time>
      </trkpt>
      <trkpt lat="47.27955" lon="-1.38913">
        <ele>56</ele>
        <time>2020-09-13T07:56:18.000Z</time>
      </trkpt>
      <trkpt lat="47.27964" lon="-1.38899">
        <ele>56</ele>
        <time>2020-09-13T07:56:20.000Z</time>
      </trkpt>
      <trkpt lat="47.27974" lon="-1.38886">
        <ele>56</ele>
        <time>2020-09-13T07:56:22.000Z</time>
      </trkpt>
      <trkpt lat="47.27983" lon="-1.38873">
        <ele>56</ele>
        <time>2020-09-13T07:56:24.000Z</time>
      </trkpt>
      <trkpt lat="47.27992" lon="-1.38861">
        <ele>56</ele>
        <time>2020-09-13T07:56:26.000Z</time>
      </trkpt>
      <trkpt lat="47.28002" lon="-1.38849">
        <ele>56</ele>
        <time>2020-09-13T07:56:28.000Z</time>
      </trkpt>
      <trkpt lat="47.28012" lon="-1.38839">
        <ele>56</ele>
        <time>2020-09-13T07:56:30.000Z</time>
      </trkpt>
      <trkpt lat="47.28021" lon="-1.38829">
        <ele>56</ele>
        <time>2020-09-13T07:56:32.000Z</time>
      </trkpt>
      <trkpt lat="47.28031" lon="-1.3882">
        <ele>56</ele>
        <time>2020-09-13T07:56:34.000Z</time>
      </trkpt>
      <trkpt lat="47.28041" lon="-1.38813">
        <ele>56</ele>
        <time>2020-09-13T07:56:36.000Z</time>
      </trkpt>
      <trkpt lat="47.28052" lon="-1.38806">
        <ele>56</ele>
        <time>2020-09-13T07:56:38.000Z</time>
      </trkpt>
      <trkpt lat="47.28063" lon="-1.38799">
        <ele>55</ele>
        <time>2020-09-13T07:56:40.000Z</time>
      </trkpt>
      <trkpt lat="47.28073" lon="-1.38789">
        <ele>55</ele>
        <time>2020-09-13T07:56:42.000Z</time>
      </trkpt>
      <trkpt lat="47.28084" lon="-1.38783">
        <ele>54</ele>
        <time>2020-09-13T07:56:44.000Z</time>
      </trkpt>
      <trkpt lat="47.28095" lon="-1.38783">
        <ele>54</ele>
        <time>2020-09-13T07:56:46.000Z</time>
      </trkpt>
      <trkpt lat="47.28106" lon="-1.38776">
        <ele>54</ele>
        <time>2020-09-13T07:56:48.000Z</time>
      </trkpt>
      <trkpt lat="47.28117" lon="-1.38766">
        <ele>55</ele>
        <time>2020-09-13T07:56:50.000Z</time>
      </trkpt>
      <trkpt lat="47.28129" lon="-1.38757">
        <ele>55</ele>
        <time>2020-09-13T07:56:52.000Z</time>
      </trkpt>
      <trkpt lat="47.28141" lon="-1.38746">
        <ele>55</ele>
        <time>2020-09-13T07:56:54.000Z</time>
      </trkpt>
      <trkpt lat="47.28152" lon="-1.38735">
        <ele>55</ele>
        <time>2020-09-13T07:56:56.000Z</time>
      </trkpt>
      <trkpt lat="47.28164" lon="-1.38724">
        <ele>54</ele>
        <time>2020-09-13T07:56:58.000Z</time>
      </trkpt>
      <trkpt lat="47.28173" lon="-1.3871">
        <ele>54</ele>
        <time>2020-09-13T07:57:00.000Z</time>
      </trkpt>
      <trkpt lat="47.28178" lon="-1.38693">
        <ele>54</ele>
        <time>2020-09-13T07:57:02.000Z</time>
      </trkpt>
      <trkpt lat="47.28181" lon="-1.38674">
        <ele>53</ele>
        <time>2020-09-13T07:57:04.000Z</time>
      </trkpt>
      <trkpt lat="47.28187" lon="-1.38657">
        <ele>53</ele>
        <time>2020-09-13T07:57:06.000Z</time>
      </trkpt>
      <trkpt lat="47.28193" lon="-1.3864">
        <ele>54</ele>
        <time>2020-09-13T07:57:08.000Z</time>
      </trkpt>
      <trkpt lat="47.28197" lon="-1.38624">
        <ele>54</ele>
        <time>2020-09-13T07:57:10.000Z</time>
      </trkpt>
      <trkpt lat="47.28199" lon="-1.38605">
        <ele>54</ele>
        <time>2020-09-13T07:57:12.000Z</time>
      </trkpt>
      <trkpt lat="47.28199" lon="-1.38586">
        <ele>55</ele>
        <time>2020-09-13T07:57:14.000Z</time>
      </trkpt>
      <trkpt lat="47.28199" lon="-1.38568">
        <ele>55</ele>
        <time>2020-09-13T07:57:16.000Z</time>
      </trkpt>
      <trkpt lat="47.28201" lon="-1.3855">
        <ele>55</ele>
        <time>2020-09-13T07:57:18.000Z</time>
      </trkpt>
      <trkpt lat="47.28202" lon="-1.38532">
        <ele>55</ele>
        <time>2020-09-13T07:57:20.000Z</time>
      </trkpt>
      <trkpt lat="47.28207" lon="-1.38514">
        <ele>54</ele>
        <time>2020-09-13T07:57:22.000Z</time>
      </trkpt>
      <trkpt lat="47.28213" lon="-1.38497">
        <ele>55</ele>
        <time>2020-09-13T07:57:24.000Z</time>
      </trkpt>
      <trkpt lat="47.2822" lon="-1.38481">
        <ele>54</ele>
        <time>2020-09-13T07:57:26.000Z</time>
      </trkpt>
      <trkpt lat="47.28228" lon="-1.38464">
        <ele>53</ele>
        <time>2020-09-13T07:57:28.000Z</time>
      </trkpt>
      <trkpt lat="47.28234" lon="-1.38449">
        <ele>54</ele>
        <time>2020-09-13T07:57:30.000Z</time>
      </trkpt>
      <trkpt lat="47.2824" lon="-1.38437">
        <ele>55</ele>
        <time>2020-09-13T07:57:32.000Z</time>
      </trkpt>
      <trkpt lat="47.28249" lon="-1.38423">
        <ele>54</ele>
        <time>2020-09-13T07:57:34.000Z</time>
      </trkpt>
      <trkpt lat="47.28257" lon="-1.38407">
        <ele>54</ele>
        <time>2020-09-13T07:57:36.000Z</time>
      </trkpt>
      <trkpt lat="47.28264" lon="-1.38391">
        <ele>54</ele>
        <time>2020-09-13T07:57:38.000Z</time>
      </trkpt>
      <trkpt lat="47.28271" lon="-1.38375">
        <ele>53</ele>
        <time>2020-09-13T07:57:40.000Z</time>
      </trkpt>
      <trkpt lat="47.28277" lon="-1.38359">
        <ele>53</ele>
        <time>2020-09-13T07:57:42.000Z</time>
      </trkpt>
      <trkpt lat="47.28284" lon="-1.38343">
        <ele>54</ele>
        <time>2020-09-13T07:57:44.000Z</time>
      </trkpt>
      <trkpt lat="47.28291" lon="-1.38328">
        <ele>53</ele>
        <time>2020-09-13T07:57:46.000Z</time>
      </trkpt>
      <trkpt lat="47.28298" lon="-1.38313">
        <ele>53</ele>
        <time>2020-09-13T07:57:48.000Z</time>
      </trkpt>
      <trkpt lat="47.28306" lon="-1.38299">
        <ele>53</ele>
        <time>2020-09-13T07:57:50.000Z</time>
      </trkpt>
      <trkpt lat="47.28315" lon="-1.38285">
        <ele>54</ele>
        <time>2020-09-13T07:57:52.000Z</time>
      </trkpt>
      <trkpt lat="47.28325" lon="-1.38274">
        <ele>53</ele>
        <time>2020-09-13T07:57:54.000Z</time>
      </trkpt>
      <trkpt lat="47.28334" lon="-1.38263">
        <ele>53</ele>
        <time>2020-09-13T07:57:56.000Z</time>
      </trkpt>
      <trkpt lat="47.28342" lon="-1.38249">
        <ele>53</ele>
        <time>2020-09-13T07:57:58.000Z</time>
      </trkpt>
      <trkpt lat="47.28349" lon="-1.38234">
        <ele>53</ele>
        <time>2020-09-13T07:58:00.000Z</time>
      </trkpt>
      <trkpt lat="47.28352" lon="-1.38215">
        <ele>53</ele>
        <time>2020-09-13T07:58:02.000Z</time>
      </trkpt>
      <trkpt lat="47.28355" lon="-1.38199">
        <ele>53</ele>
        <time>2020-09-13T07:58:04.000Z</time>
      </trkpt>
      <trkpt lat="47.28359" lon="-1.38184">
        <ele>53</ele>
        <time>2020-09-13T07:58:06.000Z</time>
      </trkpt>
      <trkpt lat="47.28363" lon="-1.38168">
        <ele>54</ele>
        <time>2020-09-13T07:58:08.000Z</time>
      </trkpt>
      <trkpt lat="47.28369" lon="-1.38152">
        <ele>54</ele>
        <time>2020-09-13T07:58:10.000Z</time>
      </trkpt>
      <trkpt lat="47.28376" lon="-1.38137">
        <ele>54</ele>
        <time>2020-09-13T07:58:12.000Z</time>
      </trkpt>
      <trkpt lat="47.28385" lon="-1.38123">
        <ele>54</ele>
        <time>2020-09-13T07:58:14.000Z</time>
      </trkpt>
      <trkpt lat="47.28394" lon="-1.3811">
        <ele>54</ele>
        <time>2020-09-13T07:58:16.000Z</time>
      </trkpt>
      <trkpt lat="47.28403" lon="-1.38098">
        <ele>54</ele>
        <time>2020-09-13T07:58:18.000Z</time>
      </trkpt>
      <trkpt lat="47.28413" lon="-1.38086">
        <ele>54</ele>
        <time>2020-09-13T07:58:20.000Z</time>
      </trkpt>
      <trkpt lat="47.28423" lon="-1.38074">
        <ele>54</ele>
        <time>2020-09-13T07:58:22.000Z</time>
      </trkpt>
      <trkpt lat="47.28433" lon="-1.38063">
        <ele>54</ele>
        <time>2020-09-13T07:58:24.000Z</time>
      </trkpt>
      <trkpt lat="47.28442" lon="-1.38052">
        <ele>54</ele>
        <time>2020-09-13T07:58:26.000Z</time>
      </trkpt>
      <trkpt lat="47.28452" lon="-1.38042">
        <ele>54</ele>
        <time>2020-09-13T07:58:28.000Z</time>
      </trkpt>
      <trkpt lat="47.2846" lon="-1.38032">
        <ele>54</ele>
        <time>2020-09-13T07:58:30.000Z</time>
      </trkpt>
      <trkpt lat="47.28469" lon="-1.38026">
        <ele>54</ele>
        <time>2020-09-13T07:58:32.000Z</time>
      </trkpt>
      <trkpt lat="47.2848" lon="-1.38029">
        <ele>54</ele>
        <time>2020-09-13T07:58:34.000Z</time>
      </trkpt>
      <trkpt lat="47.28492" lon="-1.38029">
        <ele>53</ele>
        <time>2020-09-13T07:58:36.000Z</time>
      </trkpt>
      <trkpt lat="47.28504" lon="-1.3802">
        <ele>52</ele>
        <time>2020-09-13T07:58:38.000Z</time>
      </trkpt>
      <trkpt lat="47.28512" lon="-1.38007">
        <ele>53</ele>
        <time>2020-09-13T07:58:40.000Z</time>
      </trkpt>
      <trkpt lat="47.28521" lon="-1.37994">
        <ele>52</ele>
        <time>2020-09-13T07:58:42.000Z</time>
      </trkpt>
      <trkpt lat="47.28527" lon="-1.37982">
        <ele>52</ele>
        <time>2020-09-13T07:58:44.000Z</time>
      </trkpt>
      <trkpt lat="47.28527" lon="-1.37967">
        <ele>52</ele>
        <time>2020-09-13T07:58:46.000Z</time>
      </trkpt>
      <trkpt lat="47.28532" lon="-1.37952">
        <ele>52</ele>
        <time>2020-09-13T07:58:48.000Z</time>
      </trkpt>
      <trkpt lat="47.28539" lon="-1.3794">
        <ele>52</ele>
        <time>2020-09-13T07:58:50.000Z</time>
      </trkpt>
      <trkpt lat="47.2855" lon="-1.37927">
        <ele>53</ele>
        <time>2020-09-13T07:58:52.000Z</time>
      </trkpt>
      <trkpt lat="47.2856" lon="-1.37916">
        <ele>53</ele>
        <time>2020-09-13T07:58:54.000Z</time>
      </trkpt>
      <trkpt lat="47.2857" lon="-1.37904">
        <ele>53</ele>
        <time>2020-09-13T07:58:56.000Z</time>
      </trkpt>
      <trkpt lat="47.2858" lon="-1.37892">
        <ele>53</ele>
        <time>2020-09-13T07:58:58.000Z</time>
      </trkpt>
      <trkpt lat="47.2859" lon="-1.3788">
        <ele>54</ele>
        <time>2020-09-13T07:59:00.000Z</time>
      </trkpt>
      <trkpt lat="47.286" lon="-1.37868">
        <ele>54</ele>
        <time>2020-09-13T07:59:02.000Z</time>
      </trkpt>
      <trkpt lat="47.2861" lon="-1.37856">
        <ele>54</ele>
        <time>2020-09-13T07:59:04.000Z</time>
      </trkpt>
      <trkpt lat="47.2862" lon="-1.37845">
        <ele>54</ele>
        <time>2020-09-13T07:59:06.000Z</time>
      </trkpt>
      <trkpt lat="47.2863" lon="-1.37834">
        <ele>55</ele>
        <time>2020-09-13T07:59:08.000Z</time>
      </trkpt>
      <trkpt lat="47.2864" lon="-1.37822">
        <ele>55</ele>
        <time>2020-09-13T07:59:10.000Z</time>
      </trkpt>
      <trkpt lat="47.28651" lon="-1.3781">
        <ele>55</ele>
        <time>2020-09-13T07:59:12.000Z</time>
      </trkpt>
      <trkpt lat="47.28661" lon="-1.37798">
        <ele>55</ele>
        <time>2020-09-13T07:59:14.000Z</time>
      </trkpt>
      <trkpt lat="47.28671" lon="-1.37787">
        <ele>55</ele>
        <time>2020-09-13T07:59:16.000Z</time>
      </trkpt>
      <trkpt lat="47.28681" lon="-1.37775">
        <ele>55</ele>
        <time>2020-09-13T07:59:18.000Z</time>
      </trkpt>
      <trkpt lat="47.28691" lon="-1.37763">
        <ele>55</ele>
        <time>2020-09-13T07:59:20.000Z</time>
      </trkpt>
      <trkpt lat="47.28701" lon="-1.37753">
        <ele>54</ele>
        <time>2020-09-13T07:59:22.000Z</time>
      </trkpt>
      <trkpt lat="47.28712" lon="-1.37744">
        <ele>54</ele>
        <time>2020-09-13T07:59:24.000Z</time>
      </trkpt>
      <trkpt lat="47.28722" lon="-1.37733">
        <ele>54</ele>
        <time>2020-09-13T07:59:26.000Z</time>
      </trkpt>
      <trkpt lat="47.28731" lon="-1.37721">
        <ele>54</ele>
        <time>2020-09-13T07:59:28.000Z</time>
      </trkpt>
      <trkpt lat="47.28739" lon="-1.37709">
        <ele>54</ele>
        <time>2020-09-13T07:59:30.000Z</time>
      </trkpt>
      <trkpt lat="47.28749" lon="-1.37697">
        <ele>54</ele>
        <time>2020-09-13T07:59:32.000Z</time>
      </trkpt>
      <trkpt lat="47.28758" lon="-1.37686">
        <ele>53</ele>
        <time>2020-09-13T07:59:34.000Z</time>
      </trkpt>
      <trkpt lat="47.28768" lon="-1.37675">
        <ele>54</ele>
        <time>2020-09-13T07:59:36.000Z</time>
      </trkpt>
      <trkpt lat="47.28777" lon="-1.37664">
        <ele>54</ele>
        <time>2020-09-13T07:59:38.000Z</time>
      </trkpt>
      <trkpt lat="47.28786" lon="-1.37655">
        <ele>55</ele>
        <time>2020-09-13T07:59:40.000Z</time>
      </trkpt>
      <trkpt lat="47.28796" lon="-1.37647">
        <ele>54</ele>
        <time>2020-09-13T07:59:42.000Z</time>
      </trkpt>
      <trkpt lat="47.28804" lon="-1.37639">
        <ele>54</ele>
        <time>2020-09-13T07:59:44.000Z</time>
      </trkpt>
      <trkpt lat="47.28812" lon="-1.37631">
        <ele>54</ele>
        <time>2020-09-13T07:59:46.000Z</time>
      </trkpt>
      <trkpt lat="47.2882" lon="-1.37623">
        <ele>54</ele>
        <time>2020-09-13T07:59:48.000Z</time>
      </trkpt>
      <trkpt lat="47.28809" lon="-1.37625">
        <ele>55</ele>
        <time>2020-09-13T07:59:58.000Z</time>
      </trkpt>
      <trkpt lat="47.28801" lon="-1.37634">
        <ele>56</ele>
        <time>2020-09-13T08:00:01.000Z</time>
      </trkpt>
      <trkpt lat="47.28793" lon="-1.37642">
        <ele>56</ele>
        <time>2020-09-13T08:00:05.000Z</time>
      </trkpt>
      <trkpt lat="47.28792" lon="-1.37626">
        <ele>57</ele>
        <time>2020-09-13T08:00:10.000Z</time>
      </trkpt>
      <trkpt lat="47.28802" lon="-1.37616">
        <ele>56</ele>
        <time>2020-09-13T08:00:12.000Z</time>
      </trkpt>
      <trkpt lat="47.28811" lon="-1.37603">
        <ele>56</ele>
        <time>2020-09-13T08:00:14.000Z</time>
      </trkpt>
      <trkpt lat="47.2882" lon="-1.3759">
        <ele>57</ele>
        <time>2020-09-13T08:00:16.000Z</time>
      </trkpt>
      <trkpt lat="47.28827" lon="-1.37576">
        <ele>57</ele>
        <time>2020-09-13T08:00:18.000Z</time>
      </trkpt>
      <trkpt lat="47.28835" lon="-1.3756">
        <ele>57</ele>
        <time>2020-09-13T08:00:20.000Z</time>
      </trkpt>
      <trkpt lat="47.28842" lon="-1.37543">
        <ele>58</ele>
        <time>2020-09-13T08:00:22.000Z</time>
      </trkpt>
      <trkpt lat="47.2885" lon="-1.37524">
        <ele>57</ele>
        <time>2020-09-13T08:00:24.000Z</time>
      </trkpt>
      <trkpt lat="47.28856" lon="-1.37505">
        <ele>57</ele>
        <time>2020-09-13T08:00:26.000Z</time>
      </trkpt>
      <trkpt lat="47.28862" lon="-1.37487">
        <ele>57</ele>
        <time>2020-09-13T08:00:28.000Z</time>
      </trkpt>
      <trkpt lat="47.28869" lon="-1.37469">
        <ele>57</ele>
        <time>2020-09-13T08:00:30.000Z</time>
      </trkpt>
      <trkpt lat="47.28874" lon="-1.37451">
        <ele>57</ele>
        <time>2020-09-13T08:00:32.000Z</time>
      </trkpt>
      <trkpt lat="47.2888" lon="-1.37434">
        <ele>57</ele>
        <time>2020-09-13T08:00:34.000Z</time>
      </trkpt>
      <trkpt lat="47.28886" lon="-1.37416">
        <ele>57</ele>
        <time>2020-09-13T08:00:36.000Z</time>
      </trkpt>
      <trkpt lat="47.28891" lon="-1.37397">
        <ele>57</ele>
        <time>2020-09-13T08:00:38.000Z</time>
      </trkpt>
      <trkpt lat="47.28896" lon="-1.37379">
        <ele>58</ele>
        <time>2020-09-13T08:00:40.000Z</time>
      </trkpt>
      <trkpt lat="47.28902" lon="-1.3736">
        <ele>57</ele>
        <time>2020-09-13T08:00:42.000Z</time>
      </trkpt>
      <trkpt lat="47.28908" lon="-1.37341">
        <ele>57</ele>
        <time>2020-09-13T08:00:44.000Z</time>
      </trkpt>
      <trkpt lat="47.28913" lon="-1.37322">
        <ele>57</ele>
        <time>2020-09-13T08:00:46.000Z</time>
      </trkpt>
      <trkpt lat="47.2892" lon="-1.37304">
        <ele>57</ele>
        <time>2020-09-13T08:00:48.000Z</time>
      </trkpt>
      <trkpt lat="47.28926" lon="-1.37286">
        <ele>57</ele>
        <time>2020-09-13T08:00:50.000Z</time>
      </trkpt>
      <trkpt lat="47.28931" lon="-1.37268">
        <ele>57</ele>
        <time>2020-09-13T08:00:52.000Z</time>
      </trkpt>
      <trkpt lat="47.28937" lon="-1.37249">
        <ele>57</ele>
        <time>2020-09-13T08:00:54.000Z</time>
      </trkpt>
      <trkpt lat="47.28943" lon="-1.37232">
        <ele>57</ele>
        <time>2020-09-13T08:00:56.000Z</time>
      </trkpt>
      <trkpt lat="47.2895" lon="-1.37214">
        <ele>57</ele>
        <time>2020-09-13T08:00:58.000Z</time>
      </trkpt>
      <trkpt lat="47.28956" lon="-1.37197">
        <ele>57</ele>
        <time>2020-09-13T08:01:00.000Z</time>
      </trkpt>
      <trkpt lat="47.28963" lon="-1.37179">
        <ele>57</ele>
        <time>2020-09-13T08:01:02.000Z</time>
      </trkpt>
      <trkpt lat="47.28969" lon="-1.37162">
        <ele>57</ele>
        <time>2020-09-13T08:01:04.000Z</time>
      </trkpt>
      <trkpt lat="47.28977" lon="-1.37145">
        <ele>57</ele>
        <time>2020-09-13T08:01:06.000Z</time>
      </trkpt>
      <trkpt lat="47.28984" lon="-1.37129">
        <ele>57</ele>
        <time>2020-09-13T08:01:08.000Z</time>
      </trkpt>
      <trkpt lat="47.28992" lon="-1.37113">
        <ele>57</ele>
        <time>2020-09-13T08:01:10.000Z</time>
      </trkpt>
      <trkpt lat="47.28999" lon="-1.37096">
        <ele>57</ele>
        <time>2020-09-13T08:01:12.000Z</time>
      </trkpt>
      <trkpt lat="47.29006" lon="-1.3708">
        <ele>57</ele>
        <time>2020-09-13T08:01:14.000Z</time>
      </trkpt>
      <trkpt lat="47.29015" lon="-1.37066">
        <ele>57</ele>
        <time>2020-09-13T08:01:16.000Z</time>
      </trkpt>
      <trkpt lat="47.29022" lon="-1.37051">
        <ele>57</ele>
        <time>2020-09-13T08:01:18.000Z</time>
      </trkpt>
      <trkpt lat="47.2903" lon="-1.37036">
        <ele>57</ele>
        <time>2020-09-13T08:01:20.000Z</time>
      </trkpt>
      <trkpt lat="47.29038" lon="-1.37021">
        <ele>57</ele>
        <time>2020-09-13T08:01:22.000Z</time>
      </trkpt>
      <trkpt lat="47.29046" lon="-1.37005">
        <ele>57</ele>
        <time>2020-09-13T08:01:24.000Z</time>
      </trkpt>
      <trkpt lat="47.29054" lon="-1.3699">
        <ele>57</ele>
        <time>2020-09-13T08:01:26.000Z</time>
      </trkpt>
      <trkpt lat="47.29062" lon="-1.36973">
        <ele>57</ele>
        <time>2020-09-13T08:01:28.000Z</time>
      </trkpt>
      <trkpt lat="47.29069" lon="-1.36957">
        <ele>58</ele>
        <time>2020-09-13T08:01:30.000Z</time>
      </trkpt>
      <trkpt lat="47.29078" lon="-1.36942">
        <ele>58</ele>
        <time>2020-09-13T08:01:32.000Z</time>
      </trkpt>
      <trkpt lat="47.29085" lon="-1.36926">
        <ele>58</ele>
        <time>2020-09-13T08:01:34.000Z</time>
      </trkpt>
      <trkpt lat="47.29093" lon="-1.3691">
        <ele>59</ele>
        <time>2020-09-13T08:01:36.000Z</time>
      </trkpt>
      <trkpt lat="47.29101" lon="-1.36895">
        <ele>59</ele>
        <time>2020-09-13T08:01:38.000Z</time>
      </trkpt>
      <trkpt lat="47.29109" lon="-1.36879">
        <ele>58</ele>
        <time>2020-09-13T08:01:40.000Z</time>
      </trkpt>
      <trkpt lat="47.29117" lon="-1.36864">
        <ele>58</ele>
        <time>2020-09-13T08:01:42.000Z</time>
      </trkpt>
      <trkpt lat="47.29125" lon="-1.36848">
        <ele>58</ele>
        <time>2020-09-13T08:01:44.000Z</time>
      </trkpt>
      <trkpt lat="47.29134" lon="-1.36832">
        <ele>59</ele>
        <time>2020-09-13T08:01:46.000Z</time>
      </trkpt>
      <trkpt lat="47.29142" lon="-1.36816">
        <ele>59</ele>
        <time>2020-09-13T08:01:48.000Z</time>
      </trkpt>
      <trkpt lat="47.2915" lon="-1.368">
        <ele>59</ele>
        <time>2020-09-13T08:01:50.000Z</time>
      </trkpt>
      <trkpt lat="47.29158" lon="-1.36784">
        <ele>58</ele>
        <time>2020-09-13T08:01:52.000Z</time>
      </trkpt>
      <trkpt lat="47.29166" lon="-1.36768">
        <ele>58</ele>
        <time>2020-09-13T08:01:54.000Z</time>
      </trkpt>
      <trkpt lat="47.29174" lon="-1.36752">
        <ele>58</ele>
        <time>2020-09-13T08:01:56.000Z</time>
      </trkpt>
      <trkpt lat="47.29183" lon="-1.36737">
        <ele>58</ele>
        <time>2020-09-13T08:01:58.000Z</time>
      </trkpt>
      <trkpt lat="47.2919" lon="-1.36722">
        <ele>58</ele>
        <time>2020-09-13T08:02:00.000Z</time>
      </trkpt>
      <trkpt lat="47.29199" lon="-1.36706">
        <ele>58</ele>
        <time>2020-09-13T08:02:02.000Z</time>
      </trkpt>
      <trkpt lat="47.29207" lon="-1.36691">
        <ele>58</ele>
        <time>2020-09-13T08:02:04.000Z</time>
      </trkpt>
      <trkpt lat="47.29215" lon="-1.36675">
        <ele>58</ele>
        <time>2020-09-13T08:02:06.000Z</time>
      </trkpt>
      <trkpt lat="47.29224" lon="-1.36659">
        <ele>58</ele>
        <time>2020-09-13T08:02:08.000Z</time>
      </trkpt>
      <trkpt lat="47.29232" lon="-1.36643">
        <ele>58</ele>
        <time>2020-09-13T08:02:10.000Z</time>
      </trkpt>
      <trkpt lat="47.2924" lon="-1.36627">
        <ele>58</ele>
        <time>2020-09-13T08:02:12.000Z</time>
      </trkpt>
      <trkpt lat="47.29248" lon="-1.36611">
        <ele>58</ele>
        <time>2020-09-13T08:02:14.000Z</time>
      </trkpt>
      <trkpt lat="47.29257" lon="-1.36596">
        <ele>58</ele>
        <time>2020-09-13T08:02:16.000Z</time>
      </trkpt>
      <trkpt lat="47.29265" lon="-1.3658">
        <ele>58</ele>
        <time>2020-09-13T08:02:18.000Z</time>
      </trkpt>
      <trkpt lat="47.29272" lon="-1.36565">
        <ele>59</ele>
        <time>2020-09-13T08:02:20.000Z</time>
      </trkpt>
      <trkpt lat="47.2928" lon="-1.3655">
        <ele>59</ele>
        <time>2020-09-13T08:02:22.000Z</time>
      </trkpt>
      <trkpt lat="47.29288" lon="-1.36535">
        <ele>59</ele>
        <time>2020-09-13T08:02:24.000Z</time>
      </trkpt>
      <trkpt lat="47.29296" lon="-1.36519">
        <ele>58</ele>
        <time>2020-09-13T08:02:26.000Z</time>
      </trkpt>
      <trkpt lat="47.29304" lon="-1.36503">
        <ele>58</ele>
        <time>2020-09-13T08:02:28.000Z</time>
      </trkpt>
      <trkpt lat="47.29312" lon="-1.36487">
        <ele>58</ele>
        <time>2020-09-13T08:02:30.000Z</time>
      </trkpt>
      <trkpt lat="47.2932" lon="-1.36472">
        <ele>57</ele>
        <time>2020-09-13T08:02:32.000Z</time>
      </trkpt>
      <trkpt lat="47.29328" lon="-1.36456">
        <ele>57</ele>
        <time>2020-09-13T08:02:34.000Z</time>
      </trkpt>
      <trkpt lat="47.29337" lon="-1.3644">
        <ele>58</ele>
        <time>2020-09-13T08:02:36.000Z</time>
      </trkpt>
      <trkpt lat="47.29345" lon="-1.36424">
        <ele>57</ele>
        <time>2020-09-13T08:02:38.000Z</time>
      </trkpt>
      <trkpt lat="47.29352" lon="-1.36409">
        <ele>57</ele>
        <time>2020-09-13T08:02:40.000Z</time>
      </trkpt>
      <trkpt lat="47.2936" lon="-1.36394">
        <ele>57</ele>
        <time>2020-09-13T08:02:42.000Z</time>
      </trkpt>
      <trkpt lat="47.29368" lon="-1.36379">
        <ele>58</ele>
        <time>2020-09-13T08:02:44.000Z</time>
      </trkpt>
      <trkpt lat="47.29376" lon="-1.36364">
        <ele>58</ele>
        <time>2020-09-13T08:02:46.000Z</time>
      </trkpt>
      <trkpt lat="47.29384" lon="-1.36349">
        <ele>57</ele>
        <time>2020-09-13T08:02:48.000Z</time>
      </trkpt>
      <trkpt lat="47.29392" lon="-1.36334">
        <ele>57</ele>
        <time>2020-09-13T08:02:50.000Z</time>
      </trkpt>
      <trkpt lat="47.294" lon="-1.36319">
        <ele>57</ele>
        <time>2020-09-13T08:02:52.000Z</time>
      </trkpt>
      <trkpt lat="47.29408" lon="-1.36305">
        <ele>57</ele>
        <time>2020-09-13T08:02:54.000Z</time>
      </trkpt>
      <trkpt lat="47.29415" lon="-1.36289">
        <ele>57</ele>
        <time>2020-09-13T08:02:56.000Z</time>
      </trkpt>
      <trkpt lat="47.29423" lon="-1.36274">
        <ele>57</ele>
        <time>2020-09-13T08:02:58.000Z</time>
      </trkpt>
      <trkpt lat="47.29431" lon="-1.36258">
        <ele>57</ele>
        <time>2020-09-13T08:03:00.000Z</time>
      </trkpt>
      <trkpt lat="47.29439" lon="-1.36243">
        <ele>57</ele>
        <time>2020-09-13T08:03:02.000Z</time>
      </trkpt>
      <trkpt lat="47.29447" lon="-1.36227">
        <ele>57</ele>
        <time>2020-09-13T08:03:04.000Z</time>
      </trkpt>
      <trkpt lat="47.29455" lon="-1.36212">
        <ele>57</ele>
        <time>2020-09-13T08:03:06.000Z</time>
      </trkpt>
      <trkpt lat="47.29463" lon="-1.36196">
        <ele>57</ele>
        <time>2020-09-13T08:03:08.000Z</time>
      </trkpt>
      <trkpt lat="47.29471" lon="-1.36181">
        <ele>57</ele>
        <time>2020-09-13T08:03:10.000Z</time>
      </trkpt>
      <trkpt lat="47.29479" lon="-1.36166">
        <ele>57</ele>
        <time>2020-09-13T08:03:12.000Z</time>
      </trkpt>
      <trkpt lat="47.29487" lon="-1.36151">
        <ele>57</ele>
        <time>2020-09-13T08:03:14.000Z</time>
      </trkpt>
      <trkpt lat="47.29494" lon="-1.36137">
        <ele>57</ele>
        <time>2020-09-13T08:03:16.000Z</time>
      </trkpt>
      <trkpt lat="47.29502" lon="-1.36123">
        <ele>57</ele>
        <time>2020-09-13T08:03:18.000Z</time>
      </trkpt>
      <trkpt lat="47.29509" lon="-1.36107">
        <ele>57</ele>
        <time>2020-09-13T08:03:20.000Z</time>
      </trkpt>
      <trkpt lat="47.29517" lon="-1.36094">
        <ele>57</ele>
        <time>2020-09-13T08:03:22.000Z</time>
      </trkpt>
      <trkpt lat="47.29524" lon="-1.36079">
        <ele>57</ele>
        <time>2020-09-13T08:03:24.000Z</time>
      </trkpt>
      <trkpt lat="47.29531" lon="-1.36065">
        <ele>57</ele>
        <time>2020-09-13T08:03:26.000Z</time>
      </trkpt>
      <trkpt lat="47.29539" lon="-1.3605">
        <ele>57</ele>
        <time>2020-09-13T08:03:28.000Z</time>
      </trkpt>
      <trkpt lat="47.29546" lon="-1.36035">
        <ele>57</ele>
        <time>2020-09-13T08:03:30.000Z</time>
      </trkpt>
      <trkpt lat="47.29553" lon="-1.3602">
        <ele>58</ele>
        <time>2020-09-13T08:03:32.000Z</time>
      </trkpt>
      <trkpt lat="47.29561" lon="-1.36005">
        <ele>58</ele>
        <time>2020-09-13T08:03:34.000Z</time>
      </trkpt>
      <trkpt lat="47.29569" lon="-1.3599">
        <ele>58</ele>
        <time>2020-09-13T08:03:36.000Z</time>
      </trkpt>
      <trkpt lat="47.29576" lon="-1.35975">
        <ele>58</ele>
        <time>2020-09-13T08:03:38.000Z</time>
      </trkpt>
      <trkpt lat="47.29584" lon="-1.35961">
        <ele>58</ele>
        <time>2020-09-13T08:03:40.000Z</time>
      </trkpt>
      <trkpt lat="47.29591" lon="-1.35946">
        <ele>58</ele>
        <time>2020-09-13T08:03:42.000Z</time>
      </trkpt>
      <trkpt lat="47.29599" lon="-1.35932">
        <ele>58</ele>
        <time>2020-09-13T08:03:44.000Z</time>
      </trkpt>
      <trkpt lat="47.29607" lon="-1.35917">
        <ele>58</ele>
        <time>2020-09-13T08:03:46.000Z</time>
      </trkpt>
      <trkpt lat="47.29615" lon="-1.35901">
        <ele>58</ele>
        <time>2020-09-13T08:03:48.000Z</time>
      </trkpt>
      <trkpt lat="47.29622" lon="-1.35886">
        <ele>58</ele>
        <time>2020-09-13T08:03:50.000Z</time>
      </trkpt>
      <trkpt lat="47.2963" lon="-1.35872">
        <ele>58</ele>
        <time>2020-09-13T08:03:52.000Z</time>
      </trkpt>
      <trkpt lat="47.29638" lon="-1.35856">
        <ele>58</ele>
        <time>2020-09-13T08:03:54.000Z</time>
      </trkpt>
      <trkpt lat="47.29646" lon="-1.35841">
        <ele>58</ele>
        <time>2020-09-13T08:03:56.000Z</time>
      </trkpt>
      <trkpt lat="47.29654" lon="-1.35826">
        <ele>58</ele>
        <time>2020-09-13T08:03:58.000Z</time>
      </trkpt>
      <trkpt lat="47.29661" lon="-1.35811">
        <ele>58</ele>
        <time>2020-09-13T08:04:00.000Z</time>
      </trkpt>
      <trkpt lat="47.29669" lon="-1.35796">
        <ele>58</ele>
        <time>2020-09-13T08:04:02.000Z</time>
      </trkpt>
      <trkpt lat="47.29677" lon="-1.35781">
        <ele>58</ele>
        <time>2020-09-13T08:04:04.000Z</time>
      </trkpt>
      <trkpt lat="47.29685" lon="-1.35766">
        <ele>58</ele>
        <time>2020-09-13T08:04:06.000Z</time>
      </trkpt>
      <trkpt lat="47.29692" lon="-1.35751">
        <ele>58</ele>
        <time>2020-09-13T08:04:08.000Z</time>
      </trkpt>
      <trkpt lat="47.297" lon="-1.35735">
        <ele>58</ele>
        <time>2020-09-13T08:04:10.000Z</time>
      </trkpt>
      <trkpt lat="47.29708" lon="-1.3572">
        <ele>58</ele>
        <time>2020-09-13T08:04:12.000Z</time>
      </trkpt>
      <trkpt lat="47.29716" lon="-1.35705">
        <ele>58</ele>
        <time>2020-09-13T08:04:14.000Z</time>
      </trkpt>
      <trkpt lat="47.29724" lon="-1.35689">
        <ele>58</ele>
        <time>2020-09-13T08:04:16.000Z</time>
      </trkpt>
      <trkpt lat="47.29732" lon="-1.35674">
        <ele>58</ele>
        <time>2020-09-13T08:04:18.000Z</time>
      </trkpt>
      <trkpt lat="47.2974" lon="-1.35658">
        <ele>58</ele>
        <time>2020-09-13T08:04:20.000Z</time>
      </trkpt>
      <trkpt lat="47.29748" lon="-1.35643">
        <ele>58</ele>
        <time>2020-09-13T08:04:22.000Z</time>
      </trkpt>
      <trkpt lat="47.29755" lon="-1.35628">
        <ele>58</ele>
        <time>2020-09-13T08:04:24.000Z</time>
      </trkpt>
      <trkpt lat="47.29763" lon="-1.35613">
        <ele>58</ele>
        <time>2020-09-13T08:04:26.000Z</time>
      </trkpt>
      <trkpt lat="47.29771" lon="-1.35598">
        <ele>58</ele>
        <time>2020-09-13T08:04:28.000Z</time>
      </trkpt>
      <trkpt lat="47.29779" lon="-1.35583">
        <ele>58</ele>
        <time>2020-09-13T08:04:30.000Z</time>
      </trkpt>
      <trkpt lat="47.29786" lon="-1.35568">
        <ele>58</ele>
        <time>2020-09-13T08:04:32.000Z</time>
      </trkpt>
      <trkpt lat="47.29794" lon="-1.35553">
        <ele>58</ele>
        <time>2020-09-13T08:04:34.000Z</time>
      </trkpt>
      <trkpt lat="47.29802" lon="-1.35538">
        <ele>58</ele>
        <time>2020-09-13T08:04:36.000Z</time>
      </trkpt>
      <trkpt lat="47.2981" lon="-1.35523">
        <ele>58</ele>
        <time>2020-09-13T08:04:38.000Z</time>
      </trkpt>
      <trkpt lat="47.29818" lon="-1.35507">
        <ele>58</ele>
        <time>2020-09-13T08:04:40.000Z</time>
      </trkpt>
      <trkpt lat="47.29826" lon="-1.35492">
        <ele>58</ele>
        <time>2020-09-13T08:04:42.000Z</time>
      </trkpt>
      <trkpt lat="47.29834" lon="-1.35477">
        <ele>58</ele>
        <time>2020-09-13T08:04:44.000Z</time>
      </trkpt>
      <trkpt lat="47.29842" lon="-1.35461">
        <ele>58</ele>
        <time>2020-09-13T08:04:46.000Z</time>
      </trkpt>
      <trkpt lat="47.2985" lon="-1.35446">
        <ele>58</ele>
        <time>2020-09-13T08:04:48.000Z</time>
      </trkpt>
      <trkpt lat="47.29858" lon="-1.35431">
        <ele>57</ele>
        <time>2020-09-13T08:04:50.000Z</time>
      </trkpt>
      <trkpt lat="47.29865" lon="-1.35416">
        <ele>57</ele>
        <time>2020-09-13T08:04:52.000Z</time>
      </trkpt>
      <trkpt lat="47.29873" lon="-1.35402">
        <ele>57</ele>
        <time>2020-09-13T08:04:54.000Z</time>
      </trkpt>
      <trkpt lat="47.29881" lon="-1.35386">
        <ele>57</ele>
        <time>2020-09-13T08:04:56.000Z</time>
      </trkpt>
      <trkpt lat="47.29888" lon="-1.35371">
        <ele>58</ele>
        <time>2020-09-13T08:04:58.000Z</time>
      </trkpt>
      <trkpt lat="47.29896" lon="-1.35356">
        <ele>58</ele>
        <time>2020-09-13T08:05:00.000Z</time>
      </trkpt>
      <trkpt lat="47.29904" lon="-1.3534">
        <ele>58</ele>
        <time>2020-09-13T08:05:02.000Z</time>
      </trkpt>
      <trkpt lat="47.29912" lon="-1.35325">
        <ele>58</ele>
        <time>2020-09-13T08:05:04.000Z</time>
      </trkpt>
      <trkpt lat="47.2992" lon="-1.3531">
        <ele>58</ele>
        <time>2020-09-13T08:05:06.000Z</time>
      </trkpt>
      <trkpt lat="47.29928" lon="-1.35295">
        <ele>58</ele>
        <time>2020-09-13T08:05:08.000Z</time>
      </trkpt>
      <trkpt lat="47.29936" lon="-1.3528">
        <ele>58</ele>
        <time>2020-09-13T08:05:10.000Z</time>
      </trkpt>
      <trkpt lat="47.29943" lon="-1.35266">
        <ele>58</ele>
        <time>2020-09-13T08:05:12.000Z</time>
      </trkpt>
      <trkpt lat="47.29951" lon="-1.35251">
        <ele>58</ele>
        <time>2020-09-13T08:05:14.000Z</time>
      </trkpt>
      <trkpt lat="47.29959" lon="-1.35235">
        <ele>58</ele>
        <time>2020-09-13T08:05:16.000Z</time>
      </trkpt>
      <trkpt lat="47.29967" lon="-1.3522">
        <ele>57</ele>
        <time>2020-09-13T08:05:18.000Z</time>
      </trkpt>
      <trkpt lat="47.29975" lon="-1.35204">
        <ele>57</ele>
        <time>2020-09-13T08:05:20.000Z</time>
      </trkpt>
      <trkpt lat="47.29983" lon="-1.35189">
        <ele>57</ele>
        <time>2020-09-13T08:05:22.000Z</time>
      </trkpt>
      <trkpt lat="47.29991" lon="-1.35173">
        <ele>58</ele>
        <time>2020-09-13T08:05:24.000Z</time>
      </trkpt>
      <trkpt lat="47.29999" lon="-1.35158">
        <ele>58</ele>
        <time>2020-09-13T08:05:26.000Z</time>
      </trkpt>
      <trkpt lat="47.30007" lon="-1.35143">
        <ele>58</ele>
        <time>2020-09-13T08:05:28.000Z</time>
      </trkpt>
      <trkpt lat="47.30014" lon="-1.35127">
        <ele>58</ele>
        <time>2020-09-13T08:05:30.000Z</time>
      </trkpt>
      <trkpt lat="47.30022" lon="-1.35112">
        <ele>58</ele>
        <time>2020-09-13T08:05:32.000Z</time>
      </trkpt>
      <trkpt lat="47.30029" lon="-1.35096">
        <ele>58</ele>
        <time>2020-09-13T08:05:34.000Z</time>
      </trkpt>
      <trkpt lat="47.30036" lon="-1.35079">
        <ele>58</ele>
        <time>2020-09-13T08:05:36.000Z</time>
      </trkpt>
      <trkpt lat="47.30043" lon="-1.35062">
        <ele>58</ele>
        <time>2020-09-13T08:05:38.000Z</time>
      </trkpt>
      <trkpt lat="47.3005" lon="-1.35045">
        <ele>58</ele>
        <time>2020-09-13T08:05:40.000Z</time>
      </trkpt>
      <trkpt lat="47.30056" lon="-1.35029">
        <ele>59</ele>
        <time>2020-09-13T08:05:42.000Z</time>
      </trkpt>
      <trkpt lat="47.30062" lon="-1.3501">
        <ele>59</ele>
        <time>2020-09-13T08:05:44.000Z</time>
      </trkpt>
      <trkpt lat="47.30068" lon="-1.34993">
        <ele>58</ele>
        <time>2020-09-13T08:05:46.000Z</time>
      </trkpt>
      <trkpt lat="47.30073" lon="-1.34975">
        <ele>58</ele>
        <time>2020-09-13T08:05:48.000Z</time>
      </trkpt>
      <trkpt lat="47.30078" lon="-1.34955">
        <ele>58</ele>
        <time>2020-09-13T08:05:50.000Z</time>
      </trkpt>
      <trkpt lat="47.30083" lon="-1.34937">
        <ele>58</ele>
        <time>2020-09-13T08:05:52.000Z</time>
      </trkpt>
      <trkpt lat="47.30087" lon="-1.34918">
        <ele>59</ele>
        <time>2020-09-13T08:05:54.000Z</time>
      </trkpt>
      <trkpt lat="47.30092" lon="-1.34889">
        <ele>58</ele>
        <time>2020-09-13T08:05:57.000Z</time>
      </trkpt>
      <trkpt lat="47.30095" lon="-1.34869">
        <ele>59</ele>
        <time>2020-09-13T08:05:59.000Z</time>
      </trkpt>
      <trkpt lat="47.30097" lon="-1.34849">
        <ele>59</ele>
        <time>2020-09-13T08:06:01.000Z</time>
      </trkpt>
      <trkpt lat="47.30099" lon="-1.34829">
        <ele>58</ele>
        <time>2020-09-13T08:06:03.000Z</time>
      </trkpt>
      <trkpt lat="47.30101" lon="-1.34808">
        <ele>58</ele>
        <time>2020-09-13T08:06:05.000Z</time>
      </trkpt>
      <trkpt lat="47.30102" lon="-1.34787">
        <ele>59</ele>
        <time>2020-09-13T08:06:07.000Z</time>
      </trkpt>
      <trkpt lat="47.30101" lon="-1.34766">
        <ele>59</ele>
        <time>2020-09-13T08:06:09.000Z</time>
      </trkpt>
      <trkpt lat="47.30102" lon="-1.34745">
        <ele>58</ele>
        <time>2020-09-13T08:06:11.000Z</time>
      </trkpt>
      <trkpt lat="47.30102" lon="-1.34724">
        <ele>58</ele>
        <time>2020-09-13T08:06:13.000Z</time>
      </trkpt>
      <trkpt lat="47.30101" lon="-1.34695">
        <ele>58</ele>
        <time>2020-09-13T08:06:16.000Z</time>
      </trkpt>
      <trkpt lat="47.30099" lon="-1.34665">
        <ele>58</ele>
        <time>2020-09-13T08:06:19.000Z</time>
      </trkpt>
      <trkpt lat="47.30097" lon="-1.34639">
        <ele>59</ele>
        <time>2020-09-13T08:06:22.000Z</time>
      </trkpt>
      <trkpt lat="47.30097" lon="-1.34623">
        <ele>59</ele>
        <time>2020-09-13T08:06:24.000Z</time>
      </trkpt>
      <trkpt lat="47.30097" lon="-1.34608">
        <ele>59</ele>
        <time>2020-09-13T08:06:26.000Z</time>
      </trkpt>
      <trkpt lat="47.30099" lon="-1.34594">
        <ele>59</ele>
        <time>2020-09-13T08:06:28.000Z</time>
      </trkpt>
      <trkpt lat="47.30103" lon="-1.3458">
        <ele>58</ele>
        <time>2020-09-13T08:06:30.000Z</time>
      </trkpt>
      <trkpt lat="47.30106" lon="-1.34563">
        <ele>58</ele>
        <time>2020-09-13T08:06:32.000Z</time>
      </trkpt>
      <trkpt lat="47.30106" lon="-1.34546">
        <ele>57</ele>
        <time>2020-09-13T08:06:34.000Z</time>
      </trkpt>
      <trkpt lat="47.301" lon="-1.34532">
        <ele>57</ele>
        <time>2020-09-13T08:06:36.000Z</time>
      </trkpt>
      <trkpt lat="47.30092" lon="-1.34518">
        <ele>57</ele>
        <time>2020-09-13T08:06:38.000Z</time>
      </trkpt>
      <trkpt lat="47.30084" lon="-1.34503">
        <ele>56</ele>
        <time>2020-09-13T08:06:40.000Z</time>
      </trkpt>
      <trkpt lat="47.30081" lon="-1.34484">
        <ele>56</ele>
        <time>2020-09-13T08:06:42.000Z</time>
      </trkpt>
      <trkpt lat="47.30077" lon="-1.34464">
        <ele>56</ele>
        <time>2020-09-13T08:06:44.000Z</time>
      </trkpt>
      <trkpt lat="47.30073" lon="-1.34444">
        <ele>55</ele>
        <time>2020-09-13T08:06:46.000Z</time>
      </trkpt>
      <trkpt lat="47.30069" lon="-1.34424">
        <ele>55</ele>
        <time>2020-09-13T08:06:48.000Z</time>
      </trkpt>
      <trkpt lat="47.30066" lon="-1.34404">
        <ele>55</ele>
        <time>2020-09-13T08:06:50.000Z</time>
      </trkpt>
      <trkpt lat="47.30062" lon="-1.34384">
        <ele>55</ele>
        <time>2020-09-13T08:06:52.000Z</time>
      </trkpt>
      <trkpt lat="47.30058" lon="-1.34365">
        <ele>54</ele>
        <time>2020-09-13T08:06:54.000Z</time>
      </trkpt>
      <trkpt lat="47.30055" lon="-1.34345">
        <ele>54</ele>
        <time>2020-09-13T08:06:56.000Z</time>
      </trkpt>
      <trkpt lat="47.30051" lon="-1.34325">
        <ele>54</ele>
        <time>2020-09-13T08:06:58.000Z</time>
      </trkpt>
      <trkpt lat="47.30046" lon="-1.34306">
        <ele>55</ele>
        <time>2020-09-13T08:07:00.000Z</time>
      </trkpt>
      <trkpt lat="47.30043" lon="-1.34287">
        <ele>55</ele>
        <time>2020-09-13T08:07:02.000Z</time>
      </trkpt>
      <trkpt lat="47.30039" lon="-1.34267">
        <ele>55</ele>
        <time>2020-09-13T08:07:04.000Z</time>
      </trkpt>
      <trkpt lat="47.30035" lon="-1.34248">
        <ele>54</ele>
        <time>2020-09-13T08:07:06.000Z</time>
      </trkpt>
      <trkpt lat="47.30031" lon="-1.34229">
        <ele>55</ele>
        <time>2020-09-13T08:07:08.000Z</time>
      </trkpt>
      <trkpt lat="47.30027" lon="-1.3421">
        <ele>54</ele>
        <time>2020-09-13T08:07:10.000Z</time>
      </trkpt>
      <trkpt lat="47.30024" lon="-1.34191">
        <ele>55</ele>
        <time>2020-09-13T08:07:12.000Z</time>
      </trkpt>
      <trkpt lat="47.3002" lon="-1.34172">
        <ele>54</ele>
        <time>2020-09-13T08:07:14.000Z</time>
      </trkpt>
      <trkpt lat="47.30017" lon="-1.34153">
        <ele>54</ele>
        <time>2020-09-13T08:07:16.000Z</time>
      </trkpt>
      <trkpt lat="47.30017" lon="-1.34125">
        <ele>55</ele>
        <time>2020-09-13T08:07:19.000Z</time>
      </trkpt>
      <trkpt lat="47.30028" lon="-1.34114">
        <ele>56</ele>
        <time>2020-09-13T08:07:21.000Z</time>
      </trkpt>
      <trkpt lat="47.30041" lon="-1.34107">
        <ele>55</ele>
        <time>2020-09-13T08:07:23.000Z</time>
      </trkpt>
      <trkpt lat="47.30054" lon="-1.34101">
        <ele>55</ele>
        <time>2020-09-13T08:07:25.000Z</time>
      </trkpt>
      <trkpt lat="47.30067" lon="-1.34105">
        <ele>56</ele>
        <time>2020-09-13T08:07:27.000Z</time>
      </trkpt>
      <trkpt lat="47.30078" lon="-1.34116">
        <ele>56</ele>
        <time>2020-09-13T08:07:29.000Z</time>
      </trkpt>
      <trkpt lat="47.30087" lon="-1.34127">
        <ele>56</ele>
        <time>2020-09-13T08:07:31.000Z</time>
      </trkpt>
      <trkpt lat="47.30096" lon="-1.34137">
        <ele>57</ele>
        <time>2020-09-13T08:07:33.000Z</time>
      </trkpt>
      <trkpt lat="47.30105" lon="-1.34138">
        <ele>57</ele>
        <time>2020-09-13T08:07:36.000Z</time>
      </trkpt>
      <trkpt lat="47.30109" lon="-1.34124">
        <ele>56</ele>
        <time>2020-09-13T08:07:38.000Z</time>
      </trkpt>
      <trkpt lat="47.30112" lon="-1.34108">
        <ele>56</ele>
        <time>2020-09-13T08:07:40.000Z</time>
      </trkpt>
      <trkpt lat="47.30118" lon="-1.3409">
        <ele>56</ele>
        <time>2020-09-13T08:07:42.000Z</time>
      </trkpt>
      <trkpt lat="47.30126" lon="-1.34075">
        <ele>56</ele>
        <time>2020-09-13T08:07:44.000Z</time>
      </trkpt>
      <trkpt lat="47.30137" lon="-1.34064">
        <ele>56</ele>
        <time>2020-09-13T08:07:46.000Z</time>
      </trkpt>
      <trkpt lat="47.30148" lon="-1.34054">
        <ele>57</ele>
        <time>2020-09-13T08:07:48.000Z</time>
      </trkpt>
      <trkpt lat="47.30159" lon="-1.34044">
        <ele>57</ele>
        <time>2020-09-13T08:07:50.000Z</time>
      </trkpt>
      <trkpt lat="47.3017" lon="-1.34033">
        <ele>57</ele>
        <time>2020-09-13T08:07:52.000Z</time>
      </trkpt>
      <trkpt lat="47.30181" lon="-1.34022">
        <ele>56</ele>
        <time>2020-09-13T08:07:54.000Z</time>
      </trkpt>
      <trkpt lat="47.30191" lon="-1.3401">
        <ele>56</ele>
        <time>2020-09-13T08:07:56.000Z</time>
      </trkpt>
      <trkpt lat="47.302" lon="-1.34">
        <ele>56</ele>
        <time>2020-09-13T08:07:58.000Z</time>
      </trkpt>
      <trkpt lat="47.30208" lon="-1.33992">
        <ele>57</ele>
        <time>2020-09-13T08:08:00.000Z</time>
      </trkpt>
      <trkpt lat="47.3022" lon="-1.33996">
        <ele>57</ele>
        <time>2020-09-13T08:08:03.000Z</time>
      </trkpt>
      <trkpt lat="47.30227" lon="-1.34009">
        <ele>58</ele>
        <time>2020-09-13T08:08:05.000Z</time>
      </trkpt>
      <trkpt lat="47.30232" lon="-1.34027">
        <ele>58</ele>
        <time>2020-09-13T08:08:07.000Z</time>
      </trkpt>
      <trkpt lat="47.30237" lon="-1.34044">
        <ele>58</ele>
        <time>2020-09-13T08:08:09.000Z</time>
      </trkpt>
      <trkpt lat="47.30242" lon="-1.34062">
        <ele>58</ele>
        <time>2020-09-13T08:08:11.000Z</time>
      </trkpt>
      <trkpt lat="47.30247" lon="-1.34077">
        <ele>58</ele>
        <time>2020-09-13T08:08:13.000Z</time>
      </trkpt>
      <trkpt lat="47.30253" lon="-1.34091">
        <ele>58</ele>
        <time>2020-09-13T08:08:15.000Z</time>
      </trkpt>
      <trkpt lat="47.30258" lon="-1.34102">
        <ele>58</ele>
        <time>2020-09-13T08:08:17.000Z</time>
      </trkpt>
      <trkpt lat="47.30271" lon="-1.34099">
        <ele>57</ele>
        <time>2020-09-13T08:08:20.000Z</time>
      </trkpt>
      <trkpt lat="47.30285" lon="-1.34081">
        <ele>57</ele>
        <time>2020-09-13T08:08:23.000Z</time>
      </trkpt>
      <trkpt lat="47.30296" lon="-1.34068">
        <ele>57</ele>
        <time>2020-09-13T08:08:25.000Z</time>
      </trkpt>
      <trkpt lat="47.30307" lon="-1.34057">
        <ele>57</ele>
        <time>2020-09-13T08:08:27.000Z</time>
      </trkpt>
      <trkpt lat="47.30318" lon="-1.34045">
        <ele>57</ele>
        <time>2020-09-13T08:08:29.000Z</time>
      </trkpt>
      <trkpt lat="47.30327" lon="-1.34032">
        <ele>58</ele>
        <time>2020-09-13T08:08:31.000Z</time>
      </trkpt>
      <trkpt lat="47.30335" lon="-1.34018">
        <ele>58</ele>
        <time>2020-09-13T08:08:33.000Z</time>
      </trkpt>
      <trkpt lat="47.30343" lon="-1.34005">
        <ele>59</ele>
        <time>2020-09-13T08:08:35.000Z</time>
      </trkpt>
      <trkpt lat="47.3035" lon="-1.33993">
        <ele>59</ele>
        <time>2020-09-13T08:08:37.000Z</time>
      </trkpt>
      <trkpt lat="47.30357" lon="-1.33979">
        <ele>58</ele>
        <time>2020-09-13T08:08:39.000Z</time>
      </trkpt>
      <trkpt lat="47.30363" lon="-1.33965">
        <ele>57</ele>
        <time>2020-09-13T08:08:41.000Z</time>
      </trkpt>
      <trkpt lat="47.30371" lon="-1.33958">
        <ele>57</ele>
        <time>2020-09-13T08:08:43.000Z</time>
      </trkpt>
      <trkpt lat="47.30383" lon="-1.33955">
        <ele>57</ele>
        <time>2020-09-13T08:08:45.000Z</time>
      </trkpt>
      <trkpt lat="47.30393" lon="-1.33941">
        <ele>57</ele>
        <time>2020-09-13T08:08:47.000Z</time>
      </trkpt>
      <trkpt lat="47.30401" lon="-1.33929">
        <ele>57</ele>
        <time>2020-09-13T08:08:49.000Z</time>
      </trkpt>
      <trkpt lat="47.3041" lon="-1.33915">
        <ele>58</ele>
        <time>2020-09-13T08:08:51.000Z</time>
      </trkpt>
      <trkpt lat="47.3042" lon="-1.33903">
        <ele>57</ele>
        <time>2020-09-13T08:08:53.000Z</time>
      </trkpt>
      <trkpt lat="47.3043" lon="-1.33891">
        <ele>58</ele>
        <time>2020-09-13T08:08:55.000Z</time>
      </trkpt>
      <trkpt lat="47.3044" lon="-1.3388">
        <ele>57</ele>
        <time>2020-09-13T08:08:57.000Z</time>
      </trkpt>
      <trkpt lat="47.3045" lon="-1.3387">
        <ele>57</ele>
        <time>2020-09-13T08:08:59.000Z</time>
      </trkpt>
      <trkpt lat="47.30461" lon="-1.33859">
        <ele>57</ele>
        <time>2020-09-13T08:09:01.000Z</time>
      </trkpt>
      <trkpt lat="47.30472" lon="-1.33848">
        <ele>57</ele>
        <time>2020-09-13T08:09:03.000Z</time>
      </trkpt>
      <trkpt lat="47.30483" lon="-1.33838">
        <ele>57</ele>
        <time>2020-09-13T08:09:05.000Z</time>
      </trkpt>
      <trkpt lat="47.30495" lon="-1.33829">
        <ele>57</ele>
        <time>2020-09-13T08:09:07.000Z</time>
      </trkpt>
      <trkpt lat="47.30507" lon="-1.33821">
        <ele>56</ele>
        <time>2020-09-13T08:09:09.000Z</time>
      </trkpt>
      <trkpt lat="47.30519" lon="-1.33813">
        <ele>56</ele>
        <time>2020-09-13T08:09:11.000Z</time>
      </trkpt>
      <trkpt lat="47.3053" lon="-1.33806">
        <ele>56</ele>
        <time>2020-09-13T08:09:13.000Z</time>
      </trkpt>
      <trkpt lat="47.30542" lon="-1.33799">
        <ele>56</ele>
        <time>2020-09-13T08:09:15.000Z</time>
      </trkpt>
      <trkpt lat="47.30554" lon="-1.33792">
        <ele>56</ele>
        <time>2020-09-13T08:09:17.000Z</time>
      </trkpt>
      <trkpt lat="47.30566" lon="-1.33785">
        <ele>56</ele>
        <time>2020-09-13T08:09:19.000Z</time>
      </trkpt>
      <trkpt lat="47.30577" lon="-1.33779">
        <ele>56</ele>
        <time>2020-09-13T08:09:21.000Z</time>
      </trkpt>
      <trkpt lat="47.30589" lon="-1.33773">
        <ele>56</ele>
        <time>2020-09-13T08:09:23.000Z</time>
      </trkpt>
      <trkpt lat="47.30602" lon="-1.3377">
        <ele>57</ele>
        <time>2020-09-13T08:09:25.000Z</time>
      </trkpt>
      <trkpt lat="47.30614" lon="-1.33766">
        <ele>57</ele>
        <time>2020-09-13T08:09:27.000Z</time>
      </trkpt>
      <trkpt lat="47.30627" lon="-1.33763">
        <ele>57</ele>
        <time>2020-09-13T08:09:29.000Z</time>
      </trkpt>
      <trkpt lat="47.30639" lon="-1.33759">
        <ele>57</ele>
        <time>2020-09-13T08:09:31.000Z</time>
      </trkpt>
      <trkpt lat="47.30652" lon="-1.33754">
        <ele>57</ele>
        <time>2020-09-13T08:09:33.000Z</time>
      </trkpt>
      <trkpt lat="47.30664" lon="-1.33748">
        <ele>57</ele>
        <time>2020-09-13T08:09:35.000Z</time>
      </trkpt>
      <trkpt lat="47.30676" lon="-1.3374">
        <ele>57</ele>
        <time>2020-09-13T08:09:37.000Z</time>
      </trkpt>
      <trkpt lat="47.30687" lon="-1.33731">
        <ele>57</ele>
        <time>2020-09-13T08:09:39.000Z</time>
      </trkpt>
      <trkpt lat="47.30696" lon="-1.3372">
        <ele>56</ele>
        <time>2020-09-13T08:09:41.000Z</time>
      </trkpt>
      <trkpt lat="47.30704" lon="-1.33706">
        <ele>57</ele>
        <time>2020-09-13T08:09:43.000Z</time>
      </trkpt>
      <trkpt lat="47.30711" lon="-1.33689">
        <ele>57</ele>
        <time>2020-09-13T08:09:45.000Z</time>
      </trkpt>
      <trkpt lat="47.30719" lon="-1.3367">
        <ele>57</ele>
        <time>2020-09-13T08:09:47.000Z</time>
      </trkpt>
      <trkpt lat="47.30725" lon="-1.33651">
        <ele>57</ele>
        <time>2020-09-13T08:09:49.000Z</time>
      </trkpt>
      <trkpt lat="47.30725" lon="-1.33631">
        <ele>57</ele>
        <time>2020-09-13T08:09:51.000Z</time>
      </trkpt>
      <trkpt lat="47.3072" lon="-1.33613">
        <ele>56</ele>
        <time>2020-09-13T08:09:53.000Z</time>
      </trkpt>
      <trkpt lat="47.30714" lon="-1.33594">
        <ele>57</ele>
        <time>2020-09-13T08:09:55.000Z</time>
      </trkpt>
      <trkpt lat="47.30708" lon="-1.33576">
        <ele>57</ele>
        <time>2020-09-13T08:09:57.000Z</time>
      </trkpt>
      <trkpt lat="47.30701" lon="-1.33557">
        <ele>57</ele>
        <time>2020-09-13T08:09:59.000Z</time>
      </trkpt>
      <trkpt lat="47.30695" lon="-1.33539">
        <ele>57</ele>
        <time>2020-09-13T08:10:01.000Z</time>
      </trkpt>
      <trkpt lat="47.3069" lon="-1.33521">
        <ele>56</ele>
        <time>2020-09-13T08:10:03.000Z</time>
      </trkpt>
      <trkpt lat="47.30683" lon="-1.33503">
        <ele>56</ele>
        <time>2020-09-13T08:10:05.000Z</time>
      </trkpt>
      <trkpt lat="47.30677" lon="-1.33485">
        <ele>55</ele>
        <time>2020-09-13T08:10:07.000Z</time>
      </trkpt>
      <trkpt lat="47.30671" lon="-1.33467">
        <ele>55</ele>
        <time>2020-09-13T08:10:09.000Z</time>
      </trkpt>
      <trkpt lat="47.30665" lon="-1.33449">
        <ele>55</ele>
        <time>2020-09-13T08:10:11.000Z</time>
      </trkpt>
      <trkpt lat="47.30659" lon="-1.33432">
        <ele>55</ele>
        <time>2020-09-13T08:10:13.000Z</time>
      </trkpt>
      <trkpt lat="47.30653" lon="-1.33415">
        <ele>55</ele>
        <time>2020-09-13T08:10:15.000Z</time>
      </trkpt>
      <trkpt lat="47.30647" lon="-1.33397">
        <ele>55</ele>
        <time>2020-09-13T08:10:17.000Z</time>
      </trkpt>
      <trkpt lat="47.3064" lon="-1.3338">
        <ele>55</ele>
        <time>2020-09-13T08:10:19.000Z</time>
      </trkpt>
      <trkpt lat="47.30633" lon="-1.33363">
        <ele>55</ele>
        <time>2020-09-13T08:10:21.000Z</time>
      </trkpt>
      <trkpt lat="47.30627" lon="-1.33345">
        <ele>55</ele>
        <time>2020-09-13T08:10:23.000Z</time>
      </trkpt>
      <trkpt lat="47.3062" lon="-1.33328">
        <ele>55</ele>
        <time>2020-09-13T08:10:25.000Z</time>
      </trkpt>
      <trkpt lat="47.30614" lon="-1.3331">
        <ele>55</ele>
        <time>2020-09-13T08:10:27.000Z</time>
      </trkpt>
      <trkpt lat="47.30612" lon="-1.33291">
        <ele>55</ele>
        <time>2020-09-13T08:10:29.000Z</time>
      </trkpt>
      <trkpt lat="47.30614" lon="-1.33272">
        <ele>55</ele>
        <time>2020-09-13T08:10:31.000Z</time>
      </trkpt>
      <trkpt lat="47.3062" lon="-1.33254">
        <ele>55</ele>
        <time>2020-09-13T08:10:33.000Z</time>
      </trkpt>
      <trkpt lat="47.30629" lon="-1.33239">
        <ele>55</ele>
        <time>2020-09-13T08:10:35.000Z</time>
      </trkpt>
      <trkpt lat="47.3064" lon="-1.3323">
        <ele>55</ele>
        <time>2020-09-13T08:10:37.000Z</time>
      </trkpt>
      <trkpt lat="47.30653" lon="-1.33225">
        <ele>55</ele>
        <time>2020-09-13T08:10:39.000Z</time>
      </trkpt>
      <trkpt lat="47.30666" lon="-1.33221">
        <ele>55</ele>
        <time>2020-09-13T08:10:41.000Z</time>
      </trkpt>
      <trkpt lat="47.30679" lon="-1.33217">
        <ele>55</ele>
        <time>2020-09-13T08:10:43.000Z</time>
      </trkpt>
      <trkpt lat="47.30691" lon="-1.33213">
        <ele>55</ele>
        <time>2020-09-13T08:10:45.000Z</time>
      </trkpt>
      <trkpt lat="47.30703" lon="-1.33207">
        <ele>55</ele>
        <time>2020-09-13T08:10:47.000Z</time>
      </trkpt>
      <trkpt lat="47.30716" lon="-1.33202">
        <ele>55</ele>
        <time>2020-09-13T08:10:49.000Z</time>
      </trkpt>
      <trkpt lat="47.30729" lon="-1.33198">
        <ele>55</ele>
        <time>2020-09-13T08:10:51.000Z</time>
      </trkpt>
      <trkpt lat="47.30741" lon="-1.33192">
        <ele>55</ele>
        <time>2020-09-13T08:10:53.000Z</time>
      </trkpt>
      <trkpt lat="47.30754" lon="-1.33187">
        <ele>54</ele>
        <time>2020-09-13T08:10:55.000Z</time>
      </trkpt>
      <trkpt lat="47.30766" lon="-1.33182">
        <ele>55</ele>
        <time>2020-09-13T08:10:57.000Z</time>
      </trkpt>
      <trkpt lat="47.30778" lon="-1.33177">
        <ele>55</ele>
        <time>2020-09-13T08:10:59.000Z</time>
      </trkpt>
      <trkpt lat="47.3079" lon="-1.33172">
        <ele>55</ele>
        <time>2020-09-13T08:11:01.000Z</time>
      </trkpt>
      <trkpt lat="47.30802" lon="-1.33167">
        <ele>55</ele>
        <time>2020-09-13T08:11:03.000Z</time>
      </trkpt>
      <trkpt lat="47.30815" lon="-1.33161">
        <ele>55</ele>
        <time>2020-09-13T08:11:05.000Z</time>
      </trkpt>
      <trkpt lat="47.30827" lon="-1.33155">
        <ele>56</ele>
        <time>2020-09-13T08:11:07.000Z</time>
      </trkpt>
      <trkpt lat="47.30839" lon="-1.3315">
        <ele>56</ele>
        <time>2020-09-13T08:11:09.000Z</time>
      </trkpt>
      <trkpt lat="47.30852" lon="-1.33145">
        <ele>57</ele>
        <time>2020-09-13T08:11:11.000Z</time>
      </trkpt>
      <trkpt lat="47.30864" lon="-1.33139">
        <ele>56</ele>
        <time>2020-09-13T08:11:13.000Z</time>
      </trkpt>
      <trkpt lat="47.30877" lon="-1.33134">
        <ele>56</ele>
        <time>2020-09-13T08:11:15.000Z</time>
      </trkpt>
      <trkpt lat="47.30889" lon="-1.33128">
        <ele>56</ele>
        <time>2020-09-13T08:11:17.000Z</time>
      </trkpt>
      <trkpt lat="47.30902" lon="-1.33123">
        <ele>57</ele>
        <time>2020-09-13T08:11:19.000Z</time>
      </trkpt>
      <trkpt lat="47.30914" lon="-1.33118">
        <ele>57</ele>
        <time>2020-09-13T08:11:21.000Z</time>
      </trkpt>
      <trkpt lat="47.30926" lon="-1.33113">
        <ele>57</ele>
        <time>2020-09-13T08:11:23.000Z</time>
      </trkpt>
      <trkpt lat="47.30938" lon="-1.33108">
        <ele>57</ele>
        <time>2020-09-13T08:11:25.000Z</time>
      </trkpt>
      <trkpt lat="47.30951" lon="-1.33102">
        <ele>57</ele>
        <time>2020-09-13T08:11:27.000Z</time>
      </trkpt>
      <trkpt lat="47.30963" lon="-1.33098">
        <ele>56</ele>
        <time>2020-09-13T08:11:29.000Z</time>
      </trkpt>
      <trkpt lat="47.30976" lon="-1.33092">
        <ele>56</ele>
        <time>2020-09-13T08:11:31.000Z</time>
      </trkpt>
      <trkpt lat="47.30988" lon="-1.33087">
        <ele>56</ele>
        <time>2020-09-13T08:11:33.000Z</time>
      </trkpt>
      <trkpt lat="47.31001" lon="-1.33082">
        <ele>55</ele>
        <time>2020-09-13T08:11:35.000Z</time>
      </trkpt>
      <trkpt lat="47.31012" lon="-1.33077">
        <ele>56</ele>
        <time>2020-09-13T08:11:37.000Z</time>
      </trkpt>
      <trkpt lat="47.31025" lon="-1.33072">
        <ele>56</ele>
        <time>2020-09-13T08:11:39.000Z</time>
      </trkpt>
      <trkpt lat="47.31037" lon="-1.33067">
        <ele>56</ele>
        <time>2020-09-13T08:11:41.000Z</time>
      </trkpt>
      <trkpt lat="47.31049" lon="-1.33061">
        <ele>56</ele>
        <time>2020-09-13T08:11:43.000Z</time>
      </trkpt>
      <trkpt lat="47.3106" lon="-1.33056">
        <ele>56</ele>
        <time>2020-09-13T08:11:45.000Z</time>
      </trkpt>
      <trkpt lat="47.31072" lon="-1.3305">
        <ele>57</ele>
        <time>2020-09-13T08:11:47.000Z</time>
      </trkpt>
      <trkpt lat="47.31083" lon="-1.33046">
        <ele>57</ele>
        <time>2020-09-13T08:11:49.000Z</time>
      </trkpt>
      <trkpt lat="47.31095" lon="-1.33041">
        <ele>58</ele>
        <time>2020-09-13T08:11:51.000Z</time>
      </trkpt>
      <trkpt lat="47.31107" lon="-1.33036">
        <ele>58</ele>
        <time>2020-09-13T08:11:53.000Z</time>
      </trkpt>
      <trkpt lat="47.31119" lon="-1.3303">
        <ele>58</ele>
        <time>2020-09-13T08:11:55.000Z</time>
      </trkpt>
      <trkpt lat="47.31131" lon="-1.33026">
        <ele>58</ele>
        <time>2020-09-13T08:11:57.000Z</time>
      </trkpt>
      <trkpt lat="47.31143" lon="-1.33021">
        <ele>58</ele>
        <time>2020-09-13T08:11:59.000Z</time>
      </trkpt>
      <trkpt lat="47.31155" lon="-1.33017">
        <ele>58</ele>
        <time>2020-09-13T08:12:01.000Z</time>
      </trkpt>
      <trkpt lat="47.31167" lon="-1.33013">
        <ele>58</ele>
        <time>2020-09-13T08:12:03.000Z</time>
      </trkpt>
      <trkpt lat="47.31178" lon="-1.33009">
        <ele>58</ele>
        <time>2020-09-13T08:12:05.000Z</time>
      </trkpt>
      <trkpt lat="47.3119" lon="-1.33004">
        <ele>58</ele>
        <time>2020-09-13T08:12:07.000Z</time>
      </trkpt>
      <trkpt lat="47.31202" lon="-1.32999">
        <ele>57</ele>
        <time>2020-09-13T08:12:09.000Z</time>
      </trkpt>
      <trkpt lat="47.31214" lon="-1.32994">
        <ele>57</ele>
        <time>2020-09-13T08:12:11.000Z</time>
      </trkpt>
      <trkpt lat="47.31226" lon="-1.32989">
        <ele>57</ele>
        <time>2020-09-13T08:12:13.000Z</time>
      </trkpt>
      <trkpt lat="47.31238" lon="-1.32982">
        <ele>57</ele>
        <time>2020-09-13T08:12:15.000Z</time>
      </trkpt>
      <trkpt lat="47.3125" lon="-1.32975">
        <ele>57</ele>
        <time>2020-09-13T08:12:17.000Z</time>
      </trkpt>
      <trkpt lat="47.31261" lon="-1.32967">
        <ele>56</ele>
        <time>2020-09-13T08:12:19.000Z</time>
      </trkpt>
      <trkpt lat="47.31272" lon="-1.32959">
        <ele>56</ele>
        <time>2020-09-13T08:12:21.000Z</time>
      </trkpt>
      <trkpt lat="47.31284" lon="-1.3295">
        <ele>56</ele>
        <time>2020-09-13T08:12:23.000Z</time>
      </trkpt>
      <trkpt lat="47.31295" lon="-1.3294">
        <ele>56</ele>
        <time>2020-09-13T08:12:25.000Z</time>
      </trkpt>
      <trkpt lat="47.31306" lon="-1.32931">
        <ele>56</ele>
        <time>2020-09-13T08:12:27.000Z</time>
      </trkpt>
      <trkpt lat="47.31316" lon="-1.32921">
        <ele>56</ele>
        <time>2020-09-13T08:12:29.000Z</time>
      </trkpt>
      <trkpt lat="47.31327" lon="-1.32912">
        <ele>56</ele>
        <time>2020-09-13T08:12:31.000Z</time>
      </trkpt>
      <trkpt lat="47.31337" lon="-1.32904">
        <ele>56</ele>
        <time>2020-09-13T08:12:33.000Z</time>
      </trkpt>
      <trkpt lat="47.31347" lon="-1.32895">
        <ele>57</ele>
        <time>2020-09-13T08:12:35.000Z</time>
      </trkpt>
      <trkpt lat="47.31358" lon="-1.32885">
        <ele>56</ele>
        <time>2020-09-13T08:12:37.000Z</time>
      </trkpt>
      <trkpt lat="47.31369" lon="-1.32876">
        <ele>57</ele>
        <time>2020-09-13T08:12:39.000Z</time>
      </trkpt>
      <trkpt lat="47.3138" lon="-1.32868">
        <ele>57</ele>
        <time>2020-09-13T08:12:41.000Z</time>
      </trkpt>
      <trkpt lat="47.31392" lon="-1.32859">
        <ele>57</ele>
        <time>2020-09-13T08:12:43.000Z</time>
      </trkpt>
      <trkpt lat="47.31402" lon="-1.32849">
        <ele>57</ele>
        <time>2020-09-13T08:12:45.000Z</time>
      </trkpt>
      <trkpt lat="47.31413" lon="-1.32839">
        <ele>57</ele>
        <time>2020-09-13T08:12:47.000Z</time>
      </trkpt>
      <trkpt lat="47.31424" lon="-1.32831">
        <ele>57</ele>
        <time>2020-09-13T08:12:49.000Z</time>
      </trkpt>
      <trkpt lat="47.31434" lon="-1.32821">
        <ele>57</ele>
        <time>2020-09-13T08:12:51.000Z</time>
      </trkpt>
      <trkpt lat="47.31445" lon="-1.32812">
        <ele>56</ele>
        <time>2020-09-13T08:12:53.000Z</time>
      </trkpt>
      <trkpt lat="47.31456" lon="-1.32803">
        <ele>56</ele>
        <time>2020-09-13T08:12:55.000Z</time>
      </trkpt>
      <trkpt lat="47.31467" lon="-1.32795">
        <ele>56</ele>
        <time>2020-09-13T08:12:57.000Z</time>
      </trkpt>
      <trkpt lat="47.31477" lon="-1.32786">
        <ele>56</ele>
        <time>2020-09-13T08:12:59.000Z</time>
      </trkpt>
      <trkpt lat="47.31487" lon="-1.32776">
        <ele>56</ele>
        <time>2020-09-13T08:13:01.000Z</time>
      </trkpt>
      <trkpt lat="47.31497" lon="-1.32765">
        <ele>57</ele>
        <time>2020-09-13T08:13:03.000Z</time>
      </trkpt>
      <trkpt lat="47.31505" lon="-1.32754">
        <ele>57</ele>
        <time>2020-09-13T08:13:05.000Z</time>
      </trkpt>
      <trkpt lat="47.31515" lon="-1.32743">
        <ele>57</ele>
        <time>2020-09-13T08:13:07.000Z</time>
      </trkpt>
      <trkpt lat="47.31524" lon="-1.32733">
        <ele>57</ele>
        <time>2020-09-13T08:13:09.000Z</time>
      </trkpt>
      <trkpt lat="47.31534" lon="-1.32722">
        <ele>58</ele>
        <time>2020-09-13T08:13:11.000Z</time>
      </trkpt>
      <trkpt lat="47.31543" lon="-1.3271">
        <ele>57</ele>
        <time>2020-09-13T08:13:13.000Z</time>
      </trkpt>
      <trkpt lat="47.31553" lon="-1.32698">
        <ele>57</ele>
        <time>2020-09-13T08:13:15.000Z</time>
      </trkpt>
      <trkpt lat="47.31561" lon="-1.32686">
        <ele>58</ele>
        <time>2020-09-13T08:13:17.000Z</time>
      </trkpt>
      <trkpt lat="47.31571" lon="-1.32674">
        <ele>57</ele>
        <time>2020-09-13T08:13:19.000Z</time>
      </trkpt>
      <trkpt lat="47.31581" lon="-1.32662">
        <ele>56</ele>
        <time>2020-09-13T08:13:21.000Z</time>
      </trkpt>
      <trkpt lat="47.31591" lon="-1.32649">
        <ele>57</ele>
        <time>2020-09-13T08:13:23.000Z</time>
      </trkpt>
      <trkpt lat="47.31601" lon="-1.32636">
        <ele>57</ele>
        <time>2020-09-13T08:13:25.000Z</time>
      </trkpt>
      <trkpt lat="47.3161" lon="-1.32622">
        <ele>57</ele>
        <time>2020-09-13T08:13:27.000Z</time>
      </trkpt>
      <trkpt lat="47.31619" lon="-1.32607">
        <ele>57</ele>
        <time>2020-09-13T08:13:29.000Z</time>
      </trkpt>
      <trkpt lat="47.31627" lon="-1.32592">
        <ele>57</ele>
        <time>2020-09-13T08:13:31.000Z</time>
      </trkpt>
      <trkpt lat="47.31636" lon="-1.32577">
        <ele>56</ele>
        <time>2020-09-13T08:13:33.000Z</time>
      </trkpt>
      <trkpt lat="47.31643" lon="-1.32563">
        <ele>56</ele>
        <time>2020-09-13T08:13:35.000Z</time>
      </trkpt>
      <trkpt lat="47.31651" lon="-1.32547">
        <ele>56</ele>
        <time>2020-09-13T08:13:37.000Z</time>
      </trkpt>
      <trkpt lat="47.31659" lon="-1.32532">
        <ele>57</ele>
        <time>2020-09-13T08:13:39.000Z</time>
      </trkpt>
      <trkpt lat="47.31666" lon="-1.32516">
        <ele>56</ele>
        <time>2020-09-13T08:13:41.000Z</time>
      </trkpt>
      <trkpt lat="47.31672" lon="-1.325">
        <ele>56</ele>
        <time>2020-09-13T08:13:43.000Z</time>
      </trkpt>
      <trkpt lat="47.31678" lon="-1.32483">
        <ele>55</ele>
        <time>2020-09-13T08:13:45.000Z</time>
      </trkpt>
      <trkpt lat="47.31682" lon="-1.32465">
        <ele>55</ele>
        <time>2020-09-13T08:13:47.000Z</time>
      </trkpt>
      <trkpt lat="47.31685" lon="-1.32445">
        <ele>55</ele>
        <time>2020-09-13T08:13:49.000Z</time>
      </trkpt>
      <trkpt lat="47.31686" lon="-1.32427">
        <ele>54</ele>
        <time>2020-09-13T08:13:51.000Z</time>
      </trkpt>
      <trkpt lat="47.31687" lon="-1.32409">
        <ele>54</ele>
        <time>2020-09-13T08:13:53.000Z</time>
      </trkpt>
      <trkpt lat="47.31689" lon="-1.32391">
        <ele>54</ele>
        <time>2020-09-13T08:13:55.000Z</time>
      </trkpt>
      <trkpt lat="47.31691" lon="-1.32373">
        <ele>54</ele>
        <time>2020-09-13T08:13:57.000Z</time>
      </trkpt>
      <trkpt lat="47.31693" lon="-1.32355">
        <ele>54</ele>
        <time>2020-09-13T08:13:59.000Z</time>
      </trkpt>
      <trkpt lat="47.31696" lon="-1.32337">
        <ele>54</ele>
        <time>2020-09-13T08:14:01.000Z</time>
      </trkpt>
      <trkpt lat="47.31699" lon="-1.32319">
        <ele>54</ele>
        <time>2020-09-13T08:14:03.000Z</time>
      </trkpt>
      <trkpt lat="47.31702" lon="-1.32302">
        <ele>54</ele>
        <time>2020-09-13T08:14:05.000Z</time>
      </trkpt>
      <trkpt lat="47.31707" lon="-1.32285">
        <ele>54</ele>
        <time>2020-09-13T08:14:07.000Z</time>
      </trkpt>
      <trkpt lat="47.31711" lon="-1.32267">
        <ele>54</ele>
        <time>2020-09-13T08:14:09.000Z</time>
      </trkpt>
      <trkpt lat="47.31715" lon="-1.32249">
        <ele>54</ele>
        <time>2020-09-13T08:14:11.000Z</time>
      </trkpt>
      <trkpt lat="47.31718" lon="-1.32232">
        <ele>55</ele>
        <time>2020-09-13T08:14:13.000Z</time>
      </trkpt>
      <trkpt lat="47.31721" lon="-1.32214">
        <ele>55</ele>
        <time>2020-09-13T08:14:15.000Z</time>
      </trkpt>
      <trkpt lat="47.31723" lon="-1.32195">
        <ele>54</ele>
        <time>2020-09-13T08:14:17.000Z</time>
      </trkpt>
      <trkpt lat="47.31725" lon="-1.32177">
        <ele>55</ele>
        <time>2020-09-13T08:14:19.000Z</time>
      </trkpt>
      <trkpt lat="47.31728" lon="-1.32159">
        <ele>55</ele>
        <time>2020-09-13T08:14:21.000Z</time>
      </trkpt>
      <trkpt lat="47.31731" lon="-1.32142">
        <ele>55</ele>
        <time>2020-09-13T08:14:23.000Z</time>
      </trkpt>
      <trkpt lat="47.31736" lon="-1.32125">
        <ele>56</ele>
        <time>2020-09-13T08:14:25.000Z</time>
      </trkpt>
      <trkpt lat="47.3174" lon="-1.3211">
        <ele>57</ele>
        <time>2020-09-13T08:14:27.000Z</time>
      </trkpt>
      <trkpt lat="47.31746" lon="-1.32095">
        <ele>57</ele>
        <time>2020-09-13T08:14:29.000Z</time>
      </trkpt>
      <trkpt lat="47.31751" lon="-1.32079">
        <ele>57</ele>
        <time>2020-09-13T08:14:31.000Z</time>
      </trkpt>
      <trkpt lat="47.31757" lon="-1.32064">
        <ele>57</ele>
        <time>2020-09-13T08:14:33.000Z</time>
      </trkpt>
      <trkpt lat="47.31763" lon="-1.32048">
        <ele>57</ele>
        <time>2020-09-13T08:14:35.000Z</time>
      </trkpt>
      <trkpt lat="47.31769" lon="-1.32033">
        <ele>57</ele>
        <time>2020-09-13T08:14:37.000Z</time>
      </trkpt>
      <trkpt lat="47.31775" lon="-1.32017">
        <ele>58</ele>
        <time>2020-09-13T08:14:39.000Z</time>
      </trkpt>
      <trkpt lat="47.31781" lon="-1.32001">
        <ele>57</ele>
        <time>2020-09-13T08:14:41.000Z</time>
      </trkpt>
      <trkpt lat="47.31787" lon="-1.31986">
        <ele>57</ele>
        <time>2020-09-13T08:14:43.000Z</time>
      </trkpt>
      <trkpt lat="47.31792" lon="-1.31972">
        <ele>57</ele>
        <time>2020-09-13T08:14:45.000Z</time>
      </trkpt>
      <trkpt lat="47.31795" lon="-1.31959">
        <ele>58</ele>
        <time>2020-09-13T08:14:47.000Z</time>
      </trkpt>
      <trkpt lat="47.31803" lon="-1.31949">
        <ele>58</ele>
        <time>2020-09-13T08:14:50.000Z</time>
      </trkpt>
      <trkpt lat="47.31813" lon="-1.31952">
        <ele>58</ele>
        <time>2020-09-13T08:14:52.000Z</time>
      </trkpt>
      <trkpt lat="47.31825" lon="-1.31959">
        <ele>58</ele>
        <time>2020-09-13T08:14:54.000Z</time>
      </trkpt>
      <trkpt lat="47.31839" lon="-1.31968">
        <ele>57</ele>
        <time>2020-09-13T08:14:56.000Z</time>
      </trkpt>
      <trkpt lat="47.31853" lon="-1.31977">
        <ele>57</ele>
        <time>2020-09-13T08:14:58.000Z</time>
      </trkpt>
      <trkpt lat="47.31866" lon="-1.31986">
        <ele>57</ele>
        <time>2020-09-13T08:15:00.000Z</time>
      </trkpt>
      <trkpt lat="47.3188" lon="-1.31995">
        <ele>57</ele>
        <time>2020-09-13T08:15:02.000Z</time>
      </trkpt>
      <trkpt lat="47.31893" lon="-1.32001">
        <ele>57</ele>
        <time>2020-09-13T08:15:04.000Z</time>
      </trkpt>
      <trkpt lat="47.31907" lon="-1.32007">
        <ele>57</ele>
        <time>2020-09-13T08:15:06.000Z</time>
      </trkpt>
      <trkpt lat="47.3192" lon="-1.3201">
        <ele>58</ele>
        <time>2020-09-13T08:15:08.000Z</time>
      </trkpt>
      <trkpt lat="47.31932" lon="-1.32013">
        <ele>58</ele>
        <time>2020-09-13T08:15:10.000Z</time>
      </trkpt>
      <trkpt lat="47.31945" lon="-1.32013">
        <ele>59</ele>
        <time>2020-09-13T08:15:12.000Z</time>
      </trkpt>
      <trkpt lat="47.31956" lon="-1.32008">
        <ele>60</ele>
        <time>2020-09-13T08:15:14.000Z</time>
      </trkpt>
      <trkpt lat="47.31966" lon="-1.32">
        <ele>61</ele>
        <time>2020-09-13T08:15:16.000Z</time>
      </trkpt>
      <trkpt lat="47.31974" lon="-1.31983">
        <ele>61</ele>
        <time>2020-09-13T08:15:18.000Z</time>
      </trkpt>
      <trkpt lat="47.31982" lon="-1.31963">
        <ele>61</ele>
        <time>2020-09-13T08:15:20.000Z</time>
      </trkpt>
      <trkpt lat="47.3199" lon="-1.31944">
        <ele>61</ele>
        <time>2020-09-13T08:15:22.000Z</time>
      </trkpt>
      <trkpt lat="47.31997" lon="-1.31926">
        <ele>60</ele>
        <time>2020-09-13T08:15:24.000Z</time>
      </trkpt>
      <trkpt lat="47.32003" lon="-1.31907">
        <ele>59</ele>
        <time>2020-09-13T08:15:26.000Z</time>
      </trkpt>
      <trkpt lat="47.3201" lon="-1.31887">
        <ele>58</ele>
        <time>2020-09-13T08:15:28.000Z</time>
      </trkpt>
      <trkpt lat="47.32016" lon="-1.31868">
        <ele>58</ele>
        <time>2020-09-13T08:15:30.000Z</time>
      </trkpt>
      <trkpt lat="47.32022" lon="-1.31849">
        <ele>58</ele>
        <time>2020-09-13T08:15:32.000Z</time>
      </trkpt>
      <trkpt lat="47.32028" lon="-1.3183">
        <ele>58</ele>
        <time>2020-09-13T08:15:34.000Z</time>
      </trkpt>
      <trkpt lat="47.32034" lon="-1.31812">
        <ele>58</ele>
        <time>2020-09-13T08:15:36.000Z</time>
      </trkpt>
      <trkpt lat="47.32041" lon="-1.31794">
        <ele>58</ele>
        <time>2020-09-13T08:15:38.000Z</time>
      </trkpt>
      <trkpt lat="47.32047" lon="-1.31777">
        <ele>58</ele>
        <time>2020-09-13T08:15:40.000Z</time>
      </trkpt>
      <trkpt lat="47.32054" lon="-1.3176">
        <ele>58</ele>
        <time>2020-09-13T08:15:42.000Z</time>
      </trkpt>
      <trkpt lat="47.32061" lon="-1.31743">
        <ele>57</ele>
        <time>2020-09-13T08:15:44.000Z</time>
      </trkpt>
      <trkpt lat="47.32069" lon="-1.31727">
        <ele>57</ele>
        <time>2020-09-13T08:15:46.000Z</time>
      </trkpt>
      <trkpt lat="47.32078" lon="-1.31711">
        <ele>56</ele>
        <time>2020-09-13T08:15:48.000Z</time>
      </trkpt>
      <trkpt lat="47.32086" lon="-1.31695">
        <ele>56</ele>
        <time>2020-09-13T08:15:50.000Z</time>
      </trkpt>
      <trkpt lat="47.32095" lon="-1.3168">
        <ele>56</ele>
        <time>2020-09-13T08:15:52.000Z</time>
      </trkpt>
      <trkpt lat="47.32105" lon="-1.31665">
        <ele>56</ele>
        <time>2020-09-13T08:15:54.000Z</time>
      </trkpt>
      <trkpt lat="47.32114" lon="-1.31651">
        <ele>57</ele>
        <time>2020-09-13T08:15:56.000Z</time>
      </trkpt>
      <trkpt lat="47.32123" lon="-1.31636">
        <ele>58</ele>
        <time>2020-09-13T08:15:58.000Z</time>
      </trkpt>
      <trkpt lat="47.32132" lon="-1.31621">
        <ele>57</ele>
        <time>2020-09-13T08:16:00.000Z</time>
      </trkpt>
      <trkpt lat="47.32142" lon="-1.31607">
        <ele>57</ele>
        <time>2020-09-13T08:16:02.000Z</time>
      </trkpt>
      <trkpt lat="47.32151" lon="-1.31592">
        <ele>57</ele>
        <time>2020-09-13T08:16:04.000Z</time>
      </trkpt>
      <trkpt lat="47.3216" lon="-1.31578">
        <ele>58</ele>
        <time>2020-09-13T08:16:06.000Z</time>
      </trkpt>
      <trkpt lat="47.32169" lon="-1.31563">
        <ele>58</ele>
        <time>2020-09-13T08:16:08.000Z</time>
      </trkpt>
      <trkpt lat="47.32177" lon="-1.31547">
        <ele>58</ele>
        <time>2020-09-13T08:16:10.000Z</time>
      </trkpt>
      <trkpt lat="47.32186" lon="-1.31532">
        <ele>58</ele>
        <time>2020-09-13T08:16:12.000Z</time>
      </trkpt>
      <trkpt lat="47.32195" lon="-1.31518">
        <ele>58</ele>
        <time>2020-09-13T08:16:14.000Z</time>
      </trkpt>
      <trkpt lat="47.32204" lon="-1.31503">
        <ele>58</ele>
        <time>2020-09-13T08:16:16.000Z</time>
      </trkpt>
      <trkpt lat="47.32213" lon="-1.31488">
        <ele>58</ele>
        <time>2020-09-13T08:16:18.000Z</time>
      </trkpt>
      <trkpt lat="47.32222" lon="-1.31473">
        <ele>58</ele>
        <time>2020-09-13T08:16:20.000Z</time>
      </trkpt>
      <trkpt lat="47.32231" lon="-1.31458">
        <ele>59</ele>
        <time>2020-09-13T08:16:22.000Z</time>
      </trkpt>
      <trkpt lat="47.32239" lon="-1.31445">
        <ele>59</ele>
        <time>2020-09-13T08:16:24.000Z</time>
      </trkpt>
      <trkpt lat="47.32248" lon="-1.31432">
        <ele>59</ele>
        <time>2020-09-13T08:16:26.000Z</time>
      </trkpt>
      <trkpt lat="47.32257" lon="-1.31419">
        <ele>60</ele>
        <time>2020-09-13T08:16:28.000Z</time>
      </trkpt>
      <trkpt lat="47.32266" lon="-1.31405">
        <ele>61</ele>
        <time>2020-09-13T08:16:30.000Z</time>
      </trkpt>
      <trkpt lat="47.32276" lon="-1.31392">
        <ele>61</ele>
        <time>2020-09-13T08:16:32.000Z</time>
      </trkpt>
      <trkpt lat="47.32285" lon="-1.31378">
        <ele>60</ele>
        <time>2020-09-13T08:16:34.000Z</time>
      </trkpt>
      <trkpt lat="47.32295" lon="-1.31363">
        <ele>60</ele>
        <time>2020-09-13T08:16:36.000Z</time>
      </trkpt>
      <trkpt lat="47.32304" lon="-1.31349">
        <ele>60</ele>
        <time>2020-09-13T08:16:38.000Z</time>
      </trkpt>
      <trkpt lat="47.32314" lon="-1.31335">
        <ele>59</ele>
        <time>2020-09-13T08:16:40.000Z</time>
      </trkpt>
      <trkpt lat="47.32323" lon="-1.3132">
        <ele>58</ele>
        <time>2020-09-13T08:16:42.000Z</time>
      </trkpt>
      <trkpt lat="47.32333" lon="-1.31307">
        <ele>58</ele>
        <time>2020-09-13T08:16:44.000Z</time>
      </trkpt>
      <trkpt lat="47.32342" lon="-1.31292">
        <ele>58</ele>
        <time>2020-09-13T08:16:46.000Z</time>
      </trkpt>
      <trkpt lat="47.32351" lon="-1.31278">
        <ele>58</ele>
        <time>2020-09-13T08:16:48.000Z</time>
      </trkpt>
      <trkpt lat="47.32359" lon="-1.31263">
        <ele>58</ele>
        <time>2020-09-13T08:16:50.000Z</time>
      </trkpt>
      <trkpt lat="47.32368" lon="-1.31249">
        <ele>58</ele>
        <time>2020-09-13T08:16:52.000Z</time>
      </trkpt>
      <trkpt lat="47.32375" lon="-1.31232">
        <ele>57</ele>
        <time>2020-09-13T08:16:54.000Z</time>
      </trkpt>
      <trkpt lat="47.32381" lon="-1.31215">
        <ele>57</ele>
        <time>2020-09-13T08:16:56.000Z</time>
      </trkpt>
      <trkpt lat="47.32387" lon="-1.31197">
        <ele>56</ele>
        <time>2020-09-13T08:16:58.000Z</time>
      </trkpt>
      <trkpt lat="47.32392" lon="-1.3118">
        <ele>56</ele>
        <time>2020-09-13T08:17:00.000Z</time>
      </trkpt>
      <trkpt lat="47.32398" lon="-1.31164">
        <ele>56</ele>
        <time>2020-09-13T08:17:02.000Z</time>
      </trkpt>
      <trkpt lat="47.32403" lon="-1.31146">
        <ele>56</ele>
        <time>2020-09-13T08:17:04.000Z</time>
      </trkpt>
      <trkpt lat="47.32409" lon="-1.31129">
        <ele>55</ele>
        <time>2020-09-13T08:17:06.000Z</time>
      </trkpt>
      <trkpt lat="47.32415" lon="-1.31111">
        <ele>55</ele>
        <time>2020-09-13T08:17:08.000Z</time>
      </trkpt>
      <trkpt lat="47.32421" lon="-1.31093">
        <ele>55</ele>
        <time>2020-09-13T08:17:10.000Z</time>
      </trkpt>
      <trkpt lat="47.32426" lon="-1.31076">
        <ele>55</ele>
        <time>2020-09-13T08:17:12.000Z</time>
      </trkpt>
      <trkpt lat="47.32432" lon="-1.31059">
        <ele>55</ele>
        <time>2020-09-13T08:17:14.000Z</time>
      </trkpt>
      <trkpt lat="47.32437" lon="-1.31041">
        <ele>54</ele>
        <time>2020-09-13T08:17:16.000Z</time>
      </trkpt>
      <trkpt lat="47.32441" lon="-1.31022">
        <ele>54</ele>
        <time>2020-09-13T08:17:18.000Z</time>
      </trkpt>
      <trkpt lat="47.32446" lon="-1.31004">
        <ele>55</ele>
        <time>2020-09-13T08:17:20.000Z</time>
      </trkpt>
      <trkpt lat="47.3245" lon="-1.30986">
        <ele>55</ele>
        <time>2020-09-13T08:17:22.000Z</time>
      </trkpt>
      <trkpt lat="47.32455" lon="-1.30968">
        <ele>55</ele>
        <time>2020-09-13T08:17:24.000Z</time>
      </trkpt>
      <trkpt lat="47.32461" lon="-1.3095">
        <ele>56</ele>
        <time>2020-09-13T08:17:26.000Z</time>
      </trkpt>
      <trkpt lat="47.32467" lon="-1.30933">
        <ele>56</ele>
        <time>2020-09-13T08:17:28.000Z</time>
      </trkpt>
      <trkpt lat="47.32473" lon="-1.30917">
        <ele>55</ele>
        <time>2020-09-13T08:17:30.000Z</time>
      </trkpt>
      <trkpt lat="47.32479" lon="-1.309">
        <ele>56</ele>
        <time>2020-09-13T08:17:32.000Z</time>
      </trkpt>
      <trkpt lat="47.32485" lon="-1.30883">
        <ele>55</ele>
        <time>2020-09-13T08:17:34.000Z</time>
      </trkpt>
      <trkpt lat="47.32492" lon="-1.30866">
        <ele>56</ele>
        <time>2020-09-13T08:17:36.000Z</time>
      </trkpt>
      <trkpt lat="47.32498" lon="-1.3085">
        <ele>56</ele>
        <time>2020-09-13T08:17:38.000Z</time>
      </trkpt>
      <trkpt lat="47.32504" lon="-1.30833">
        <ele>56</ele>
        <time>2020-09-13T08:17:40.000Z</time>
      </trkpt>
      <trkpt lat="47.32511" lon="-1.30816">
        <ele>55</ele>
        <time>2020-09-13T08:17:42.000Z</time>
      </trkpt>
      <trkpt lat="47.32517" lon="-1.30799">
        <ele>55</ele>
        <time>2020-09-13T08:17:44.000Z</time>
      </trkpt>
      <trkpt lat="47.32523" lon="-1.30783">
        <ele>55</ele>
        <time>2020-09-13T08:17:46.000Z</time>
      </trkpt>
      <trkpt lat="47.32529" lon="-1.30768">
        <ele>55</ele>
        <time>2020-09-13T08:17:48.000Z</time>
      </trkpt>
      <trkpt lat="47.32536" lon="-1.30754">
        <ele>56</ele>
        <time>2020-09-13T08:17:50.000Z</time>
      </trkpt>
      <trkpt lat="47.32542" lon="-1.30739">
        <ele>56</ele>
        <time>2020-09-13T08:17:52.000Z</time>
      </trkpt>
      <trkpt lat="47.32548" lon="-1.30722">
        <ele>57</ele>
        <time>2020-09-13T08:17:54.000Z</time>
      </trkpt>
      <trkpt lat="47.32555" lon="-1.30705">
        <ele>57</ele>
        <time>2020-09-13T08:17:56.000Z</time>
      </trkpt>
      <trkpt lat="47.32563" lon="-1.30689">
        <ele>56</ele>
        <time>2020-09-13T08:17:58.000Z</time>
      </trkpt>
      <trkpt lat="47.3257" lon="-1.30673">
        <ele>56</ele>
        <time>2020-09-13T08:18:00.000Z</time>
      </trkpt>
      <trkpt lat="47.32576" lon="-1.30658">
        <ele>56</ele>
        <time>2020-09-13T08:18:02.000Z</time>
      </trkpt>
      <trkpt lat="47.32582" lon="-1.30643">
        <ele>57</ele>
        <time>2020-09-13T08:18:04.000Z</time>
      </trkpt>
      <trkpt lat="47.32589" lon="-1.30628">
        <ele>56</ele>
        <time>2020-09-13T08:18:06.000Z</time>
      </trkpt>
      <trkpt lat="47.32596" lon="-1.30613">
        <ele>56</ele>
        <time>2020-09-13T08:18:08.000Z</time>
      </trkpt>
      <trkpt lat="47.32603" lon="-1.30598">
        <ele>56</ele>
        <time>2020-09-13T08:18:10.000Z</time>
      </trkpt>
      <trkpt lat="47.3261" lon="-1.30582">
        <ele>56</ele>
        <time>2020-09-13T08:18:12.000Z</time>
      </trkpt>
      <trkpt lat="47.32618" lon="-1.30566">
        <ele>56</ele>
        <time>2020-09-13T08:18:14.000Z</time>
      </trkpt>
      <trkpt lat="47.32624" lon="-1.3055">
        <ele>55</ele>
        <time>2020-09-13T08:18:16.000Z</time>
      </trkpt>
      <trkpt lat="47.32631" lon="-1.30534">
        <ele>55</ele>
        <time>2020-09-13T08:18:18.000Z</time>
      </trkpt>
      <trkpt lat="47.32639" lon="-1.30518">
        <ele>55</ele>
        <time>2020-09-13T08:18:20.000Z</time>
      </trkpt>
      <trkpt lat="47.32645" lon="-1.30502">
        <ele>56</ele>
        <time>2020-09-13T08:18:22.000Z</time>
      </trkpt>
      <trkpt lat="47.32652" lon="-1.30486">
        <ele>56</ele>
        <time>2020-09-13T08:18:24.000Z</time>
      </trkpt>
      <trkpt lat="47.3266" lon="-1.3047">
        <ele>56</ele>
        <time>2020-09-13T08:18:26.000Z</time>
      </trkpt>
      <trkpt lat="47.32667" lon="-1.30454">
        <ele>56</ele>
        <time>2020-09-13T08:18:28.000Z</time>
      </trkpt>
      <trkpt lat="47.32674" lon="-1.30437">
        <ele>56</ele>
        <time>2020-09-13T08:18:30.000Z</time>
      </trkpt>
      <trkpt lat="47.3268" lon="-1.3042">
        <ele>56</ele>
        <time>2020-09-13T08:18:32.000Z</time>
      </trkpt>
      <trkpt lat="47.32684" lon="-1.30402">
        <ele>56</ele>
        <time>2020-09-13T08:18:34.000Z</time>
      </trkpt>
      <trkpt lat="47.32685" lon="-1.30382">
        <ele>55</ele>
        <time>2020-09-13T08:18:36.000Z</time>
      </trkpt>
      <trkpt lat="47.32682" lon="-1.30363">
        <ele>55</ele>
        <time>2020-09-13T08:18:38.000Z</time>
      </trkpt>
      <trkpt lat="47.32676" lon="-1.30347">
        <ele>55</ele>
        <time>2020-09-13T08:18:40.000Z</time>
      </trkpt>
      <trkpt lat="47.32669" lon="-1.30331">
        <ele>54</ele>
        <time>2020-09-13T08:18:42.000Z</time>
      </trkpt>
      <trkpt lat="47.32662" lon="-1.30317">
        <ele>55</ele>
        <time>2020-09-13T08:18:44.000Z</time>
      </trkpt>
      <trkpt lat="47.32655" lon="-1.30301">
        <ele>55</ele>
        <time>2020-09-13T08:18:46.000Z</time>
      </trkpt>
      <trkpt lat="47.32649" lon="-1.30285">
        <ele>55</ele>
        <time>2020-09-13T08:18:48.000Z</time>
      </trkpt>
      <trkpt lat="47.32642" lon="-1.3027">
        <ele>55</ele>
        <time>2020-09-13T08:18:50.000Z</time>
      </trkpt>
      <trkpt lat="47.32638" lon="-1.30255">
        <ele>55</ele>
        <time>2020-09-13T08:18:52.000Z</time>
      </trkpt>
      <trkpt lat="47.32644" lon="-1.3024">
        <ele>55</ele>
        <time>2020-09-13T08:18:54.000Z</time>
      </trkpt>
      <trkpt lat="47.32653" lon="-1.30227">
        <ele>56</ele>
        <time>2020-09-13T08:18:56.000Z</time>
      </trkpt>
      <trkpt lat="47.32661" lon="-1.30214">
        <ele>57</ele>
        <time>2020-09-13T08:18:58.000Z</time>
      </trkpt>
      <trkpt lat="47.3267" lon="-1.30201">
        <ele>58</ele>
        <time>2020-09-13T08:19:00.000Z</time>
      </trkpt>
      <trkpt lat="47.32678" lon="-1.30186">
        <ele>58</ele>
        <time>2020-09-13T08:19:02.000Z</time>
      </trkpt>
      <trkpt lat="47.32686" lon="-1.30173">
        <ele>59</ele>
        <time>2020-09-13T08:19:04.000Z</time>
      </trkpt>
      <trkpt lat="47.32694" lon="-1.30159">
        <ele>59</ele>
        <time>2020-09-13T08:19:06.000Z</time>
      </trkpt>
      <trkpt lat="47.32704" lon="-1.30146">
        <ele>59</ele>
        <time>2020-09-13T08:19:08.000Z</time>
      </trkpt>
      <trkpt lat="47.32713" lon="-1.30133">
        <ele>59</ele>
        <time>2020-09-13T08:19:10.000Z</time>
      </trkpt>
      <trkpt lat="47.32722" lon="-1.30119">
        <ele>59</ele>
        <time>2020-09-13T08:19:12.000Z</time>
      </trkpt>
      <trkpt lat="47.3273" lon="-1.30105">
        <ele>59</ele>
        <time>2020-09-13T08:19:14.000Z</time>
      </trkpt>
      <trkpt lat="47.32737" lon="-1.30089">
        <ele>59</ele>
        <time>2020-09-13T08:19:16.000Z</time>
      </trkpt>
      <trkpt lat="47.32744" lon="-1.30074">
        <ele>59</ele>
        <time>2020-09-13T08:19:18.000Z</time>
      </trkpt>
      <trkpt lat="47.32752" lon="-1.3006">
        <ele>59</ele>
        <time>2020-09-13T08:19:20.000Z</time>
      </trkpt>
      <trkpt lat="47.32759" lon="-1.30045">
        <ele>58</ele>
        <time>2020-09-13T08:19:22.000Z</time>
      </trkpt>
      <trkpt lat="47.32766" lon="-1.3003">
        <ele>58</ele>
        <time>2020-09-13T08:19:24.000Z</time>
      </trkpt>
      <trkpt lat="47.32774" lon="-1.30015">
        <ele>59</ele>
        <time>2020-09-13T08:19:26.000Z</time>
      </trkpt>
      <trkpt lat="47.32783" lon="-1.3">
        <ele>59</ele>
        <time>2020-09-13T08:19:28.000Z</time>
      </trkpt>
      <trkpt lat="47.32791" lon="-1.29983">
        <ele>59</ele>
        <time>2020-09-13T08:19:30.000Z</time>
      </trkpt>
      <trkpt lat="47.32799" lon="-1.29966">
        <ele>59</ele>
        <time>2020-09-13T08:19:32.000Z</time>
      </trkpt>
      <trkpt lat="47.32807" lon="-1.2995">
        <ele>59</ele>
        <time>2020-09-13T08:19:34.000Z</time>
      </trkpt>
      <trkpt lat="47.32815" lon="-1.29934">
        <ele>59</ele>
        <time>2020-09-13T08:19:36.000Z</time>
      </trkpt>
      <trkpt lat="47.32823" lon="-1.29918">
        <ele>60</ele>
        <time>2020-09-13T08:19:38.000Z</time>
      </trkpt>
      <trkpt lat="47.32832" lon="-1.29903">
        <ele>60</ele>
        <time>2020-09-13T08:19:40.000Z</time>
      </trkpt>
      <trkpt lat="47.3284" lon="-1.29888">
        <ele>60</ele>
        <time>2020-09-13T08:19:42.000Z</time>
      </trkpt>
      <trkpt lat="47.32847" lon="-1.29871">
        <ele>60</ele>
        <time>2020-09-13T08:19:44.000Z</time>
      </trkpt>
      <trkpt lat="47.32857" lon="-1.29856">
        <ele>60</ele>
        <time>2020-09-13T08:19:46.000Z</time>
      </trkpt>
      <trkpt lat="47.32866" lon="-1.29839">
        <ele>59</ele>
        <time>2020-09-13T08:19:48.000Z</time>
      </trkpt>
      <trkpt lat="47.32876" lon="-1.29823">
        <ele>59</ele>
        <time>2020-09-13T08:19:50.000Z</time>
      </trkpt>
      <trkpt lat="47.32885" lon="-1.29806">
        <ele>59</ele>
        <time>2020-09-13T08:19:52.000Z</time>
      </trkpt>
      <trkpt lat="47.32894" lon="-1.29789">
        <ele>59</ele>
        <time>2020-09-13T08:19:54.000Z</time>
      </trkpt>
      <trkpt lat="47.32903" lon="-1.29774">
        <ele>59</ele>
        <time>2020-09-13T08:19:56.000Z</time>
      </trkpt>
      <trkpt lat="47.32912" lon="-1.29758">
        <ele>59</ele>
        <time>2020-09-13T08:19:58.000Z</time>
      </trkpt>
      <trkpt lat="47.3292" lon="-1.29742">
        <ele>58</ele>
        <time>2020-09-13T08:20:00.000Z</time>
      </trkpt>
      <trkpt lat="47.32929" lon="-1.29727">
        <ele>58</ele>
        <time>2020-09-13T08:20:02.000Z</time>
      </trkpt>
      <trkpt lat="47.32937" lon="-1.29712">
        <ele>58</ele>
        <time>2020-09-13T08:20:04.000Z</time>
      </trkpt>
      <trkpt lat="47.32947" lon="-1.29698">
        <ele>58</ele>
        <time>2020-09-13T08:20:06.000Z</time>
      </trkpt>
      <trkpt lat="47.32956" lon="-1.29683">
        <ele>58</ele>
        <time>2020-09-13T08:20:08.000Z</time>
      </trkpt>
      <trkpt lat="47.32965" lon="-1.29668">
        <ele>58</ele>
        <time>2020-09-13T08:20:10.000Z</time>
      </trkpt>
      <trkpt lat="47.32974" lon="-1.29654">
        <ele>58</ele>
        <time>2020-09-13T08:20:12.000Z</time>
      </trkpt>
      <trkpt lat="47.32983" lon="-1.2964">
        <ele>58</ele>
        <time>2020-09-13T08:20:14.000Z</time>
      </trkpt>
      <trkpt lat="47.32991" lon="-1.29625">
        <ele>58</ele>
        <time>2020-09-13T08:20:16.000Z</time>
      </trkpt>
      <trkpt lat="47.33" lon="-1.29609">
        <ele>58</ele>
        <time>2020-09-13T08:20:18.000Z</time>
      </trkpt>
      <trkpt lat="47.33008" lon="-1.29593">
        <ele>58</ele>
        <time>2020-09-13T08:20:20.000Z</time>
      </trkpt>
      <trkpt lat="47.33017" lon="-1.29577">
        <ele>58</ele>
        <time>2020-09-13T08:20:22.000Z</time>
      </trkpt>
      <trkpt lat="47.33025" lon="-1.29562">
        <ele>58</ele>
        <time>2020-09-13T08:20:24.000Z</time>
      </trkpt>
      <trkpt lat="47.33034" lon="-1.29546">
        <ele>57</ele>
        <time>2020-09-13T08:20:26.000Z</time>
      </trkpt>
      <trkpt lat="47.33043" lon="-1.2953">
        <ele>57</ele>
        <time>2020-09-13T08:20:28.000Z</time>
      </trkpt>
      <trkpt lat="47.33052" lon="-1.29514">
        <ele>57</ele>
        <time>2020-09-13T08:20:30.000Z</time>
      </trkpt>
      <trkpt lat="47.33061" lon="-1.29499">
        <ele>57</ele>
        <time>2020-09-13T08:20:32.000Z</time>
      </trkpt>
      <trkpt lat="47.33071" lon="-1.29484">
        <ele>57</ele>
        <time>2020-09-13T08:20:34.000Z</time>
      </trkpt>
      <trkpt lat="47.3308" lon="-1.2947">
        <ele>57</ele>
        <time>2020-09-13T08:20:36.000Z</time>
      </trkpt>
      <trkpt lat="47.3309" lon="-1.29456">
        <ele>57</ele>
        <time>2020-09-13T08:20:38.000Z</time>
      </trkpt>
      <trkpt lat="47.33099" lon="-1.29442">
        <ele>57</ele>
        <time>2020-09-13T08:20:40.000Z</time>
      </trkpt>
      <trkpt lat="47.33108" lon="-1.29429">
        <ele>57</ele>
        <time>2020-09-13T08:20:42.000Z</time>
      </trkpt>
      <trkpt lat="47.33118" lon="-1.29415">
        <ele>57</ele>
        <time>2020-09-13T08:20:44.000Z</time>
      </trkpt>
      <trkpt lat="47.33128" lon="-1.29401">
        <ele>57</ele>
        <time>2020-09-13T08:20:46.000Z</time>
      </trkpt>
      <trkpt lat="47.33136" lon="-1.29387">
        <ele>57</ele>
        <time>2020-09-13T08:20:48.000Z</time>
      </trkpt>
      <trkpt lat="47.33145" lon="-1.29373">
        <ele>57</ele>
        <time>2020-09-13T08:20:50.000Z</time>
      </trkpt>
      <trkpt lat="47.33151" lon="-1.29357">
        <ele>57</ele>
        <time>2020-09-13T08:20:52.000Z</time>
      </trkpt>
      <trkpt lat="47.33148" lon="-1.29344">
        <ele>56</ele>
        <time>2020-09-13T08:20:54.000Z</time>
      </trkpt>
      <trkpt lat="47.33139" lon="-1.29336">
        <ele>56</ele>
        <time>2020-09-13T08:20:56.000Z</time>
      </trkpt>
      <trkpt lat="47.33128" lon="-1.29327">
        <ele>57</ele>
        <time>2020-09-13T08:20:58.000Z</time>
      </trkpt>
      <trkpt lat="47.33123" lon="-1.29312">
        <ele>57</ele>
        <time>2020-09-13T08:21:00.000Z</time>
      </trkpt>
      <trkpt lat="47.33123" lon="-1.29298">
        <ele>58</ele>
        <time>2020-09-13T08:21:02.000Z</time>
      </trkpt>
      <trkpt lat="47.33128" lon="-1.29284">
        <ele>58</ele>
        <time>2020-09-13T08:21:04.000Z</time>
      </trkpt>
      <trkpt lat="47.33134" lon="-1.2927">
        <ele>58</ele>
        <time>2020-09-13T08:21:06.000Z</time>
      </trkpt>
      <trkpt lat="47.33141" lon="-1.29257">
        <ele>59</ele>
        <time>2020-09-13T08:21:08.000Z</time>
      </trkpt>
      <trkpt lat="47.33148" lon="-1.29245">
        <ele>59</ele>
        <time>2020-09-13T08:21:10.000Z</time>
      </trkpt>
      <trkpt lat="47.33155" lon="-1.29231">
        <ele>58</ele>
        <time>2020-09-13T08:21:12.000Z</time>
      </trkpt>
      <trkpt lat="47.33163" lon="-1.2922">
        <ele>58</ele>
        <time>2020-09-13T08:21:14.000Z</time>
      </trkpt>
      <trkpt lat="47.3317" lon="-1.2921">
        <ele>59</ele>
        <time>2020-09-13T08:21:16.000Z</time>
      </trkpt>
      <trkpt lat="47.33171" lon="-1.29192">
        <ele>59</ele>
        <time>2020-09-13T08:21:18.000Z</time>
      </trkpt>
      <trkpt lat="47.33172" lon="-1.29175">
        <ele>59</ele>
        <time>2020-09-13T08:21:20.000Z</time>
      </trkpt>
      <trkpt lat="47.33179" lon="-1.29162">
        <ele>59</ele>
        <time>2020-09-13T08:21:22.000Z</time>
      </trkpt>
      <trkpt lat="47.33189" lon="-1.29152">
        <ele>59</ele>
        <time>2020-09-13T08:21:24.000Z</time>
      </trkpt>
      <trkpt lat="47.33201" lon="-1.29145">
        <ele>60</ele>
        <time>2020-09-13T08:21:26.000Z</time>
      </trkpt>
      <trkpt lat="47.33215" lon="-1.29149">
        <ele>59</ele>
        <time>2020-09-13T08:21:28.000Z</time>
      </trkpt>
      <trkpt lat="47.33228" lon="-1.29157">
        <ele>58</ele>
        <time>2020-09-13T08:21:30.000Z</time>
      </trkpt>
      <trkpt lat="47.3324" lon="-1.29165">
        <ele>58</ele>
        <time>2020-09-13T08:21:32.000Z</time>
      </trkpt>
      <trkpt lat="47.33252" lon="-1.29172">
        <ele>59</ele>
        <time>2020-09-13T08:21:34.000Z</time>
      </trkpt>
      <trkpt lat="47.33267" lon="-1.29181">
        <ele>59</ele>
        <time>2020-09-13T08:21:36.000Z</time>
      </trkpt>
      <trkpt lat="47.3328" lon="-1.2919">
        <ele>59</ele>
        <time>2020-09-13T08:21:38.000Z</time>
      </trkpt>
      <trkpt lat="47.33294" lon="-1.292">
        <ele>59</ele>
        <time>2020-09-13T08:21:40.000Z</time>
      </trkpt>
      <trkpt lat="47.33306" lon="-1.29209">
        <ele>58</ele>
        <time>2020-09-13T08:21:42.000Z</time>
      </trkpt>
      <trkpt lat="47.33317" lon="-1.29217">
        <ele>58</ele>
        <time>2020-09-13T08:21:44.000Z</time>
      </trkpt>
      <trkpt lat="47.33328" lon="-1.29226">
        <ele>57</ele>
        <time>2020-09-13T08:21:46.000Z</time>
      </trkpt>
      <trkpt lat="47.33339" lon="-1.29234">
        <ele>57</ele>
        <time>2020-09-13T08:21:48.000Z</time>
      </trkpt>
      <trkpt lat="47.33349" lon="-1.29245">
        <ele>58</ele>
        <time>2020-09-13T08:21:50.000Z</time>
      </trkpt>
      <trkpt lat="47.33359" lon="-1.29257">
        <ele>58</ele>
        <time>2020-09-13T08:21:52.000Z</time>
      </trkpt>
      <trkpt lat="47.33367" lon="-1.29269">
        <ele>57</ele>
        <time>2020-09-13T08:21:54.000Z</time>
      </trkpt>
      <trkpt lat="47.33373" lon="-1.29281">
        <ele>57</ele>
        <time>2020-09-13T08:21:56.000Z</time>
      </trkpt>
      <trkpt lat="47.33379" lon="-1.29291">
        <ele>57</ele>
        <time>2020-09-13T08:21:58.000Z</time>
      </trkpt>
      <trkpt lat="47.33385" lon="-1.29302">
        <ele>57</ele>
        <time>2020-09-13T08:22:00.000Z</time>
      </trkpt>
      <trkpt lat="47.33393" lon="-1.29317">
        <ele>57</ele>
        <time>2020-09-13T08:22:03.000Z</time>
      </trkpt>
      <trkpt lat="47.334" lon="-1.29333">
        <ele>57</ele>
        <time>2020-09-13T08:22:06.000Z</time>
      </trkpt>
      <trkpt lat="47.33405" lon="-1.29345">
        <ele>57</ele>
        <time>2020-09-13T08:22:08.000Z</time>
      </trkpt>
      <trkpt lat="47.33409" lon="-1.29362">
        <ele>57</ele>
        <time>2020-09-13T08:22:11.000Z</time>
      </trkpt>
      <trkpt lat="47.33412" lon="-1.29377">
        <ele>57</ele>
        <time>2020-09-13T08:22:15.000Z</time>
      </trkpt>
      <trkpt lat="47.33422" lon="-1.29385">
        <ele>57</ele>
        <time>2020-09-13T08:22:18.000Z</time>
      </trkpt>
      <trkpt lat="47.33433" lon="-1.29392">
        <ele>57</ele>
        <time>2020-09-13T08:22:20.000Z</time>
      </trkpt>
      <trkpt lat="47.33443" lon="-1.29401">
        <ele>57</ele>
        <time>2020-09-13T08:22:22.000Z</time>
      </trkpt>
      <trkpt lat="47.33452" lon="-1.29408">
        <ele>57</ele>
        <time>2020-09-13T08:22:24.000Z</time>
      </trkpt>
      <trkpt lat="47.33461" lon="-1.29418">
        <ele>57</ele>
        <time>2020-09-13T08:22:26.000Z</time>
      </trkpt>
      <trkpt lat="47.33473" lon="-1.29427">
        <ele>57</ele>
        <time>2020-09-13T08:22:28.000Z</time>
      </trkpt>
      <trkpt lat="47.33484" lon="-1.29436">
        <ele>57</ele>
        <time>2020-09-13T08:22:30.000Z</time>
      </trkpt>
      <trkpt lat="47.33498" lon="-1.29446">
        <ele>57</ele>
        <time>2020-09-13T08:22:32.000Z</time>
      </trkpt>
      <trkpt lat="47.33512" lon="-1.29457">
        <ele>56</ele>
        <time>2020-09-13T08:22:34.000Z</time>
      </trkpt>
      <trkpt lat="47.33527" lon="-1.29468">
        <ele>56</ele>
        <time>2020-09-13T08:22:36.000Z</time>
      </trkpt>
      <trkpt lat="47.33542" lon="-1.2948">
        <ele>56</ele>
        <time>2020-09-13T08:22:38.000Z</time>
      </trkpt>
      <trkpt lat="47.33555" lon="-1.2949">
        <ele>57</ele>
        <time>2020-09-13T08:22:40.000Z</time>
      </trkpt>
      <trkpt lat="47.33568" lon="-1.29501">
        <ele>57</ele>
        <time>2020-09-13T08:22:42.000Z</time>
      </trkpt>
      <trkpt lat="47.33582" lon="-1.29512">
        <ele>57</ele>
        <time>2020-09-13T08:22:44.000Z</time>
      </trkpt>
      <trkpt lat="47.33594" lon="-1.29522">
        <ele>57</ele>
        <time>2020-09-13T08:22:46.000Z</time>
      </trkpt>
      <trkpt lat="47.33606" lon="-1.29532">
        <ele>57</ele>
        <time>2020-09-13T08:22:48.000Z</time>
      </trkpt>
      <trkpt lat="47.33617" lon="-1.29541">
        <ele>58</ele>
        <time>2020-09-13T08:22:50.000Z</time>
      </trkpt>
      <trkpt lat="47.3363" lon="-1.29547">
        <ele>58</ele>
        <time>2020-09-13T08:22:52.000Z</time>
      </trkpt>
      <trkpt lat="47.33642" lon="-1.29544">
        <ele>59</ele>
        <time>2020-09-13T08:22:54.000Z</time>
      </trkpt>
      <trkpt lat="47.33649" lon="-1.29533">
        <ele>58</ele>
        <time>2020-09-13T08:22:56.000Z</time>
      </trkpt>
      <trkpt lat="47.33653" lon="-1.29513">
        <ele>59</ele>
        <time>2020-09-13T08:22:58.000Z</time>
      </trkpt>
      <trkpt lat="47.33656" lon="-1.29492">
        <ele>59</ele>
        <time>2020-09-13T08:23:00.000Z</time>
      </trkpt>
      <trkpt lat="47.3366" lon="-1.29469">
        <ele>58</ele>
        <time>2020-09-13T08:23:02.000Z</time>
      </trkpt>
      <trkpt lat="47.33664" lon="-1.29449">
        <ele>58</ele>
        <time>2020-09-13T08:23:04.000Z</time>
      </trkpt>
      <trkpt lat="47.33671" lon="-1.29432">
        <ele>59</ele>
        <time>2020-09-13T08:23:06.000Z</time>
      </trkpt>
      <trkpt lat="47.3368" lon="-1.29413">
        <ele>59</ele>
        <time>2020-09-13T08:23:08.000Z</time>
      </trkpt>
      <trkpt lat="47.33686" lon="-1.29394">
        <ele>59</ele>
        <time>2020-09-13T08:23:10.000Z</time>
      </trkpt>
      <trkpt lat="47.33692" lon="-1.29375">
        <ele>60</ele>
        <time>2020-09-13T08:23:12.000Z</time>
      </trkpt>
      <trkpt lat="47.33698" lon="-1.29357">
        <ele>60</ele>
        <time>2020-09-13T08:23:14.000Z</time>
      </trkpt>
      <trkpt lat="47.33705" lon="-1.29338">
        <ele>59</ele>
        <time>2020-09-13T08:23:16.000Z</time>
      </trkpt>
      <trkpt lat="47.3371" lon="-1.29321">
        <ele>59</ele>
        <time>2020-09-13T08:23:18.000Z</time>
      </trkpt>
      <trkpt lat="47.33716" lon="-1.29303">
        <ele>59</ele>
        <time>2020-09-13T08:23:20.000Z</time>
      </trkpt>
      <trkpt lat="47.33721" lon="-1.29284">
        <ele>58</ele>
        <time>2020-09-13T08:23:22.000Z</time>
      </trkpt>
      <trkpt lat="47.33726" lon="-1.29265">
        <ele>58</ele>
        <time>2020-09-13T08:23:24.000Z</time>
      </trkpt>
      <trkpt lat="47.3373" lon="-1.29246">
        <ele>57</ele>
        <time>2020-09-13T08:23:26.000Z</time>
      </trkpt>
      <trkpt lat="47.33733" lon="-1.29227">
        <ele>57</ele>
        <time>2020-09-13T08:23:28.000Z</time>
      </trkpt>
      <trkpt lat="47.33737" lon="-1.29208">
        <ele>57</ele>
        <time>2020-09-13T08:23:30.000Z</time>
      </trkpt>
      <trkpt lat="47.33742" lon="-1.29188">
        <ele>58</ele>
        <time>2020-09-13T08:23:32.000Z</time>
      </trkpt>
      <trkpt lat="47.33747" lon="-1.29168">
        <ele>58</ele>
        <time>2020-09-13T08:23:34.000Z</time>
      </trkpt>
      <trkpt lat="47.3375" lon="-1.2915">
        <ele>58</ele>
        <time>2020-09-13T08:23:36.000Z</time>
      </trkpt>
      <trkpt lat="47.3375" lon="-1.29132">
        <ele>57</ele>
        <time>2020-09-13T08:23:38.000Z</time>
      </trkpt>
      <trkpt lat="47.3375" lon="-1.29112">
        <ele>58</ele>
        <time>2020-09-13T08:23:40.000Z</time>
      </trkpt>
      <trkpt lat="47.33752" lon="-1.29091">
        <ele>58</ele>
        <time>2020-09-13T08:23:42.000Z</time>
      </trkpt>
      <trkpt lat="47.33752" lon="-1.29071">
        <ele>58</ele>
        <time>2020-09-13T08:23:44.000Z</time>
      </trkpt>
      <trkpt lat="47.33752" lon="-1.29051">
        <ele>57</ele>
        <time>2020-09-13T08:23:46.000Z</time>
      </trkpt>
      <trkpt lat="47.33753" lon="-1.29032">
        <ele>58</ele>
        <time>2020-09-13T08:23:48.000Z</time>
      </trkpt>
      <trkpt lat="47.33754" lon="-1.29015">
        <ele>58</ele>
        <time>2020-09-13T08:23:50.000Z</time>
      </trkpt>
      <trkpt lat="47.33753" lon="-1.28999">
        <ele>58</ele>
        <time>2020-09-13T08:23:52.000Z</time>
      </trkpt>
      <trkpt lat="47.33753" lon="-1.28982">
        <ele>58</ele>
        <time>2020-09-13T08:23:54.000Z</time>
      </trkpt>
      <trkpt lat="47.33752" lon="-1.28965">
        <ele>60</ele>
        <time>2020-09-13T08:23:56.000Z</time>
      </trkpt>
      <trkpt lat="47.33752" lon="-1.28944">
        <ele>61</ele>
        <time>2020-09-13T08:23:58.000Z</time>
      </trkpt>
      <trkpt lat="47.33755" lon="-1.28925">
        <ele>61</ele>
        <time>2020-09-13T08:24:00.000Z</time>
      </trkpt>
      <trkpt lat="47.3376" lon="-1.28907">
        <ele>61</ele>
        <time>2020-09-13T08:24:02.000Z</time>
      </trkpt>
      <trkpt lat="47.33768" lon="-1.28891">
        <ele>62</ele>
        <time>2020-09-13T08:24:04.000Z</time>
      </trkpt>
      <trkpt lat="47.33771" lon="-1.28872">
        <ele>61</ele>
        <time>2020-09-13T08:24:06.000Z</time>
      </trkpt>
      <trkpt lat="47.33769" lon="-1.2885">
        <ele>62</ele>
        <time>2020-09-13T08:24:08.000Z</time>
      </trkpt>
      <trkpt lat="47.33768" lon="-1.2883">
        <ele>62</ele>
        <time>2020-09-13T08:24:10.000Z</time>
      </trkpt>
      <trkpt lat="47.33768" lon="-1.2881">
        <ele>62</ele>
        <time>2020-09-13T08:24:12.000Z</time>
      </trkpt>
      <trkpt lat="47.33771" lon="-1.28788">
        <ele>61</ele>
        <time>2020-09-13T08:24:14.000Z</time>
      </trkpt>
      <trkpt lat="47.33773" lon="-1.28768">
        <ele>61</ele>
        <time>2020-09-13T08:24:16.000Z</time>
      </trkpt>
      <trkpt lat="47.33774" lon="-1.28749">
        <ele>61</ele>
        <time>2020-09-13T08:24:18.000Z</time>
      </trkpt>
      <trkpt lat="47.33775" lon="-1.28729">
        <ele>61</ele>
        <time>2020-09-13T08:24:20.000Z</time>
      </trkpt>
      <trkpt lat="47.33776" lon="-1.28709">
        <ele>61</ele>
        <time>2020-09-13T08:24:22.000Z</time>
      </trkpt>
      <trkpt lat="47.3378" lon="-1.2869">
        <ele>61</ele>
        <time>2020-09-13T08:24:24.000Z</time>
      </trkpt>
      <trkpt lat="47.33786" lon="-1.28674">
        <ele>61</ele>
        <time>2020-09-13T08:24:26.000Z</time>
      </trkpt>
      <trkpt lat="47.33789" lon="-1.28659">
        <ele>60</ele>
        <time>2020-09-13T08:24:28.000Z</time>
      </trkpt>
      <trkpt lat="47.3379" lon="-1.28641">
        <ele>61</ele>
        <time>2020-09-13T08:24:30.000Z</time>
      </trkpt>
      <trkpt lat="47.33793" lon="-1.28622">
        <ele>60</ele>
        <time>2020-09-13T08:24:32.000Z</time>
      </trkpt>
      <trkpt lat="47.33798" lon="-1.28605">
        <ele>61</ele>
        <time>2020-09-13T08:24:34.000Z</time>
      </trkpt>
      <trkpt lat="47.33803" lon="-1.2859">
        <ele>60</ele>
        <time>2020-09-13T08:24:36.000Z</time>
      </trkpt>
      <trkpt lat="47.3381" lon="-1.28575">
        <ele>61</ele>
        <time>2020-09-13T08:24:39.000Z</time>
      </trkpt>
      <trkpt lat="47.33807" lon="-1.28556">
        <ele>61</ele>
        <time>2020-09-13T08:24:42.000Z</time>
      </trkpt>
      <trkpt lat="47.33801" lon="-1.28542">
        <ele>62</ele>
        <time>2020-09-13T08:24:44.000Z</time>
      </trkpt>
      <trkpt lat="47.33799" lon="-1.28524">
        <ele>61</ele>
        <time>2020-09-13T08:24:46.000Z</time>
      </trkpt>
      <trkpt lat="47.33802" lon="-1.28502">
        <ele>61</ele>
        <time>2020-09-13T08:24:48.000Z</time>
      </trkpt>
      <trkpt lat="47.33804" lon="-1.2848">
        <ele>61</ele>
        <time>2020-09-13T08:24:50.000Z</time>
      </trkpt>
      <trkpt lat="47.33806" lon="-1.28458">
        <ele>61</ele>
        <time>2020-09-13T08:24:52.000Z</time>
      </trkpt>
      <trkpt lat="47.33808" lon="-1.28437">
        <ele>60</ele>
        <time>2020-09-13T08:24:54.000Z</time>
      </trkpt>
      <trkpt lat="47.33811" lon="-1.28416">
        <ele>60</ele>
        <time>2020-09-13T08:24:56.000Z</time>
      </trkpt>
      <trkpt lat="47.33813" lon="-1.28395">
        <ele>59</ele>
        <time>2020-09-13T08:24:58.000Z</time>
      </trkpt>
      <trkpt lat="47.33816" lon="-1.28376">
        <ele>60</ele>
        <time>2020-09-13T08:25:00.000Z</time>
      </trkpt>
      <trkpt lat="47.33819" lon="-1.28356">
        <ele>60</ele>
        <time>2020-09-13T08:25:02.000Z</time>
      </trkpt>
      <trkpt lat="47.33822" lon="-1.28337">
        <ele>60</ele>
        <time>2020-09-13T08:25:04.000Z</time>
      </trkpt>
      <trkpt lat="47.33825" lon="-1.28319">
        <ele>60</ele>
        <time>2020-09-13T08:25:06.000Z</time>
      </trkpt>
      <trkpt lat="47.33828" lon="-1.283">
        <ele>60</ele>
        <time>2020-09-13T08:25:08.000Z</time>
      </trkpt>
      <trkpt lat="47.33833" lon="-1.2828">
        <ele>59</ele>
        <time>2020-09-13T08:25:10.000Z</time>
      </trkpt>
      <trkpt lat="47.33837" lon="-1.28261">
        <ele>59</ele>
        <time>2020-09-13T08:25:12.000Z</time>
      </trkpt>
      <trkpt lat="47.3384" lon="-1.28242">
        <ele>59</ele>
        <time>2020-09-13T08:25:14.000Z</time>
      </trkpt>
      <trkpt lat="47.33843" lon="-1.28222">
        <ele>58</ele>
        <time>2020-09-13T08:25:16.000Z</time>
      </trkpt>
      <trkpt lat="47.33845" lon="-1.28202">
        <ele>58</ele>
        <time>2020-09-13T08:25:18.000Z</time>
      </trkpt>
      <trkpt lat="47.33848" lon="-1.28182">
        <ele>57</ele>
        <time>2020-09-13T08:25:20.000Z</time>
      </trkpt>
      <trkpt lat="47.33851" lon="-1.28163">
        <ele>57</ele>
        <time>2020-09-13T08:25:22.000Z</time>
      </trkpt>
      <trkpt lat="47.33853" lon="-1.28144">
        <ele>57</ele>
        <time>2020-09-13T08:25:24.000Z</time>
      </trkpt>
      <trkpt lat="47.33855" lon="-1.28126">
        <ele>57</ele>
        <time>2020-09-13T08:25:26.000Z</time>
      </trkpt>
      <trkpt lat="47.33857" lon="-1.28108">
        <ele>57</ele>
        <time>2020-09-13T08:25:28.000Z</time>
      </trkpt>
      <trkpt lat="47.33859" lon="-1.28088">
        <ele>57</ele>
        <time>2020-09-13T08:25:30.000Z</time>
      </trkpt>
      <trkpt lat="47.33862" lon="-1.28069">
        <ele>57</ele>
        <time>2020-09-13T08:25:32.000Z</time>
      </trkpt>
      <trkpt lat="47.33866" lon="-1.28049">
        <ele>57</ele>
        <time>2020-09-13T08:25:34.000Z</time>
      </trkpt>
      <trkpt lat="47.33868" lon="-1.2803">
        <ele>56</ele>
        <time>2020-09-13T08:25:36.000Z</time>
      </trkpt>
      <trkpt lat="47.33869" lon="-1.2801">
        <ele>56</ele>
        <time>2020-09-13T08:25:38.000Z</time>
      </trkpt>
      <trkpt lat="47.33871" lon="-1.27991">
        <ele>56</ele>
        <time>2020-09-13T08:25:40.000Z</time>
      </trkpt>
      <trkpt lat="47.33873" lon="-1.27971">
        <ele>55</ele>
        <time>2020-09-13T08:25:42.000Z</time>
      </trkpt>
      <trkpt lat="47.33873" lon="-1.27951">
        <ele>55</ele>
        <time>2020-09-13T08:25:44.000Z</time>
      </trkpt>
      <trkpt lat="47.33872" lon="-1.27931">
        <ele>55</ele>
        <time>2020-09-13T08:25:46.000Z</time>
      </trkpt>
      <trkpt lat="47.33873" lon="-1.27913">
        <ele>56</ele>
        <time>2020-09-13T08:25:48.000Z</time>
      </trkpt>
      <trkpt lat="47.33874" lon="-1.27895">
        <ele>55</ele>
        <time>2020-09-13T08:25:50.000Z</time>
      </trkpt>
      <trkpt lat="47.33874" lon="-1.27876">
        <ele>55</ele>
        <time>2020-09-13T08:25:52.000Z</time>
      </trkpt>
      <trkpt lat="47.33875" lon="-1.27859">
        <ele>55</ele>
        <time>2020-09-13T08:25:54.000Z</time>
      </trkpt>
      <trkpt lat="47.33877" lon="-1.27844">
        <ele>55</ele>
        <time>2020-09-13T08:25:56.000Z</time>
      </trkpt>
      <trkpt lat="47.33877" lon="-1.27829">
        <ele>55</ele>
        <time>2020-09-13T08:25:58.000Z</time>
      </trkpt>
      <trkpt lat="47.33877" lon="-1.27814">
        <ele>55</ele>
        <time>2020-09-13T08:26:00.000Z</time>
      </trkpt>
      <trkpt lat="47.33876" lon="-1.27801">
        <ele>55</ele>
        <time>2020-09-13T08:26:02.000Z</time>
      </trkpt>
      <trkpt lat="47.33865" lon="-1.27794">
        <ele>56</ele>
        <time>2020-09-13T08:26:05.000Z</time>
      </trkpt>
      <trkpt lat="47.33854" lon="-1.27788">
        <ele>57</ele>
        <time>2020-09-13T08:26:07.000Z</time>
      </trkpt>
      <trkpt lat="47.33842" lon="-1.27785">
        <ele>56</ele>
        <time>2020-09-13T08:26:09.000Z</time>
      </trkpt>
      <trkpt lat="47.33828" lon="-1.27781">
        <ele>55</ele>
        <time>2020-09-13T08:26:11.000Z</time>
      </trkpt>
      <trkpt lat="47.33815" lon="-1.27776">
        <ele>55</ele>
        <time>2020-09-13T08:26:13.000Z</time>
      </trkpt>
      <trkpt lat="47.33802" lon="-1.27772">
        <ele>55</ele>
        <time>2020-09-13T08:26:15.000Z</time>
      </trkpt>
      <trkpt lat="47.3379" lon="-1.27767">
        <ele>55</ele>
        <time>2020-09-13T08:26:17.000Z</time>
      </trkpt>
      <trkpt lat="47.33777" lon="-1.27763">
        <ele>55</ele>
        <time>2020-09-13T08:26:19.000Z</time>
      </trkpt>
      <trkpt lat="47.33766" lon="-1.27759">
        <ele>56</ele>
        <time>2020-09-13T08:26:21.000Z</time>
      </trkpt>
      <trkpt lat="47.33755" lon="-1.27756">
        <ele>56</ele>
        <time>2020-09-13T08:26:23.000Z</time>
      </trkpt>
      <trkpt lat="47.33745" lon="-1.27752">
        <ele>57</ele>
        <time>2020-09-13T08:26:25.000Z</time>
      </trkpt>
      <trkpt lat="47.33736" lon="-1.27746">
        <ele>58</ele>
        <time>2020-09-13T08:26:27.000Z</time>
      </trkpt>
      <trkpt lat="47.33738" lon="-1.27729">
        <ele>59</ele>
        <time>2020-09-13T08:26:30.000Z</time>
      </trkpt>
      <trkpt lat="47.33746" lon="-1.27722">
        <ele>58</ele>
        <time>2020-09-13T08:26:32.000Z</time>
      </trkpt>
      <trkpt lat="47.33755" lon="-1.27715">
        <ele>59</ele>
        <time>2020-09-13T08:26:34.000Z</time>
      </trkpt>
      <trkpt lat="47.33767" lon="-1.27726">
        <ele>60</ele>
        <time>2020-09-13T08:26:37.000Z</time>
      </trkpt>
      <trkpt lat="47.33774" lon="-1.27739">
        <ele>60</ele>
        <time>2020-09-13T08:26:39.000Z</time>
      </trkpt>
      <trkpt lat="47.33783" lon="-1.27744">
        <ele>60</ele>
        <time>2020-09-13T08:26:41.000Z</time>
      </trkpt>
      <trkpt lat="47.33794" lon="-1.27749">
        <ele>61</ele>
        <time>2020-09-13T08:26:43.000Z</time>
      </trkpt>
      <trkpt lat="47.33808" lon="-1.27754">
        <ele>61</ele>
        <time>2020-09-13T08:26:45.000Z</time>
      </trkpt>
      <trkpt lat="47.33822" lon="-1.27758">
        <ele>62</ele>
        <time>2020-09-13T08:26:47.000Z</time>
      </trkpt>
      <trkpt lat="47.33837" lon="-1.27762">
        <ele>62</ele>
        <time>2020-09-13T08:26:49.000Z</time>
      </trkpt>
      <trkpt lat="47.33853" lon="-1.27765">
        <ele>62</ele>
        <time>2020-09-13T08:26:51.000Z</time>
      </trkpt>
      <trkpt lat="47.33868" lon="-1.2777">
        <ele>62</ele>
        <time>2020-09-13T08:26:53.000Z</time>
      </trkpt>
      <trkpt lat="47.33883" lon="-1.27774">
        <ele>62</ele>
        <time>2020-09-13T08:26:55.000Z</time>
      </trkpt>
      <trkpt lat="47.33897" lon="-1.27779">
        <ele>63</ele>
        <time>2020-09-13T08:26:57.000Z</time>
      </trkpt>
      <trkpt lat="47.33911" lon="-1.27784">
        <ele>63</ele>
        <time>2020-09-13T08:26:59.000Z</time>
      </trkpt>
      <trkpt lat="47.33925" lon="-1.27788">
        <ele>63</ele>
        <time>2020-09-13T08:27:01.000Z</time>
      </trkpt>
      <trkpt lat="47.3394" lon="-1.27793">
        <ele>64</ele>
        <time>2020-09-13T08:27:03.000Z</time>
      </trkpt>
      <trkpt lat="47.33954" lon="-1.27797">
        <ele>64</ele>
        <time>2020-09-13T08:27:05.000Z</time>
      </trkpt>
      <trkpt lat="47.33969" lon="-1.27802">
        <ele>64</ele>
        <time>2020-09-13T08:27:07.000Z</time>
      </trkpt>
      <trkpt lat="47.33984" lon="-1.27807">
        <ele>64</ele>
        <time>2020-09-13T08:27:09.000Z</time>
      </trkpt>
      <trkpt lat="47.33998" lon="-1.27811">
        <ele>64</ele>
        <time>2020-09-13T08:27:11.000Z</time>
      </trkpt>
      <trkpt lat="47.34012" lon="-1.27815">
        <ele>64</ele>
        <time>2020-09-13T08:27:13.000Z</time>
      </trkpt>
      <trkpt lat="47.34026" lon="-1.2782">
        <ele>64</ele>
        <time>2020-09-13T08:27:15.000Z</time>
      </trkpt>
      <trkpt lat="47.3404" lon="-1.27824">
        <ele>64</ele>
        <time>2020-09-13T08:27:17.000Z</time>
      </trkpt>
      <trkpt lat="47.34055" lon="-1.27828">
        <ele>64</ele>
        <time>2020-09-13T08:27:19.000Z</time>
      </trkpt>
      <trkpt lat="47.34069" lon="-1.27833">
        <ele>64</ele>
        <time>2020-09-13T08:27:21.000Z</time>
      </trkpt>
      <trkpt lat="47.34082" lon="-1.27837">
        <ele>65</ele>
        <time>2020-09-13T08:27:23.000Z</time>
      </trkpt>
      <trkpt lat="47.34096" lon="-1.27841">
        <ele>65</ele>
        <time>2020-09-13T08:27:25.000Z</time>
      </trkpt>
      <trkpt lat="47.3411" lon="-1.27846">
        <ele>65</ele>
        <time>2020-09-13T08:27:27.000Z</time>
      </trkpt>
      <trkpt lat="47.34125" lon="-1.27851">
        <ele>65</ele>
        <time>2020-09-13T08:27:29.000Z</time>
      </trkpt>
      <trkpt lat="47.34138" lon="-1.27855">
        <ele>65</ele>
        <time>2020-09-13T08:27:31.000Z</time>
      </trkpt>
      <trkpt lat="47.34152" lon="-1.27859">
        <ele>65</ele>
        <time>2020-09-13T08:27:33.000Z</time>
      </trkpt>
      <trkpt lat="47.34166" lon="-1.27864">
        <ele>65</ele>
        <time>2020-09-13T08:27:35.000Z</time>
      </trkpt>
      <trkpt lat="47.34181" lon="-1.27868">
        <ele>64</ele>
        <time>2020-09-13T08:27:37.000Z</time>
      </trkpt>
      <trkpt lat="47.34194" lon="-1.27872">
        <ele>64</ele>
        <time>2020-09-13T08:27:39.000Z</time>
      </trkpt>
      <trkpt lat="47.34208" lon="-1.27877">
        <ele>64</ele>
        <time>2020-09-13T08:27:41.000Z</time>
      </trkpt>
      <trkpt lat="47.34222" lon="-1.27881">
        <ele>65</ele>
        <time>2020-09-13T08:27:43.000Z</time>
      </trkpt>
      <trkpt lat="47.34235" lon="-1.27886">
        <ele>65</ele>
        <time>2020-09-13T08:27:45.000Z</time>
      </trkpt>
      <trkpt lat="47.34249" lon="-1.2789">
        <ele>66</ele>
        <time>2020-09-13T08:27:47.000Z</time>
      </trkpt>
      <trkpt lat="47.34263" lon="-1.27894">
        <ele>65</ele>
        <time>2020-09-13T08:27:49.000Z</time>
      </trkpt>
      <trkpt lat="47.34276" lon="-1.27898">
        <ele>66</ele>
        <time>2020-09-13T08:27:51.000Z</time>
      </trkpt>
      <trkpt lat="47.34289" lon="-1.27902">
        <ele>66</ele>
        <time>2020-09-13T08:27:53.000Z</time>
      </trkpt>
      <trkpt lat="47.34303" lon="-1.27906">
        <ele>66</ele>
        <time>2020-09-13T08:27:55.000Z</time>
      </trkpt>
      <trkpt lat="47.34317" lon="-1.27911">
        <ele>66</ele>
        <time>2020-09-13T08:27:57.000Z</time>
      </trkpt>
      <trkpt lat="47.34331" lon="-1.27915">
        <ele>66</ele>
        <time>2020-09-13T08:27:59.000Z</time>
      </trkpt>
      <trkpt lat="47.34345" lon="-1.27919">
        <ele>66</ele>
        <time>2020-09-13T08:28:01.000Z</time>
      </trkpt>
      <trkpt lat="47.34359" lon="-1.27924">
        <ele>66</ele>
        <time>2020-09-13T08:28:03.000Z</time>
      </trkpt>
      <trkpt lat="47.34372" lon="-1.27929">
        <ele>66</ele>
        <time>2020-09-13T08:28:05.000Z</time>
      </trkpt>
      <trkpt lat="47.34386" lon="-1.27933">
        <ele>66</ele>
        <time>2020-09-13T08:28:07.000Z</time>
      </trkpt>
      <trkpt lat="47.344" lon="-1.27938">
        <ele>66</ele>
        <time>2020-09-13T08:28:09.000Z</time>
      </trkpt>
      <trkpt lat="47.34413" lon="-1.27945">
        <ele>66</ele>
        <time>2020-09-13T08:28:11.000Z</time>
      </trkpt>
      <trkpt lat="47.34426" lon="-1.27952">
        <ele>67</ele>
        <time>2020-09-13T08:28:13.000Z</time>
      </trkpt>
      <trkpt lat="47.34439" lon="-1.2796">
        <ele>67</ele>
        <time>2020-09-13T08:28:15.000Z</time>
      </trkpt>
      <trkpt lat="47.34452" lon="-1.27969">
        <ele>67</ele>
        <time>2020-09-13T08:28:17.000Z</time>
      </trkpt>
      <trkpt lat="47.34463" lon="-1.27981">
        <ele>67</ele>
        <time>2020-09-13T08:28:19.000Z</time>
      </trkpt>
      <trkpt lat="47.34474" lon="-1.27994">
        <ele>67</ele>
        <time>2020-09-13T08:28:21.000Z</time>
      </trkpt>
      <trkpt lat="47.34484" lon="-1.2801">
        <ele>66</ele>
        <time>2020-09-13T08:28:23.000Z</time>
      </trkpt>
      <trkpt lat="47.34494" lon="-1.28027">
        <ele>67</ele>
        <time>2020-09-13T08:28:25.000Z</time>
      </trkpt>
      <trkpt lat="47.34503" lon="-1.28046">
        <ele>67</ele>
        <time>2020-09-13T08:28:27.000Z</time>
      </trkpt>
      <trkpt lat="47.34511" lon="-1.28067">
        <ele>66</ele>
        <time>2020-09-13T08:28:29.000Z</time>
      </trkpt>
      <trkpt lat="47.34518" lon="-1.28091">
        <ele>65</ele>
        <time>2020-09-13T08:28:31.000Z</time>
      </trkpt>
      <trkpt lat="47.34523" lon="-1.28116">
        <ele>64</ele>
        <time>2020-09-13T08:28:33.000Z</time>
      </trkpt>
      <trkpt lat="47.34527" lon="-1.28142">
        <ele>63</ele>
        <time>2020-09-13T08:28:35.000Z</time>
      </trkpt>
      <trkpt lat="47.34528" lon="-1.28155">
        <ele>63</ele>
        <time>2020-09-13T08:28:36.000Z</time>
      </trkpt>
      <trkpt lat="47.34529" lon="-1.28181">
        <ele>63</ele>
        <time>2020-09-13T08:28:38.000Z</time>
      </trkpt>
      <trkpt lat="47.34529" lon="-1.28206">
        <ele>63</ele>
        <time>2020-09-13T08:28:40.000Z</time>
      </trkpt>
      <trkpt lat="47.34527" lon="-1.28231">
        <ele>62</ele>
        <time>2020-09-13T08:28:42.000Z</time>
      </trkpt>
      <trkpt lat="47.34525" lon="-1.28255">
        <ele>63</ele>
        <time>2020-09-13T08:28:44.000Z</time>
      </trkpt>
      <trkpt lat="47.34522" lon="-1.28278">
        <ele>63</ele>
        <time>2020-09-13T08:28:46.000Z</time>
      </trkpt>
      <trkpt lat="47.34519" lon="-1.28302">
        <ele>63</ele>
        <time>2020-09-13T08:28:48.000Z</time>
      </trkpt>
      <trkpt lat="47.34517" lon="-1.28326">
        <ele>63</ele>
        <time>2020-09-13T08:28:50.000Z</time>
      </trkpt>
      <trkpt lat="47.34516" lon="-1.28348">
        <ele>63</ele>
        <time>2020-09-13T08:28:52.000Z</time>
      </trkpt>
      <trkpt lat="47.34517" lon="-1.2837">
        <ele>63</ele>
        <time>2020-09-13T08:28:54.000Z</time>
      </trkpt>
      <trkpt lat="47.34519" lon="-1.28393">
        <ele>62</ele>
        <time>2020-09-13T08:28:56.000Z</time>
      </trkpt>
      <trkpt lat="47.34524" lon="-1.28415">
        <ele>62</ele>
        <time>2020-09-13T08:28:58.000Z</time>
      </trkpt>
      <trkpt lat="47.34529" lon="-1.28436">
        <ele>62</ele>
        <time>2020-09-13T08:29:00.000Z</time>
      </trkpt>
      <trkpt lat="47.34535" lon="-1.28456">
        <ele>63</ele>
        <time>2020-09-13T08:29:02.000Z</time>
      </trkpt>
      <trkpt lat="47.34543" lon="-1.28474">
        <ele>63</ele>
        <time>2020-09-13T08:29:04.000Z</time>
      </trkpt>
      <trkpt lat="47.34552" lon="-1.28491">
        <ele>62</ele>
        <time>2020-09-13T08:29:06.000Z</time>
      </trkpt>
      <trkpt lat="47.34562" lon="-1.28505">
        <ele>62</ele>
        <time>2020-09-13T08:29:08.000Z</time>
      </trkpt>
      <trkpt lat="47.34573" lon="-1.2852">
        <ele>62</ele>
        <time>2020-09-13T08:29:10.000Z</time>
      </trkpt>
      <trkpt lat="47.34584" lon="-1.28532">
        <ele>62</ele>
        <time>2020-09-13T08:29:12.000Z</time>
      </trkpt>
      <trkpt lat="47.34595" lon="-1.28543">
        <ele>62</ele>
        <time>2020-09-13T08:29:14.000Z</time>
      </trkpt>
      <trkpt lat="47.34608" lon="-1.28554">
        <ele>62</ele>
        <time>2020-09-13T08:29:16.000Z</time>
      </trkpt>
      <trkpt lat="47.3462" lon="-1.28565">
        <ele>62</ele>
        <time>2020-09-13T08:29:18.000Z</time>
      </trkpt>
      <trkpt lat="47.34631" lon="-1.28574">
        <ele>62</ele>
        <time>2020-09-13T08:29:20.000Z</time>
      </trkpt>
      <trkpt lat="47.34642" lon="-1.28582">
        <ele>63</ele>
        <time>2020-09-13T08:29:22.000Z</time>
      </trkpt>
      <trkpt lat="47.34651" lon="-1.2859">
        <ele>65</ele>
        <time>2020-09-13T08:29:24.000Z</time>
      </trkpt>
      <trkpt lat="47.34647" lon="-1.2861">
        <ele>64</ele>
        <time>2020-09-13T08:29:27.000Z</time>
      </trkpt>
      <trkpt lat="47.34637" lon="-1.28627">
        <ele>63</ele>
        <time>2020-09-13T08:29:29.000Z</time>
      </trkpt>
      <trkpt lat="47.34625" lon="-1.28645">
        <ele>62</ele>
        <time>2020-09-13T08:29:31.000Z</time>
      </trkpt>
      <trkpt lat="47.3462" lon="-1.28656">
        <ele>62</ele>
        <time>2020-09-13T08:29:32.000Z</time>
      </trkpt>
      <trkpt lat="47.34614" lon="-1.28667">
        <ele>61</ele>
        <time>2020-09-13T08:29:33.000Z</time>
      </trkpt>
      <trkpt lat="47.34604" lon="-1.28688">
        <ele>61</ele>
        <time>2020-09-13T08:29:35.000Z</time>
      </trkpt>
      <trkpt lat="47.34596" lon="-1.28709">
        <ele>60</ele>
        <time>2020-09-13T08:29:37.000Z</time>
      </trkpt>
      <trkpt lat="47.34589" lon="-1.28731">
        <ele>60</ele>
        <time>2020-09-13T08:29:39.000Z</time>
      </trkpt>
      <trkpt lat="47.34582" lon="-1.28752">
        <ele>61</ele>
        <time>2020-09-13T08:29:41.000Z</time>
      </trkpt>
      <trkpt lat="47.34576" lon="-1.28773">
        <ele>61</ele>
        <time>2020-09-13T08:29:43.000Z</time>
      </trkpt>
      <trkpt lat="47.3457" lon="-1.28794">
        <ele>61</ele>
        <time>2020-09-13T08:29:45.000Z</time>
      </trkpt>
      <trkpt lat="47.34564" lon="-1.28814">
        <ele>61</ele>
        <time>2020-09-13T08:29:47.000Z</time>
      </trkpt>
      <trkpt lat="47.3456" lon="-1.28834">
        <ele>60</ele>
        <time>2020-09-13T08:29:49.000Z</time>
      </trkpt>
      <trkpt lat="47.34558" lon="-1.28852">
        <ele>60</ele>
        <time>2020-09-13T08:29:51.000Z</time>
      </trkpt>
      <trkpt lat="47.34555" lon="-1.28869">
        <ele>62</ele>
        <time>2020-09-13T08:29:53.000Z</time>
      </trkpt>
      <trkpt lat="47.3455" lon="-1.28885">
        <ele>63</ele>
        <time>2020-09-13T08:29:55.000Z</time>
      </trkpt>
      <trkpt lat="47.34543" lon="-1.28901">
        <ele>63</ele>
        <time>2020-09-13T08:29:57.000Z</time>
      </trkpt>
      <trkpt lat="47.34536" lon="-1.28916">
        <ele>65</ele>
        <time>2020-09-13T08:29:59.000Z</time>
      </trkpt>
      <trkpt lat="47.34528" lon="-1.28931">
        <ele>66</ele>
        <time>2020-09-13T08:30:01.000Z</time>
      </trkpt>
      <trkpt lat="47.3452" lon="-1.28947">
        <ele>66</ele>
        <time>2020-09-13T08:30:03.000Z</time>
      </trkpt>
      <trkpt lat="47.34512" lon="-1.28961">
        <ele>66</ele>
        <time>2020-09-13T08:30:05.000Z</time>
      </trkpt>
      <trkpt lat="47.34504" lon="-1.28977">
        <ele>66</ele>
        <time>2020-09-13T08:30:07.000Z</time>
      </trkpt>
      <trkpt lat="47.34495" lon="-1.28993">
        <ele>65</ele>
        <time>2020-09-13T08:30:09.000Z</time>
      </trkpt>
      <trkpt lat="47.34487" lon="-1.29011">
        <ele>65</ele>
        <time>2020-09-13T08:30:11.000Z</time>
      </trkpt>
      <trkpt lat="47.34481" lon="-1.2903">
        <ele>64</ele>
        <time>2020-09-13T08:30:13.000Z</time>
      </trkpt>
      <trkpt lat="47.34475" lon="-1.29051">
        <ele>63</ele>
        <time>2020-09-13T08:30:15.000Z</time>
      </trkpt>
      <trkpt lat="47.34469" lon="-1.29072">
        <ele>63</ele>
        <time>2020-09-13T08:30:17.000Z</time>
      </trkpt>
      <trkpt lat="47.34463" lon="-1.29093">
        <ele>63</ele>
        <time>2020-09-13T08:30:19.000Z</time>
      </trkpt>
      <trkpt lat="47.34459" lon="-1.29111">
        <ele>63</ele>
        <time>2020-09-13T08:30:21.000Z</time>
      </trkpt>
      <trkpt lat="47.34463" lon="-1.29125">
        <ele>64</ele>
        <time>2020-09-13T08:30:25.000Z</time>
      </trkpt>
      <trkpt lat="47.34452" lon="-1.29131">
        <ele>64</ele>
        <time>2020-09-13T08:30:29.000Z</time>
      </trkpt>
      <trkpt lat="47.34443" lon="-1.29133">
        <ele>63</ele>
        <time>2020-09-13T08:30:31.000Z</time>
      </trkpt>
      <trkpt lat="47.3444" lon="-1.29149">
        <ele>63</ele>
        <time>2020-09-13T08:30:33.000Z</time>
      </trkpt>
      <trkpt lat="47.34441" lon="-1.29168">
        <ele>63</ele>
        <time>2020-09-13T08:30:35.000Z</time>
      </trkpt>
      <trkpt lat="47.34441" lon="-1.29188">
        <ele>63</ele>
        <time>2020-09-13T08:30:37.000Z</time>
      </trkpt>
      <trkpt lat="47.34441" lon="-1.29208">
        <ele>63</ele>
        <time>2020-09-13T08:30:39.000Z</time>
      </trkpt>
      <trkpt lat="47.34441" lon="-1.29228">
        <ele>63</ele>
        <time>2020-09-13T08:30:41.000Z</time>
      </trkpt>
      <trkpt lat="47.34442" lon="-1.29249">
        <ele>62</ele>
        <time>2020-09-13T08:30:43.000Z</time>
      </trkpt>
      <trkpt lat="47.34442" lon="-1.29271">
        <ele>62</ele>
        <time>2020-09-13T08:30:45.000Z</time>
      </trkpt>
      <trkpt lat="47.34442" lon="-1.29292">
        <ele>61</ele>
        <time>2020-09-13T08:30:47.000Z</time>
      </trkpt>
      <trkpt lat="47.34442" lon="-1.29313">
        <ele>62</ele>
        <time>2020-09-13T08:30:49.000Z</time>
      </trkpt>
      <trkpt lat="47.34442" lon="-1.29335">
        <ele>62</ele>
        <time>2020-09-13T08:30:51.000Z</time>
      </trkpt>
      <trkpt lat="47.34443" lon="-1.29355">
        <ele>61</ele>
        <time>2020-09-13T08:30:53.000Z</time>
      </trkpt>
      <trkpt lat="47.34444" lon="-1.29376">
        <ele>61</ele>
        <time>2020-09-13T08:30:55.000Z</time>
      </trkpt>
      <trkpt lat="47.34445" lon="-1.29397">
        <ele>61</ele>
        <time>2020-09-13T08:30:57.000Z</time>
      </trkpt>
      <trkpt lat="47.34444" lon="-1.29417">
        <ele>61</ele>
        <time>2020-09-13T08:30:59.000Z</time>
      </trkpt>
      <trkpt lat="47.34442" lon="-1.29436">
        <ele>61</ele>
        <time>2020-09-13T08:31:01.000Z</time>
      </trkpt>
      <trkpt lat="47.3444" lon="-1.29456">
        <ele>62</ele>
        <time>2020-09-13T08:31:03.000Z</time>
      </trkpt>
      <trkpt lat="47.34438" lon="-1.29478">
        <ele>61</ele>
        <time>2020-09-13T08:31:05.000Z</time>
      </trkpt>
      <trkpt lat="47.34435" lon="-1.29499">
        <ele>61</ele>
        <time>2020-09-13T08:31:07.000Z</time>
      </trkpt>
      <trkpt lat="47.34432" lon="-1.29519">
        <ele>61</ele>
        <time>2020-09-13T08:31:09.000Z</time>
      </trkpt>
      <trkpt lat="47.34429" lon="-1.29538">
        <ele>60</ele>
        <time>2020-09-13T08:31:11.000Z</time>
      </trkpt>
      <trkpt lat="47.34426" lon="-1.29557">
        <ele>60</ele>
        <time>2020-09-13T08:31:13.000Z</time>
      </trkpt>
      <trkpt lat="47.34423" lon="-1.29577">
        <ele>60</ele>
        <time>2020-09-13T08:31:15.000Z</time>
      </trkpt>
      <trkpt lat="47.3442" lon="-1.296">
        <ele>59</ele>
        <time>2020-09-13T08:31:17.000Z</time>
      </trkpt>
      <trkpt lat="47.34417" lon="-1.29621">
        <ele>59</ele>
        <time>2020-09-13T08:31:19.000Z</time>
      </trkpt>
      <trkpt lat="47.34412" lon="-1.2964">
        <ele>59</ele>
        <time>2020-09-13T08:31:21.000Z</time>
      </trkpt>
      <trkpt lat="47.34406" lon="-1.29658">
        <ele>59</ele>
        <time>2020-09-13T08:31:23.000Z</time>
      </trkpt>
      <trkpt lat="47.34398" lon="-1.29674">
        <ele>60</ele>
        <time>2020-09-13T08:31:25.000Z</time>
      </trkpt>
      <trkpt lat="47.3439" lon="-1.29692">
        <ele>60</ele>
        <time>2020-09-13T08:31:27.000Z</time>
      </trkpt>
      <trkpt lat="47.34381" lon="-1.29708">
        <ele>59</ele>
        <time>2020-09-13T08:31:29.000Z</time>
      </trkpt>
      <trkpt lat="47.34373" lon="-1.29724">
        <ele>59</ele>
        <time>2020-09-13T08:31:31.000Z</time>
      </trkpt>
      <trkpt lat="47.34364" lon="-1.29743">
        <ele>59</ele>
        <time>2020-09-13T08:31:33.000Z</time>
      </trkpt>
      <trkpt lat="47.34355" lon="-1.29761">
        <ele>59</ele>
        <time>2020-09-13T08:31:35.000Z</time>
      </trkpt>
      <trkpt lat="47.34346" lon="-1.29779">
        <ele>59</ele>
        <time>2020-09-13T08:31:37.000Z</time>
      </trkpt>
      <trkpt lat="47.34338" lon="-1.29797">
        <ele>59</ele>
        <time>2020-09-13T08:31:39.000Z</time>
      </trkpt>
      <trkpt lat="47.3433" lon="-1.29815">
        <ele>59</ele>
        <time>2020-09-13T08:31:41.000Z</time>
      </trkpt>
      <trkpt lat="47.34323" lon="-1.29833">
        <ele>59</ele>
        <time>2020-09-13T08:31:43.000Z</time>
      </trkpt>
      <trkpt lat="47.34316" lon="-1.2985">
        <ele>59</ele>
        <time>2020-09-13T08:31:45.000Z</time>
      </trkpt>
      <trkpt lat="47.34309" lon="-1.2987">
        <ele>58</ele>
        <time>2020-09-13T08:31:47.000Z</time>
      </trkpt>
      <trkpt lat="47.34303" lon="-1.29888">
        <ele>58</ele>
        <time>2020-09-13T08:31:49.000Z</time>
      </trkpt>
      <trkpt lat="47.34297" lon="-1.29907">
        <ele>58</ele>
        <time>2020-09-13T08:31:51.000Z</time>
      </trkpt>
      <trkpt lat="47.34291" lon="-1.29925">
        <ele>58</ele>
        <time>2020-09-13T08:31:53.000Z</time>
      </trkpt>
      <trkpt lat="47.34285" lon="-1.29943">
        <ele>58</ele>
        <time>2020-09-13T08:31:55.000Z</time>
      </trkpt>
      <trkpt lat="47.3428" lon="-1.29961">
        <ele>59</ele>
        <time>2020-09-13T08:31:57.000Z</time>
      </trkpt>
      <trkpt lat="47.34277" lon="-1.29979">
        <ele>58</ele>
        <time>2020-09-13T08:31:59.000Z</time>
      </trkpt>
      <trkpt lat="47.34273" lon="-1.29999">
        <ele>58</ele>
        <time>2020-09-13T08:32:01.000Z</time>
      </trkpt>
      <trkpt lat="47.34268" lon="-1.30019">
        <ele>58</ele>
        <time>2020-09-13T08:32:03.000Z</time>
      </trkpt>
      <trkpt lat="47.34262" lon="-1.30039">
        <ele>58</ele>
        <time>2020-09-13T08:32:05.000Z</time>
      </trkpt>
      <trkpt lat="47.34258" lon="-1.3006">
        <ele>58</ele>
        <time>2020-09-13T08:32:07.000Z</time>
      </trkpt>
      <trkpt lat="47.34253" lon="-1.3008">
        <ele>59</ele>
        <time>2020-09-13T08:32:09.000Z</time>
      </trkpt>
      <trkpt lat="47.34248" lon="-1.301">
        <ele>59</ele>
        <time>2020-09-13T08:32:11.000Z</time>
      </trkpt>
      <trkpt lat="47.34243" lon="-1.3012">
        <ele>59</ele>
        <time>2020-09-13T08:32:13.000Z</time>
      </trkpt>
      <trkpt lat="47.34238" lon="-1.30141">
        <ele>60</ele>
        <time>2020-09-13T08:32:15.000Z</time>
      </trkpt>
      <trkpt lat="47.34232" lon="-1.3016">
        <ele>61</ele>
        <time>2020-09-13T08:32:17.000Z</time>
      </trkpt>
      <trkpt lat="47.34227" lon="-1.30178">
        <ele>62</ele>
        <time>2020-09-13T08:32:19.000Z</time>
      </trkpt>
      <trkpt lat="47.3422" lon="-1.30198">
        <ele>62</ele>
        <time>2020-09-13T08:32:21.000Z</time>
      </trkpt>
      <trkpt lat="47.34213" lon="-1.30219">
        <ele>62</ele>
        <time>2020-09-13T08:32:23.000Z</time>
      </trkpt>
      <trkpt lat="47.34206" lon="-1.30237">
        <ele>62</ele>
        <time>2020-09-13T08:32:25.000Z</time>
      </trkpt>
      <trkpt lat="47.34199" lon="-1.30254">
        <ele>64</ele>
        <time>2020-09-13T08:32:27.000Z</time>
      </trkpt>
      <trkpt lat="47.34191" lon="-1.30272">
        <ele>64</ele>
        <time>2020-09-13T08:32:29.000Z</time>
      </trkpt>
      <trkpt lat="47.34185" lon="-1.30288">
        <ele>64</ele>
        <time>2020-09-13T08:32:31.000Z</time>
      </trkpt>
      <trkpt lat="47.34179" lon="-1.30303">
        <ele>64</ele>
        <time>2020-09-13T08:32:33.000Z</time>
      </trkpt>
      <trkpt lat="47.34174" lon="-1.3032">
        <ele>64</ele>
        <time>2020-09-13T08:32:35.000Z</time>
      </trkpt>
      <trkpt lat="47.34167" lon="-1.30336">
        <ele>65</ele>
        <time>2020-09-13T08:32:37.000Z</time>
      </trkpt>
      <trkpt lat="47.3416" lon="-1.30351">
        <ele>66</ele>
        <time>2020-09-13T08:32:39.000Z</time>
      </trkpt>
      <trkpt lat="47.34154" lon="-1.30368">
        <ele>66</ele>
        <time>2020-09-13T08:32:41.000Z</time>
      </trkpt>
      <trkpt lat="47.34146" lon="-1.30384">
        <ele>66</ele>
        <time>2020-09-13T08:32:43.000Z</time>
      </trkpt>
      <trkpt lat="47.34138" lon="-1.30399">
        <ele>67</ele>
        <time>2020-09-13T08:32:45.000Z</time>
      </trkpt>
      <trkpt lat="47.34132" lon="-1.30416">
        <ele>67</ele>
        <time>2020-09-13T08:32:47.000Z</time>
      </trkpt>
      <trkpt lat="47.34126" lon="-1.30431">
        <ele>67</ele>
        <time>2020-09-13T08:32:49.000Z</time>
      </trkpt>
      <trkpt lat="47.3412" lon="-1.30446">
        <ele>68</ele>
        <time>2020-09-13T08:32:51.000Z</time>
      </trkpt>
      <trkpt lat="47.34114" lon="-1.30463">
        <ele>67</ele>
        <time>2020-09-13T08:32:53.000Z</time>
      </trkpt>
      <trkpt lat="47.34107" lon="-1.30478">
        <ele>68</ele>
        <time>2020-09-13T08:32:55.000Z</time>
      </trkpt>
      <trkpt lat="47.341" lon="-1.30493">
        <ele>67</ele>
        <time>2020-09-13T08:32:57.000Z</time>
      </trkpt>
      <trkpt lat="47.34091" lon="-1.3051">
        <ele>66</ele>
        <time>2020-09-13T08:32:59.000Z</time>
      </trkpt>
      <trkpt lat="47.34083" lon="-1.30529">
        <ele>65</ele>
        <time>2020-09-13T08:33:01.000Z</time>
      </trkpt>
      <trkpt lat="47.34075" lon="-1.30547">
        <ele>65</ele>
        <time>2020-09-13T08:33:03.000Z</time>
      </trkpt>
      <trkpt lat="47.34067" lon="-1.30563">
        <ele>65</ele>
        <time>2020-09-13T08:33:05.000Z</time>
      </trkpt>
      <trkpt lat="47.34058" lon="-1.30579">
        <ele>65</ele>
        <time>2020-09-13T08:33:07.000Z</time>
      </trkpt>
      <trkpt lat="47.34048" lon="-1.30595">
        <ele>65</ele>
        <time>2020-09-13T08:33:09.000Z</time>
      </trkpt>
      <trkpt lat="47.34039" lon="-1.30611">
        <ele>65</ele>
        <time>2020-09-13T08:33:11.000Z</time>
      </trkpt>
      <trkpt lat="47.3403" lon="-1.30627">
        <ele>65</ele>
        <time>2020-09-13T08:33:13.000Z</time>
      </trkpt>
      <trkpt lat="47.34021" lon="-1.30642">
        <ele>66</ele>
        <time>2020-09-13T08:33:15.000Z</time>
      </trkpt>
      <trkpt lat="47.34013" lon="-1.30656">
        <ele>67</ele>
        <time>2020-09-13T08:33:17.000Z</time>
      </trkpt>
      <trkpt lat="47.34004" lon="-1.30669">
        <ele>67</ele>
        <time>2020-09-13T08:33:19.000Z</time>
      </trkpt>
      <trkpt lat="47.33996" lon="-1.30681">
        <ele>67</ele>
        <time>2020-09-13T08:33:21.000Z</time>
      </trkpt>
      <trkpt lat="47.33988" lon="-1.30691">
        <ele>67</ele>
        <time>2020-09-13T08:33:23.000Z</time>
      </trkpt>
      <trkpt lat="47.33977" lon="-1.3069">
        <ele>67</ele>
        <time>2020-09-13T08:33:26.000Z</time>
      </trkpt>
      <trkpt lat="47.33969" lon="-1.30681">
        <ele>67</ele>
        <time>2020-09-13T08:33:29.000Z</time>
      </trkpt>
      <trkpt lat="47.3396" lon="-1.30692">
        <ele>66</ele>
        <time>2020-09-13T08:33:33.000Z</time>
      </trkpt>
      <trkpt lat="47.33951" lon="-1.30706">
        <ele>66</ele>
        <time>2020-09-13T08:33:36.000Z</time>
      </trkpt>
      <trkpt lat="47.3394" lon="-1.30716">
        <ele>66</ele>
        <time>2020-09-13T08:33:38.000Z</time>
      </trkpt>
      <trkpt lat="47.3393" lon="-1.30725">
        <ele>66</ele>
        <time>2020-09-13T08:33:40.000Z</time>
      </trkpt>
      <trkpt lat="47.33922" lon="-1.30737">
        <ele>66</ele>
        <time>2020-09-13T08:33:42.000Z</time>
      </trkpt>
      <trkpt lat="47.33913" lon="-1.30749">
        <ele>66</ele>
        <time>2020-09-13T08:33:44.000Z</time>
      </trkpt>
      <trkpt lat="47.33902" lon="-1.30761">
        <ele>65</ele>
        <time>2020-09-13T08:33:46.000Z</time>
      </trkpt>
      <trkpt lat="47.33892" lon="-1.30773">
        <ele>65</ele>
        <time>2020-09-13T08:33:48.000Z</time>
      </trkpt>
      <trkpt lat="47.3388" lon="-1.30783">
        <ele>65</ele>
        <time>2020-09-13T08:33:50.000Z</time>
      </trkpt>
      <trkpt lat="47.3387" lon="-1.30793">
        <ele>65</ele>
        <time>2020-09-13T08:33:52.000Z</time>
      </trkpt>
      <trkpt lat="47.33859" lon="-1.30803">
        <ele>65</ele>
        <time>2020-09-13T08:33:54.000Z</time>
      </trkpt>
      <trkpt lat="47.33849" lon="-1.30813">
        <ele>65</ele>
        <time>2020-09-13T08:33:56.000Z</time>
      </trkpt>
      <trkpt lat="47.33838" lon="-1.30823">
        <ele>65</ele>
        <time>2020-09-13T08:33:58.000Z</time>
      </trkpt>
      <trkpt lat="47.33828" lon="-1.30833">
        <ele>66</ele>
        <time>2020-09-13T08:34:00.000Z</time>
      </trkpt>
      <trkpt lat="47.33817" lon="-1.30843">
        <ele>66</ele>
        <time>2020-09-13T08:34:02.000Z</time>
      </trkpt>
      <trkpt lat="47.33808" lon="-1.30852">
        <ele>66</ele>
        <time>2020-09-13T08:34:04.000Z</time>
      </trkpt>
      <trkpt lat="47.33797" lon="-1.30862">
        <ele>66</ele>
        <time>2020-09-13T08:34:06.000Z</time>
      </trkpt>
      <trkpt lat="47.33786" lon="-1.30873">
        <ele>66</ele>
        <time>2020-09-13T08:34:08.000Z</time>
      </trkpt>
      <trkpt lat="47.33774" lon="-1.30885">
        <ele>65</ele>
        <time>2020-09-13T08:34:10.000Z</time>
      </trkpt>
      <trkpt lat="47.33764" lon="-1.30896">
        <ele>65</ele>
        <time>2020-09-13T08:34:12.000Z</time>
      </trkpt>
      <trkpt lat="47.33753" lon="-1.30908">
        <ele>65</ele>
        <time>2020-09-13T08:34:14.000Z</time>
      </trkpt>
      <trkpt lat="47.33743" lon="-1.3092">
        <ele>65</ele>
        <time>2020-09-13T08:34:16.000Z</time>
      </trkpt>
      <trkpt lat="47.33734" lon="-1.3093">
        <ele>65</ele>
        <time>2020-09-13T08:34:18.000Z</time>
      </trkpt>
      <trkpt lat="47.33727" lon="-1.3094">
        <ele>65</ele>
        <time>2020-09-13T08:34:20.000Z</time>
      </trkpt>
      <trkpt lat="47.33719" lon="-1.30948">
        <ele>64</ele>
        <time>2020-09-13T08:34:22.000Z</time>
      </trkpt>
      <trkpt lat="47.33711" lon="-1.30959">
        <ele>64</ele>
        <time>2020-09-13T08:34:24.000Z</time>
      </trkpt>
      <trkpt lat="47.33702" lon="-1.3097">
        <ele>64</ele>
        <time>2020-09-13T08:34:26.000Z</time>
      </trkpt>
      <trkpt lat="47.33692" lon="-1.30982">
        <ele>64</ele>
        <time>2020-09-13T08:34:28.000Z</time>
      </trkpt>
      <trkpt lat="47.33684" lon="-1.30989">
        <ele>64</ele>
        <time>2020-09-13T08:34:30.000Z</time>
      </trkpt>
      <trkpt lat="47.33677" lon="-1.30999">
        <ele>64</ele>
        <time>2020-09-13T08:34:32.000Z</time>
      </trkpt>
      <trkpt lat="47.3367" lon="-1.31013">
        <ele>64</ele>
        <time>2020-09-13T08:34:34.000Z</time>
      </trkpt>
      <trkpt lat="47.33661" lon="-1.31026">
        <ele>64</ele>
        <time>2020-09-13T08:34:36.000Z</time>
      </trkpt>
      <trkpt lat="47.3365" lon="-1.3104">
        <ele>64</ele>
        <time>2020-09-13T08:34:38.000Z</time>
      </trkpt>
      <trkpt lat="47.3364" lon="-1.31055">
        <ele>64</ele>
        <time>2020-09-13T08:34:40.000Z</time>
      </trkpt>
      <trkpt lat="47.33631" lon="-1.3107">
        <ele>64</ele>
        <time>2020-09-13T08:34:42.000Z</time>
      </trkpt>
      <trkpt lat="47.33622" lon="-1.31084">
        <ele>64</ele>
        <time>2020-09-13T08:34:44.000Z</time>
      </trkpt>
      <trkpt lat="47.33612" lon="-1.31099">
        <ele>64</ele>
        <time>2020-09-13T08:34:46.000Z</time>
      </trkpt>
      <trkpt lat="47.33603" lon="-1.31115">
        <ele>63</ele>
        <time>2020-09-13T08:34:48.000Z</time>
      </trkpt>
      <trkpt lat="47.33595" lon="-1.3113">
        <ele>62</ele>
        <time>2020-09-13T08:34:50.000Z</time>
      </trkpt>
      <trkpt lat="47.33586" lon="-1.31146">
        <ele>62</ele>
        <time>2020-09-13T08:34:52.000Z</time>
      </trkpt>
      <trkpt lat="47.33578" lon="-1.31164">
        <ele>62</ele>
        <time>2020-09-13T08:34:54.000Z</time>
      </trkpt>
      <trkpt lat="47.33569" lon="-1.3118">
        <ele>61</ele>
        <time>2020-09-13T08:34:56.000Z</time>
      </trkpt>
      <trkpt lat="47.3356" lon="-1.31197">
        <ele>62</ele>
        <time>2020-09-13T08:34:58.000Z</time>
      </trkpt>
      <trkpt lat="47.33552" lon="-1.31212">
        <ele>61</ele>
        <time>2020-09-13T08:35:00.000Z</time>
      </trkpt>
      <trkpt lat="47.33543" lon="-1.31228">
        <ele>61</ele>
        <time>2020-09-13T08:35:02.000Z</time>
      </trkpt>
      <trkpt lat="47.33534" lon="-1.31243">
        <ele>61</ele>
        <time>2020-09-13T08:35:04.000Z</time>
      </trkpt>
      <trkpt lat="47.33524" lon="-1.31259">
        <ele>61</ele>
        <time>2020-09-13T08:35:06.000Z</time>
      </trkpt>
      <trkpt lat="47.33517" lon="-1.31275">
        <ele>61</ele>
        <time>2020-09-13T08:35:08.000Z</time>
      </trkpt>
      <trkpt lat="47.33509" lon="-1.3129">
        <ele>60</ele>
        <time>2020-09-13T08:35:10.000Z</time>
      </trkpt>
      <trkpt lat="47.335" lon="-1.31306">
        <ele>60</ele>
        <time>2020-09-13T08:35:12.000Z</time>
      </trkpt>
      <trkpt lat="47.33491" lon="-1.31323">
        <ele>59</ele>
        <time>2020-09-13T08:35:14.000Z</time>
      </trkpt>
      <trkpt lat="47.33483" lon="-1.31338">
        <ele>59</ele>
        <time>2020-09-13T08:35:16.000Z</time>
      </trkpt>
      <trkpt lat="47.33474" lon="-1.31354">
        <ele>59</ele>
        <time>2020-09-13T08:35:18.000Z</time>
      </trkpt>
      <trkpt lat="47.33465" lon="-1.31371">
        <ele>58</ele>
        <time>2020-09-13T08:35:20.000Z</time>
      </trkpt>
      <trkpt lat="47.33458" lon="-1.31388">
        <ele>59</ele>
        <time>2020-09-13T08:35:22.000Z</time>
      </trkpt>
      <trkpt lat="47.33451" lon="-1.31404">
        <ele>59</ele>
        <time>2020-09-13T08:35:24.000Z</time>
      </trkpt>
      <trkpt lat="47.33443" lon="-1.31419">
        <ele>59</ele>
        <time>2020-09-13T08:35:26.000Z</time>
      </trkpt>
      <trkpt lat="47.33436" lon="-1.31434">
        <ele>58</ele>
        <time>2020-09-13T08:35:28.000Z</time>
      </trkpt>
      <trkpt lat="47.33428" lon="-1.31449">
        <ele>58</ele>
        <time>2020-09-13T08:35:30.000Z</time>
      </trkpt>
      <trkpt lat="47.3342" lon="-1.31464">
        <ele>58</ele>
        <time>2020-09-13T08:35:32.000Z</time>
      </trkpt>
      <trkpt lat="47.33412" lon="-1.3148">
        <ele>58</ele>
        <time>2020-09-13T08:35:34.000Z</time>
      </trkpt>
      <trkpt lat="47.33404" lon="-1.31496">
        <ele>59</ele>
        <time>2020-09-13T08:35:36.000Z</time>
      </trkpt>
      <trkpt lat="47.33397" lon="-1.31512">
        <ele>59</ele>
        <time>2020-09-13T08:35:38.000Z</time>
      </trkpt>
      <trkpt lat="47.33389" lon="-1.31528">
        <ele>60</ele>
        <time>2020-09-13T08:35:40.000Z</time>
      </trkpt>
      <trkpt lat="47.33381" lon="-1.31543">
        <ele>60</ele>
        <time>2020-09-13T08:35:42.000Z</time>
      </trkpt>
      <trkpt lat="47.33374" lon="-1.31558">
        <ele>60</ele>
        <time>2020-09-13T08:35:44.000Z</time>
      </trkpt>
      <trkpt lat="47.33366" lon="-1.31573">
        <ele>61</ele>
        <time>2020-09-13T08:35:46.000Z</time>
      </trkpt>
      <trkpt lat="47.33358" lon="-1.31589">
        <ele>61</ele>
        <time>2020-09-13T08:35:48.000Z</time>
      </trkpt>
      <trkpt lat="47.33351" lon="-1.31603">
        <ele>60</ele>
        <time>2020-09-13T08:35:50.000Z</time>
      </trkpt>
      <trkpt lat="47.33342" lon="-1.31619">
        <ele>60</ele>
        <time>2020-09-13T08:35:52.000Z</time>
      </trkpt>
      <trkpt lat="47.33334" lon="-1.31634">
        <ele>60</ele>
        <time>2020-09-13T08:35:54.000Z</time>
      </trkpt>
      <trkpt lat="47.33326" lon="-1.31649">
        <ele>60</ele>
        <time>2020-09-13T08:35:56.000Z</time>
      </trkpt>
      <trkpt lat="47.33319" lon="-1.31664">
        <ele>60</ele>
        <time>2020-09-13T08:35:58.000Z</time>
      </trkpt>
      <trkpt lat="47.33311" lon="-1.31679">
        <ele>61</ele>
        <time>2020-09-13T08:36:00.000Z</time>
      </trkpt>
      <trkpt lat="47.33303" lon="-1.31696">
        <ele>61</ele>
        <time>2020-09-13T08:36:02.000Z</time>
      </trkpt>
      <trkpt lat="47.33294" lon="-1.31711">
        <ele>61</ele>
        <time>2020-09-13T08:36:04.000Z</time>
      </trkpt>
      <trkpt lat="47.33286" lon="-1.31727">
        <ele>61</ele>
        <time>2020-09-13T08:36:06.000Z</time>
      </trkpt>
      <trkpt lat="47.33278" lon="-1.31743">
        <ele>62</ele>
        <time>2020-09-13T08:36:08.000Z</time>
      </trkpt>
      <trkpt lat="47.3327" lon="-1.31759">
        <ele>62</ele>
        <time>2020-09-13T08:36:10.000Z</time>
      </trkpt>
      <trkpt lat="47.33262" lon="-1.31774">
        <ele>63</ele>
        <time>2020-09-13T08:36:12.000Z</time>
      </trkpt>
      <trkpt lat="47.33255" lon="-1.31789">
        <ele>63</ele>
        <time>2020-09-13T08:36:14.000Z</time>
      </trkpt>
      <trkpt lat="47.33246" lon="-1.31805">
        <ele>63</ele>
        <time>2020-09-13T08:36:16.000Z</time>
      </trkpt>
      <trkpt lat="47.33238" lon="-1.31821">
        <ele>63</ele>
        <time>2020-09-13T08:36:18.000Z</time>
      </trkpt>
      <trkpt lat="47.33229" lon="-1.31837">
        <ele>63</ele>
        <time>2020-09-13T08:36:20.000Z</time>
      </trkpt>
      <trkpt lat="47.33222" lon="-1.31852">
        <ele>63</ele>
        <time>2020-09-13T08:36:22.000Z</time>
      </trkpt>
      <trkpt lat="47.33214" lon="-1.31867">
        <ele>63</ele>
        <time>2020-09-13T08:36:24.000Z</time>
      </trkpt>
      <trkpt lat="47.33206" lon="-1.31882">
        <ele>63</ele>
        <time>2020-09-13T08:36:26.000Z</time>
      </trkpt>
      <trkpt lat="47.33199" lon="-1.31897">
        <ele>63</ele>
        <time>2020-09-13T08:36:28.000Z</time>
      </trkpt>
      <trkpt lat="47.33191" lon="-1.31912">
        <ele>62</ele>
        <time>2020-09-13T08:36:30.000Z</time>
      </trkpt>
      <trkpt lat="47.33183" lon="-1.31928">
        <ele>63</ele>
        <time>2020-09-13T08:36:32.000Z</time>
      </trkpt>
      <trkpt lat="47.33176" lon="-1.31942">
        <ele>63</ele>
        <time>2020-09-13T08:36:34.000Z</time>
      </trkpt>
      <trkpt lat="47.33169" lon="-1.31956">
        <ele>64</ele>
        <time>2020-09-13T08:36:36.000Z</time>
      </trkpt>
      <trkpt lat="47.33163" lon="-1.31969">
        <ele>64</ele>
        <time>2020-09-13T08:36:38.000Z</time>
      </trkpt>
      <trkpt lat="47.33157" lon="-1.3198">
        <ele>64</ele>
        <time>2020-09-13T08:36:40.000Z</time>
      </trkpt>
      <trkpt lat="47.33144" lon="-1.31989">
        <ele>64</ele>
        <time>2020-09-13T08:36:43.000Z</time>
      </trkpt>
      <trkpt lat="47.33135" lon="-1.31996">
        <ele>63</ele>
        <time>2020-09-13T08:36:45.000Z</time>
      </trkpt>
      <trkpt lat="47.33126" lon="-1.32006">
        <ele>63</ele>
        <time>2020-09-13T08:36:47.000Z</time>
      </trkpt>
      <trkpt lat="47.33117" lon="-1.32017">
        <ele>64</ele>
        <time>2020-09-13T08:36:49.000Z</time>
      </trkpt>
      <trkpt lat="47.3311" lon="-1.32028">
        <ele>64</ele>
        <time>2020-09-13T08:36:51.000Z</time>
      </trkpt>
      <trkpt lat="47.33103" lon="-1.32038">
        <ele>64</ele>
        <time>2020-09-13T08:36:53.000Z</time>
      </trkpt>
      <trkpt lat="47.33097" lon="-1.3205">
        <ele>63</ele>
        <time>2020-09-13T08:36:55.000Z</time>
      </trkpt>
      <trkpt lat="47.33097" lon="-1.32068">
        <ele>62</ele>
        <time>2020-09-13T08:36:58.000Z</time>
      </trkpt>
      <trkpt lat="47.33094" lon="-1.32083">
        <ele>63</ele>
        <time>2020-09-13T08:37:00.000Z</time>
      </trkpt>
      <trkpt lat="47.33091" lon="-1.32098">
        <ele>63</ele>
        <time>2020-09-13T08:37:02.000Z</time>
      </trkpt>
      <trkpt lat="47.33085" lon="-1.3211">
        <ele>63</ele>
        <time>2020-09-13T08:37:04.000Z</time>
      </trkpt>
      <trkpt lat="47.33078" lon="-1.32122">
        <ele>62</ele>
        <time>2020-09-13T08:37:06.000Z</time>
      </trkpt>
      <trkpt lat="47.33072" lon="-1.32133">
        <ele>62</ele>
        <time>2020-09-13T08:37:08.000Z</time>
      </trkpt>
      <trkpt lat="47.33065" lon="-1.32145">
        <ele>61</ele>
        <time>2020-09-13T08:37:10.000Z</time>
      </trkpt>
      <trkpt lat="47.33059" lon="-1.32158">
        <ele>61</ele>
        <time>2020-09-13T08:37:12.000Z</time>
      </trkpt>
      <trkpt lat="47.33053" lon="-1.3217">
        <ele>61</ele>
        <time>2020-09-13T08:37:14.000Z</time>
      </trkpt>
      <trkpt lat="47.33048" lon="-1.32183">
        <ele>61</ele>
        <time>2020-09-13T08:37:16.000Z</time>
      </trkpt>
      <trkpt lat="47.3304" lon="-1.32199">
        <ele>61</ele>
        <time>2020-09-13T08:37:19.000Z</time>
      </trkpt>
      <trkpt lat="47.33034" lon="-1.32211">
        <ele>61</ele>
        <time>2020-09-13T08:37:21.000Z</time>
      </trkpt>
      <trkpt lat="47.33028" lon="-1.32222">
        <ele>61</ele>
        <time>2020-09-13T08:37:23.000Z</time>
      </trkpt>
      <trkpt lat="47.33022" lon="-1.32234">
        <ele>61</ele>
        <time>2020-09-13T08:37:25.000Z</time>
      </trkpt>
      <trkpt lat="47.33016" lon="-1.32246">
        <ele>61</ele>
        <time>2020-09-13T08:37:27.000Z</time>
      </trkpt>
      <trkpt lat="47.33011" lon="-1.32257">
        <ele>61</ele>
        <time>2020-09-13T08:37:29.000Z</time>
      </trkpt>
      <trkpt lat="47.33004" lon="-1.32268">
        <ele>61</ele>
        <time>2020-09-13T08:37:31.000Z</time>
      </trkpt>
      <trkpt lat="47.32996" lon="-1.32283">
        <ele>60</ele>
        <time>2020-09-13T08:37:33.000Z</time>
      </trkpt>
      <trkpt lat="47.32988" lon="-1.323">
        <ele>60</ele>
        <time>2020-09-13T08:37:35.000Z</time>
      </trkpt>
      <trkpt lat="47.3298" lon="-1.32318">
        <ele>60</ele>
        <time>2020-09-13T08:37:37.000Z</time>
      </trkpt>
      <trkpt lat="47.32971" lon="-1.32336">
        <ele>60</ele>
        <time>2020-09-13T08:37:39.000Z</time>
      </trkpt>
      <trkpt lat="47.32961" lon="-1.32353">
        <ele>60</ele>
        <time>2020-09-13T08:37:41.000Z</time>
      </trkpt>
      <trkpt lat="47.32951" lon="-1.3237">
        <ele>60</ele>
        <time>2020-09-13T08:37:43.000Z</time>
      </trkpt>
      <trkpt lat="47.32943" lon="-1.32387">
        <ele>60</ele>
        <time>2020-09-13T08:37:45.000Z</time>
      </trkpt>
      <trkpt lat="47.32934" lon="-1.32405">
        <ele>60</ele>
        <time>2020-09-13T08:37:47.000Z</time>
      </trkpt>
      <trkpt lat="47.32925" lon="-1.32422">
        <ele>60</ele>
        <time>2020-09-13T08:37:49.000Z</time>
      </trkpt>
      <trkpt lat="47.32916" lon="-1.32439">
        <ele>60</ele>
        <time>2020-09-13T08:37:51.000Z</time>
      </trkpt>
      <trkpt lat="47.32907" lon="-1.32455">
        <ele>60</ele>
        <time>2020-09-13T08:37:53.000Z</time>
      </trkpt>
      <trkpt lat="47.32899" lon="-1.32472">
        <ele>60</ele>
        <time>2020-09-13T08:37:55.000Z</time>
      </trkpt>
      <trkpt lat="47.3289" lon="-1.32488">
        <ele>60</ele>
        <time>2020-09-13T08:37:57.000Z</time>
      </trkpt>
      <trkpt lat="47.32881" lon="-1.32505">
        <ele>60</ele>
        <time>2020-09-13T08:37:59.000Z</time>
      </trkpt>
      <trkpt lat="47.32873" lon="-1.32522">
        <ele>60</ele>
        <time>2020-09-13T08:38:01.000Z</time>
      </trkpt>
      <trkpt lat="47.32865" lon="-1.32539">
        <ele>60</ele>
        <time>2020-09-13T08:38:03.000Z</time>
      </trkpt>
      <trkpt lat="47.32857" lon="-1.32555">
        <ele>60</ele>
        <time>2020-09-13T08:38:05.000Z</time>
      </trkpt>
      <trkpt lat="47.32849" lon="-1.3257">
        <ele>60</ele>
        <time>2020-09-13T08:38:07.000Z</time>
      </trkpt>
      <trkpt lat="47.32841" lon="-1.32586">
        <ele>60</ele>
        <time>2020-09-13T08:38:09.000Z</time>
      </trkpt>
      <trkpt lat="47.32833" lon="-1.32601">
        <ele>61</ele>
        <time>2020-09-13T08:38:11.000Z</time>
      </trkpt>
      <trkpt lat="47.32825" lon="-1.32615">
        <ele>61</ele>
        <time>2020-09-13T08:38:13.000Z</time>
      </trkpt>
      <trkpt lat="47.32816" lon="-1.32629">
        <ele>61</ele>
        <time>2020-09-13T08:38:15.000Z</time>
      </trkpt>
      <trkpt lat="47.32806" lon="-1.32643">
        <ele>61</ele>
        <time>2020-09-13T08:38:17.000Z</time>
      </trkpt>
      <trkpt lat="47.32797" lon="-1.32657">
        <ele>61</ele>
        <time>2020-09-13T08:38:19.000Z</time>
      </trkpt>
      <trkpt lat="47.32788" lon="-1.32671">
        <ele>61</ele>
        <time>2020-09-13T08:38:21.000Z</time>
      </trkpt>
      <trkpt lat="47.32782" lon="-1.32688">
        <ele>61</ele>
        <time>2020-09-13T08:38:23.000Z</time>
      </trkpt>
      <trkpt lat="47.32776" lon="-1.32706">
        <ele>61</ele>
        <time>2020-09-13T08:38:25.000Z</time>
      </trkpt>
      <trkpt lat="47.32768" lon="-1.32723">
        <ele>61</ele>
        <time>2020-09-13T08:38:27.000Z</time>
      </trkpt>
      <trkpt lat="47.32761" lon="-1.32739">
        <ele>62</ele>
        <time>2020-09-13T08:38:29.000Z</time>
      </trkpt>
      <trkpt lat="47.32753" lon="-1.32755">
        <ele>61</ele>
        <time>2020-09-13T08:38:31.000Z</time>
      </trkpt>
      <trkpt lat="47.32745" lon="-1.3277">
        <ele>61</ele>
        <time>2020-09-13T08:38:33.000Z</time>
      </trkpt>
      <trkpt lat="47.32737" lon="-1.32785">
        <ele>61</ele>
        <time>2020-09-13T08:38:35.000Z</time>
      </trkpt>
      <trkpt lat="47.32728" lon="-1.32799">
        <ele>62</ele>
        <time>2020-09-13T08:38:37.000Z</time>
      </trkpt>
      <trkpt lat="47.32719" lon="-1.32814">
        <ele>61</ele>
        <time>2020-09-13T08:38:39.000Z</time>
      </trkpt>
      <trkpt lat="47.3271" lon="-1.32828">
        <ele>61</ele>
        <time>2020-09-13T08:38:41.000Z</time>
      </trkpt>
      <trkpt lat="47.32701" lon="-1.32842">
        <ele>62</ele>
        <time>2020-09-13T08:38:43.000Z</time>
      </trkpt>
      <trkpt lat="47.32692" lon="-1.32857">
        <ele>61</ele>
        <time>2020-09-13T08:38:45.000Z</time>
      </trkpt>
      <trkpt lat="47.32682" lon="-1.32871">
        <ele>61</ele>
        <time>2020-09-13T08:38:47.000Z</time>
      </trkpt>
      <trkpt lat="47.32673" lon="-1.32884">
        <ele>61</ele>
        <time>2020-09-13T08:38:49.000Z</time>
      </trkpt>
      <trkpt lat="47.32664" lon="-1.32896">
        <ele>61</ele>
        <time>2020-09-13T08:38:51.000Z</time>
      </trkpt>
      <trkpt lat="47.32656" lon="-1.32909">
        <ele>61</ele>
        <time>2020-09-13T08:38:53.000Z</time>
      </trkpt>
      <trkpt lat="47.32648" lon="-1.3292">
        <ele>61</ele>
        <time>2020-09-13T08:38:55.000Z</time>
      </trkpt>
      <trkpt lat="47.3264" lon="-1.32928">
        <ele>60</ele>
        <time>2020-09-13T08:38:57.000Z</time>
      </trkpt>
      <trkpt lat="47.32631" lon="-1.3293">
        <ele>59</ele>
        <time>2020-09-13T08:38:59.000Z</time>
      </trkpt>
      <trkpt lat="47.32622" lon="-1.32942">
        <ele>59</ele>
        <time>2020-09-13T08:39:02.000Z</time>
      </trkpt>
      <trkpt lat="47.32615" lon="-1.32952">
        <ele>59</ele>
        <time>2020-09-13T08:39:04.000Z</time>
      </trkpt>
      <trkpt lat="47.32608" lon="-1.32963">
        <ele>59</ele>
        <time>2020-09-13T08:39:06.000Z</time>
      </trkpt>
      <trkpt lat="47.32601" lon="-1.32974">
        <ele>59</ele>
        <time>2020-09-13T08:39:08.000Z</time>
      </trkpt>
      <trkpt lat="47.32592" lon="-1.32986">
        <ele>60</ele>
        <time>2020-09-13T08:39:10.000Z</time>
      </trkpt>
      <trkpt lat="47.32583" lon="-1.32997">
        <ele>61</ele>
        <time>2020-09-13T08:39:12.000Z</time>
      </trkpt>
      <trkpt lat="47.32574" lon="-1.33007">
        <ele>61</ele>
        <time>2020-09-13T08:39:14.000Z</time>
      </trkpt>
      <trkpt lat="47.32565" lon="-1.33017">
        <ele>61</ele>
        <time>2020-09-13T08:39:16.000Z</time>
      </trkpt>
      <trkpt lat="47.32556" lon="-1.33027">
        <ele>61</ele>
        <time>2020-09-13T08:39:18.000Z</time>
      </trkpt>
      <trkpt lat="47.32545" lon="-1.33035">
        <ele>61</ele>
        <time>2020-09-13T08:39:20.000Z</time>
      </trkpt>
      <trkpt lat="47.32533" lon="-1.33045">
        <ele>61</ele>
        <time>2020-09-13T08:39:22.000Z</time>
      </trkpt>
      <trkpt lat="47.32522" lon="-1.33057">
        <ele>61</ele>
        <time>2020-09-13T08:39:24.000Z</time>
      </trkpt>
      <trkpt lat="47.32512" lon="-1.33069">
        <ele>61</ele>
        <time>2020-09-13T08:39:26.000Z</time>
      </trkpt>
      <trkpt lat="47.32501" lon="-1.3308">
        <ele>61</ele>
        <time>2020-09-13T08:39:28.000Z</time>
      </trkpt>
      <trkpt lat="47.3249" lon="-1.33091">
        <ele>61</ele>
        <time>2020-09-13T08:39:30.000Z</time>
      </trkpt>
      <trkpt lat="47.32481" lon="-1.33103">
        <ele>61</ele>
        <time>2020-09-13T08:39:32.000Z</time>
      </trkpt>
      <trkpt lat="47.32471" lon="-1.33114">
        <ele>61</ele>
        <time>2020-09-13T08:39:34.000Z</time>
      </trkpt>
      <trkpt lat="47.32461" lon="-1.33126">
        <ele>60</ele>
        <time>2020-09-13T08:39:36.000Z</time>
      </trkpt>
      <trkpt lat="47.32451" lon="-1.33138">
        <ele>60</ele>
        <time>2020-09-13T08:39:38.000Z</time>
      </trkpt>
      <trkpt lat="47.32443" lon="-1.33144">
        <ele>61</ele>
        <time>2020-09-13T08:39:40.000Z</time>
      </trkpt>
      <trkpt lat="47.32432" lon="-1.33145">
        <ele>61</ele>
        <time>2020-09-13T08:39:43.000Z</time>
      </trkpt>
      <trkpt lat="47.32419" lon="-1.33157">
        <ele>61</ele>
        <time>2020-09-13T08:39:47.000Z</time>
      </trkpt>
      <trkpt lat="47.32409" lon="-1.33168">
        <ele>61</ele>
        <time>2020-09-13T08:39:49.000Z</time>
      </trkpt>
      <trkpt lat="47.324" lon="-1.33179">
        <ele>61</ele>
        <time>2020-09-13T08:39:51.000Z</time>
      </trkpt>
      <trkpt lat="47.32389" lon="-1.33193">
        <ele>62</ele>
        <time>2020-09-13T08:39:53.000Z</time>
      </trkpt>
      <trkpt lat="47.32379" lon="-1.33207">
        <ele>63</ele>
        <time>2020-09-13T08:39:55.000Z</time>
      </trkpt>
      <trkpt lat="47.3237" lon="-1.33222">
        <ele>63</ele>
        <time>2020-09-13T08:39:57.000Z</time>
      </trkpt>
      <trkpt lat="47.32363" lon="-1.33237">
        <ele>64</ele>
        <time>2020-09-13T08:39:59.000Z</time>
      </trkpt>
      <trkpt lat="47.32355" lon="-1.33253">
        <ele>63</ele>
        <time>2020-09-13T08:40:01.000Z</time>
      </trkpt>
      <trkpt lat="47.32347" lon="-1.33269">
        <ele>62</ele>
        <time>2020-09-13T08:40:03.000Z</time>
      </trkpt>
      <trkpt lat="47.32341" lon="-1.33285">
        <ele>62</ele>
        <time>2020-09-13T08:40:05.000Z</time>
      </trkpt>
      <trkpt lat="47.32334" lon="-1.33301">
        <ele>62</ele>
        <time>2020-09-13T08:40:07.000Z</time>
      </trkpt>
      <trkpt lat="47.32326" lon="-1.33318">
        <ele>62</ele>
        <time>2020-09-13T08:40:09.000Z</time>
      </trkpt>
      <trkpt lat="47.32319" lon="-1.33335">
        <ele>62</ele>
        <time>2020-09-13T08:40:11.000Z</time>
      </trkpt>
      <trkpt lat="47.32313" lon="-1.33351">
        <ele>61</ele>
        <time>2020-09-13T08:40:13.000Z</time>
      </trkpt>
      <trkpt lat="47.32305" lon="-1.33367">
        <ele>61</ele>
        <time>2020-09-13T08:40:15.000Z</time>
      </trkpt>
      <trkpt lat="47.32298" lon="-1.33384">
        <ele>62</ele>
        <time>2020-09-13T08:40:17.000Z</time>
      </trkpt>
      <trkpt lat="47.3229" lon="-1.33401">
        <ele>62</ele>
        <time>2020-09-13T08:40:19.000Z</time>
      </trkpt>
      <trkpt lat="47.32283" lon="-1.33419">
        <ele>61</ele>
        <time>2020-09-13T08:40:21.000Z</time>
      </trkpt>
      <trkpt lat="47.32274" lon="-1.33436">
        <ele>61</ele>
        <time>2020-09-13T08:40:23.000Z</time>
      </trkpt>
      <trkpt lat="47.32266" lon="-1.33453">
        <ele>61</ele>
        <time>2020-09-13T08:40:25.000Z</time>
      </trkpt>
      <trkpt lat="47.32258" lon="-1.33469">
        <ele>60</ele>
        <time>2020-09-13T08:40:27.000Z</time>
      </trkpt>
      <trkpt lat="47.3225" lon="-1.33485">
        <ele>61</ele>
        <time>2020-09-13T08:40:29.000Z</time>
      </trkpt>
      <trkpt lat="47.32243" lon="-1.33503">
        <ele>60</ele>
        <time>2020-09-13T08:40:31.000Z</time>
      </trkpt>
      <trkpt lat="47.32235" lon="-1.33519">
        <ele>60</ele>
        <time>2020-09-13T08:40:33.000Z</time>
      </trkpt>
      <trkpt lat="47.32228" lon="-1.33535">
        <ele>60</ele>
        <time>2020-09-13T08:40:35.000Z</time>
      </trkpt>
      <trkpt lat="47.32221" lon="-1.3355">
        <ele>61</ele>
        <time>2020-09-13T08:40:37.000Z</time>
      </trkpt>
      <trkpt lat="47.32213" lon="-1.33567">
        <ele>60</ele>
        <time>2020-09-13T08:40:39.000Z</time>
      </trkpt>
      <trkpt lat="47.32205" lon="-1.33584">
        <ele>60</ele>
        <time>2020-09-13T08:40:41.000Z</time>
      </trkpt>
      <trkpt lat="47.32198" lon="-1.336">
        <ele>60</ele>
        <time>2020-09-13T08:40:43.000Z</time>
      </trkpt>
      <trkpt lat="47.32191" lon="-1.33617">
        <ele>59</ele>
        <time>2020-09-13T08:40:45.000Z</time>
      </trkpt>
      <trkpt lat="47.32185" lon="-1.33633">
        <ele>59</ele>
        <time>2020-09-13T08:40:47.000Z</time>
      </trkpt>
      <trkpt lat="47.32179" lon="-1.33644">
        <ele>59</ele>
        <time>2020-09-13T08:40:49.000Z</time>
      </trkpt>
      <trkpt lat="47.32175" lon="-1.33657">
        <ele>59</ele>
        <time>2020-09-13T08:40:51.000Z</time>
      </trkpt>
      <trkpt lat="47.32169" lon="-1.33672">
        <ele>60</ele>
        <time>2020-09-13T08:40:53.000Z</time>
      </trkpt>
      <trkpt lat="47.32163" lon="-1.33689">
        <ele>61</ele>
        <time>2020-09-13T08:40:55.000Z</time>
      </trkpt>
      <trkpt lat="47.32157" lon="-1.33706">
        <ele>61</ele>
        <time>2020-09-13T08:40:57.000Z</time>
      </trkpt>
      <trkpt lat="47.3215" lon="-1.33723">
        <ele>62</ele>
        <time>2020-09-13T08:40:59.000Z</time>
      </trkpt>
      <trkpt lat="47.32143" lon="-1.3374">
        <ele>62</ele>
        <time>2020-09-13T08:41:01.000Z</time>
      </trkpt>
      <trkpt lat="47.32136" lon="-1.33757">
        <ele>63</ele>
        <time>2020-09-13T08:41:03.000Z</time>
      </trkpt>
      <trkpt lat="47.32129" lon="-1.33774">
        <ele>63</ele>
        <time>2020-09-13T08:41:05.000Z</time>
      </trkpt>
      <trkpt lat="47.32121" lon="-1.33792">
        <ele>63</ele>
        <time>2020-09-13T08:41:07.000Z</time>
      </trkpt>
      <trkpt lat="47.32113" lon="-1.33809">
        <ele>63</ele>
        <time>2020-09-13T08:41:09.000Z</time>
      </trkpt>
      <trkpt lat="47.32106" lon="-1.33826">
        <ele>63</ele>
        <time>2020-09-13T08:41:11.000Z</time>
      </trkpt>
      <trkpt lat="47.32099" lon="-1.33842">
        <ele>63</ele>
        <time>2020-09-13T08:41:13.000Z</time>
      </trkpt>
      <trkpt lat="47.3209" lon="-1.33859">
        <ele>62</ele>
        <time>2020-09-13T08:41:15.000Z</time>
      </trkpt>
      <trkpt lat="47.32082" lon="-1.33874">
        <ele>62</ele>
        <time>2020-09-13T08:41:17.000Z</time>
      </trkpt>
      <trkpt lat="47.32075" lon="-1.3389">
        <ele>62</ele>
        <time>2020-09-13T08:41:19.000Z</time>
      </trkpt>
      <trkpt lat="47.32066" lon="-1.33904">
        <ele>62</ele>
        <time>2020-09-13T08:41:21.000Z</time>
      </trkpt>
      <trkpt lat="47.32056" lon="-1.33919">
        <ele>62</ele>
        <time>2020-09-13T08:41:23.000Z</time>
      </trkpt>
      <trkpt lat="47.32048" lon="-1.33934">
        <ele>62</ele>
        <time>2020-09-13T08:41:25.000Z</time>
      </trkpt>
      <trkpt lat="47.3204" lon="-1.33949">
        <ele>62</ele>
        <time>2020-09-13T08:41:27.000Z</time>
      </trkpt>
      <trkpt lat="47.32035" lon="-1.33962">
        <ele>63</ele>
        <time>2020-09-13T08:41:29.000Z</time>
      </trkpt>
      <trkpt lat="47.32029" lon="-1.33974">
        <ele>63</ele>
        <time>2020-09-13T08:41:31.000Z</time>
      </trkpt>
      <trkpt lat="47.3202" lon="-1.33987">
        <ele>63</ele>
        <time>2020-09-13T08:41:33.000Z</time>
      </trkpt>
      <trkpt lat="47.3201" lon="-1.34">
        <ele>63</ele>
        <time>2020-09-13T08:41:35.000Z</time>
      </trkpt>
      <trkpt lat="47.32001" lon="-1.34014">
        <ele>63</ele>
        <time>2020-09-13T08:41:37.000Z</time>
      </trkpt>
      <trkpt lat="47.31993" lon="-1.34028">
        <ele>63</ele>
        <time>2020-09-13T08:41:39.000Z</time>
      </trkpt>
      <trkpt lat="47.31984" lon="-1.3404">
        <ele>64</ele>
        <time>2020-09-13T08:41:41.000Z</time>
      </trkpt>
      <trkpt lat="47.31976" lon="-1.34053">
        <ele>64</ele>
        <time>2020-09-13T08:41:43.000Z</time>
      </trkpt>
      <trkpt lat="47.31969" lon="-1.34065">
        <ele>63</ele>
        <time>2020-09-13T08:41:45.000Z</time>
      </trkpt>
      <trkpt lat="47.3196" lon="-1.34078">
        <ele>64</ele>
        <time>2020-09-13T08:41:47.000Z</time>
      </trkpt>
      <trkpt lat="47.31952" lon="-1.34092">
        <ele>63</ele>
        <time>2020-09-13T08:41:49.000Z</time>
      </trkpt>
      <trkpt lat="47.31943" lon="-1.34106">
        <ele>63</ele>
        <time>2020-09-13T08:41:51.000Z</time>
      </trkpt>
      <trkpt lat="47.31934" lon="-1.3412">
        <ele>64</ele>
        <time>2020-09-13T08:41:53.000Z</time>
      </trkpt>
      <trkpt lat="47.31925" lon="-1.34133">
        <ele>63</ele>
        <time>2020-09-13T08:41:55.000Z</time>
      </trkpt>
      <trkpt lat="47.31915" lon="-1.34147">
        <ele>63</ele>
        <time>2020-09-13T08:41:57.000Z</time>
      </trkpt>
      <trkpt lat="47.31907" lon="-1.34161">
        <ele>63</ele>
        <time>2020-09-13T08:41:59.000Z</time>
      </trkpt>
      <trkpt lat="47.31897" lon="-1.34174">
        <ele>62</ele>
        <time>2020-09-13T08:42:01.000Z</time>
      </trkpt>
      <trkpt lat="47.31887" lon="-1.34188">
        <ele>61</ele>
        <time>2020-09-13T08:42:03.000Z</time>
      </trkpt>
      <trkpt lat="47.31877" lon="-1.34202">
        <ele>61</ele>
        <time>2020-09-13T08:42:05.000Z</time>
      </trkpt>
      <trkpt lat="47.31868" lon="-1.34215">
        <ele>62</ele>
        <time>2020-09-13T08:42:07.000Z</time>
      </trkpt>
      <trkpt lat="47.3186" lon="-1.3423">
        <ele>61</ele>
        <time>2020-09-13T08:42:09.000Z</time>
      </trkpt>
      <trkpt lat="47.31851" lon="-1.34242">
        <ele>61</ele>
        <time>2020-09-13T08:42:11.000Z</time>
      </trkpt>
      <trkpt lat="47.31843" lon="-1.34254">
        <ele>61</ele>
        <time>2020-09-13T08:42:13.000Z</time>
      </trkpt>
      <trkpt lat="47.31834" lon="-1.34268">
        <ele>60</ele>
        <time>2020-09-13T08:42:15.000Z</time>
      </trkpt>
      <trkpt lat="47.31825" lon="-1.34283">
        <ele>60</ele>
        <time>2020-09-13T08:42:17.000Z</time>
      </trkpt>
      <trkpt lat="47.31815" lon="-1.34298">
        <ele>60</ele>
        <time>2020-09-13T08:42:19.000Z</time>
      </trkpt>
      <trkpt lat="47.31805" lon="-1.34315">
        <ele>60</ele>
        <time>2020-09-13T08:42:21.000Z</time>
      </trkpt>
      <trkpt lat="47.31795" lon="-1.34332">
        <ele>59</ele>
        <time>2020-09-13T08:42:23.000Z</time>
      </trkpt>
      <trkpt lat="47.31784" lon="-1.34348">
        <ele>60</ele>
        <time>2020-09-13T08:42:25.000Z</time>
      </trkpt>
      <trkpt lat="47.31773" lon="-1.34364">
        <ele>59</ele>
        <time>2020-09-13T08:42:27.000Z</time>
      </trkpt>
      <trkpt lat="47.31763" lon="-1.3438">
        <ele>60</ele>
        <time>2020-09-13T08:42:29.000Z</time>
      </trkpt>
      <trkpt lat="47.31753" lon="-1.34396">
        <ele>59</ele>
        <time>2020-09-13T08:42:31.000Z</time>
      </trkpt>
      <trkpt lat="47.31744" lon="-1.34413">
        <ele>59</ele>
        <time>2020-09-13T08:42:33.000Z</time>
      </trkpt>
      <trkpt lat="47.31734" lon="-1.34429">
        <ele>59</ele>
        <time>2020-09-13T08:42:35.000Z</time>
      </trkpt>
      <trkpt lat="47.31724" lon="-1.34445">
        <ele>59</ele>
        <time>2020-09-13T08:42:37.000Z</time>
      </trkpt>
      <trkpt lat="47.31714" lon="-1.34462">
        <ele>60</ele>
        <time>2020-09-13T08:42:39.000Z</time>
      </trkpt>
      <trkpt lat="47.31704" lon="-1.34477">
        <ele>60</ele>
        <time>2020-09-13T08:42:41.000Z</time>
      </trkpt>
      <trkpt lat="47.31694" lon="-1.34492">
        <ele>60</ele>
        <time>2020-09-13T08:42:43.000Z</time>
      </trkpt>
      <trkpt lat="47.31684" lon="-1.34508">
        <ele>60</ele>
        <time>2020-09-13T08:42:45.000Z</time>
      </trkpt>
      <trkpt lat="47.31674" lon="-1.34523">
        <ele>60</ele>
        <time>2020-09-13T08:42:47.000Z</time>
      </trkpt>
      <trkpt lat="47.31665" lon="-1.34537">
        <ele>60</ele>
        <time>2020-09-13T08:42:49.000Z</time>
      </trkpt>
      <trkpt lat="47.31656" lon="-1.34551">
        <ele>60</ele>
        <time>2020-09-13T08:42:51.000Z</time>
      </trkpt>
      <trkpt lat="47.31647" lon="-1.34566">
        <ele>60</ele>
        <time>2020-09-13T08:42:53.000Z</time>
      </trkpt>
      <trkpt lat="47.31639" lon="-1.34579">
        <ele>60</ele>
        <time>2020-09-13T08:42:55.000Z</time>
      </trkpt>
      <trkpt lat="47.3163" lon="-1.34593">
        <ele>59</ele>
        <time>2020-09-13T08:42:57.000Z</time>
      </trkpt>
      <trkpt lat="47.31621" lon="-1.34607">
        <ele>60</ele>
        <time>2020-09-13T08:42:59.000Z</time>
      </trkpt>
      <trkpt lat="47.31611" lon="-1.34622">
        <ele>60</ele>
        <time>2020-09-13T08:43:01.000Z</time>
      </trkpt>
      <trkpt lat="47.31602" lon="-1.34636">
        <ele>60</ele>
        <time>2020-09-13T08:43:03.000Z</time>
      </trkpt>
      <trkpt lat="47.31593" lon="-1.34651">
        <ele>59</ele>
        <time>2020-09-13T08:43:05.000Z</time>
      </trkpt>
      <trkpt lat="47.31585" lon="-1.34665">
        <ele>59</ele>
        <time>2020-09-13T08:43:07.000Z</time>
      </trkpt>
      <trkpt lat="47.31576" lon="-1.34679">
        <ele>59</ele>
        <time>2020-09-13T08:43:09.000Z</time>
      </trkpt>
      <trkpt lat="47.31566" lon="-1.34694">
        <ele>59</ele>
        <time>2020-09-13T08:43:11.000Z</time>
      </trkpt>
      <trkpt lat="47.31557" lon="-1.34708">
        <ele>59</ele>
        <time>2020-09-13T08:43:13.000Z</time>
      </trkpt>
      <trkpt lat="47.31548" lon="-1.34723">
        <ele>59</ele>
        <time>2020-09-13T08:43:15.000Z</time>
      </trkpt>
      <trkpt lat="47.31539" lon="-1.34737">
        <ele>59</ele>
        <time>2020-09-13T08:43:17.000Z</time>
      </trkpt>
      <trkpt lat="47.31531" lon="-1.34751">
        <ele>59</ele>
        <time>2020-09-13T08:43:19.000Z</time>
      </trkpt>
      <trkpt lat="47.31522" lon="-1.34765">
        <ele>59</ele>
        <time>2020-09-13T08:43:21.000Z</time>
      </trkpt>
      <trkpt lat="47.31513" lon="-1.34778">
        <ele>60</ele>
        <time>2020-09-13T08:43:23.000Z</time>
      </trkpt>
      <trkpt lat="47.31505" lon="-1.34792">
        <ele>61</ele>
        <time>2020-09-13T08:43:25.000Z</time>
      </trkpt>
      <trkpt lat="47.31496" lon="-1.34807">
        <ele>61</ele>
        <time>2020-09-13T08:43:27.000Z</time>
      </trkpt>
      <trkpt lat="47.31487" lon="-1.34821">
        <ele>61</ele>
        <time>2020-09-13T08:43:29.000Z</time>
      </trkpt>
      <trkpt lat="47.31479" lon="-1.34836">
        <ele>61</ele>
        <time>2020-09-13T08:43:31.000Z</time>
      </trkpt>
      <trkpt lat="47.3147" lon="-1.3485">
        <ele>61</ele>
        <time>2020-09-13T08:43:33.000Z</time>
      </trkpt>
      <trkpt lat="47.3146" lon="-1.34865">
        <ele>61</ele>
        <time>2020-09-13T08:43:35.000Z</time>
      </trkpt>
      <trkpt lat="47.31451" lon="-1.3488">
        <ele>61</ele>
        <time>2020-09-13T08:43:37.000Z</time>
      </trkpt>
      <trkpt lat="47.31442" lon="-1.34896">
        <ele>60</ele>
        <time>2020-09-13T08:43:39.000Z</time>
      </trkpt>
      <trkpt lat="47.31433" lon="-1.3491">
        <ele>60</ele>
        <time>2020-09-13T08:43:41.000Z</time>
      </trkpt>
      <trkpt lat="47.31423" lon="-1.34925">
        <ele>60</ele>
        <time>2020-09-13T08:43:43.000Z</time>
      </trkpt>
      <trkpt lat="47.31414" lon="-1.34939">
        <ele>60</ele>
        <time>2020-09-13T08:43:45.000Z</time>
      </trkpt>
      <trkpt lat="47.31405" lon="-1.34953">
        <ele>60</ele>
        <time>2020-09-13T08:43:47.000Z</time>
      </trkpt>
      <trkpt lat="47.31396" lon="-1.34967">
        <ele>60</ele>
        <time>2020-09-13T08:43:49.000Z</time>
      </trkpt>
      <trkpt lat="47.31388" lon="-1.34981">
        <ele>59</ele>
        <time>2020-09-13T08:43:51.000Z</time>
      </trkpt>
      <trkpt lat="47.3138" lon="-1.34996">
        <ele>59</ele>
        <time>2020-09-13T08:43:53.000Z</time>
      </trkpt>
      <trkpt lat="47.31371" lon="-1.35011">
        <ele>58</ele>
        <time>2020-09-13T08:43:55.000Z</time>
      </trkpt>
      <trkpt lat="47.31361" lon="-1.35026">
        <ele>58</ele>
        <time>2020-09-13T08:43:57.000Z</time>
      </trkpt>
      <trkpt lat="47.31353" lon="-1.3504">
        <ele>59</ele>
        <time>2020-09-13T08:43:59.000Z</time>
      </trkpt>
      <trkpt lat="47.31344" lon="-1.35055">
        <ele>59</ele>
        <time>2020-09-13T08:44:01.000Z</time>
      </trkpt>
      <trkpt lat="47.31336" lon="-1.35068">
        <ele>59</ele>
        <time>2020-09-13T08:44:03.000Z</time>
      </trkpt>
      <trkpt lat="47.31328" lon="-1.3508">
        <ele>59</ele>
        <time>2020-09-13T08:44:05.000Z</time>
      </trkpt>
      <trkpt lat="47.3132" lon="-1.35086">
        <ele>59</ele>
        <time>2020-09-13T08:44:07.000Z</time>
      </trkpt>
      <trkpt lat="47.3131" lon="-1.35091">
        <ele>58</ele>
        <time>2020-09-13T08:44:09.000Z</time>
      </trkpt>
      <trkpt lat="47.31301" lon="-1.35104">
        <ele>59</ele>
        <time>2020-09-13T08:44:11.000Z</time>
      </trkpt>
      <trkpt lat="47.31293" lon="-1.35117">
        <ele>59</ele>
        <time>2020-09-13T08:44:13.000Z</time>
      </trkpt>
      <trkpt lat="47.31286" lon="-1.3513">
        <ele>59</ele>
        <time>2020-09-13T08:44:15.000Z</time>
      </trkpt>
      <trkpt lat="47.31279" lon="-1.35146">
        <ele>58</ele>
        <time>2020-09-13T08:44:17.000Z</time>
      </trkpt>
      <trkpt lat="47.3127" lon="-1.35161">
        <ele>59</ele>
        <time>2020-09-13T08:44:19.000Z</time>
      </trkpt>
      <trkpt lat="47.31261" lon="-1.35176">
        <ele>58</ele>
        <time>2020-09-13T08:44:21.000Z</time>
      </trkpt>
      <trkpt lat="47.31252" lon="-1.35192">
        <ele>59</ele>
        <time>2020-09-13T08:44:23.000Z</time>
      </trkpt>
      <trkpt lat="47.31243" lon="-1.35208">
        <ele>59</ele>
        <time>2020-09-13T08:44:25.000Z</time>
      </trkpt>
      <trkpt lat="47.31234" lon="-1.35222">
        <ele>59</ele>
        <time>2020-09-13T08:44:27.000Z</time>
      </trkpt>
      <trkpt lat="47.31225" lon="-1.35236">
        <ele>59</ele>
        <time>2020-09-13T08:44:29.000Z</time>
      </trkpt>
      <trkpt lat="47.31217" lon="-1.35249">
        <ele>59</ele>
        <time>2020-09-13T08:44:31.000Z</time>
      </trkpt>
      <trkpt lat="47.31209" lon="-1.35262">
        <ele>59</ele>
        <time>2020-09-13T08:44:33.000Z</time>
      </trkpt>
      <trkpt lat="47.31203" lon="-1.35272">
        <ele>59</ele>
        <time>2020-09-13T08:44:35.000Z</time>
      </trkpt>
      <trkpt lat="47.31196" lon="-1.35284">
        <ele>60</ele>
        <time>2020-09-13T08:44:38.000Z</time>
      </trkpt>
      <trkpt lat="47.31188" lon="-1.35296">
        <ele>60</ele>
        <time>2020-09-13T08:44:40.000Z</time>
      </trkpt>
      <trkpt lat="47.3118" lon="-1.35309">
        <ele>61</ele>
        <time>2020-09-13T08:44:42.000Z</time>
      </trkpt>
      <trkpt lat="47.31171" lon="-1.35321">
        <ele>61</ele>
        <time>2020-09-13T08:44:44.000Z</time>
      </trkpt>
      <trkpt lat="47.31162" lon="-1.35334">
        <ele>61</ele>
        <time>2020-09-13T08:44:46.000Z</time>
      </trkpt>
      <trkpt lat="47.31152" lon="-1.35349">
        <ele>61</ele>
        <time>2020-09-13T08:44:48.000Z</time>
      </trkpt>
      <trkpt lat="47.31143" lon="-1.35365">
        <ele>61</ele>
        <time>2020-09-13T08:44:50.000Z</time>
      </trkpt>
      <trkpt lat="47.31134" lon="-1.3538">
        <ele>61</ele>
        <time>2020-09-13T08:44:52.000Z</time>
      </trkpt>
      <trkpt lat="47.31124" lon="-1.35395">
        <ele>61</ele>
        <time>2020-09-13T08:44:54.000Z</time>
      </trkpt>
      <trkpt lat="47.31115" lon="-1.3541">
        <ele>61</ele>
        <time>2020-09-13T08:44:56.000Z</time>
      </trkpt>
      <trkpt lat="47.31104" lon="-1.35425">
        <ele>61</ele>
        <time>2020-09-13T08:44:58.000Z</time>
      </trkpt>
      <trkpt lat="47.31094" lon="-1.3544">
        <ele>60</ele>
        <time>2020-09-13T08:45:00.000Z</time>
      </trkpt>
      <trkpt lat="47.31084" lon="-1.35454">
        <ele>60</ele>
        <time>2020-09-13T08:45:02.000Z</time>
      </trkpt>
      <trkpt lat="47.31073" lon="-1.35467">
        <ele>60</ele>
        <time>2020-09-13T08:45:04.000Z</time>
      </trkpt>
      <trkpt lat="47.31062" lon="-1.3548">
        <ele>60</ele>
        <time>2020-09-13T08:45:06.000Z</time>
      </trkpt>
      <trkpt lat="47.31051" lon="-1.35493">
        <ele>60</ele>
        <time>2020-09-13T08:45:08.000Z</time>
      </trkpt>
      <trkpt lat="47.3104" lon="-1.35506">
        <ele>60</ele>
        <time>2020-09-13T08:45:10.000Z</time>
      </trkpt>
      <trkpt lat="47.3103" lon="-1.35518">
        <ele>60</ele>
        <time>2020-09-13T08:45:12.000Z</time>
      </trkpt>
      <trkpt lat="47.31019" lon="-1.3553">
        <ele>60</ele>
        <time>2020-09-13T08:45:14.000Z</time>
      </trkpt>
      <trkpt lat="47.31009" lon="-1.35542">
        <ele>61</ele>
        <time>2020-09-13T08:45:16.000Z</time>
      </trkpt>
      <trkpt lat="47.30998" lon="-1.35554">
        <ele>61</ele>
        <time>2020-09-13T08:45:18.000Z</time>
      </trkpt>
      <trkpt lat="47.30988" lon="-1.35567">
        <ele>61</ele>
        <time>2020-09-13T08:45:20.000Z</time>
      </trkpt>
      <trkpt lat="47.30977" lon="-1.35579">
        <ele>61</ele>
        <time>2020-09-13T08:45:22.000Z</time>
      </trkpt>
      <trkpt lat="47.30966" lon="-1.35591">
        <ele>61</ele>
        <time>2020-09-13T08:45:24.000Z</time>
      </trkpt>
      <trkpt lat="47.30956" lon="-1.35603">
        <ele>60</ele>
        <time>2020-09-13T08:45:26.000Z</time>
      </trkpt>
      <trkpt lat="47.30946" lon="-1.35615">
        <ele>60</ele>
        <time>2020-09-13T08:45:28.000Z</time>
      </trkpt>
      <trkpt lat="47.30936" lon="-1.35627">
        <ele>60</ele>
        <time>2020-09-13T08:45:30.000Z</time>
      </trkpt>
      <trkpt lat="47.30926" lon="-1.35639">
        <ele>60</ele>
        <time>2020-09-13T08:45:32.000Z</time>
      </trkpt>
      <trkpt lat="47.30915" lon="-1.35651">
        <ele>60</ele>
        <time>2020-09-13T08:45:34.000Z</time>
      </trkpt>
      <trkpt lat="47.30906" lon="-1.35663">
        <ele>60</ele>
        <time>2020-09-13T08:45:36.000Z</time>
      </trkpt>
      <trkpt lat="47.30894" lon="-1.35676">
        <ele>60</ele>
        <time>2020-09-13T08:45:38.000Z</time>
      </trkpt>
      <trkpt lat="47.30884" lon="-1.35688">
        <ele>59</ele>
        <time>2020-09-13T08:45:40.000Z</time>
      </trkpt>
      <trkpt lat="47.30874" lon="-1.35701">
        <ele>59</ele>
        <time>2020-09-13T08:45:42.000Z</time>
      </trkpt>
      <trkpt lat="47.30863" lon="-1.35714">
        <ele>58</ele>
        <time>2020-09-13T08:45:44.000Z</time>
      </trkpt>
      <trkpt lat="47.30852" lon="-1.35725">
        <ele>58</ele>
        <time>2020-09-13T08:45:46.000Z</time>
      </trkpt>
      <trkpt lat="47.30842" lon="-1.35738">
        <ele>57</ele>
        <time>2020-09-13T08:45:48.000Z</time>
      </trkpt>
      <trkpt lat="47.30832" lon="-1.3575">
        <ele>56</ele>
        <time>2020-09-13T08:45:50.000Z</time>
      </trkpt>
      <trkpt lat="47.30822" lon="-1.35763">
        <ele>56</ele>
        <time>2020-09-13T08:45:52.000Z</time>
      </trkpt>
      <trkpt lat="47.30811" lon="-1.35776">
        <ele>55</ele>
        <time>2020-09-13T08:45:54.000Z</time>
      </trkpt>
      <trkpt lat="47.308" lon="-1.35789">
        <ele>55</ele>
        <time>2020-09-13T08:45:56.000Z</time>
      </trkpt>
      <trkpt lat="47.30789" lon="-1.35802">
        <ele>55</ele>
        <time>2020-09-13T08:45:58.000Z</time>
      </trkpt>
      <trkpt lat="47.30779" lon="-1.35813">
        <ele>55</ele>
        <time>2020-09-13T08:46:00.000Z</time>
      </trkpt>
      <trkpt lat="47.30768" lon="-1.35827">
        <ele>55</ele>
        <time>2020-09-13T08:46:02.000Z</time>
      </trkpt>
      <trkpt lat="47.30758" lon="-1.35839">
        <ele>55</ele>
        <time>2020-09-13T08:46:04.000Z</time>
      </trkpt>
      <trkpt lat="47.30748" lon="-1.35851">
        <ele>55</ele>
        <time>2020-09-13T08:46:06.000Z</time>
      </trkpt>
      <trkpt lat="47.30738" lon="-1.35862">
        <ele>56</ele>
        <time>2020-09-13T08:46:08.000Z</time>
      </trkpt>
      <trkpt lat="47.30728" lon="-1.35874">
        <ele>56</ele>
        <time>2020-09-13T08:46:10.000Z</time>
      </trkpt>
      <trkpt lat="47.30718" lon="-1.35886">
        <ele>55</ele>
        <time>2020-09-13T08:46:12.000Z</time>
      </trkpt>
      <trkpt lat="47.30708" lon="-1.35898">
        <ele>55</ele>
        <time>2020-09-13T08:46:14.000Z</time>
      </trkpt>
      <trkpt lat="47.30697" lon="-1.3591">
        <ele>55</ele>
        <time>2020-09-13T08:46:16.000Z</time>
      </trkpt>
      <trkpt lat="47.30686" lon="-1.35923">
        <ele>55</ele>
        <time>2020-09-13T08:46:18.000Z</time>
      </trkpt>
      <trkpt lat="47.30676" lon="-1.35936">
        <ele>55</ele>
        <time>2020-09-13T08:46:20.000Z</time>
      </trkpt>
      <trkpt lat="47.30666" lon="-1.35948">
        <ele>54</ele>
        <time>2020-09-13T08:46:22.000Z</time>
      </trkpt>
      <trkpt lat="47.30655" lon="-1.3596">
        <ele>55</ele>
        <time>2020-09-13T08:46:24.000Z</time>
      </trkpt>
      <trkpt lat="47.30645" lon="-1.35972">
        <ele>55</ele>
        <time>2020-09-13T08:46:26.000Z</time>
      </trkpt>
      <trkpt lat="47.30634" lon="-1.35985">
        <ele>55</ele>
        <time>2020-09-13T08:46:28.000Z</time>
      </trkpt>
      <trkpt lat="47.30624" lon="-1.35996">
        <ele>56</ele>
        <time>2020-09-13T08:46:30.000Z</time>
      </trkpt>
      <trkpt lat="47.30613" lon="-1.36007">
        <ele>56</ele>
        <time>2020-09-13T08:46:32.000Z</time>
      </trkpt>
      <trkpt lat="47.30602" lon="-1.36016">
        <ele>55</ele>
        <time>2020-09-13T08:46:34.000Z</time>
      </trkpt>
      <trkpt lat="47.30593" lon="-1.36025">
        <ele>55</ele>
        <time>2020-09-13T08:46:36.000Z</time>
      </trkpt>
      <trkpt lat="47.30586" lon="-1.36038">
        <ele>55</ele>
        <time>2020-09-13T08:46:39.000Z</time>
      </trkpt>
      <trkpt lat="47.30578" lon="-1.36054">
        <ele>56</ele>
        <time>2020-09-13T08:46:42.000Z</time>
      </trkpt>
      <trkpt lat="47.3057" lon="-1.36065">
        <ele>56</ele>
        <time>2020-09-13T08:46:44.000Z</time>
      </trkpt>
      <trkpt lat="47.3056" lon="-1.36078">
        <ele>56</ele>
        <time>2020-09-13T08:46:46.000Z</time>
      </trkpt>
      <trkpt lat="47.3055" lon="-1.36091">
        <ele>56</ele>
        <time>2020-09-13T08:46:48.000Z</time>
      </trkpt>
      <trkpt lat="47.30541" lon="-1.36105">
        <ele>56</ele>
        <time>2020-09-13T08:46:50.000Z</time>
      </trkpt>
      <trkpt lat="47.30533" lon="-1.36118">
        <ele>56</ele>
        <time>2020-09-13T08:46:52.000Z</time>
      </trkpt>
      <trkpt lat="47.30525" lon="-1.36132">
        <ele>57</ele>
        <time>2020-09-13T08:46:54.000Z</time>
      </trkpt>
      <trkpt lat="47.30517" lon="-1.36145">
        <ele>57</ele>
        <time>2020-09-13T08:46:56.000Z</time>
      </trkpt>
      <trkpt lat="47.30509" lon="-1.3616">
        <ele>57</ele>
        <time>2020-09-13T08:46:58.000Z</time>
      </trkpt>
      <trkpt lat="47.30502" lon="-1.36173">
        <ele>58</ele>
        <time>2020-09-13T08:47:00.000Z</time>
      </trkpt>
      <trkpt lat="47.30493" lon="-1.36188">
        <ele>57</ele>
        <time>2020-09-13T08:47:02.000Z</time>
      </trkpt>
      <trkpt lat="47.30485" lon="-1.36202">
        <ele>57</ele>
        <time>2020-09-13T08:47:04.000Z</time>
      </trkpt>
      <trkpt lat="47.30477" lon="-1.36215">
        <ele>57</ele>
        <time>2020-09-13T08:47:06.000Z</time>
      </trkpt>
      <trkpt lat="47.3047" lon="-1.36229">
        <ele>58</ele>
        <time>2020-09-13T08:47:08.000Z</time>
      </trkpt>
      <trkpt lat="47.30463" lon="-1.36245">
        <ele>58</ele>
        <time>2020-09-13T08:47:10.000Z</time>
      </trkpt>
      <trkpt lat="47.30456" lon="-1.36261">
        <ele>59</ele>
        <time>2020-09-13T08:47:12.000Z</time>
      </trkpt>
      <trkpt lat="47.30448" lon="-1.36277">
        <ele>58</ele>
        <time>2020-09-13T08:47:14.000Z</time>
      </trkpt>
      <trkpt lat="47.3044" lon="-1.36292">
        <ele>58</ele>
        <time>2020-09-13T08:47:16.000Z</time>
      </trkpt>
      <trkpt lat="47.30432" lon="-1.36307">
        <ele>58</ele>
        <time>2020-09-13T08:47:18.000Z</time>
      </trkpt>
      <trkpt lat="47.30424" lon="-1.36324">
        <ele>58</ele>
        <time>2020-09-13T08:47:20.000Z</time>
      </trkpt>
      <trkpt lat="47.30416" lon="-1.3634">
        <ele>58</ele>
        <time>2020-09-13T08:47:22.000Z</time>
      </trkpt>
      <trkpt lat="47.30409" lon="-1.36356">
        <ele>58</ele>
        <time>2020-09-13T08:47:24.000Z</time>
      </trkpt>
      <trkpt lat="47.30402" lon="-1.36373">
        <ele>58</ele>
        <time>2020-09-13T08:47:26.000Z</time>
      </trkpt>
      <trkpt lat="47.30394" lon="-1.36388">
        <ele>59</ele>
        <time>2020-09-13T08:47:28.000Z</time>
      </trkpt>
      <trkpt lat="47.30386" lon="-1.36405">
        <ele>59</ele>
        <time>2020-09-13T08:47:30.000Z</time>
      </trkpt>
      <trkpt lat="47.30378" lon="-1.36422">
        <ele>59</ele>
        <time>2020-09-13T08:47:32.000Z</time>
      </trkpt>
      <trkpt lat="47.3037" lon="-1.36438">
        <ele>58</ele>
        <time>2020-09-13T08:47:34.000Z</time>
      </trkpt>
      <trkpt lat="47.30362" lon="-1.36455">
        <ele>58</ele>
        <time>2020-09-13T08:47:36.000Z</time>
      </trkpt>
      <trkpt lat="47.30354" lon="-1.36472">
        <ele>58</ele>
        <time>2020-09-13T08:47:38.000Z</time>
      </trkpt>
      <trkpt lat="47.30347" lon="-1.36488">
        <ele>58</ele>
        <time>2020-09-13T08:47:40.000Z</time>
      </trkpt>
      <trkpt lat="47.30339" lon="-1.36505">
        <ele>57</ele>
        <time>2020-09-13T08:47:42.000Z</time>
      </trkpt>
      <trkpt lat="47.3033" lon="-1.36521">
        <ele>57</ele>
        <time>2020-09-13T08:47:44.000Z</time>
      </trkpt>
      <trkpt lat="47.30322" lon="-1.36538">
        <ele>57</ele>
        <time>2020-09-13T08:47:46.000Z</time>
      </trkpt>
      <trkpt lat="47.30314" lon="-1.36554">
        <ele>57</ele>
        <time>2020-09-13T08:47:48.000Z</time>
      </trkpt>
      <trkpt lat="47.30306" lon="-1.36572">
        <ele>57</ele>
        <time>2020-09-13T08:47:50.000Z</time>
      </trkpt>
      <trkpt lat="47.30297" lon="-1.36588">
        <ele>57</ele>
        <time>2020-09-13T08:47:52.000Z</time>
      </trkpt>
      <trkpt lat="47.30289" lon="-1.36604">
        <ele>57</ele>
        <time>2020-09-13T08:47:54.000Z</time>
      </trkpt>
      <trkpt lat="47.30282" lon="-1.3662">
        <ele>57</ele>
        <time>2020-09-13T08:47:56.000Z</time>
      </trkpt>
      <trkpt lat="47.30274" lon="-1.36637">
        <ele>57</ele>
        <time>2020-09-13T08:47:58.000Z</time>
      </trkpt>
      <trkpt lat="47.30266" lon="-1.36652">
        <ele>57</ele>
        <time>2020-09-13T08:48:00.000Z</time>
      </trkpt>
      <trkpt lat="47.30258" lon="-1.36669">
        <ele>57</ele>
        <time>2020-09-13T08:48:02.000Z</time>
      </trkpt>
      <trkpt lat="47.3025" lon="-1.36685">
        <ele>57</ele>
        <time>2020-09-13T08:48:04.000Z</time>
      </trkpt>
      <trkpt lat="47.30242" lon="-1.36701">
        <ele>57</ele>
        <time>2020-09-13T08:48:06.000Z</time>
      </trkpt>
      <trkpt lat="47.30234" lon="-1.36716">
        <ele>58</ele>
        <time>2020-09-13T08:48:08.000Z</time>
      </trkpt>
      <trkpt lat="47.30227" lon="-1.36731">
        <ele>58</ele>
        <time>2020-09-13T08:48:10.000Z</time>
      </trkpt>
      <trkpt lat="47.3022" lon="-1.36747">
        <ele>58</ele>
        <time>2020-09-13T08:48:12.000Z</time>
      </trkpt>
      <trkpt lat="47.30213" lon="-1.36764">
        <ele>58</ele>
        <time>2020-09-13T08:48:14.000Z</time>
      </trkpt>
      <trkpt lat="47.30205" lon="-1.3678">
        <ele>58</ele>
        <time>2020-09-13T08:48:16.000Z</time>
      </trkpt>
      <trkpt lat="47.30196" lon="-1.36796">
        <ele>58</ele>
        <time>2020-09-13T08:48:18.000Z</time>
      </trkpt>
      <trkpt lat="47.30189" lon="-1.36813">
        <ele>58</ele>
        <time>2020-09-13T08:48:20.000Z</time>
      </trkpt>
      <trkpt lat="47.30181" lon="-1.3683">
        <ele>58</ele>
        <time>2020-09-13T08:48:22.000Z</time>
      </trkpt>
      <trkpt lat="47.30173" lon="-1.36846">
        <ele>59</ele>
        <time>2020-09-13T08:48:24.000Z</time>
      </trkpt>
      <trkpt lat="47.30165" lon="-1.36863">
        <ele>59</ele>
        <time>2020-09-13T08:48:26.000Z</time>
      </trkpt>
      <trkpt lat="47.30157" lon="-1.3688">
        <ele>59</ele>
        <time>2020-09-13T08:48:28.000Z</time>
      </trkpt>
      <trkpt lat="47.30148" lon="-1.36896">
        <ele>59</ele>
        <time>2020-09-13T08:48:30.000Z</time>
      </trkpt>
      <trkpt lat="47.30139" lon="-1.36913">
        <ele>59</ele>
        <time>2020-09-13T08:48:32.000Z</time>
      </trkpt>
      <trkpt lat="47.30131" lon="-1.36929">
        <ele>58</ele>
        <time>2020-09-13T08:48:34.000Z</time>
      </trkpt>
      <trkpt lat="47.30123" lon="-1.36944">
        <ele>58</ele>
        <time>2020-09-13T08:48:36.000Z</time>
      </trkpt>
      <trkpt lat="47.30117" lon="-1.3696">
        <ele>58</ele>
        <time>2020-09-13T08:48:38.000Z</time>
      </trkpt>
      <trkpt lat="47.30111" lon="-1.36977">
        <ele>58</ele>
        <time>2020-09-13T08:48:40.000Z</time>
      </trkpt>
      <trkpt lat="47.30104" lon="-1.36991">
        <ele>58</ele>
        <time>2020-09-13T08:48:42.000Z</time>
      </trkpt>
      <trkpt lat="47.30096" lon="-1.37007">
        <ele>58</ele>
        <time>2020-09-13T08:48:44.000Z</time>
      </trkpt>
      <trkpt lat="47.30088" lon="-1.37023">
        <ele>58</ele>
        <time>2020-09-13T08:48:46.000Z</time>
      </trkpt>
      <trkpt lat="47.3008" lon="-1.37038">
        <ele>58</ele>
        <time>2020-09-13T08:48:48.000Z</time>
      </trkpt>
      <trkpt lat="47.30071" lon="-1.37054">
        <ele>59</ele>
        <time>2020-09-13T08:48:50.000Z</time>
      </trkpt>
      <trkpt lat="47.30062" lon="-1.37068">
        <ele>59</ele>
        <time>2020-09-13T08:48:52.000Z</time>
      </trkpt>
      <trkpt lat="47.30054" lon="-1.37084">
        <ele>59</ele>
        <time>2020-09-13T08:48:54.000Z</time>
      </trkpt>
      <trkpt lat="47.30045" lon="-1.37098">
        <ele>59</ele>
        <time>2020-09-13T08:48:56.000Z</time>
      </trkpt>
      <trkpt lat="47.30036" lon="-1.37112">
        <ele>59</ele>
        <time>2020-09-13T08:48:58.000Z</time>
      </trkpt>
      <trkpt lat="47.30028" lon="-1.37126">
        <ele>59</ele>
        <time>2020-09-13T08:49:00.000Z</time>
      </trkpt>
      <trkpt lat="47.30019" lon="-1.3714">
        <ele>60</ele>
        <time>2020-09-13T08:49:02.000Z</time>
      </trkpt>
      <trkpt lat="47.30009" lon="-1.37154">
        <ele>60</ele>
        <time>2020-09-13T08:49:04.000Z</time>
      </trkpt>
      <trkpt lat="47.3" lon="-1.37167">
        <ele>60</ele>
        <time>2020-09-13T08:49:06.000Z</time>
      </trkpt>
      <trkpt lat="47.29991" lon="-1.37181">
        <ele>60</ele>
        <time>2020-09-13T08:49:08.000Z</time>
      </trkpt>
      <trkpt lat="47.29982" lon="-1.37195">
        <ele>60</ele>
        <time>2020-09-13T08:49:10.000Z</time>
      </trkpt>
      <trkpt lat="47.29973" lon="-1.37209">
        <ele>60</ele>
        <time>2020-09-13T08:49:12.000Z</time>
      </trkpt>
      <trkpt lat="47.29964" lon="-1.37222">
        <ele>60</ele>
        <time>2020-09-13T08:49:14.000Z</time>
      </trkpt>
      <trkpt lat="47.29956" lon="-1.37236">
        <ele>60</ele>
        <time>2020-09-13T08:49:16.000Z</time>
      </trkpt>
      <trkpt lat="47.29943" lon="-1.37257">
        <ele>60</ele>
        <time>2020-09-13T08:49:19.000Z</time>
      </trkpt>
      <trkpt lat="47.29928" lon="-1.37279">
        <ele>59</ele>
        <time>2020-09-13T08:49:22.000Z</time>
      </trkpt>
      <trkpt lat="47.29919" lon="-1.37294">
        <ele>59</ele>
        <time>2020-09-13T08:49:24.000Z</time>
      </trkpt>
      <trkpt lat="47.2991" lon="-1.37308">
        <ele>59</ele>
        <time>2020-09-13T08:49:26.000Z</time>
      </trkpt>
      <trkpt lat="47.29901" lon="-1.37323">
        <ele>59</ele>
        <time>2020-09-13T08:49:28.000Z</time>
      </trkpt>
      <trkpt lat="47.29892" lon="-1.37338">
        <ele>59</ele>
        <time>2020-09-13T08:49:30.000Z</time>
      </trkpt>
      <trkpt lat="47.29882" lon="-1.37352">
        <ele>59</ele>
        <time>2020-09-13T08:49:32.000Z</time>
      </trkpt>
      <trkpt lat="47.29872" lon="-1.37367">
        <ele>59</ele>
        <time>2020-09-13T08:49:34.000Z</time>
      </trkpt>
      <trkpt lat="47.29864" lon="-1.37381">
        <ele>60</ele>
        <time>2020-09-13T08:49:36.000Z</time>
      </trkpt>
      <trkpt lat="47.29854" lon="-1.37395">
        <ele>59</ele>
        <time>2020-09-13T08:49:38.000Z</time>
      </trkpt>
      <trkpt lat="47.29845" lon="-1.3741">
        <ele>59</ele>
        <time>2020-09-13T08:49:40.000Z</time>
      </trkpt>
      <trkpt lat="47.29836" lon="-1.37424">
        <ele>59</ele>
        <time>2020-09-13T08:49:42.000Z</time>
      </trkpt>
      <trkpt lat="47.29827" lon="-1.37438">
        <ele>59</ele>
        <time>2020-09-13T08:49:44.000Z</time>
      </trkpt>
      <trkpt lat="47.29818" lon="-1.37452">
        <ele>59</ele>
        <time>2020-09-13T08:49:46.000Z</time>
      </trkpt>
      <trkpt lat="47.29809" lon="-1.37466">
        <ele>59</ele>
        <time>2020-09-13T08:49:48.000Z</time>
      </trkpt>
      <trkpt lat="47.29796" lon="-1.37488">
        <ele>58</ele>
        <time>2020-09-13T08:49:51.000Z</time>
      </trkpt>
      <trkpt lat="47.29787" lon="-1.37504">
        <ele>58</ele>
        <time>2020-09-13T08:49:53.000Z</time>
      </trkpt>
      <trkpt lat="47.29778" lon="-1.37518">
        <ele>59</ele>
        <time>2020-09-13T08:49:55.000Z</time>
      </trkpt>
      <trkpt lat="47.2977" lon="-1.37533">
        <ele>59</ele>
        <time>2020-09-13T08:49:57.000Z</time>
      </trkpt>
      <trkpt lat="47.29762" lon="-1.37549">
        <ele>59</ele>
        <time>2020-09-13T08:49:59.000Z</time>
      </trkpt>
      <trkpt lat="47.2975" lon="-1.37572">
        <ele>60</ele>
        <time>2020-09-13T08:50:02.000Z</time>
      </trkpt>
      <trkpt lat="47.29743" lon="-1.37588">
        <ele>60</ele>
        <time>2020-09-13T08:50:04.000Z</time>
      </trkpt>
      <trkpt lat="47.29735" lon="-1.37603">
        <ele>60</ele>
        <time>2020-09-13T08:50:06.000Z</time>
      </trkpt>
      <trkpt lat="47.29727" lon="-1.37619">
        <ele>60</ele>
        <time>2020-09-13T08:50:08.000Z</time>
      </trkpt>
      <trkpt lat="47.29719" lon="-1.37634">
        <ele>60</ele>
        <time>2020-09-13T08:50:10.000Z</time>
      </trkpt>
      <trkpt lat="47.29711" lon="-1.37649">
        <ele>60</ele>
        <time>2020-09-13T08:50:12.000Z</time>
      </trkpt>
      <trkpt lat="47.29703" lon="-1.37665">
        <ele>60</ele>
        <time>2020-09-13T08:50:14.000Z</time>
      </trkpt>
      <trkpt lat="47.29696" lon="-1.3768">
        <ele>59</ele>
        <time>2020-09-13T08:50:16.000Z</time>
      </trkpt>
      <trkpt lat="47.29688" lon="-1.37694">
        <ele>59</ele>
        <time>2020-09-13T08:50:18.000Z</time>
      </trkpt>
      <trkpt lat="47.29677" lon="-1.37717">
        <ele>59</ele>
        <time>2020-09-13T08:50:21.000Z</time>
      </trkpt>
      <trkpt lat="47.29669" lon="-1.37731">
        <ele>59</ele>
        <time>2020-09-13T08:50:23.000Z</time>
      </trkpt>
      <trkpt lat="47.29661" lon="-1.37746">
        <ele>59</ele>
        <time>2020-09-13T08:50:25.000Z</time>
      </trkpt>
      <trkpt lat="47.29653" lon="-1.37761">
        <ele>59</ele>
        <time>2020-09-13T08:50:27.000Z</time>
      </trkpt>
      <trkpt lat="47.29646" lon="-1.37777">
        <ele>59</ele>
        <time>2020-09-13T08:50:29.000Z</time>
      </trkpt>
      <trkpt lat="47.29638" lon="-1.37791">
        <ele>60</ele>
        <time>2020-09-13T08:50:31.000Z</time>
      </trkpt>
      <trkpt lat="47.29629" lon="-1.37804">
        <ele>60</ele>
        <time>2020-09-13T08:50:33.000Z</time>
      </trkpt>
      <trkpt lat="47.29623" lon="-1.3782">
        <ele>60</ele>
        <time>2020-09-13T08:50:35.000Z</time>
      </trkpt>
      <trkpt lat="47.29617" lon="-1.37836">
        <ele>60</ele>
        <time>2020-09-13T08:50:37.000Z</time>
      </trkpt>
      <trkpt lat="47.29607" lon="-1.37851">
        <ele>59</ele>
        <time>2020-09-13T08:50:39.000Z</time>
      </trkpt>
      <trkpt lat="47.29599" lon="-1.37867">
        <ele>59</ele>
        <time>2020-09-13T08:50:41.000Z</time>
      </trkpt>
      <trkpt lat="47.29591" lon="-1.37883">
        <ele>59</ele>
        <time>2020-09-13T08:50:43.000Z</time>
      </trkpt>
      <trkpt lat="47.29584" lon="-1.37899">
        <ele>60</ele>
        <time>2020-09-13T08:50:45.000Z</time>
      </trkpt>
      <trkpt lat="47.29577" lon="-1.37915">
        <ele>60</ele>
        <time>2020-09-13T08:50:47.000Z</time>
      </trkpt>
      <trkpt lat="47.29566" lon="-1.37941">
        <ele>60</ele>
        <time>2020-09-13T08:50:50.000Z</time>
      </trkpt>
      <trkpt lat="47.2956" lon="-1.37957">
        <ele>59</ele>
        <time>2020-09-13T08:50:52.000Z</time>
      </trkpt>
      <trkpt lat="47.29553" lon="-1.37974">
        <ele>59</ele>
        <time>2020-09-13T08:50:54.000Z</time>
      </trkpt>
      <trkpt lat="47.29547" lon="-1.37992">
        <ele>59</ele>
        <time>2020-09-13T08:50:56.000Z</time>
      </trkpt>
      <trkpt lat="47.29541" lon="-1.38009">
        <ele>59</ele>
        <time>2020-09-13T08:50:58.000Z</time>
      </trkpt>
      <trkpt lat="47.29536" lon="-1.38026">
        <ele>60</ele>
        <time>2020-09-13T08:51:00.000Z</time>
      </trkpt>
      <trkpt lat="47.2953" lon="-1.38042">
        <ele>60</ele>
        <time>2020-09-13T08:51:02.000Z</time>
      </trkpt>
      <trkpt lat="47.29524" lon="-1.38059">
        <ele>61</ele>
        <time>2020-09-13T08:51:04.000Z</time>
      </trkpt>
      <trkpt lat="47.29518" lon="-1.38077">
        <ele>61</ele>
        <time>2020-09-13T08:51:06.000Z</time>
      </trkpt>
      <trkpt lat="47.29513" lon="-1.38094">
        <ele>61</ele>
        <time>2020-09-13T08:51:08.000Z</time>
      </trkpt>
      <trkpt lat="47.29506" lon="-1.38121">
        <ele>61</ele>
        <time>2020-09-13T08:51:11.000Z</time>
      </trkpt>
      <trkpt lat="47.29501" lon="-1.38138">
        <ele>61</ele>
        <time>2020-09-13T08:51:13.000Z</time>
      </trkpt>
      <trkpt lat="47.29496" lon="-1.38156">
        <ele>61</ele>
        <time>2020-09-13T08:51:15.000Z</time>
      </trkpt>
      <trkpt lat="47.29492" lon="-1.38174">
        <ele>60</ele>
        <time>2020-09-13T08:51:17.000Z</time>
      </trkpt>
      <trkpt lat="47.29487" lon="-1.38191">
        <ele>60</ele>
        <time>2020-09-13T08:51:19.000Z</time>
      </trkpt>
      <trkpt lat="47.29482" lon="-1.38209">
        <ele>60</ele>
        <time>2020-09-13T08:51:21.000Z</time>
      </trkpt>
      <trkpt lat="47.29477" lon="-1.38226">
        <ele>61</ele>
        <time>2020-09-13T08:51:23.000Z</time>
      </trkpt>
      <trkpt lat="47.29472" lon="-1.38243">
        <ele>60</ele>
        <time>2020-09-13T08:51:25.000Z</time>
      </trkpt>
      <trkpt lat="47.29467" lon="-1.38262">
        <ele>60</ele>
        <time>2020-09-13T08:51:27.000Z</time>
      </trkpt>
      <trkpt lat="47.29462" lon="-1.3828">
        <ele>60</ele>
        <time>2020-09-13T08:51:29.000Z</time>
      </trkpt>
      <trkpt lat="47.29458" lon="-1.38298">
        <ele>61</ele>
        <time>2020-09-13T08:51:31.000Z</time>
      </trkpt>
      <trkpt lat="47.29454" lon="-1.38314">
        <ele>62</ele>
        <time>2020-09-13T08:51:33.000Z</time>
      </trkpt>
      <trkpt lat="47.29448" lon="-1.38327">
        <ele>64</ele>
        <time>2020-09-13T08:51:35.000Z</time>
      </trkpt>
      <trkpt lat="47.29442" lon="-1.38342">
        <ele>64</ele>
        <time>2020-09-13T08:51:37.000Z</time>
      </trkpt>
      <trkpt lat="47.29439" lon="-1.38359">
        <ele>63</ele>
        <time>2020-09-13T08:51:39.000Z</time>
      </trkpt>
      <trkpt lat="47.29435" lon="-1.38378">
        <ele>62</ele>
        <time>2020-09-13T08:51:41.000Z</time>
      </trkpt>
      <trkpt lat="47.2943" lon="-1.38397">
        <ele>61</ele>
        <time>2020-09-13T08:51:43.000Z</time>
      </trkpt>
      <trkpt lat="47.29425" lon="-1.38416">
        <ele>61</ele>
        <time>2020-09-13T08:51:45.000Z</time>
      </trkpt>
      <trkpt lat="47.29419" lon="-1.38437">
        <ele>60</ele>
        <time>2020-09-13T08:51:47.000Z</time>
      </trkpt>
      <trkpt lat="47.29414" lon="-1.38456">
        <ele>59</ele>
        <time>2020-09-13T08:51:49.000Z</time>
      </trkpt>
      <trkpt lat="47.29409" lon="-1.38474">
        <ele>59</ele>
        <time>2020-09-13T08:51:51.000Z</time>
      </trkpt>
      <trkpt lat="47.29404" lon="-1.38492">
        <ele>59</ele>
        <time>2020-09-13T08:51:53.000Z</time>
      </trkpt>
      <trkpt lat="47.29399" lon="-1.38509">
        <ele>58</ele>
        <time>2020-09-13T08:51:55.000Z</time>
      </trkpt>
      <trkpt lat="47.29396" lon="-1.38521">
        <ele>59</ele>
        <time>2020-09-13T08:51:57.000Z</time>
      </trkpt>
      <trkpt lat="47.29392" lon="-1.38538">
        <ele>59</ele>
        <time>2020-09-13T08:52:00.000Z</time>
      </trkpt>
      <trkpt lat="47.29387" lon="-1.38556">
        <ele>60</ele>
        <time>2020-09-13T08:52:04.000Z</time>
      </trkpt>
      <trkpt lat="47.29383" lon="-1.38572">
        <ele>59</ele>
        <time>2020-09-13T08:52:06.000Z</time>
      </trkpt>
      <trkpt lat="47.29377" lon="-1.38591">
        <ele>59</ele>
        <time>2020-09-13T08:52:08.000Z</time>
      </trkpt>
      <trkpt lat="47.29372" lon="-1.38613">
        <ele>59</ele>
        <time>2020-09-13T08:52:10.000Z</time>
      </trkpt>
      <trkpt lat="47.29366" lon="-1.38634">
        <ele>59</ele>
        <time>2020-09-13T08:52:12.000Z</time>
      </trkpt>
      <trkpt lat="47.2936" lon="-1.38655">
        <ele>59</ele>
        <time>2020-09-13T08:52:14.000Z</time>
      </trkpt>
      <trkpt lat="47.29354" lon="-1.38675">
        <ele>59</ele>
        <time>2020-09-13T08:52:16.000Z</time>
      </trkpt>
      <trkpt lat="47.29348" lon="-1.38695">
        <ele>59</ele>
        <time>2020-09-13T08:52:18.000Z</time>
      </trkpt>
      <trkpt lat="47.2934" lon="-1.38726">
        <ele>59</ele>
        <time>2020-09-13T08:52:21.000Z</time>
      </trkpt>
      <trkpt lat="47.29335" lon="-1.38746">
        <ele>59</ele>
        <time>2020-09-13T08:52:23.000Z</time>
      </trkpt>
      <trkpt lat="47.29329" lon="-1.38767">
        <ele>59</ele>
        <time>2020-09-13T08:52:25.000Z</time>
      </trkpt>
      <trkpt lat="47.29323" lon="-1.38787">
        <ele>59</ele>
        <time>2020-09-13T08:52:27.000Z</time>
      </trkpt>
      <trkpt lat="47.29317" lon="-1.38807">
        <ele>59</ele>
        <time>2020-09-13T08:52:29.000Z</time>
      </trkpt>
      <trkpt lat="47.29311" lon="-1.38827">
        <ele>59</ele>
        <time>2020-09-13T08:52:31.000Z</time>
      </trkpt>
      <trkpt lat="47.29305" lon="-1.38848">
        <ele>59</ele>
        <time>2020-09-13T08:52:33.000Z</time>
      </trkpt>
      <trkpt lat="47.293" lon="-1.38867">
        <ele>59</ele>
        <time>2020-09-13T08:52:35.000Z</time>
      </trkpt>
      <trkpt lat="47.29295" lon="-1.38886">
        <ele>59</ele>
        <time>2020-09-13T08:52:37.000Z</time>
      </trkpt>
      <trkpt lat="47.29289" lon="-1.38905">
        <ele>60</ele>
        <time>2020-09-13T08:52:39.000Z</time>
      </trkpt>
      <trkpt lat="47.29284" lon="-1.38926">
        <ele>60</ele>
        <time>2020-09-13T08:52:41.000Z</time>
      </trkpt>
      <trkpt lat="47.29275" lon="-1.38955">
        <ele>60</ele>
        <time>2020-09-13T08:52:44.000Z</time>
      </trkpt>
      <trkpt lat="47.29269" lon="-1.38976">
        <ele>60</ele>
        <time>2020-09-13T08:52:46.000Z</time>
      </trkpt>
      <trkpt lat="47.29264" lon="-1.38997">
        <ele>60</ele>
        <time>2020-09-13T08:52:48.000Z</time>
      </trkpt>
      <trkpt lat="47.29259" lon="-1.39017">
        <ele>60</ele>
        <time>2020-09-13T08:52:50.000Z</time>
      </trkpt>
      <trkpt lat="47.29254" lon="-1.39037">
        <ele>60</ele>
        <time>2020-09-13T08:52:52.000Z</time>
      </trkpt>
      <trkpt lat="47.29249" lon="-1.39057">
        <ele>60</ele>
        <time>2020-09-13T08:52:54.000Z</time>
      </trkpt>
      <trkpt lat="47.29244" lon="-1.39077">
        <ele>60</ele>
        <time>2020-09-13T08:52:56.000Z</time>
      </trkpt>
      <trkpt lat="47.29237" lon="-1.39096">
        <ele>60</ele>
        <time>2020-09-13T08:52:58.000Z</time>
      </trkpt>
      <trkpt lat="47.29228" lon="-1.39114">
        <ele>60</ele>
        <time>2020-09-13T08:53:00.000Z</time>
      </trkpt>
      <trkpt lat="47.29218" lon="-1.39131">
        <ele>59</ele>
        <time>2020-09-13T08:53:02.000Z</time>
      </trkpt>
      <trkpt lat="47.29207" lon="-1.39147">
        <ele>59</ele>
        <time>2020-09-13T08:53:04.000Z</time>
      </trkpt>
      <trkpt lat="47.29196" lon="-1.39161">
        <ele>58</ele>
        <time>2020-09-13T08:53:06.000Z</time>
      </trkpt>
      <trkpt lat="47.29184" lon="-1.39176">
        <ele>58</ele>
        <time>2020-09-13T08:53:08.000Z</time>
      </trkpt>
      <trkpt lat="47.29172" lon="-1.39189">
        <ele>57</ele>
        <time>2020-09-13T08:53:10.000Z</time>
      </trkpt>
      <trkpt lat="47.29161" lon="-1.39203">
        <ele>57</ele>
        <time>2020-09-13T08:53:12.000Z</time>
      </trkpt>
      <trkpt lat="47.29149" lon="-1.39217">
        <ele>57</ele>
        <time>2020-09-13T08:53:14.000Z</time>
      </trkpt>
      <trkpt lat="47.29137" lon="-1.3923">
        <ele>57</ele>
        <time>2020-09-13T08:53:16.000Z</time>
      </trkpt>
      <trkpt lat="47.29127" lon="-1.39244">
        <ele>57</ele>
        <time>2020-09-13T08:53:18.000Z</time>
      </trkpt>
      <trkpt lat="47.29117" lon="-1.39258">
        <ele>56</ele>
        <time>2020-09-13T08:53:20.000Z</time>
      </trkpt>
      <trkpt lat="47.29108" lon="-1.39273">
        <ele>56</ele>
        <time>2020-09-13T08:53:22.000Z</time>
      </trkpt>
      <trkpt lat="47.291" lon="-1.39289">
        <ele>56</ele>
        <time>2020-09-13T08:53:24.000Z</time>
      </trkpt>
      <trkpt lat="47.29092" lon="-1.39306">
        <ele>57</ele>
        <time>2020-09-13T08:53:26.000Z</time>
      </trkpt>
      <trkpt lat="47.29082" lon="-1.39317">
        <ele>57</ele>
        <time>2020-09-13T08:53:28.000Z</time>
      </trkpt>
      <trkpt lat="47.2907" lon="-1.39321">
        <ele>57</ele>
        <time>2020-09-13T08:53:30.000Z</time>
      </trkpt>
      <trkpt lat="47.29058" lon="-1.39328">
        <ele>55</ele>
        <time>2020-09-13T08:53:32.000Z</time>
      </trkpt>
      <trkpt lat="47.29045" lon="-1.3934">
        <ele>55</ele>
        <time>2020-09-13T08:53:34.000Z</time>
      </trkpt>
      <trkpt lat="47.29032" lon="-1.39356">
        <ele>55</ele>
        <time>2020-09-13T08:53:36.000Z</time>
      </trkpt>
      <trkpt lat="47.29021" lon="-1.3937">
        <ele>55</ele>
        <time>2020-09-13T08:53:38.000Z</time>
      </trkpt>
      <trkpt lat="47.2901" lon="-1.39383">
        <ele>55</ele>
        <time>2020-09-13T08:53:40.000Z</time>
      </trkpt>
      <trkpt lat="47.28999" lon="-1.39397">
        <ele>55</ele>
        <time>2020-09-13T08:53:42.000Z</time>
      </trkpt>
      <trkpt lat="47.28987" lon="-1.3941">
        <ele>55</ele>
        <time>2020-09-13T08:53:44.000Z</time>
      </trkpt>
      <trkpt lat="47.28976" lon="-1.39423">
        <ele>56</ele>
        <time>2020-09-13T08:53:46.000Z</time>
      </trkpt>
      <trkpt lat="47.28964" lon="-1.39438">
        <ele>56</ele>
        <time>2020-09-13T08:53:48.000Z</time>
      </trkpt>
      <trkpt lat="47.28953" lon="-1.39451">
        <ele>56</ele>
        <time>2020-09-13T08:53:50.000Z</time>
      </trkpt>
      <trkpt lat="47.28942" lon="-1.39465">
        <ele>56</ele>
        <time>2020-09-13T08:53:52.000Z</time>
      </trkpt>
      <trkpt lat="47.28931" lon="-1.39479">
        <ele>55</ele>
        <time>2020-09-13T08:53:54.000Z</time>
      </trkpt>
      <trkpt lat="47.2892" lon="-1.39493">
        <ele>55</ele>
        <time>2020-09-13T08:53:56.000Z</time>
      </trkpt>
      <trkpt lat="47.28909" lon="-1.39506">
        <ele>55</ele>
        <time>2020-09-13T08:53:58.000Z</time>
      </trkpt>
      <trkpt lat="47.28898" lon="-1.39519">
        <ele>55</ele>
        <time>2020-09-13T08:54:00.000Z</time>
      </trkpt>
      <trkpt lat="47.28886" lon="-1.39531">
        <ele>54</ele>
        <time>2020-09-13T08:54:02.000Z</time>
      </trkpt>
      <trkpt lat="47.28875" lon="-1.39544">
        <ele>54</ele>
        <time>2020-09-13T08:54:04.000Z</time>
      </trkpt>
      <trkpt lat="47.28865" lon="-1.39557">
        <ele>54</ele>
        <time>2020-09-13T08:54:06.000Z</time>
      </trkpt>
      <trkpt lat="47.28855" lon="-1.3957">
        <ele>54</ele>
        <time>2020-09-13T08:54:08.000Z</time>
      </trkpt>
      <trkpt lat="47.28844" lon="-1.39583">
        <ele>54</ele>
        <time>2020-09-13T08:54:10.000Z</time>
      </trkpt>
      <trkpt lat="47.28833" lon="-1.39596">
        <ele>54</ele>
        <time>2020-09-13T08:54:12.000Z</time>
      </trkpt>
      <trkpt lat="47.28823" lon="-1.39608">
        <ele>54</ele>
        <time>2020-09-13T08:54:14.000Z</time>
      </trkpt>
      <trkpt lat="47.28813" lon="-1.3962">
        <ele>54</ele>
        <time>2020-09-13T08:54:16.000Z</time>
      </trkpt>
      <trkpt lat="47.28803" lon="-1.39633">
        <ele>54</ele>
        <time>2020-09-13T08:54:18.000Z</time>
      </trkpt>
      <trkpt lat="47.28792" lon="-1.39646">
        <ele>54</ele>
        <time>2020-09-13T08:54:20.000Z</time>
      </trkpt>
      <trkpt lat="47.28781" lon="-1.39659">
        <ele>54</ele>
        <time>2020-09-13T08:54:22.000Z</time>
      </trkpt>
      <trkpt lat="47.2877" lon="-1.39672">
        <ele>54</ele>
        <time>2020-09-13T08:54:24.000Z</time>
      </trkpt>
      <trkpt lat="47.28759" lon="-1.39685">
        <ele>54</ele>
        <time>2020-09-13T08:54:26.000Z</time>
      </trkpt>
      <trkpt lat="47.28748" lon="-1.39699">
        <ele>54</ele>
        <time>2020-09-13T08:54:28.000Z</time>
      </trkpt>
      <trkpt lat="47.28736" lon="-1.39712">
        <ele>54</ele>
        <time>2020-09-13T08:54:30.000Z</time>
      </trkpt>
      <trkpt lat="47.28726" lon="-1.39725">
        <ele>54</ele>
        <time>2020-09-13T08:54:32.000Z</time>
      </trkpt>
      <trkpt lat="47.28715" lon="-1.39738">
        <ele>54</ele>
        <time>2020-09-13T08:54:34.000Z</time>
      </trkpt>
      <trkpt lat="47.28705" lon="-1.39751">
        <ele>54</ele>
        <time>2020-09-13T08:54:36.000Z</time>
      </trkpt>
      <trkpt lat="47.28694" lon="-1.39763">
        <ele>54</ele>
        <time>2020-09-13T08:54:38.000Z</time>
      </trkpt>
      <trkpt lat="47.28683" lon="-1.39776">
        <ele>55</ele>
        <time>2020-09-13T08:54:40.000Z</time>
      </trkpt>
      <trkpt lat="47.28673" lon="-1.39789">
        <ele>55</ele>
        <time>2020-09-13T08:54:42.000Z</time>
      </trkpt>
      <trkpt lat="47.28662" lon="-1.39803">
        <ele>55</ele>
        <time>2020-09-13T08:54:44.000Z</time>
      </trkpt>
      <trkpt lat="47.28653" lon="-1.39818">
        <ele>56</ele>
        <time>2020-09-13T08:54:46.000Z</time>
      </trkpt>
      <trkpt lat="47.28643" lon="-1.39832">
        <ele>56</ele>
        <time>2020-09-13T08:54:48.000Z</time>
      </trkpt>
      <trkpt lat="47.28634" lon="-1.39847">
        <ele>56</ele>
        <time>2020-09-13T08:54:50.000Z</time>
      </trkpt>
      <trkpt lat="47.28624" lon="-1.39863">
        <ele>56</ele>
        <time>2020-09-13T08:54:52.000Z</time>
      </trkpt>
      <trkpt lat="47.28615" lon="-1.39878">
        <ele>56</ele>
        <time>2020-09-13T08:54:54.000Z</time>
      </trkpt>
      <trkpt lat="47.28606" lon="-1.39892">
        <ele>56</ele>
        <time>2020-09-13T08:54:56.000Z</time>
      </trkpt>
      <trkpt lat="47.28597" lon="-1.39907">
        <ele>56</ele>
        <time>2020-09-13T08:54:58.000Z</time>
      </trkpt>
      <trkpt lat="47.28588" lon="-1.39922">
        <ele>56</ele>
        <time>2020-09-13T08:55:00.000Z</time>
      </trkpt>
      <trkpt lat="47.28579" lon="-1.39936">
        <ele>56</ele>
        <time>2020-09-13T08:55:02.000Z</time>
      </trkpt>
      <trkpt lat="47.2857" lon="-1.39949">
        <ele>56</ele>
        <time>2020-09-13T08:55:04.000Z</time>
      </trkpt>
      <trkpt lat="47.2856" lon="-1.39963">
        <ele>57</ele>
        <time>2020-09-13T08:55:06.000Z</time>
      </trkpt>
      <trkpt lat="47.28551" lon="-1.39978">
        <ele>57</ele>
        <time>2020-09-13T08:55:08.000Z</time>
      </trkpt>
      <trkpt lat="47.2854" lon="-1.39991">
        <ele>57</ele>
        <time>2020-09-13T08:55:10.000Z</time>
      </trkpt>
      <trkpt lat="47.2853" lon="-1.40004">
        <ele>57</ele>
        <time>2020-09-13T08:55:12.000Z</time>
      </trkpt>
      <trkpt lat="47.2852" lon="-1.40018">
        <ele>57</ele>
        <time>2020-09-13T08:55:14.000Z</time>
      </trkpt>
      <trkpt lat="47.28511" lon="-1.40033">
        <ele>57</ele>
        <time>2020-09-13T08:55:16.000Z</time>
      </trkpt>
      <trkpt lat="47.28502" lon="-1.40049">
        <ele>57</ele>
        <time>2020-09-13T08:55:18.000Z</time>
      </trkpt>
      <trkpt lat="47.28494" lon="-1.40065">
        <ele>56</ele>
        <time>2020-09-13T08:55:20.000Z</time>
      </trkpt>
      <trkpt lat="47.28488" lon="-1.40083">
        <ele>57</ele>
        <time>2020-09-13T08:55:22.000Z</time>
      </trkpt>
      <trkpt lat="47.28481" lon="-1.401">
        <ele>58</ele>
        <time>2020-09-13T08:55:24.000Z</time>
      </trkpt>
      <trkpt lat="47.28473" lon="-1.40117">
        <ele>58</ele>
        <time>2020-09-13T08:55:26.000Z</time>
      </trkpt>
      <trkpt lat="47.28466" lon="-1.40135">
        <ele>57</ele>
        <time>2020-09-13T08:55:28.000Z</time>
      </trkpt>
      <trkpt lat="47.2846" lon="-1.40154">
        <ele>57</ele>
        <time>2020-09-13T08:55:30.000Z</time>
      </trkpt>
      <trkpt lat="47.28453" lon="-1.40172">
        <ele>58</ele>
        <time>2020-09-13T08:55:32.000Z</time>
      </trkpt>
      <trkpt lat="47.28446" lon="-1.4019">
        <ele>58</ele>
        <time>2020-09-13T08:55:34.000Z</time>
      </trkpt>
      <trkpt lat="47.28439" lon="-1.40207">
        <ele>58</ele>
        <time>2020-09-13T08:55:36.000Z</time>
      </trkpt>
      <trkpt lat="47.28431" lon="-1.40224">
        <ele>58</ele>
        <time>2020-09-13T08:55:38.000Z</time>
      </trkpt>
      <trkpt lat="47.28424" lon="-1.40242">
        <ele>59</ele>
        <time>2020-09-13T08:55:40.000Z</time>
      </trkpt>
      <trkpt lat="47.28417" lon="-1.40259">
        <ele>59</ele>
        <time>2020-09-13T08:55:42.000Z</time>
      </trkpt>
      <trkpt lat="47.2841" lon="-1.40276">
        <ele>58</ele>
        <time>2020-09-13T08:55:44.000Z</time>
      </trkpt>
      <trkpt lat="47.28402" lon="-1.40292">
        <ele>58</ele>
        <time>2020-09-13T08:55:46.000Z</time>
      </trkpt>
      <trkpt lat="47.28393" lon="-1.40308">
        <ele>57</ele>
        <time>2020-09-13T08:55:48.000Z</time>
      </trkpt>
      <trkpt lat="47.28384" lon="-1.40323">
        <ele>56</ele>
        <time>2020-09-13T08:55:50.000Z</time>
      </trkpt>
      <trkpt lat="47.28375" lon="-1.40336">
        <ele>56</ele>
        <time>2020-09-13T08:55:52.000Z</time>
      </trkpt>
      <trkpt lat="47.28366" lon="-1.40348">
        <ele>56</ele>
        <time>2020-09-13T08:55:54.000Z</time>
      </trkpt>
      <trkpt lat="47.28356" lon="-1.40361">
        <ele>56</ele>
        <time>2020-09-13T08:55:56.000Z</time>
      </trkpt>
      <trkpt lat="47.28347" lon="-1.40373">
        <ele>56</ele>
        <time>2020-09-13T08:55:58.000Z</time>
      </trkpt>
      <trkpt lat="47.28338" lon="-1.40385">
        <ele>56</ele>
        <time>2020-09-13T08:56:00.000Z</time>
      </trkpt>
      <trkpt lat="47.28329" lon="-1.40398">
        <ele>55</ele>
        <time>2020-09-13T08:56:02.000Z</time>
      </trkpt>
      <trkpt lat="47.28319" lon="-1.4041">
        <ele>55</ele>
        <time>2020-09-13T08:56:04.000Z</time>
      </trkpt>
      <trkpt lat="47.28309" lon="-1.40421">
        <ele>55</ele>
        <time>2020-09-13T08:56:06.000Z</time>
      </trkpt>
      <trkpt lat="47.28298" lon="-1.40433">
        <ele>54</ele>
        <time>2020-09-13T08:56:08.000Z</time>
      </trkpt>
      <trkpt lat="47.28288" lon="-1.40444">
        <ele>54</ele>
        <time>2020-09-13T08:56:10.000Z</time>
      </trkpt>
      <trkpt lat="47.28277" lon="-1.40453">
        <ele>54</ele>
        <time>2020-09-13T08:56:12.000Z</time>
      </trkpt>
      <trkpt lat="47.28266" lon="-1.40462">
        <ele>54</ele>
        <time>2020-09-13T08:56:14.000Z</time>
      </trkpt>
      <trkpt lat="47.28254" lon="-1.40472">
        <ele>54</ele>
        <time>2020-09-13T08:56:16.000Z</time>
      </trkpt>
      <trkpt lat="47.28242" lon="-1.40484">
        <ele>53</ele>
        <time>2020-09-13T08:56:18.000Z</time>
      </trkpt>
      <trkpt lat="47.28229" lon="-1.40498">
        <ele>53</ele>
        <time>2020-09-13T08:56:20.000Z</time>
      </trkpt>
      <trkpt lat="47.28216" lon="-1.40511">
        <ele>54</ele>
        <time>2020-09-13T08:56:22.000Z</time>
      </trkpt>
      <trkpt lat="47.28203" lon="-1.40525">
        <ele>54</ele>
        <time>2020-09-13T08:56:24.000Z</time>
      </trkpt>
      <trkpt lat="47.2819" lon="-1.40539">
        <ele>54</ele>
        <time>2020-09-13T08:56:26.000Z</time>
      </trkpt>
      <trkpt lat="47.28177" lon="-1.40551">
        <ele>54</ele>
        <time>2020-09-13T08:56:28.000Z</time>
      </trkpt>
      <trkpt lat="47.28164" lon="-1.40564">
        <ele>54</ele>
        <time>2020-09-13T08:56:30.000Z</time>
      </trkpt>
      <trkpt lat="47.28151" lon="-1.40576">
        <ele>54</ele>
        <time>2020-09-13T08:56:32.000Z</time>
      </trkpt>
      <trkpt lat="47.28138" lon="-1.40588">
        <ele>54</ele>
        <time>2020-09-13T08:56:34.000Z</time>
      </trkpt>
      <trkpt lat="47.28126" lon="-1.406">
        <ele>54</ele>
        <time>2020-09-13T08:56:36.000Z</time>
      </trkpt>
      <trkpt lat="47.28114" lon="-1.40612">
        <ele>53</ele>
        <time>2020-09-13T08:56:38.000Z</time>
      </trkpt>
      <trkpt lat="47.28101" lon="-1.40624">
        <ele>53</ele>
        <time>2020-09-13T08:56:40.000Z</time>
      </trkpt>
      <trkpt lat="47.28088" lon="-1.40635">
        <ele>53</ele>
        <time>2020-09-13T08:56:42.000Z</time>
      </trkpt>
      <trkpt lat="47.28076" lon="-1.40647">
        <ele>53</ele>
        <time>2020-09-13T08:56:44.000Z</time>
      </trkpt>
      <trkpt lat="47.28064" lon="-1.40658">
        <ele>54</ele>
        <time>2020-09-13T08:56:46.000Z</time>
      </trkpt>
      <trkpt lat="47.28051" lon="-1.4067">
        <ele>53</ele>
        <time>2020-09-13T08:56:48.000Z</time>
      </trkpt>
      <trkpt lat="47.28039" lon="-1.40682">
        <ele>53</ele>
        <time>2020-09-13T08:56:50.000Z</time>
      </trkpt>
      <trkpt lat="47.28028" lon="-1.40694">
        <ele>53</ele>
        <time>2020-09-13T08:56:52.000Z</time>
      </trkpt>
      <trkpt lat="47.28015" lon="-1.40705">
        <ele>53</ele>
        <time>2020-09-13T08:56:54.000Z</time>
      </trkpt>
      <trkpt lat="47.28004" lon="-1.40718">
        <ele>53</ele>
        <time>2020-09-13T08:56:56.000Z</time>
      </trkpt>
      <trkpt lat="47.27992" lon="-1.4073">
        <ele>53</ele>
        <time>2020-09-13T08:56:58.000Z</time>
      </trkpt>
      <trkpt lat="47.2798" lon="-1.40743">
        <ele>53</ele>
        <time>2020-09-13T08:57:00.000Z</time>
      </trkpt>
      <trkpt lat="47.27967" lon="-1.40754">
        <ele>53</ele>
        <time>2020-09-13T08:57:02.000Z</time>
      </trkpt>
      <trkpt lat="47.27956" lon="-1.40765">
        <ele>54</ele>
        <time>2020-09-13T08:57:04.000Z</time>
      </trkpt>
      <trkpt lat="47.27944" lon="-1.40776">
        <ele>54</ele>
        <time>2020-09-13T08:57:06.000Z</time>
      </trkpt>
      <trkpt lat="47.27931" lon="-1.40787">
        <ele>54</ele>
        <time>2020-09-13T08:57:08.000Z</time>
      </trkpt>
      <trkpt lat="47.27919" lon="-1.40798">
        <ele>53</ele>
        <time>2020-09-13T08:57:10.000Z</time>
      </trkpt>
      <trkpt lat="47.27908" lon="-1.40809">
        <ele>54</ele>
        <time>2020-09-13T08:57:12.000Z</time>
      </trkpt>
      <trkpt lat="47.27897" lon="-1.4082">
        <ele>54</ele>
        <time>2020-09-13T08:57:14.000Z</time>
      </trkpt>
      <trkpt lat="47.27887" lon="-1.40832">
        <ele>54</ele>
        <time>2020-09-13T08:57:16.000Z</time>
      </trkpt>
      <trkpt lat="47.27878" lon="-1.40846">
        <ele>54</ele>
        <time>2020-09-13T08:57:18.000Z</time>
      </trkpt>
      <trkpt lat="47.27871" lon="-1.40866">
        <ele>54</ele>
        <time>2020-09-13T08:57:20.000Z</time>
      </trkpt>
      <trkpt lat="47.27862" lon="-1.40885">
        <ele>55</ele>
        <time>2020-09-13T08:57:22.000Z</time>
      </trkpt>
      <trkpt lat="47.27853" lon="-1.40904">
        <ele>55</ele>
        <time>2020-09-13T08:57:24.000Z</time>
      </trkpt>
      <trkpt lat="47.27845" lon="-1.40922">
        <ele>55</ele>
        <time>2020-09-13T08:57:26.000Z</time>
      </trkpt>
      <trkpt lat="47.27837" lon="-1.40939">
        <ele>55</ele>
        <time>2020-09-13T08:57:28.000Z</time>
      </trkpt>
      <trkpt lat="47.27828" lon="-1.40956">
        <ele>55</ele>
        <time>2020-09-13T08:57:30.000Z</time>
      </trkpt>
      <trkpt lat="47.27819" lon="-1.40972">
        <ele>55</ele>
        <time>2020-09-13T08:57:32.000Z</time>
      </trkpt>
      <trkpt lat="47.27809" lon="-1.40988">
        <ele>55</ele>
        <time>2020-09-13T08:57:34.000Z</time>
      </trkpt>
      <trkpt lat="47.27799" lon="-1.41002">
        <ele>55</ele>
        <time>2020-09-13T08:57:36.000Z</time>
      </trkpt>
      <trkpt lat="47.27789" lon="-1.41017">
        <ele>55</ele>
        <time>2020-09-13T08:57:38.000Z</time>
      </trkpt>
      <trkpt lat="47.2778" lon="-1.41032">
        <ele>54</ele>
        <time>2020-09-13T08:57:40.000Z</time>
      </trkpt>
      <trkpt lat="47.27774" lon="-1.4105">
        <ele>54</ele>
        <time>2020-09-13T08:57:42.000Z</time>
      </trkpt>
      <trkpt lat="47.27767" lon="-1.41068">
        <ele>54</ele>
        <time>2020-09-13T08:57:44.000Z</time>
      </trkpt>
      <trkpt lat="47.27756" lon="-1.4108">
        <ele>54</ele>
        <time>2020-09-13T08:57:46.000Z</time>
      </trkpt>
      <trkpt lat="47.27745" lon="-1.41092">
        <ele>54</ele>
        <time>2020-09-13T08:57:48.000Z</time>
      </trkpt>
      <trkpt lat="47.27734" lon="-1.41103">
        <ele>54</ele>
        <time>2020-09-13T08:57:50.000Z</time>
      </trkpt>
      <trkpt lat="47.27723" lon="-1.41115">
        <ele>54</ele>
        <time>2020-09-13T08:57:52.000Z</time>
      </trkpt>
      <trkpt lat="47.27711" lon="-1.41126">
        <ele>54</ele>
        <time>2020-09-13T08:57:54.000Z</time>
      </trkpt>
      <trkpt lat="47.277" lon="-1.41138">
        <ele>54</ele>
        <time>2020-09-13T08:57:56.000Z</time>
      </trkpt>
      <trkpt lat="47.27689" lon="-1.41149">
        <ele>54</ele>
        <time>2020-09-13T08:57:58.000Z</time>
      </trkpt>
      <trkpt lat="47.2768" lon="-1.41162">
        <ele>54</ele>
        <time>2020-09-13T08:58:00.000Z</time>
      </trkpt>
      <trkpt lat="47.27669" lon="-1.41174">
        <ele>54</ele>
        <time>2020-09-13T08:58:02.000Z</time>
      </trkpt>
      <trkpt lat="47.27659" lon="-1.41186">
        <ele>54</ele>
        <time>2020-09-13T08:58:04.000Z</time>
      </trkpt>
      <trkpt lat="47.27647" lon="-1.41197">
        <ele>54</ele>
        <time>2020-09-13T08:58:06.000Z</time>
      </trkpt>
      <trkpt lat="47.27636" lon="-1.41208">
        <ele>54</ele>
        <time>2020-09-13T08:58:08.000Z</time>
      </trkpt>
      <trkpt lat="47.27624" lon="-1.41219">
        <ele>54</ele>
        <time>2020-09-13T08:58:10.000Z</time>
      </trkpt>
      <trkpt lat="47.27612" lon="-1.41231">
        <ele>54</ele>
        <time>2020-09-13T08:58:12.000Z</time>
      </trkpt>
      <trkpt lat="47.27601" lon="-1.41243">
        <ele>54</ele>
        <time>2020-09-13T08:58:14.000Z</time>
      </trkpt>
      <trkpt lat="47.2759" lon="-1.41255">
        <ele>54</ele>
        <time>2020-09-13T08:58:16.000Z</time>
      </trkpt>
      <trkpt lat="47.27579" lon="-1.41267">
        <ele>54</ele>
        <time>2020-09-13T08:58:18.000Z</time>
      </trkpt>
      <trkpt lat="47.27568" lon="-1.4128">
        <ele>55</ele>
        <time>2020-09-13T08:58:20.000Z</time>
      </trkpt>
      <trkpt lat="47.27557" lon="-1.41294">
        <ele>55</ele>
        <time>2020-09-13T08:58:22.000Z</time>
      </trkpt>
      <trkpt lat="47.27547" lon="-1.41307">
        <ele>55</ele>
        <time>2020-09-13T08:58:24.000Z</time>
      </trkpt>
      <trkpt lat="47.27537" lon="-1.41321">
        <ele>55</ele>
        <time>2020-09-13T08:58:26.000Z</time>
      </trkpt>
      <trkpt lat="47.27527" lon="-1.41334">
        <ele>55</ele>
        <time>2020-09-13T08:58:28.000Z</time>
      </trkpt>
      <trkpt lat="47.27517" lon="-1.41348">
        <ele>55</ele>
        <time>2020-09-13T08:58:30.000Z</time>
      </trkpt>
      <trkpt lat="47.27507" lon="-1.41362">
        <ele>55</ele>
        <time>2020-09-13T08:58:32.000Z</time>
      </trkpt>
      <trkpt lat="47.27497" lon="-1.41375">
        <ele>54</ele>
        <time>2020-09-13T08:58:34.000Z</time>
      </trkpt>
      <trkpt lat="47.27488" lon="-1.41389">
        <ele>54</ele>
        <time>2020-09-13T08:58:36.000Z</time>
      </trkpt>
      <trkpt lat="47.2748" lon="-1.41404">
        <ele>54</ele>
        <time>2020-09-13T08:58:38.000Z</time>
      </trkpt>
      <trkpt lat="47.27474" lon="-1.41415">
        <ele>54</ele>
        <time>2020-09-13T08:58:40.000Z</time>
      </trkpt>
      <trkpt lat="47.27466" lon="-1.4143">
        <ele>54</ele>
        <time>2020-09-13T08:58:43.000Z</time>
      </trkpt>
      <trkpt lat="47.27458" lon="-1.41445">
        <ele>54</ele>
        <time>2020-09-13T08:58:45.000Z</time>
      </trkpt>
      <trkpt lat="47.27449" lon="-1.41462">
        <ele>54</ele>
        <time>2020-09-13T08:58:47.000Z</time>
      </trkpt>
      <trkpt lat="47.2744" lon="-1.4148">
        <ele>54</ele>
        <time>2020-09-13T08:58:49.000Z</time>
      </trkpt>
      <trkpt lat="47.2743" lon="-1.41498">
        <ele>54</ele>
        <time>2020-09-13T08:58:51.000Z</time>
      </trkpt>
      <trkpt lat="47.27419" lon="-1.41514">
        <ele>54</ele>
        <time>2020-09-13T08:58:53.000Z</time>
      </trkpt>
      <trkpt lat="47.27409" lon="-1.41531">
        <ele>54</ele>
        <time>2020-09-13T08:58:55.000Z</time>
      </trkpt>
      <trkpt lat="47.27399" lon="-1.41546">
        <ele>54</ele>
        <time>2020-09-13T08:58:57.000Z</time>
      </trkpt>
      <trkpt lat="47.27389" lon="-1.41562">
        <ele>55</ele>
        <time>2020-09-13T08:58:59.000Z</time>
      </trkpt>
      <trkpt lat="47.27379" lon="-1.41577">
        <ele>55</ele>
        <time>2020-09-13T08:59:01.000Z</time>
      </trkpt>
      <trkpt lat="47.2737" lon="-1.41591">
        <ele>55</ele>
        <time>2020-09-13T08:59:03.000Z</time>
      </trkpt>
      <trkpt lat="47.27361" lon="-1.41606">
        <ele>54</ele>
        <time>2020-09-13T08:59:05.000Z</time>
      </trkpt>
      <trkpt lat="47.27351" lon="-1.41621">
        <ele>54</ele>
        <time>2020-09-13T08:59:07.000Z</time>
      </trkpt>
      <trkpt lat="47.2734" lon="-1.41634">
        <ele>54</ele>
        <time>2020-09-13T08:59:09.000Z</time>
      </trkpt>
      <trkpt lat="47.2733" lon="-1.41649">
        <ele>54</ele>
        <time>2020-09-13T08:59:11.000Z</time>
      </trkpt>
      <trkpt lat="47.27322" lon="-1.41666">
        <ele>54</ele>
        <time>2020-09-13T08:59:13.000Z</time>
      </trkpt>
      <trkpt lat="47.27313" lon="-1.41684">
        <ele>55</ele>
        <time>2020-09-13T08:59:15.000Z</time>
      </trkpt>
      <trkpt lat="47.27304" lon="-1.417">
        <ele>54</ele>
        <time>2020-09-13T08:59:17.000Z</time>
      </trkpt>
      <trkpt lat="47.27296" lon="-1.41718">
        <ele>55</ele>
        <time>2020-09-13T08:59:19.000Z</time>
      </trkpt>
      <trkpt lat="47.27286" lon="-1.41737">
        <ele>55</ele>
        <time>2020-09-13T08:59:21.000Z</time>
      </trkpt>
      <trkpt lat="47.27277" lon="-1.41754">
        <ele>54</ele>
        <time>2020-09-13T08:59:23.000Z</time>
      </trkpt>
      <trkpt lat="47.27268" lon="-1.41771">
        <ele>54</ele>
        <time>2020-09-13T08:59:25.000Z</time>
      </trkpt>
      <trkpt lat="47.27259" lon="-1.41788">
        <ele>55</ele>
        <time>2020-09-13T08:59:27.000Z</time>
      </trkpt>
      <trkpt lat="47.27251" lon="-1.41804">
        <ele>55</ele>
        <time>2020-09-13T08:59:29.000Z</time>
      </trkpt>
      <trkpt lat="47.27242" lon="-1.4182">
        <ele>55</ele>
        <time>2020-09-13T08:59:31.000Z</time>
      </trkpt>
      <trkpt lat="47.27234" lon="-1.41836">
        <ele>55</ele>
        <time>2020-09-13T08:59:33.000Z</time>
      </trkpt>
      <trkpt lat="47.27225" lon="-1.41852">
        <ele>54</ele>
        <time>2020-09-13T08:59:35.000Z</time>
      </trkpt>
      <trkpt lat="47.27217" lon="-1.41868">
        <ele>54</ele>
        <time>2020-09-13T08:59:37.000Z</time>
      </trkpt>
      <trkpt lat="47.27208" lon="-1.41884">
        <ele>55</ele>
        <time>2020-09-13T08:59:39.000Z</time>
      </trkpt>
      <trkpt lat="47.27198" lon="-1.419">
        <ele>54</ele>
        <time>2020-09-13T08:59:41.000Z</time>
      </trkpt>
      <trkpt lat="47.27189" lon="-1.41916">
        <ele>54</ele>
        <time>2020-09-13T08:59:43.000Z</time>
      </trkpt>
      <trkpt lat="47.27179" lon="-1.41932">
        <ele>54</ele>
        <time>2020-09-13T08:59:45.000Z</time>
      </trkpt>
      <trkpt lat="47.2717" lon="-1.41948">
        <ele>54</ele>
        <time>2020-09-13T08:59:47.000Z</time>
      </trkpt>
      <trkpt lat="47.27161" lon="-1.41964">
        <ele>54</ele>
        <time>2020-09-13T08:59:49.000Z</time>
      </trkpt>
      <trkpt lat="47.27153" lon="-1.41981">
        <ele>54</ele>
        <time>2020-09-13T08:59:51.000Z</time>
      </trkpt>
      <trkpt lat="47.27144" lon="-1.41997">
        <ele>54</ele>
        <time>2020-09-13T08:59:53.000Z</time>
      </trkpt>
      <trkpt lat="47.27134" lon="-1.42013">
        <ele>54</ele>
        <time>2020-09-13T08:59:55.000Z</time>
      </trkpt>
      <trkpt lat="47.27125" lon="-1.42029">
        <ele>54</ele>
        <time>2020-09-13T08:59:57.000Z</time>
      </trkpt>
      <trkpt lat="47.27115" lon="-1.42044">
        <ele>55</ele>
        <time>2020-09-13T08:59:59.000Z</time>
      </trkpt>
      <trkpt lat="47.27105" lon="-1.42058">
        <ele>55</ele>
        <time>2020-09-13T09:00:01.000Z</time>
      </trkpt>
      <trkpt lat="47.27095" lon="-1.42073">
        <ele>54</ele>
        <time>2020-09-13T09:00:03.000Z</time>
      </trkpt>
      <trkpt lat="47.27086" lon="-1.42087">
        <ele>54</ele>
        <time>2020-09-13T09:00:05.000Z</time>
      </trkpt>
      <trkpt lat="47.27076" lon="-1.42103">
        <ele>54</ele>
        <time>2020-09-13T09:00:07.000Z</time>
      </trkpt>
      <trkpt lat="47.27068" lon="-1.42119">
        <ele>54</ele>
        <time>2020-09-13T09:00:09.000Z</time>
      </trkpt>
      <trkpt lat="47.2706" lon="-1.42134">
        <ele>54</ele>
        <time>2020-09-13T09:00:11.000Z</time>
      </trkpt>
      <trkpt lat="47.27051" lon="-1.42151">
        <ele>54</ele>
        <time>2020-09-13T09:00:13.000Z</time>
      </trkpt>
      <trkpt lat="47.27043" lon="-1.42166">
        <ele>54</ele>
        <time>2020-09-13T09:00:15.000Z</time>
      </trkpt>
      <trkpt lat="47.27034" lon="-1.42182">
        <ele>54</ele>
        <time>2020-09-13T09:00:17.000Z</time>
      </trkpt>
      <trkpt lat="47.27025" lon="-1.42198">
        <ele>55</ele>
        <time>2020-09-13T09:00:19.000Z</time>
      </trkpt>
      <trkpt lat="47.27017" lon="-1.42213">
        <ele>55</ele>
        <time>2020-09-13T09:00:21.000Z</time>
      </trkpt>
      <trkpt lat="47.27007" lon="-1.42229">
        <ele>55</ele>
        <time>2020-09-13T09:00:23.000Z</time>
      </trkpt>
      <trkpt lat="47.26998" lon="-1.42245">
        <ele>55</ele>
        <time>2020-09-13T09:00:25.000Z</time>
      </trkpt>
      <trkpt lat="47.26989" lon="-1.4226">
        <ele>55</ele>
        <time>2020-09-13T09:00:27.000Z</time>
      </trkpt>
      <trkpt lat="47.26981" lon="-1.42277">
        <ele>55</ele>
        <time>2020-09-13T09:00:29.000Z</time>
      </trkpt>
      <trkpt lat="47.26973" lon="-1.42293">
        <ele>55</ele>
        <time>2020-09-13T09:00:31.000Z</time>
      </trkpt>
      <trkpt lat="47.26964" lon="-1.4231">
        <ele>55</ele>
        <time>2020-09-13T09:00:33.000Z</time>
      </trkpt>
      <trkpt lat="47.26956" lon="-1.42326">
        <ele>55</ele>
        <time>2020-09-13T09:00:35.000Z</time>
      </trkpt>
      <trkpt lat="47.26947" lon="-1.42342">
        <ele>55</ele>
        <time>2020-09-13T09:00:37.000Z</time>
      </trkpt>
      <trkpt lat="47.26938" lon="-1.42358">
        <ele>54</ele>
        <time>2020-09-13T09:00:39.000Z</time>
      </trkpt>
      <trkpt lat="47.2693" lon="-1.42375">
        <ele>55</ele>
        <time>2020-09-13T09:00:41.000Z</time>
      </trkpt>
      <trkpt lat="47.26923" lon="-1.42392">
        <ele>55</ele>
        <time>2020-09-13T09:00:43.000Z</time>
      </trkpt>
      <trkpt lat="47.26915" lon="-1.42408">
        <ele>55</ele>
        <time>2020-09-13T09:00:45.000Z</time>
      </trkpt>
      <trkpt lat="47.26906" lon="-1.42424">
        <ele>55</ele>
        <time>2020-09-13T09:00:47.000Z</time>
      </trkpt>
      <trkpt lat="47.26897" lon="-1.42439">
        <ele>54</ele>
        <time>2020-09-13T09:00:49.000Z</time>
      </trkpt>
      <trkpt lat="47.26887" lon="-1.42455">
        <ele>54</ele>
        <time>2020-09-13T09:00:51.000Z</time>
      </trkpt>
      <trkpt lat="47.26878" lon="-1.42471">
        <ele>54</ele>
        <time>2020-09-13T09:00:53.000Z</time>
      </trkpt>
      <trkpt lat="47.26869" lon="-1.42488">
        <ele>54</ele>
        <time>2020-09-13T09:00:55.000Z</time>
      </trkpt>
      <trkpt lat="47.26861" lon="-1.42503">
        <ele>54</ele>
        <time>2020-09-13T09:00:57.000Z</time>
      </trkpt>
      <trkpt lat="47.26851" lon="-1.4252">
        <ele>53</ele>
        <time>2020-09-13T09:00:59.000Z</time>
      </trkpt>
      <trkpt lat="47.26842" lon="-1.42537">
        <ele>53</ele>
        <time>2020-09-13T09:01:01.000Z</time>
      </trkpt>
      <trkpt lat="47.26834" lon="-1.42554">
        <ele>53</ele>
        <time>2020-09-13T09:01:03.000Z</time>
      </trkpt>
      <trkpt lat="47.26826" lon="-1.42571">
        <ele>54</ele>
        <time>2020-09-13T09:01:05.000Z</time>
      </trkpt>
      <trkpt lat="47.26818" lon="-1.42588">
        <ele>53</ele>
        <time>2020-09-13T09:01:07.000Z</time>
      </trkpt>
      <trkpt lat="47.2681" lon="-1.42605">
        <ele>53</ele>
        <time>2020-09-13T09:01:09.000Z</time>
      </trkpt>
      <trkpt lat="47.26802" lon="-1.42623">
        <ele>53</ele>
        <time>2020-09-13T09:01:11.000Z</time>
      </trkpt>
      <trkpt lat="47.26796" lon="-1.42641">
        <ele>53</ele>
        <time>2020-09-13T09:01:13.000Z</time>
      </trkpt>
      <trkpt lat="47.2679" lon="-1.42659">
        <ele>53</ele>
        <time>2020-09-13T09:01:15.000Z</time>
      </trkpt>
      <trkpt lat="47.26784" lon="-1.42677">
        <ele>53</ele>
        <time>2020-09-13T09:01:17.000Z</time>
      </trkpt>
      <trkpt lat="47.26778" lon="-1.42694">
        <ele>54</ele>
        <time>2020-09-13T09:01:19.000Z</time>
      </trkpt>
      <trkpt lat="47.2677" lon="-1.42711">
        <ele>54</ele>
        <time>2020-09-13T09:01:21.000Z</time>
      </trkpt>
      <trkpt lat="47.26763" lon="-1.42728">
        <ele>54</ele>
        <time>2020-09-13T09:01:23.000Z</time>
      </trkpt>
      <trkpt lat="47.26756" lon="-1.42745">
        <ele>54</ele>
        <time>2020-09-13T09:01:25.000Z</time>
      </trkpt>
      <trkpt lat="47.26747" lon="-1.4276">
        <ele>54</ele>
        <time>2020-09-13T09:01:27.000Z</time>
      </trkpt>
      <trkpt lat="47.26739" lon="-1.42779">
        <ele>55</ele>
        <time>2020-09-13T09:01:29.000Z</time>
      </trkpt>
      <trkpt lat="47.26734" lon="-1.42797">
        <ele>55</ele>
        <time>2020-09-13T09:01:31.000Z</time>
      </trkpt>
      <trkpt lat="47.2673" lon="-1.42814">
        <ele>56</ele>
        <time>2020-09-13T09:01:33.000Z</time>
      </trkpt>
      <trkpt lat="47.26725" lon="-1.42833">
        <ele>56</ele>
        <time>2020-09-13T09:01:35.000Z</time>
      </trkpt>
      <trkpt lat="47.26718" lon="-1.4285">
        <ele>57</ele>
        <time>2020-09-13T09:01:37.000Z</time>
      </trkpt>
      <trkpt lat="47.2671" lon="-1.42868">
        <ele>57</ele>
        <time>2020-09-13T09:01:39.000Z</time>
      </trkpt>
      <trkpt lat="47.26702" lon="-1.42886">
        <ele>57</ele>
        <time>2020-09-13T09:01:41.000Z</time>
      </trkpt>
      <trkpt lat="47.26693" lon="-1.42902">
        <ele>56</ele>
        <time>2020-09-13T09:01:43.000Z</time>
      </trkpt>
      <trkpt lat="47.26684" lon="-1.42919">
        <ele>56</ele>
        <time>2020-09-13T09:01:45.000Z</time>
      </trkpt>
      <trkpt lat="47.26675" lon="-1.42935">
        <ele>55</ele>
        <time>2020-09-13T09:01:47.000Z</time>
      </trkpt>
      <trkpt lat="47.26666" lon="-1.42951">
        <ele>55</ele>
        <time>2020-09-13T09:01:49.000Z</time>
      </trkpt>
      <trkpt lat="47.26657" lon="-1.42967">
        <ele>54</ele>
        <time>2020-09-13T09:01:51.000Z</time>
      </trkpt>
      <trkpt lat="47.26648" lon="-1.42985">
        <ele>54</ele>
        <time>2020-09-13T09:01:53.000Z</time>
      </trkpt>
      <trkpt lat="47.26641" lon="-1.43004">
        <ele>54</ele>
        <time>2020-09-13T09:01:55.000Z</time>
      </trkpt>
      <trkpt lat="47.26633" lon="-1.43022">
        <ele>54</ele>
        <time>2020-09-13T09:01:57.000Z</time>
      </trkpt>
      <trkpt lat="47.26625" lon="-1.4304">
        <ele>54</ele>
        <time>2020-09-13T09:01:59.000Z</time>
      </trkpt>
      <trkpt lat="47.26615" lon="-1.43057">
        <ele>54</ele>
        <time>2020-09-13T09:02:01.000Z</time>
      </trkpt>
      <trkpt lat="47.26606" lon="-1.43074">
        <ele>54</ele>
        <time>2020-09-13T09:02:03.000Z</time>
      </trkpt>
      <trkpt lat="47.26597" lon="-1.4309">
        <ele>54</ele>
        <time>2020-09-13T09:02:05.000Z</time>
      </trkpt>
      <trkpt lat="47.26588" lon="-1.43106">
        <ele>54</ele>
        <time>2020-09-13T09:02:07.000Z</time>
      </trkpt>
      <trkpt lat="47.26578" lon="-1.4312">
        <ele>54</ele>
        <time>2020-09-13T09:02:09.000Z</time>
      </trkpt>
      <trkpt lat="47.26569" lon="-1.43134">
        <ele>53</ele>
        <time>2020-09-13T09:02:11.000Z</time>
      </trkpt>
      <trkpt lat="47.2656" lon="-1.4315">
        <ele>53</ele>
        <time>2020-09-13T09:02:13.000Z</time>
      </trkpt>
      <trkpt lat="47.26551" lon="-1.43165">
        <ele>53</ele>
        <time>2020-09-13T09:02:15.000Z</time>
      </trkpt>
      <trkpt lat="47.26541" lon="-1.43179">
        <ele>54</ele>
        <time>2020-09-13T09:02:17.000Z</time>
      </trkpt>
      <trkpt lat="47.26531" lon="-1.43194">
        <ele>54</ele>
        <time>2020-09-13T09:02:19.000Z</time>
      </trkpt>
      <trkpt lat="47.26521" lon="-1.43208">
        <ele>55</ele>
        <time>2020-09-13T09:02:21.000Z</time>
      </trkpt>
      <trkpt lat="47.26511" lon="-1.43221">
        <ele>55</ele>
        <time>2020-09-13T09:02:23.000Z</time>
      </trkpt>
      <trkpt lat="47.26502" lon="-1.43235">
        <ele>56</ele>
        <time>2020-09-13T09:02:25.000Z</time>
      </trkpt>
      <trkpt lat="47.26493" lon="-1.43247">
        <ele>57</ele>
        <time>2020-09-13T09:02:27.000Z</time>
      </trkpt>
      <trkpt lat="47.26484" lon="-1.43261">
        <ele>57</ele>
        <time>2020-09-13T09:02:29.000Z</time>
      </trkpt>
      <trkpt lat="47.26474" lon="-1.43275">
        <ele>58</ele>
        <time>2020-09-13T09:02:31.000Z</time>
      </trkpt>
      <trkpt lat="47.26465" lon="-1.43289">
        <ele>58</ele>
        <time>2020-09-13T09:02:33.000Z</time>
      </trkpt>
      <trkpt lat="47.26455" lon="-1.43303">
        <ele>57</ele>
        <time>2020-09-13T09:02:35.000Z</time>
      </trkpt>
      <trkpt lat="47.26444" lon="-1.43319">
        <ele>57</ele>
        <time>2020-09-13T09:02:37.000Z</time>
      </trkpt>
      <trkpt lat="47.26434" lon="-1.43334">
        <ele>58</ele>
        <time>2020-09-13T09:02:39.000Z</time>
      </trkpt>
      <trkpt lat="47.26423" lon="-1.4335">
        <ele>56</ele>
        <time>2020-09-13T09:02:41.000Z</time>
      </trkpt>
      <trkpt lat="47.26412" lon="-1.43363">
        <ele>55</ele>
        <time>2020-09-13T09:02:43.000Z</time>
      </trkpt>
      <trkpt lat="47.264" lon="-1.43377">
        <ele>55</ele>
        <time>2020-09-13T09:02:45.000Z</time>
      </trkpt>
      <trkpt lat="47.26389" lon="-1.43389">
        <ele>54</ele>
        <time>2020-09-13T09:02:47.000Z</time>
      </trkpt>
      <trkpt lat="47.26378" lon="-1.43401">
        <ele>54</ele>
        <time>2020-09-13T09:02:49.000Z</time>
      </trkpt>
      <trkpt lat="47.26367" lon="-1.43412">
        <ele>54</ele>
        <time>2020-09-13T09:02:51.000Z</time>
      </trkpt>
      <trkpt lat="47.26355" lon="-1.43424">
        <ele>54</ele>
        <time>2020-09-13T09:02:53.000Z</time>
      </trkpt>
      <trkpt lat="47.26345" lon="-1.43436">
        <ele>54</ele>
        <time>2020-09-13T09:02:55.000Z</time>
      </trkpt>
      <trkpt lat="47.26334" lon="-1.43447">
        <ele>53</ele>
        <time>2020-09-13T09:02:57.000Z</time>
      </trkpt>
      <trkpt lat="47.26323" lon="-1.43459">
        <ele>54</ele>
        <time>2020-09-13T09:02:59.000Z</time>
      </trkpt>
      <trkpt lat="47.26313" lon="-1.4347">
        <ele>54</ele>
        <time>2020-09-13T09:03:01.000Z</time>
      </trkpt>
      <trkpt lat="47.26303" lon="-1.43481">
        <ele>54</ele>
        <time>2020-09-13T09:03:03.000Z</time>
      </trkpt>
      <trkpt lat="47.26292" lon="-1.43493">
        <ele>54</ele>
        <time>2020-09-13T09:03:05.000Z</time>
      </trkpt>
      <trkpt lat="47.26282" lon="-1.43504">
        <ele>54</ele>
        <time>2020-09-13T09:03:07.000Z</time>
      </trkpt>
      <trkpt lat="47.26274" lon="-1.43515">
        <ele>55</ele>
        <time>2020-09-13T09:03:09.000Z</time>
      </trkpt>
      <trkpt lat="47.26265" lon="-1.43526">
        <ele>55</ele>
        <time>2020-09-13T09:03:11.000Z</time>
      </trkpt>
      <trkpt lat="47.26256" lon="-1.43537">
        <ele>56</ele>
        <time>2020-09-13T09:03:13.000Z</time>
      </trkpt>
      <trkpt lat="47.26249" lon="-1.43547">
        <ele>56</ele>
        <time>2020-09-13T09:03:15.000Z</time>
      </trkpt>
      <trkpt lat="47.26241" lon="-1.43557">
        <ele>57</ele>
        <time>2020-09-13T09:03:18.000Z</time>
      </trkpt>
      <trkpt lat="47.26231" lon="-1.4357">
        <ele>57</ele>
        <time>2020-09-13T09:03:21.000Z</time>
      </trkpt>
      <trkpt lat="47.26223" lon="-1.43581">
        <ele>56</ele>
        <time>2020-09-13T09:03:23.000Z</time>
      </trkpt>
      <trkpt lat="47.26213" lon="-1.43595">
        <ele>55</ele>
        <time>2020-09-13T09:03:25.000Z</time>
      </trkpt>
      <trkpt lat="47.26203" lon="-1.43609">
        <ele>54</ele>
        <time>2020-09-13T09:03:27.000Z</time>
      </trkpt>
      <trkpt lat="47.26193" lon="-1.43624">
        <ele>54</ele>
        <time>2020-09-13T09:03:29.000Z</time>
      </trkpt>
      <trkpt lat="47.26183" lon="-1.43638">
        <ele>54</ele>
        <time>2020-09-13T09:03:31.000Z</time>
      </trkpt>
      <trkpt lat="47.26173" lon="-1.43653">
        <ele>54</ele>
        <time>2020-09-13T09:03:33.000Z</time>
      </trkpt>
      <trkpt lat="47.26164" lon="-1.43668">
        <ele>54</ele>
        <time>2020-09-13T09:03:35.000Z</time>
      </trkpt>
      <trkpt lat="47.26154" lon="-1.43682">
        <ele>54</ele>
        <time>2020-09-13T09:03:37.000Z</time>
      </trkpt>
      <trkpt lat="47.26144" lon="-1.43696">
        <ele>54</ele>
        <time>2020-09-13T09:03:39.000Z</time>
      </trkpt>
      <trkpt lat="47.26136" lon="-1.43709">
        <ele>53</ele>
        <time>2020-09-13T09:03:41.000Z</time>
      </trkpt>
      <trkpt lat="47.26129" lon="-1.43719">
        <ele>54</ele>
        <time>2020-09-13T09:03:43.000Z</time>
      </trkpt>
      <trkpt lat="47.26121" lon="-1.43733">
        <ele>55</ele>
        <time>2020-09-13T09:03:47.000Z</time>
      </trkpt>
      <trkpt lat="47.26111" lon="-1.43744">
        <ele>57</ele>
        <time>2020-09-13T09:03:49.000Z</time>
      </trkpt>
      <trkpt lat="47.261" lon="-1.43757">
        <ele>57</ele>
        <time>2020-09-13T09:03:51.000Z</time>
      </trkpt>
      <trkpt lat="47.2609" lon="-1.4377">
        <ele>57</ele>
        <time>2020-09-13T09:03:53.000Z</time>
      </trkpt>
      <trkpt lat="47.2608" lon="-1.43784">
        <ele>58</ele>
        <time>2020-09-13T09:03:55.000Z</time>
      </trkpt>
      <trkpt lat="47.26068" lon="-1.43798">
        <ele>58</ele>
        <time>2020-09-13T09:03:57.000Z</time>
      </trkpt>
      <trkpt lat="47.26058" lon="-1.43813">
        <ele>58</ele>
        <time>2020-09-13T09:03:59.000Z</time>
      </trkpt>
      <trkpt lat="47.2605" lon="-1.4383">
        <ele>58</ele>
        <time>2020-09-13T09:04:01.000Z</time>
      </trkpt>
      <trkpt lat="47.26044" lon="-1.43847">
        <ele>59</ele>
        <time>2020-09-13T09:04:03.000Z</time>
      </trkpt>
      <trkpt lat="47.26036" lon="-1.43863">
        <ele>60</ele>
        <time>2020-09-13T09:04:05.000Z</time>
      </trkpt>
      <trkpt lat="47.26025" lon="-1.43874">
        <ele>59</ele>
        <time>2020-09-13T09:04:07.000Z</time>
      </trkpt>
      <trkpt lat="47.26013" lon="-1.43885">
        <ele>59</ele>
        <time>2020-09-13T09:04:09.000Z</time>
      </trkpt>
      <trkpt lat="47.26004" lon="-1.43896">
        <ele>59</ele>
        <time>2020-09-13T09:04:11.000Z</time>
      </trkpt>
      <trkpt lat="47.25995" lon="-1.43906">
        <ele>59</ele>
        <time>2020-09-13T09:04:13.000Z</time>
      </trkpt>
      <trkpt lat="47.25985" lon="-1.43919">
        <ele>59</ele>
        <time>2020-09-13T09:04:15.000Z</time>
      </trkpt>
      <trkpt lat="47.25974" lon="-1.43933">
        <ele>59</ele>
        <time>2020-09-13T09:04:17.000Z</time>
      </trkpt>
      <trkpt lat="47.25963" lon="-1.43945">
        <ele>59</ele>
        <time>2020-09-13T09:04:19.000Z</time>
      </trkpt>
      <trkpt lat="47.25952" lon="-1.43958">
        <ele>59</ele>
        <time>2020-09-13T09:04:21.000Z</time>
      </trkpt>
      <trkpt lat="47.25942" lon="-1.43971">
        <ele>59</ele>
        <time>2020-09-13T09:04:23.000Z</time>
      </trkpt>
      <trkpt lat="47.25932" lon="-1.43984">
        <ele>60</ele>
        <time>2020-09-13T09:04:25.000Z</time>
      </trkpt>
      <trkpt lat="47.25921" lon="-1.43995">
        <ele>60</ele>
        <time>2020-09-13T09:04:27.000Z</time>
      </trkpt>
      <trkpt lat="47.25911" lon="-1.44006">
        <ele>60</ele>
        <time>2020-09-13T09:04:29.000Z</time>
      </trkpt>
      <trkpt lat="47.25899" lon="-1.44018">
        <ele>60</ele>
        <time>2020-09-13T09:04:31.000Z</time>
      </trkpt>
      <trkpt lat="47.25888" lon="-1.44031">
        <ele>59</ele>
        <time>2020-09-13T09:04:33.000Z</time>
      </trkpt>
      <trkpt lat="47.2588" lon="-1.44052">
        <ele>59</ele>
        <time>2020-09-13T09:04:35.000Z</time>
      </trkpt>
      <trkpt lat="47.25875" lon="-1.44064">
        <ele>59</ele>
        <time>2020-09-13T09:04:36.000Z</time>
      </trkpt>
      <trkpt lat="47.25864" lon="-1.44084">
        <ele>59</ele>
        <time>2020-09-13T09:04:38.000Z</time>
      </trkpt>
      <trkpt lat="47.25854" lon="-1.44099">
        <ele>59</ele>
        <time>2020-09-13T09:04:40.000Z</time>
      </trkpt>
      <trkpt lat="47.25842" lon="-1.44113">
        <ele>58</ele>
        <time>2020-09-13T09:04:42.000Z</time>
      </trkpt>
      <trkpt lat="47.25831" lon="-1.44125">
        <ele>59</ele>
        <time>2020-09-13T09:04:44.000Z</time>
      </trkpt>
      <trkpt lat="47.2582" lon="-1.44138">
        <ele>58</ele>
        <time>2020-09-13T09:04:46.000Z</time>
      </trkpt>
      <trkpt lat="47.25807" lon="-1.44151">
        <ele>57</ele>
        <time>2020-09-13T09:04:48.000Z</time>
      </trkpt>
      <trkpt lat="47.25795" lon="-1.44164">
        <ele>56</ele>
        <time>2020-09-13T09:04:50.000Z</time>
      </trkpt>
      <trkpt lat="47.25784" lon="-1.44177">
        <ele>56</ele>
        <time>2020-09-13T09:04:52.000Z</time>
      </trkpt>
      <trkpt lat="47.25772" lon="-1.4419">
        <ele>56</ele>
        <time>2020-09-13T09:04:54.000Z</time>
      </trkpt>
      <trkpt lat="47.25761" lon="-1.44203">
        <ele>56</ele>
        <time>2020-09-13T09:04:56.000Z</time>
      </trkpt>
      <trkpt lat="47.2575" lon="-1.44217">
        <ele>56</ele>
        <time>2020-09-13T09:04:58.000Z</time>
      </trkpt>
      <trkpt lat="47.25741" lon="-1.44231">
        <ele>56</ele>
        <time>2020-09-13T09:05:00.000Z</time>
      </trkpt>
      <trkpt lat="47.25731" lon="-1.44244">
        <ele>57</ele>
        <time>2020-09-13T09:05:02.000Z</time>
      </trkpt>
      <trkpt lat="47.25721" lon="-1.44257">
        <ele>57</ele>
        <time>2020-09-13T09:05:04.000Z</time>
      </trkpt>
      <trkpt lat="47.25711" lon="-1.44269">
        <ele>56</ele>
        <time>2020-09-13T09:05:06.000Z</time>
      </trkpt>
      <trkpt lat="47.257" lon="-1.44282">
        <ele>56</ele>
        <time>2020-09-13T09:05:08.000Z</time>
      </trkpt>
      <trkpt lat="47.2569" lon="-1.44295">
        <ele>56</ele>
        <time>2020-09-13T09:05:10.000Z</time>
      </trkpt>
      <trkpt lat="47.25679" lon="-1.44308">
        <ele>56</ele>
        <time>2020-09-13T09:05:12.000Z</time>
      </trkpt>
      <trkpt lat="47.25669" lon="-1.44321">
        <ele>56</ele>
        <time>2020-09-13T09:05:14.000Z</time>
      </trkpt>
      <trkpt lat="47.2566" lon="-1.44333">
        <ele>56</ele>
        <time>2020-09-13T09:05:16.000Z</time>
      </trkpt>
      <trkpt lat="47.25649" lon="-1.44344">
        <ele>56</ele>
        <time>2020-09-13T09:05:18.000Z</time>
      </trkpt>
      <trkpt lat="47.25638" lon="-1.44356">
        <ele>57</ele>
        <time>2020-09-13T09:05:20.000Z</time>
      </trkpt>
      <trkpt lat="47.25626" lon="-1.44368">
        <ele>57</ele>
        <time>2020-09-13T09:05:22.000Z</time>
      </trkpt>
      <trkpt lat="47.25615" lon="-1.4438">
        <ele>57</ele>
        <time>2020-09-13T09:05:24.000Z</time>
      </trkpt>
      <trkpt lat="47.25604" lon="-1.44392">
        <ele>57</ele>
        <time>2020-09-13T09:05:26.000Z</time>
      </trkpt>
      <trkpt lat="47.25594" lon="-1.44404">
        <ele>56</ele>
        <time>2020-09-13T09:05:28.000Z</time>
      </trkpt>
      <trkpt lat="47.25583" lon="-1.44417">
        <ele>56</ele>
        <time>2020-09-13T09:05:30.000Z</time>
      </trkpt>
      <trkpt lat="47.25573" lon="-1.4443">
        <ele>56</ele>
        <time>2020-09-13T09:05:32.000Z</time>
      </trkpt>
      <trkpt lat="47.25564" lon="-1.44442">
        <ele>56</ele>
        <time>2020-09-13T09:05:34.000Z</time>
      </trkpt>
      <trkpt lat="47.25554" lon="-1.44456">
        <ele>56</ele>
        <time>2020-09-13T09:05:36.000Z</time>
      </trkpt>
      <trkpt lat="47.25544" lon="-1.4447">
        <ele>56</ele>
        <time>2020-09-13T09:05:38.000Z</time>
      </trkpt>
      <trkpt lat="47.25534" lon="-1.44483">
        <ele>56</ele>
        <time>2020-09-13T09:05:40.000Z</time>
      </trkpt>
      <trkpt lat="47.25526" lon="-1.44498">
        <ele>57</ele>
        <time>2020-09-13T09:05:42.000Z</time>
      </trkpt>
      <trkpt lat="47.25516" lon="-1.44514">
        <ele>57</ele>
        <time>2020-09-13T09:05:44.000Z</time>
      </trkpt>
      <trkpt lat="47.25505" lon="-1.44529">
        <ele>56</ele>
        <time>2020-09-13T09:05:46.000Z</time>
      </trkpt>
      <trkpt lat="47.25494" lon="-1.44544">
        <ele>55</ele>
        <time>2020-09-13T09:05:48.000Z</time>
      </trkpt>
      <trkpt lat="47.25484" lon="-1.44559">
        <ele>55</ele>
        <time>2020-09-13T09:05:50.000Z</time>
      </trkpt>
      <trkpt lat="47.25473" lon="-1.44574">
        <ele>55</ele>
        <time>2020-09-13T09:05:52.000Z</time>
      </trkpt>
      <trkpt lat="47.25464" lon="-1.44589">
        <ele>55</ele>
        <time>2020-09-13T09:05:54.000Z</time>
      </trkpt>
      <trkpt lat="47.25455" lon="-1.44603">
        <ele>55</ele>
        <time>2020-09-13T09:05:56.000Z</time>
      </trkpt>
      <trkpt lat="47.25447" lon="-1.44617">
        <ele>56</ele>
        <time>2020-09-13T09:05:58.000Z</time>
      </trkpt>
      <trkpt lat="47.25437" lon="-1.44631">
        <ele>56</ele>
        <time>2020-09-13T09:06:00.000Z</time>
      </trkpt>
      <trkpt lat="47.25427" lon="-1.44644">
        <ele>56</ele>
        <time>2020-09-13T09:06:02.000Z</time>
      </trkpt>
      <trkpt lat="47.25416" lon="-1.44657">
        <ele>56</ele>
        <time>2020-09-13T09:06:04.000Z</time>
      </trkpt>
      <trkpt lat="47.25406" lon="-1.4467">
        <ele>56</ele>
        <time>2020-09-13T09:06:06.000Z</time>
      </trkpt>
      <trkpt lat="47.25396" lon="-1.44684">
        <ele>56</ele>
        <time>2020-09-13T09:06:08.000Z</time>
      </trkpt>
      <trkpt lat="47.25386" lon="-1.44698">
        <ele>56</ele>
        <time>2020-09-13T09:06:10.000Z</time>
      </trkpt>
      <trkpt lat="47.25375" lon="-1.4471">
        <ele>56</ele>
        <time>2020-09-13T09:06:12.000Z</time>
      </trkpt>
      <trkpt lat="47.25365" lon="-1.44721">
        <ele>57</ele>
        <time>2020-09-13T09:06:14.000Z</time>
      </trkpt>
      <trkpt lat="47.25355" lon="-1.44732">
        <ele>58</ele>
        <time>2020-09-13T09:06:16.000Z</time>
      </trkpt>
      <trkpt lat="47.25344" lon="-1.44744">
        <ele>58</ele>
        <time>2020-09-13T09:06:18.000Z</time>
      </trkpt>
      <trkpt lat="47.25333" lon="-1.44755">
        <ele>58</ele>
        <time>2020-09-13T09:06:20.000Z</time>
      </trkpt>
      <trkpt lat="47.25321" lon="-1.44766">
        <ele>58</ele>
        <time>2020-09-13T09:06:22.000Z</time>
      </trkpt>
      <trkpt lat="47.2531" lon="-1.44779">
        <ele>58</ele>
        <time>2020-09-13T09:06:24.000Z</time>
      </trkpt>
      <trkpt lat="47.25299" lon="-1.4479">
        <ele>58</ele>
        <time>2020-09-13T09:06:26.000Z</time>
      </trkpt>
      <trkpt lat="47.25289" lon="-1.44803">
        <ele>58</ele>
        <time>2020-09-13T09:06:28.000Z</time>
      </trkpt>
      <trkpt lat="47.25279" lon="-1.44817">
        <ele>58</ele>
        <time>2020-09-13T09:06:30.000Z</time>
      </trkpt>
      <trkpt lat="47.2527" lon="-1.4483">
        <ele>58</ele>
        <time>2020-09-13T09:06:32.000Z</time>
      </trkpt>
      <trkpt lat="47.25257" lon="-1.44842">
        <ele>58</ele>
        <time>2020-09-13T09:06:34.000Z</time>
      </trkpt>
      <trkpt lat="47.25244" lon="-1.44853">
        <ele>58</ele>
        <time>2020-09-13T09:06:36.000Z</time>
      </trkpt>
      <trkpt lat="47.25233" lon="-1.44865">
        <ele>58</ele>
        <time>2020-09-13T09:06:38.000Z</time>
      </trkpt>
      <trkpt lat="47.25223" lon="-1.44874">
        <ele>58</ele>
        <time>2020-09-13T09:06:40.000Z</time>
      </trkpt>
      <trkpt lat="47.25211" lon="-1.44885">
        <ele>58</ele>
        <time>2020-09-13T09:06:42.000Z</time>
      </trkpt>
      <trkpt lat="47.25199" lon="-1.44894">
        <ele>58</ele>
        <time>2020-09-13T09:06:44.000Z</time>
      </trkpt>
      <trkpt lat="47.25185" lon="-1.44903">
        <ele>58</ele>
        <time>2020-09-13T09:06:46.000Z</time>
      </trkpt>
      <trkpt lat="47.25172" lon="-1.44914">
        <ele>58</ele>
        <time>2020-09-13T09:06:48.000Z</time>
      </trkpt>
      <trkpt lat="47.2516" lon="-1.44925">
        <ele>58</ele>
        <time>2020-09-13T09:06:50.000Z</time>
      </trkpt>
      <trkpt lat="47.25149" lon="-1.44935">
        <ele>58</ele>
        <time>2020-09-13T09:06:52.000Z</time>
      </trkpt>
      <trkpt lat="47.25139" lon="-1.44944">
        <ele>58</ele>
        <time>2020-09-13T09:06:54.000Z</time>
      </trkpt>
      <trkpt lat="47.2513" lon="-1.44952">
        <ele>58</ele>
        <time>2020-09-13T09:06:56.000Z</time>
      </trkpt>
      <trkpt lat="47.25119" lon="-1.4496">
        <ele>58</ele>
        <time>2020-09-13T09:06:58.000Z</time>
      </trkpt>
      <trkpt lat="47.25107" lon="-1.44971">
        <ele>58</ele>
        <time>2020-09-13T09:07:00.000Z</time>
      </trkpt>
      <trkpt lat="47.25095" lon="-1.44984">
        <ele>58</ele>
        <time>2020-09-13T09:07:02.000Z</time>
      </trkpt>
      <trkpt lat="47.25082" lon="-1.44996">
        <ele>58</ele>
        <time>2020-09-13T09:07:04.000Z</time>
      </trkpt>
      <trkpt lat="47.2507" lon="-1.45007">
        <ele>58</ele>
        <time>2020-09-13T09:07:06.000Z</time>
      </trkpt>
      <trkpt lat="47.25057" lon="-1.45017">
        <ele>59</ele>
        <time>2020-09-13T09:07:08.000Z</time>
      </trkpt>
      <trkpt lat="47.25044" lon="-1.45026">
        <ele>59</ele>
        <time>2020-09-13T09:07:10.000Z</time>
      </trkpt>
      <trkpt lat="47.25031" lon="-1.45036">
        <ele>59</ele>
        <time>2020-09-13T09:07:12.000Z</time>
      </trkpt>
      <trkpt lat="47.25017" lon="-1.45048">
        <ele>59</ele>
        <time>2020-09-13T09:07:14.000Z</time>
      </trkpt>
      <trkpt lat="47.25004" lon="-1.45059">
        <ele>59</ele>
        <time>2020-09-13T09:07:16.000Z</time>
      </trkpt>
      <trkpt lat="47.24993" lon="-1.45072">
        <ele>59</ele>
        <time>2020-09-13T09:07:18.000Z</time>
      </trkpt>
      <trkpt lat="47.24982" lon="-1.45086">
        <ele>59</ele>
        <time>2020-09-13T09:07:20.000Z</time>
      </trkpt>
      <trkpt lat="47.24972" lon="-1.45099">
        <ele>59</ele>
        <time>2020-09-13T09:07:22.000Z</time>
      </trkpt>
      <trkpt lat="47.2496" lon="-1.45111">
        <ele>59</ele>
        <time>2020-09-13T09:07:24.000Z</time>
      </trkpt>
      <trkpt lat="47.24948" lon="-1.45123">
        <ele>59</ele>
        <time>2020-09-13T09:07:26.000Z</time>
      </trkpt>
      <trkpt lat="47.24937" lon="-1.45135">
        <ele>59</ele>
        <time>2020-09-13T09:07:28.000Z</time>
      </trkpt>
      <trkpt lat="47.24925" lon="-1.45147">
        <ele>59</ele>
        <time>2020-09-13T09:07:30.000Z</time>
      </trkpt>
      <trkpt lat="47.24914" lon="-1.45159">
        <ele>59</ele>
        <time>2020-09-13T09:07:32.000Z</time>
      </trkpt>
      <trkpt lat="47.24904" lon="-1.45171">
        <ele>59</ele>
        <time>2020-09-13T09:07:34.000Z</time>
      </trkpt>
      <trkpt lat="47.24896" lon="-1.45183">
        <ele>59</ele>
        <time>2020-09-13T09:07:36.000Z</time>
      </trkpt>
      <trkpt lat="47.24886" lon="-1.45197">
        <ele>59</ele>
        <time>2020-09-13T09:07:38.000Z</time>
      </trkpt>
      <trkpt lat="47.24878" lon="-1.45209">
        <ele>59</ele>
        <time>2020-09-13T09:07:40.000Z</time>
      </trkpt>
      <trkpt lat="47.2487" lon="-1.45222">
        <ele>59</ele>
        <time>2020-09-13T09:07:42.000Z</time>
      </trkpt>
      <trkpt lat="47.24861" lon="-1.45236">
        <ele>60</ele>
        <time>2020-09-13T09:07:44.000Z</time>
      </trkpt>
      <trkpt lat="47.24854" lon="-1.4525">
        <ele>60</ele>
        <time>2020-09-13T09:07:46.000Z</time>
      </trkpt>
      <trkpt lat="47.24846" lon="-1.45264">
        <ele>60</ele>
        <time>2020-09-13T09:07:48.000Z</time>
      </trkpt>
      <trkpt lat="47.24837" lon="-1.4528">
        <ele>59</ele>
        <time>2020-09-13T09:07:50.000Z</time>
      </trkpt>
      <trkpt lat="47.24829" lon="-1.45296">
        <ele>59</ele>
        <time>2020-09-13T09:07:52.000Z</time>
      </trkpt>
      <trkpt lat="47.24821" lon="-1.45312">
        <ele>60</ele>
        <time>2020-09-13T09:07:54.000Z</time>
      </trkpt>
      <trkpt lat="47.24813" lon="-1.45328">
        <ele>60</ele>
        <time>2020-09-13T09:07:56.000Z</time>
      </trkpt>
      <trkpt lat="47.24806" lon="-1.45342">
        <ele>59</ele>
        <time>2020-09-13T09:07:58.000Z</time>
      </trkpt>
      <trkpt lat="47.24797" lon="-1.45357">
        <ele>59</ele>
        <time>2020-09-13T09:08:00.000Z</time>
      </trkpt>
      <trkpt lat="47.24791" lon="-1.45373">
        <ele>59</ele>
        <time>2020-09-13T09:08:02.000Z</time>
      </trkpt>
      <trkpt lat="47.24783" lon="-1.45391">
        <ele>58</ele>
        <time>2020-09-13T09:08:04.000Z</time>
      </trkpt>
      <trkpt lat="47.24775" lon="-1.45409">
        <ele>58</ele>
        <time>2020-09-13T09:08:06.000Z</time>
      </trkpt>
      <trkpt lat="47.24768" lon="-1.45426">
        <ele>58</ele>
        <time>2020-09-13T09:08:08.000Z</time>
      </trkpt>
      <trkpt lat="47.24762" lon="-1.45443">
        <ele>59</ele>
        <time>2020-09-13T09:08:10.000Z</time>
      </trkpt>
      <trkpt lat="47.24755" lon="-1.4546">
        <ele>59</ele>
        <time>2020-09-13T09:08:12.000Z</time>
      </trkpt>
      <trkpt lat="47.24749" lon="-1.45478">
        <ele>59</ele>
        <time>2020-09-13T09:08:14.000Z</time>
      </trkpt>
      <trkpt lat="47.24741" lon="-1.45495">
        <ele>57</ele>
        <time>2020-09-13T09:08:16.000Z</time>
      </trkpt>
      <trkpt lat="47.24732" lon="-1.45512">
        <ele>56</ele>
        <time>2020-09-13T09:08:18.000Z</time>
      </trkpt>
      <trkpt lat="47.24725" lon="-1.45529">
        <ele>56</ele>
        <time>2020-09-13T09:08:20.000Z</time>
      </trkpt>
      <trkpt lat="47.24718" lon="-1.45547">
        <ele>55</ele>
        <time>2020-09-13T09:08:22.000Z</time>
      </trkpt>
      <trkpt lat="47.24712" lon="-1.45564">
        <ele>55</ele>
        <time>2020-09-13T09:08:24.000Z</time>
      </trkpt>
      <trkpt lat="47.24706" lon="-1.45581">
        <ele>55</ele>
        <time>2020-09-13T09:08:26.000Z</time>
      </trkpt>
      <trkpt lat="47.24701" lon="-1.45599">
        <ele>55</ele>
        <time>2020-09-13T09:08:28.000Z</time>
      </trkpt>
      <trkpt lat="47.24696" lon="-1.45617">
        <ele>54</ele>
        <time>2020-09-13T09:08:30.000Z</time>
      </trkpt>
      <trkpt lat="47.2469" lon="-1.45634">
        <ele>54</ele>
        <time>2020-09-13T09:08:32.000Z</time>
      </trkpt>
      <trkpt lat="47.24684" lon="-1.4565">
        <ele>54</ele>
        <time>2020-09-13T09:08:34.000Z</time>
      </trkpt>
      <trkpt lat="47.24678" lon="-1.45666">
        <ele>54</ele>
        <time>2020-09-13T09:08:36.000Z</time>
      </trkpt>
      <trkpt lat="47.24674" lon="-1.45683">
        <ele>55</ele>
        <time>2020-09-13T09:08:38.000Z</time>
      </trkpt>
      <trkpt lat="47.24669" lon="-1.45701">
        <ele>55</ele>
        <time>2020-09-13T09:08:40.000Z</time>
      </trkpt>
      <trkpt lat="47.24665" lon="-1.45721">
        <ele>54</ele>
        <time>2020-09-13T09:08:42.000Z</time>
      </trkpt>
      <trkpt lat="47.24662" lon="-1.45739">
        <ele>55</ele>
        <time>2020-09-13T09:08:44.000Z</time>
      </trkpt>
      <trkpt lat="47.24658" lon="-1.45757">
        <ele>55</ele>
        <time>2020-09-13T09:08:46.000Z</time>
      </trkpt>
      <trkpt lat="47.24654" lon="-1.45775">
        <ele>55</ele>
        <time>2020-09-13T09:08:48.000Z</time>
      </trkpt>
      <trkpt lat="47.2465" lon="-1.45792">
        <ele>56</ele>
        <time>2020-09-13T09:08:50.000Z</time>
      </trkpt>
      <trkpt lat="47.24645" lon="-1.4581">
        <ele>56</ele>
        <time>2020-09-13T09:08:52.000Z</time>
      </trkpt>
      <trkpt lat="47.24641" lon="-1.45826">
        <ele>57</ele>
        <time>2020-09-13T09:08:54.000Z</time>
      </trkpt>
      <trkpt lat="47.24638" lon="-1.45842">
        <ele>58</ele>
        <time>2020-09-13T09:08:56.000Z</time>
      </trkpt>
      <trkpt lat="47.24633" lon="-1.4586">
        <ele>59</ele>
        <time>2020-09-13T09:08:58.000Z</time>
      </trkpt>
      <trkpt lat="47.24628" lon="-1.4588">
        <ele>59</ele>
        <time>2020-09-13T09:09:00.000Z</time>
      </trkpt>
      <trkpt lat="47.24624" lon="-1.45899">
        <ele>60</ele>
        <time>2020-09-13T09:09:02.000Z</time>
      </trkpt>
      <trkpt lat="47.24618" lon="-1.45915">
        <ele>60</ele>
        <time>2020-09-13T09:09:04.000Z</time>
      </trkpt>
      <trkpt lat="47.24611" lon="-1.45934">
        <ele>60</ele>
        <time>2020-09-13T09:09:06.000Z</time>
      </trkpt>
      <trkpt lat="47.24603" lon="-1.45951">
        <ele>60</ele>
        <time>2020-09-13T09:09:08.000Z</time>
      </trkpt>
      <trkpt lat="47.24595" lon="-1.45967">
        <ele>60</ele>
        <time>2020-09-13T09:09:10.000Z</time>
      </trkpt>
      <trkpt lat="47.24589" lon="-1.45981">
        <ele>60</ele>
        <time>2020-09-13T09:09:12.000Z</time>
      </trkpt>
      <trkpt lat="47.24581" lon="-1.45999">
        <ele>60</ele>
        <time>2020-09-13T09:09:14.000Z</time>
      </trkpt>
      <trkpt lat="47.24573" lon="-1.46016">
        <ele>60</ele>
        <time>2020-09-13T09:09:16.000Z</time>
      </trkpt>
      <trkpt lat="47.24565" lon="-1.46032">
        <ele>59</ele>
        <time>2020-09-13T09:09:18.000Z</time>
      </trkpt>
      <trkpt lat="47.24557" lon="-1.46048">
        <ele>59</ele>
        <time>2020-09-13T09:09:20.000Z</time>
      </trkpt>
      <trkpt lat="47.24549" lon="-1.46063">
        <ele>58</ele>
        <time>2020-09-13T09:09:22.000Z</time>
      </trkpt>
      <trkpt lat="47.24541" lon="-1.46079">
        <ele>59</ele>
        <time>2020-09-13T09:09:24.000Z</time>
      </trkpt>
      <trkpt lat="47.24532" lon="-1.46094">
        <ele>59</ele>
        <time>2020-09-13T09:09:26.000Z</time>
      </trkpt>
      <trkpt lat="47.24522" lon="-1.46107">
        <ele>59</ele>
        <time>2020-09-13T09:09:28.000Z</time>
      </trkpt>
      <trkpt lat="47.24511" lon="-1.46119">
        <ele>58</ele>
        <time>2020-09-13T09:09:30.000Z</time>
      </trkpt>
      <trkpt lat="47.24501" lon="-1.46131">
        <ele>59</ele>
        <time>2020-09-13T09:09:32.000Z</time>
      </trkpt>
      <trkpt lat="47.24491" lon="-1.46144">
        <ele>58</ele>
        <time>2020-09-13T09:09:34.000Z</time>
      </trkpt>
      <trkpt lat="47.24481" lon="-1.46158">
        <ele>57</ele>
        <time>2020-09-13T09:09:36.000Z</time>
      </trkpt>
      <trkpt lat="47.2447" lon="-1.4617">
        <ele>57</ele>
        <time>2020-09-13T09:09:38.000Z</time>
      </trkpt>
      <trkpt lat="47.2446" lon="-1.46183">
        <ele>57</ele>
        <time>2020-09-13T09:09:40.000Z</time>
      </trkpt>
      <trkpt lat="47.2445" lon="-1.46196">
        <ele>56</ele>
        <time>2020-09-13T09:09:42.000Z</time>
      </trkpt>
      <trkpt lat="47.2444" lon="-1.46209">
        <ele>56</ele>
        <time>2020-09-13T09:09:44.000Z</time>
      </trkpt>
      <trkpt lat="47.2443" lon="-1.46222">
        <ele>56</ele>
        <time>2020-09-13T09:09:46.000Z</time>
      </trkpt>
      <trkpt lat="47.2442" lon="-1.46236">
        <ele>56</ele>
        <time>2020-09-13T09:09:48.000Z</time>
      </trkpt>
      <trkpt lat="47.24411" lon="-1.46249">
        <ele>56</ele>
        <time>2020-09-13T09:09:50.000Z</time>
      </trkpt>
      <trkpt lat="47.24402" lon="-1.46262">
        <ele>56</ele>
        <time>2020-09-13T09:09:52.000Z</time>
      </trkpt>
      <trkpt lat="47.24393" lon="-1.46275">
        <ele>55</ele>
        <time>2020-09-13T09:09:54.000Z</time>
      </trkpt>
      <trkpt lat="47.24385" lon="-1.46288">
        <ele>56</ele>
        <time>2020-09-13T09:09:56.000Z</time>
      </trkpt>
      <trkpt lat="47.24375" lon="-1.46301">
        <ele>56</ele>
        <time>2020-09-13T09:09:58.000Z</time>
      </trkpt>
      <trkpt lat="47.24365" lon="-1.46315">
        <ele>56</ele>
        <time>2020-09-13T09:10:00.000Z</time>
      </trkpt>
      <trkpt lat="47.24356" lon="-1.46329">
        <ele>56</ele>
        <time>2020-09-13T09:10:02.000Z</time>
      </trkpt>
      <trkpt lat="47.24347" lon="-1.46344">
        <ele>56</ele>
        <time>2020-09-13T09:10:04.000Z</time>
      </trkpt>
      <trkpt lat="47.24337" lon="-1.46359">
        <ele>56</ele>
        <time>2020-09-13T09:10:06.000Z</time>
      </trkpt>
      <trkpt lat="47.24328" lon="-1.46373">
        <ele>56</ele>
        <time>2020-09-13T09:10:08.000Z</time>
      </trkpt>
      <trkpt lat="47.24319" lon="-1.46389">
        <ele>56</ele>
        <time>2020-09-13T09:10:10.000Z</time>
      </trkpt>
      <trkpt lat="47.2431" lon="-1.46404">
        <ele>57</ele>
        <time>2020-09-13T09:10:12.000Z</time>
      </trkpt>
      <trkpt lat="47.24301" lon="-1.46418">
        <ele>57</ele>
        <time>2020-09-13T09:10:14.000Z</time>
      </trkpt>
      <trkpt lat="47.24293" lon="-1.46433">
        <ele>57</ele>
        <time>2020-09-13T09:10:16.000Z</time>
      </trkpt>
      <trkpt lat="47.24284" lon="-1.46447">
        <ele>57</ele>
        <time>2020-09-13T09:10:18.000Z</time>
      </trkpt>
      <trkpt lat="47.24274" lon="-1.46461">
        <ele>56</ele>
        <time>2020-09-13T09:10:20.000Z</time>
      </trkpt>
      <trkpt lat="47.24264" lon="-1.46474">
        <ele>56</ele>
        <time>2020-09-13T09:10:22.000Z</time>
      </trkpt>
      <trkpt lat="47.24254" lon="-1.46487">
        <ele>56</ele>
        <time>2020-09-13T09:10:24.000Z</time>
      </trkpt>
      <trkpt lat="47.24244" lon="-1.465">
        <ele>56</ele>
        <time>2020-09-13T09:10:26.000Z</time>
      </trkpt>
      <trkpt lat="47.24234" lon="-1.46513">
        <ele>55</ele>
        <time>2020-09-13T09:10:28.000Z</time>
      </trkpt>
      <trkpt lat="47.24224" lon="-1.46524">
        <ele>55</ele>
        <time>2020-09-13T09:10:30.000Z</time>
      </trkpt>
      <trkpt lat="47.24213" lon="-1.46535">
        <ele>55</ele>
        <time>2020-09-13T09:10:32.000Z</time>
      </trkpt>
      <trkpt lat="47.24203" lon="-1.46547">
        <ele>55</ele>
        <time>2020-09-13T09:10:34.000Z</time>
      </trkpt>
      <trkpt lat="47.24193" lon="-1.4656">
        <ele>55</ele>
        <time>2020-09-13T09:10:36.000Z</time>
      </trkpt>
      <trkpt lat="47.24183" lon="-1.46574">
        <ele>55</ele>
        <time>2020-09-13T09:10:38.000Z</time>
      </trkpt>
      <trkpt lat="47.24172" lon="-1.46589">
        <ele>55</ele>
        <time>2020-09-13T09:10:40.000Z</time>
      </trkpt>
      <trkpt lat="47.24161" lon="-1.46604">
        <ele>55</ele>
        <time>2020-09-13T09:10:42.000Z</time>
      </trkpt>
      <trkpt lat="47.2415" lon="-1.46619">
        <ele>55</ele>
        <time>2020-09-13T09:10:44.000Z</time>
      </trkpt>
      <trkpt lat="47.24139" lon="-1.46633">
        <ele>54</ele>
        <time>2020-09-13T09:10:46.000Z</time>
      </trkpt>
      <trkpt lat="47.24128" lon="-1.46647">
        <ele>54</ele>
        <time>2020-09-13T09:10:48.000Z</time>
      </trkpt>
      <trkpt lat="47.24118" lon="-1.46661">
        <ele>54</ele>
        <time>2020-09-13T09:10:50.000Z</time>
      </trkpt>
      <trkpt lat="47.24109" lon="-1.46675">
        <ele>54</ele>
        <time>2020-09-13T09:10:52.000Z</time>
      </trkpt>
      <trkpt lat="47.241" lon="-1.46689">
        <ele>54</ele>
        <time>2020-09-13T09:10:54.000Z</time>
      </trkpt>
      <trkpt lat="47.2409" lon="-1.46703">
        <ele>54</ele>
        <time>2020-09-13T09:10:56.000Z</time>
      </trkpt>
      <trkpt lat="47.24083" lon="-1.46719">
        <ele>54</ele>
        <time>2020-09-13T09:10:58.000Z</time>
      </trkpt>
      <trkpt lat="47.24074" lon="-1.46733">
        <ele>54</ele>
        <time>2020-09-13T09:11:00.000Z</time>
      </trkpt>
      <trkpt lat="47.24062" lon="-1.46743">
        <ele>53</ele>
        <time>2020-09-13T09:11:02.000Z</time>
      </trkpt>
      <trkpt lat="47.2405" lon="-1.46753">
        <ele>53</ele>
        <time>2020-09-13T09:11:04.000Z</time>
      </trkpt>
      <trkpt lat="47.24038" lon="-1.46767">
        <ele>53</ele>
        <time>2020-09-13T09:11:06.000Z</time>
      </trkpt>
      <trkpt lat="47.24027" lon="-1.4678">
        <ele>54</ele>
        <time>2020-09-13T09:11:08.000Z</time>
      </trkpt>
      <trkpt lat="47.24016" lon="-1.46792">
        <ele>54</ele>
        <time>2020-09-13T09:11:10.000Z</time>
      </trkpt>
      <trkpt lat="47.24006" lon="-1.46805">
        <ele>55</ele>
        <time>2020-09-13T09:11:12.000Z</time>
      </trkpt>
      <trkpt lat="47.23995" lon="-1.46816">
        <ele>55</ele>
        <time>2020-09-13T09:11:14.000Z</time>
      </trkpt>
      <trkpt lat="47.23984" lon="-1.46827">
        <ele>55</ele>
        <time>2020-09-13T09:11:16.000Z</time>
      </trkpt>
      <trkpt lat="47.23973" lon="-1.46839">
        <ele>55</ele>
        <time>2020-09-13T09:11:18.000Z</time>
      </trkpt>
      <trkpt lat="47.23961" lon="-1.46851">
        <ele>56</ele>
        <time>2020-09-13T09:11:20.000Z</time>
      </trkpt>
      <trkpt lat="47.2395" lon="-1.46861">
        <ele>56</ele>
        <time>2020-09-13T09:11:22.000Z</time>
      </trkpt>
      <trkpt lat="47.23938" lon="-1.4687">
        <ele>57</ele>
        <time>2020-09-13T09:11:24.000Z</time>
      </trkpt>
      <trkpt lat="47.23927" lon="-1.4688">
        <ele>57</ele>
        <time>2020-09-13T09:11:26.000Z</time>
      </trkpt>
      <trkpt lat="47.23916" lon="-1.46891">
        <ele>57</ele>
        <time>2020-09-13T09:11:28.000Z</time>
      </trkpt>
      <trkpt lat="47.23905" lon="-1.46904">
        <ele>57</ele>
        <time>2020-09-13T09:11:30.000Z</time>
      </trkpt>
      <trkpt lat="47.23896" lon="-1.46918">
        <ele>57</ele>
        <time>2020-09-13T09:11:32.000Z</time>
      </trkpt>
      <trkpt lat="47.23888" lon="-1.46933">
        <ele>57</ele>
        <time>2020-09-13T09:11:34.000Z</time>
      </trkpt>
      <trkpt lat="47.23878" lon="-1.46946">
        <ele>58</ele>
        <time>2020-09-13T09:11:36.000Z</time>
      </trkpt>
      <trkpt lat="47.23866" lon="-1.46959">
        <ele>58</ele>
        <time>2020-09-13T09:11:38.000Z</time>
      </trkpt>
      <trkpt lat="47.23856" lon="-1.46972">
        <ele>58</ele>
        <time>2020-09-13T09:11:40.000Z</time>
      </trkpt>
      <trkpt lat="47.23846" lon="-1.46985">
        <ele>57</ele>
        <time>2020-09-13T09:11:42.000Z</time>
      </trkpt>
      <trkpt lat="47.23836" lon="-1.46998">
        <ele>57</ele>
        <time>2020-09-13T09:11:44.000Z</time>
      </trkpt>
      <trkpt lat="47.23826" lon="-1.47012">
        <ele>56</ele>
        <time>2020-09-13T09:11:46.000Z</time>
      </trkpt>
      <trkpt lat="47.23818" lon="-1.47027">
        <ele>55</ele>
        <time>2020-09-13T09:11:48.000Z</time>
      </trkpt>
      <trkpt lat="47.23808" lon="-1.47041">
        <ele>55</ele>
        <time>2020-09-13T09:11:50.000Z</time>
      </trkpt>
      <trkpt lat="47.23799" lon="-1.47054">
        <ele>56</ele>
        <time>2020-09-13T09:11:52.000Z</time>
      </trkpt>
      <trkpt lat="47.23789" lon="-1.47068">
        <ele>56</ele>
        <time>2020-09-13T09:11:54.000Z</time>
      </trkpt>
      <trkpt lat="47.2378" lon="-1.47082">
        <ele>56</ele>
        <time>2020-09-13T09:11:56.000Z</time>
      </trkpt>
      <trkpt lat="47.23769" lon="-1.47096">
        <ele>56</ele>
        <time>2020-09-13T09:11:58.000Z</time>
      </trkpt>
      <trkpt lat="47.2376" lon="-1.47109">
        <ele>56</ele>
        <time>2020-09-13T09:12:00.000Z</time>
      </trkpt>
      <trkpt lat="47.2375" lon="-1.47124">
        <ele>56</ele>
        <time>2020-09-13T09:12:02.000Z</time>
      </trkpt>
      <trkpt lat="47.2374" lon="-1.47136">
        <ele>57</ele>
        <time>2020-09-13T09:12:04.000Z</time>
      </trkpt>
      <trkpt lat="47.23729" lon="-1.47149">
        <ele>56</ele>
        <time>2020-09-13T09:12:06.000Z</time>
      </trkpt>
      <trkpt lat="47.23719" lon="-1.47163">
        <ele>56</ele>
        <time>2020-09-13T09:12:08.000Z</time>
      </trkpt>
      <trkpt lat="47.23709" lon="-1.47177">
        <ele>56</ele>
        <time>2020-09-13T09:12:10.000Z</time>
      </trkpt>
      <trkpt lat="47.23699" lon="-1.4719">
        <ele>56</ele>
        <time>2020-09-13T09:12:12.000Z</time>
      </trkpt>
      <trkpt lat="47.2369" lon="-1.47204">
        <ele>57</ele>
        <time>2020-09-13T09:12:14.000Z</time>
      </trkpt>
      <trkpt lat="47.2368" lon="-1.4722">
        <ele>56</ele>
        <time>2020-09-13T09:12:16.000Z</time>
      </trkpt>
      <trkpt lat="47.23669" lon="-1.47232">
        <ele>56</ele>
        <time>2020-09-13T09:12:18.000Z</time>
      </trkpt>
      <trkpt lat="47.23658" lon="-1.47244">
        <ele>55</ele>
        <time>2020-09-13T09:12:20.000Z</time>
      </trkpt>
      <trkpt lat="47.23647" lon="-1.47257">
        <ele>56</ele>
        <time>2020-09-13T09:12:22.000Z</time>
      </trkpt>
      <trkpt lat="47.23636" lon="-1.47268">
        <ele>56</ele>
        <time>2020-09-13T09:12:24.000Z</time>
      </trkpt>
      <trkpt lat="47.23625" lon="-1.47281">
        <ele>56</ele>
        <time>2020-09-13T09:12:26.000Z</time>
      </trkpt>
      <trkpt lat="47.23614" lon="-1.47292">
        <ele>56</ele>
        <time>2020-09-13T09:12:28.000Z</time>
      </trkpt>
      <trkpt lat="47.23604" lon="-1.47304">
        <ele>56</ele>
        <time>2020-09-13T09:12:30.000Z</time>
      </trkpt>
      <trkpt lat="47.23593" lon="-1.47315">
        <ele>56</ele>
        <time>2020-09-13T09:12:32.000Z</time>
      </trkpt>
      <trkpt lat="47.23581" lon="-1.47325">
        <ele>56</ele>
        <time>2020-09-13T09:12:34.000Z</time>
      </trkpt>
      <trkpt lat="47.23569" lon="-1.47335">
        <ele>56</ele>
        <time>2020-09-13T09:12:36.000Z</time>
      </trkpt>
      <trkpt lat="47.23557" lon="-1.47345">
        <ele>56</ele>
        <time>2020-09-13T09:12:38.000Z</time>
      </trkpt>
      <trkpt lat="47.23546" lon="-1.47355">
        <ele>56</ele>
        <time>2020-09-13T09:12:40.000Z</time>
      </trkpt>
      <trkpt lat="47.23534" lon="-1.47365">
        <ele>56</ele>
        <time>2020-09-13T09:12:42.000Z</time>
      </trkpt>
      <trkpt lat="47.23522" lon="-1.47375">
        <ele>55</ele>
        <time>2020-09-13T09:12:44.000Z</time>
      </trkpt>
      <trkpt lat="47.2351" lon="-1.47385">
        <ele>55</ele>
        <time>2020-09-13T09:12:46.000Z</time>
      </trkpt>
      <trkpt lat="47.23497" lon="-1.47395">
        <ele>56</ele>
        <time>2020-09-13T09:12:48.000Z</time>
      </trkpt>
      <trkpt lat="47.23485" lon="-1.47402">
        <ele>56</ele>
        <time>2020-09-13T09:12:50.000Z</time>
      </trkpt>
      <trkpt lat="47.23471" lon="-1.47409">
        <ele>55</ele>
        <time>2020-09-13T09:12:52.000Z</time>
      </trkpt>
      <trkpt lat="47.23457" lon="-1.47415">
        <ele>55</ele>
        <time>2020-09-13T09:12:54.000Z</time>
      </trkpt>
      <trkpt lat="47.23443" lon="-1.47421">
        <ele>55</ele>
        <time>2020-09-13T09:12:56.000Z</time>
      </trkpt>
      <trkpt lat="47.2343" lon="-1.47427">
        <ele>56</ele>
        <time>2020-09-13T09:12:58.000Z</time>
      </trkpt>
      <trkpt lat="47.23418" lon="-1.47433">
        <ele>56</ele>
        <time>2020-09-13T09:13:00.000Z</time>
      </trkpt>
      <trkpt lat="47.23408" lon="-1.47443">
        <ele>56</ele>
        <time>2020-09-13T09:13:02.000Z</time>
      </trkpt>
      <trkpt lat="47.23397" lon="-1.47451">
        <ele>56</ele>
        <time>2020-09-13T09:13:04.000Z</time>
      </trkpt>
      <trkpt lat="47.23385" lon="-1.47457">
        <ele>57</ele>
        <time>2020-09-13T09:13:06.000Z</time>
      </trkpt>
      <trkpt lat="47.23373" lon="-1.47465">
        <ele>57</ele>
        <time>2020-09-13T09:13:08.000Z</time>
      </trkpt>
      <trkpt lat="47.23359" lon="-1.4747">
        <ele>58</ele>
        <time>2020-09-13T09:13:10.000Z</time>
      </trkpt>
      <trkpt lat="47.23345" lon="-1.47475">
        <ele>57</ele>
        <time>2020-09-13T09:13:12.000Z</time>
      </trkpt>
      <trkpt lat="47.23334" lon="-1.47483">
        <ele>57</ele>
        <time>2020-09-13T09:13:14.000Z</time>
      </trkpt>
      <trkpt lat="47.23324" lon="-1.47493">
        <ele>57</ele>
        <time>2020-09-13T09:13:16.000Z</time>
      </trkpt>
      <trkpt lat="47.23313" lon="-1.47501">
        <ele>57</ele>
        <time>2020-09-13T09:13:18.000Z</time>
      </trkpt>
      <trkpt lat="47.233" lon="-1.4751">
        <ele>56</ele>
        <time>2020-09-13T09:13:20.000Z</time>
      </trkpt>
      <trkpt lat="47.23287" lon="-1.47517">
        <ele>56</ele>
        <time>2020-09-13T09:13:22.000Z</time>
      </trkpt>
      <trkpt lat="47.23274" lon="-1.47523">
        <ele>55</ele>
        <time>2020-09-13T09:13:24.000Z</time>
      </trkpt>
      <trkpt lat="47.23263" lon="-1.47534">
        <ele>56</ele>
        <time>2020-09-13T09:13:26.000Z</time>
      </trkpt>
      <trkpt lat="47.23254" lon="-1.4755">
        <ele>56</ele>
        <time>2020-09-13T09:13:28.000Z</time>
      </trkpt>
      <trkpt lat="47.23245" lon="-1.47566">
        <ele>56</ele>
        <time>2020-09-13T09:13:30.000Z</time>
      </trkpt>
      <trkpt lat="47.23237" lon="-1.47582">
        <ele>55</ele>
        <time>2020-09-13T09:13:32.000Z</time>
      </trkpt>
      <trkpt lat="47.23229" lon="-1.47596">
        <ele>55</ele>
        <time>2020-09-13T09:13:34.000Z</time>
      </trkpt>
      <trkpt lat="47.23223" lon="-1.47612">
        <ele>55</ele>
        <time>2020-09-13T09:13:36.000Z</time>
      </trkpt>
      <trkpt lat="47.23216" lon="-1.47628">
        <ele>55</ele>
        <time>2020-09-13T09:13:38.000Z</time>
      </trkpt>
      <trkpt lat="47.23209" lon="-1.47645">
        <ele>55</ele>
        <time>2020-09-13T09:13:40.000Z</time>
      </trkpt>
      <trkpt lat="47.23202" lon="-1.47662">
        <ele>55</ele>
        <time>2020-09-13T09:13:42.000Z</time>
      </trkpt>
      <trkpt lat="47.23196" lon="-1.47678">
        <ele>55</ele>
        <time>2020-09-13T09:13:44.000Z</time>
      </trkpt>
      <trkpt lat="47.23189" lon="-1.47694">
        <ele>55</ele>
        <time>2020-09-13T09:13:46.000Z</time>
      </trkpt>
      <trkpt lat="47.23181" lon="-1.47711">
        <ele>55</ele>
        <time>2020-09-13T09:13:48.000Z</time>
      </trkpt>
      <trkpt lat="47.23173" lon="-1.47729">
        <ele>54</ele>
        <time>2020-09-13T09:13:50.000Z</time>
      </trkpt>
      <trkpt lat="47.23165" lon="-1.47746">
        <ele>54</ele>
        <time>2020-09-13T09:13:52.000Z</time>
      </trkpt>
      <trkpt lat="47.23157" lon="-1.47762">
        <ele>54</ele>
        <time>2020-09-13T09:13:54.000Z</time>
      </trkpt>
      <trkpt lat="47.2315" lon="-1.47778">
        <ele>54</ele>
        <time>2020-09-13T09:13:56.000Z</time>
      </trkpt>
      <trkpt lat="47.23145" lon="-1.47793">
        <ele>55</ele>
        <time>2020-09-13T09:13:58.000Z</time>
      </trkpt>
      <trkpt lat="47.23139" lon="-1.47809">
        <ele>56</ele>
        <time>2020-09-13T09:14:00.000Z</time>
      </trkpt>
      <trkpt lat="47.23134" lon="-1.47825">
        <ele>56</ele>
        <time>2020-09-13T09:14:02.000Z</time>
      </trkpt>
      <trkpt lat="47.23128" lon="-1.47842">
        <ele>56</ele>
        <time>2020-09-13T09:14:04.000Z</time>
      </trkpt>
      <trkpt lat="47.23119" lon="-1.4786">
        <ele>55</ele>
        <time>2020-09-13T09:14:06.000Z</time>
      </trkpt>
      <trkpt lat="47.23109" lon="-1.47876">
        <ele>55</ele>
        <time>2020-09-13T09:14:08.000Z</time>
      </trkpt>
      <trkpt lat="47.23099" lon="-1.4789">
        <ele>55</ele>
        <time>2020-09-13T09:14:10.000Z</time>
      </trkpt>
      <trkpt lat="47.23088" lon="-1.47903">
        <ele>55</ele>
        <time>2020-09-13T09:14:12.000Z</time>
      </trkpt>
      <trkpt lat="47.23078" lon="-1.47916">
        <ele>54</ele>
        <time>2020-09-13T09:14:14.000Z</time>
      </trkpt>
      <trkpt lat="47.23068" lon="-1.47929">
        <ele>54</ele>
        <time>2020-09-13T09:14:16.000Z</time>
      </trkpt>
      <trkpt lat="47.23058" lon="-1.47942">
        <ele>54</ele>
        <time>2020-09-13T09:14:18.000Z</time>
      </trkpt>
      <trkpt lat="47.23047" lon="-1.47954">
        <ele>53</ele>
        <time>2020-09-13T09:14:20.000Z</time>
      </trkpt>
      <trkpt lat="47.23037" lon="-1.47968">
        <ele>53</ele>
        <time>2020-09-13T09:14:22.000Z</time>
      </trkpt>
      <trkpt lat="47.23027" lon="-1.47981">
        <ele>53</ele>
        <time>2020-09-13T09:14:24.000Z</time>
      </trkpt>
      <trkpt lat="47.23018" lon="-1.47994">
        <ele>53</ele>
        <time>2020-09-13T09:14:26.000Z</time>
      </trkpt>
      <trkpt lat="47.23009" lon="-1.48008">
        <ele>52</ele>
        <time>2020-09-13T09:14:28.000Z</time>
      </trkpt>
      <trkpt lat="47.23001" lon="-1.48022">
        <ele>52</ele>
        <time>2020-09-13T09:14:30.000Z</time>
      </trkpt>
      <trkpt lat="47.22993" lon="-1.48037">
        <ele>53</ele>
        <time>2020-09-13T09:14:32.000Z</time>
      </trkpt>
      <trkpt lat="47.22985" lon="-1.48051">
        <ele>53</ele>
        <time>2020-09-13T09:14:34.000Z</time>
      </trkpt>
      <trkpt lat="47.22977" lon="-1.48065">
        <ele>52</ele>
        <time>2020-09-13T09:14:36.000Z</time>
      </trkpt>
      <trkpt lat="47.22969" lon="-1.48076">
        <ele>53</ele>
        <time>2020-09-13T09:14:38.000Z</time>
      </trkpt>
      <trkpt lat="47.22961" lon="-1.48089">
        <ele>54</ele>
        <time>2020-09-13T09:14:41.000Z</time>
      </trkpt>
      <trkpt lat="47.22955" lon="-1.48099">
        <ele>54</ele>
        <time>2020-09-13T09:14:43.000Z</time>
      </trkpt>
      <trkpt lat="47.22948" lon="-1.4811">
        <ele>55</ele>
        <time>2020-09-13T09:14:45.000Z</time>
      </trkpt>
      <trkpt lat="47.22935" lon="-1.48113">
        <ele>55</ele>
        <time>2020-09-13T09:14:47.000Z</time>
      </trkpt>
      <trkpt lat="47.2292" lon="-1.48116">
        <ele>55</ele>
        <time>2020-09-13T09:14:49.000Z</time>
      </trkpt>
      <trkpt lat="47.22907" lon="-1.48122">
        <ele>55</ele>
        <time>2020-09-13T09:14:51.000Z</time>
      </trkpt>
      <trkpt lat="47.22896" lon="-1.48136">
        <ele>54</ele>
        <time>2020-09-13T09:14:53.000Z</time>
      </trkpt>
      <trkpt lat="47.22886" lon="-1.4815">
        <ele>53</ele>
        <time>2020-09-13T09:14:55.000Z</time>
      </trkpt>
      <trkpt lat="47.22876" lon="-1.48165">
        <ele>53</ele>
        <time>2020-09-13T09:14:57.000Z</time>
      </trkpt>
      <trkpt lat="47.22867" lon="-1.48179">
        <ele>54</ele>
        <time>2020-09-13T09:14:59.000Z</time>
      </trkpt>
      <trkpt lat="47.22858" lon="-1.48194">
        <ele>54</ele>
        <time>2020-09-13T09:15:01.000Z</time>
      </trkpt>
      <trkpt lat="47.22849" lon="-1.48208">
        <ele>55</ele>
        <time>2020-09-13T09:15:03.000Z</time>
      </trkpt>
      <trkpt lat="47.22839" lon="-1.48223">
        <ele>54</ele>
        <time>2020-09-13T09:15:05.000Z</time>
      </trkpt>
      <trkpt lat="47.22829" lon="-1.48238">
        <ele>54</ele>
        <time>2020-09-13T09:15:07.000Z</time>
      </trkpt>
      <trkpt lat="47.2282" lon="-1.48251">
        <ele>54</ele>
        <time>2020-09-13T09:15:09.000Z</time>
      </trkpt>
      <trkpt lat="47.22811" lon="-1.48264">
        <ele>54</ele>
        <time>2020-09-13T09:15:11.000Z</time>
      </trkpt>
      <trkpt lat="47.22802" lon="-1.48279">
        <ele>54</ele>
        <time>2020-09-13T09:15:13.000Z</time>
      </trkpt>
      <trkpt lat="47.22794" lon="-1.48294">
        <ele>55</ele>
        <time>2020-09-13T09:15:15.000Z</time>
      </trkpt>
      <trkpt lat="47.22784" lon="-1.48309">
        <ele>56</ele>
        <time>2020-09-13T09:15:17.000Z</time>
      </trkpt>
      <trkpt lat="47.22774" lon="-1.48325">
        <ele>56</ele>
        <time>2020-09-13T09:15:19.000Z</time>
      </trkpt>
      <trkpt lat="47.22765" lon="-1.4834">
        <ele>57</ele>
        <time>2020-09-13T09:15:21.000Z</time>
      </trkpt>
      <trkpt lat="47.22755" lon="-1.48354">
        <ele>56</ele>
        <time>2020-09-13T09:15:23.000Z</time>
      </trkpt>
      <trkpt lat="47.22746" lon="-1.48367">
        <ele>56</ele>
        <time>2020-09-13T09:15:25.000Z</time>
      </trkpt>
      <trkpt lat="47.22736" lon="-1.48381">
        <ele>55</ele>
        <time>2020-09-13T09:15:27.000Z</time>
      </trkpt>
      <trkpt lat="47.22726" lon="-1.48394">
        <ele>54</ele>
        <time>2020-09-13T09:15:29.000Z</time>
      </trkpt>
      <trkpt lat="47.22716" lon="-1.48406">
        <ele>54</ele>
        <time>2020-09-13T09:15:31.000Z</time>
      </trkpt>
      <trkpt lat="47.22708" lon="-1.48421">
        <ele>53</ele>
        <time>2020-09-13T09:15:33.000Z</time>
      </trkpt>
      <trkpt lat="47.22701" lon="-1.4844">
        <ele>54</ele>
        <time>2020-09-13T09:15:35.000Z</time>
      </trkpt>
      <trkpt lat="47.22696" lon="-1.48457">
        <ele>54</ele>
        <time>2020-09-13T09:15:37.000Z</time>
      </trkpt>
      <trkpt lat="47.22689" lon="-1.48475">
        <ele>55</ele>
        <time>2020-09-13T09:15:39.000Z</time>
      </trkpt>
      <trkpt lat="47.22681" lon="-1.48491">
        <ele>55</ele>
        <time>2020-09-13T09:15:41.000Z</time>
      </trkpt>
      <trkpt lat="47.22673" lon="-1.48507">
        <ele>56</ele>
        <time>2020-09-13T09:15:43.000Z</time>
      </trkpt>
      <trkpt lat="47.22668" lon="-1.48526">
        <ele>56</ele>
        <time>2020-09-13T09:15:45.000Z</time>
      </trkpt>
      <trkpt lat="47.22661" lon="-1.48544">
        <ele>56</ele>
        <time>2020-09-13T09:15:47.000Z</time>
      </trkpt>
      <trkpt lat="47.22655" lon="-1.48563">
        <ele>56</ele>
        <time>2020-09-13T09:15:49.000Z</time>
      </trkpt>
      <trkpt lat="47.22648" lon="-1.4858">
        <ele>55</ele>
        <time>2020-09-13T09:15:51.000Z</time>
      </trkpt>
      <trkpt lat="47.22643" lon="-1.48595">
        <ele>56</ele>
        <time>2020-09-13T09:15:53.000Z</time>
      </trkpt>
      <trkpt lat="47.22638" lon="-1.4861">
        <ele>56</ele>
        <time>2020-09-13T09:15:55.000Z</time>
      </trkpt>
      <trkpt lat="47.22632" lon="-1.48625">
        <ele>56</ele>
        <time>2020-09-13T09:15:57.000Z</time>
      </trkpt>
      <trkpt lat="47.22626" lon="-1.4864">
        <ele>56</ele>
        <time>2020-09-13T09:15:59.000Z</time>
      </trkpt>
      <trkpt lat="47.22619" lon="-1.48657">
        <ele>57</ele>
        <time>2020-09-13T09:16:01.000Z</time>
      </trkpt>
      <trkpt lat="47.22613" lon="-1.48677">
        <ele>57</ele>
        <time>2020-09-13T09:16:03.000Z</time>
      </trkpt>
      <trkpt lat="47.22608" lon="-1.48697">
        <ele>58</ele>
        <time>2020-09-13T09:16:05.000Z</time>
      </trkpt>
      <trkpt lat="47.22602" lon="-1.48717">
        <ele>57</ele>
        <time>2020-09-13T09:16:07.000Z</time>
      </trkpt>
      <trkpt lat="47.22597" lon="-1.48735">
        <ele>58</ele>
        <time>2020-09-13T09:16:09.000Z</time>
      </trkpt>
      <trkpt lat="47.22592" lon="-1.48755">
        <ele>58</ele>
        <time>2020-09-13T09:16:11.000Z</time>
      </trkpt>
      <trkpt lat="47.22587" lon="-1.48773">
        <ele>57</ele>
        <time>2020-09-13T09:16:13.000Z</time>
      </trkpt>
      <trkpt lat="47.22582" lon="-1.4879">
        <ele>57</ele>
        <time>2020-09-13T09:16:15.000Z</time>
      </trkpt>
      <trkpt lat="47.22576" lon="-1.48808">
        <ele>57</ele>
        <time>2020-09-13T09:16:17.000Z</time>
      </trkpt>
      <trkpt lat="47.22569" lon="-1.48824">
        <ele>57</ele>
        <time>2020-09-13T09:16:19.000Z</time>
      </trkpt>
      <trkpt lat="47.22564" lon="-1.48839">
        <ele>58</ele>
        <time>2020-09-13T09:16:21.000Z</time>
      </trkpt>
      <trkpt lat="47.22561" lon="-1.48855">
        <ele>58</ele>
        <time>2020-09-13T09:16:23.000Z</time>
      </trkpt>
      <trkpt lat="47.22557" lon="-1.48872">
        <ele>58</ele>
        <time>2020-09-13T09:16:25.000Z</time>
      </trkpt>
      <trkpt lat="47.22552" lon="-1.48887">
        <ele>58</ele>
        <time>2020-09-13T09:16:27.000Z</time>
      </trkpt>
      <trkpt lat="47.22547" lon="-1.48905">
        <ele>58</ele>
        <time>2020-09-13T09:16:29.000Z</time>
      </trkpt>
      <trkpt lat="47.22542" lon="-1.48923">
        <ele>59</ele>
        <time>2020-09-13T09:16:31.000Z</time>
      </trkpt>
      <trkpt lat="47.22536" lon="-1.48943">
        <ele>58</ele>
        <time>2020-09-13T09:16:33.000Z</time>
      </trkpt>
      <trkpt lat="47.22529" lon="-1.48961">
        <ele>59</ele>
        <time>2020-09-13T09:16:35.000Z</time>
      </trkpt>
      <trkpt lat="47.22522" lon="-1.48979">
        <ele>59</ele>
        <time>2020-09-13T09:16:37.000Z</time>
      </trkpt>
      <trkpt lat="47.22515" lon="-1.48996">
        <ele>60</ele>
        <time>2020-09-13T09:16:39.000Z</time>
      </trkpt>
      <trkpt lat="47.2251" lon="-1.49012">
        <ele>60</ele>
        <time>2020-09-13T09:16:41.000Z</time>
      </trkpt>
      <trkpt lat="47.22505" lon="-1.4903">
        <ele>61</ele>
        <time>2020-09-13T09:16:43.000Z</time>
      </trkpt>
      <trkpt lat="47.225" lon="-1.49048">
        <ele>61</ele>
        <time>2020-09-13T09:16:45.000Z</time>
      </trkpt>
      <trkpt lat="47.22494" lon="-1.49065">
        <ele>62</ele>
        <time>2020-09-13T09:16:47.000Z</time>
      </trkpt>
      <trkpt lat="47.22489" lon="-1.49083">
        <ele>63</ele>
        <time>2020-09-13T09:16:49.000Z</time>
      </trkpt>
      <trkpt lat="47.22484" lon="-1.49101">
        <ele>64</ele>
        <time>2020-09-13T09:16:51.000Z</time>
      </trkpt>
      <trkpt lat="47.22478" lon="-1.49119">
        <ele>64</ele>
        <time>2020-09-13T09:16:53.000Z</time>
      </trkpt>
      <trkpt lat="47.22473" lon="-1.49137">
        <ele>65</ele>
        <time>2020-09-13T09:16:55.000Z</time>
      </trkpt>
      <trkpt lat="47.22467" lon="-1.49158">
        <ele>64</ele>
        <time>2020-09-13T09:16:57.000Z</time>
      </trkpt>
      <trkpt lat="47.2246" lon="-1.49175">
        <ele>65</ele>
        <time>2020-09-13T09:16:59.000Z</time>
      </trkpt>
      <trkpt lat="47.22453" lon="-1.49193">
        <ele>65</ele>
        <time>2020-09-13T09:17:01.000Z</time>
      </trkpt>
      <trkpt lat="47.22447" lon="-1.49209">
        <ele>65</ele>
        <time>2020-09-13T09:17:03.000Z</time>
      </trkpt>
      <trkpt lat="47.22441" lon="-1.49228">
        <ele>64</ele>
        <time>2020-09-13T09:17:05.000Z</time>
      </trkpt>
      <trkpt lat="47.22434" lon="-1.49245">
        <ele>64</ele>
        <time>2020-09-13T09:17:07.000Z</time>
      </trkpt>
      <trkpt lat="47.22427" lon="-1.49263">
        <ele>63</ele>
        <time>2020-09-13T09:17:09.000Z</time>
      </trkpt>
      <trkpt lat="47.22419" lon="-1.49279">
        <ele>63</ele>
        <time>2020-09-13T09:17:11.000Z</time>
      </trkpt>
      <trkpt lat="47.22412" lon="-1.49295">
        <ele>63</ele>
        <time>2020-09-13T09:17:13.000Z</time>
      </trkpt>
      <trkpt lat="47.22406" lon="-1.49312">
        <ele>63</ele>
        <time>2020-09-13T09:17:15.000Z</time>
      </trkpt>
      <trkpt lat="47.224" lon="-1.4933">
        <ele>63</ele>
        <time>2020-09-13T09:17:17.000Z</time>
      </trkpt>
      <trkpt lat="47.22394" lon="-1.49347">
        <ele>63</ele>
        <time>2020-09-13T09:17:19.000Z</time>
      </trkpt>
      <trkpt lat="47.22387" lon="-1.49364">
        <ele>63</ele>
        <time>2020-09-13T09:17:21.000Z</time>
      </trkpt>
      <trkpt lat="47.22379" lon="-1.4938">
        <ele>61</ele>
        <time>2020-09-13T09:17:23.000Z</time>
      </trkpt>
      <trkpt lat="47.22372" lon="-1.49397">
        <ele>61</ele>
        <time>2020-09-13T09:17:25.000Z</time>
      </trkpt>
      <trkpt lat="47.22366" lon="-1.49414">
        <ele>62</ele>
        <time>2020-09-13T09:17:27.000Z</time>
      </trkpt>
      <trkpt lat="47.22359" lon="-1.49431">
        <ele>61</ele>
        <time>2020-09-13T09:17:29.000Z</time>
      </trkpt>
      <trkpt lat="47.22352" lon="-1.49449">
        <ele>62</ele>
        <time>2020-09-13T09:17:31.000Z</time>
      </trkpt>
      <trkpt lat="47.22346" lon="-1.49465">
        <ele>63</ele>
        <time>2020-09-13T09:17:33.000Z</time>
      </trkpt>
      <trkpt lat="47.2234" lon="-1.49484">
        <ele>63</ele>
        <time>2020-09-13T09:17:35.000Z</time>
      </trkpt>
      <trkpt lat="47.22335" lon="-1.49503">
        <ele>63</ele>
        <time>2020-09-13T09:17:37.000Z</time>
      </trkpt>
      <trkpt lat="47.22329" lon="-1.49522">
        <ele>62</ele>
        <time>2020-09-13T09:17:39.000Z</time>
      </trkpt>
      <trkpt lat="47.22323" lon="-1.4954">
        <ele>62</ele>
        <time>2020-09-13T09:17:41.000Z</time>
      </trkpt>
      <trkpt lat="47.22317" lon="-1.49557">
        <ele>63</ele>
        <time>2020-09-13T09:17:43.000Z</time>
      </trkpt>
      <trkpt lat="47.22311" lon="-1.49575">
        <ele>62</ele>
        <time>2020-09-13T09:17:45.000Z</time>
      </trkpt>
      <trkpt lat="47.22305" lon="-1.49594">
        <ele>62</ele>
        <time>2020-09-13T09:17:47.000Z</time>
      </trkpt>
      <trkpt lat="47.223" lon="-1.49612">
        <ele>61</ele>
        <time>2020-09-13T09:17:49.000Z</time>
      </trkpt>
      <trkpt lat="47.22294" lon="-1.49631">
        <ele>61</ele>
        <time>2020-09-13T09:17:51.000Z</time>
      </trkpt>
      <trkpt lat="47.22289" lon="-1.49649">
        <ele>61</ele>
        <time>2020-09-13T09:17:53.000Z</time>
      </trkpt>
      <trkpt lat="47.22284" lon="-1.49667">
        <ele>61</ele>
        <time>2020-09-13T09:17:55.000Z</time>
      </trkpt>
      <trkpt lat="47.22278" lon="-1.49684">
        <ele>60</ele>
        <time>2020-09-13T09:17:57.000Z</time>
      </trkpt>
      <trkpt lat="47.22272" lon="-1.49701">
        <ele>60</ele>
        <time>2020-09-13T09:17:59.000Z</time>
      </trkpt>
      <trkpt lat="47.22266" lon="-1.49719">
        <ele>60</ele>
        <time>2020-09-13T09:18:01.000Z</time>
      </trkpt>
      <trkpt lat="47.2226" lon="-1.49737">
        <ele>60</ele>
        <time>2020-09-13T09:18:03.000Z</time>
      </trkpt>
      <trkpt lat="47.22255" lon="-1.49755">
        <ele>60</ele>
        <time>2020-09-13T09:18:05.000Z</time>
      </trkpt>
      <trkpt lat="47.22252" lon="-1.49774">
        <ele>59</ele>
        <time>2020-09-13T09:18:07.000Z</time>
      </trkpt>
      <trkpt lat="47.22249" lon="-1.49794">
        <ele>59</ele>
        <time>2020-09-13T09:18:09.000Z</time>
      </trkpt>
      <trkpt lat="47.22246" lon="-1.49813">
        <ele>60</ele>
        <time>2020-09-13T09:18:11.000Z</time>
      </trkpt>
      <trkpt lat="47.22243" lon="-1.49832">
        <ele>60</ele>
        <time>2020-09-13T09:18:13.000Z</time>
      </trkpt>
      <trkpt lat="47.22239" lon="-1.49849">
        <ele>61</ele>
        <time>2020-09-13T09:18:15.000Z</time>
      </trkpt>
      <trkpt lat="47.22235" lon="-1.49867">
        <ele>61</ele>
        <time>2020-09-13T09:18:17.000Z</time>
      </trkpt>
      <trkpt lat="47.22231" lon="-1.49885">
        <ele>62</ele>
        <time>2020-09-13T09:18:19.000Z</time>
      </trkpt>
      <trkpt lat="47.22227" lon="-1.49903">
        <ele>63</ele>
        <time>2020-09-13T09:18:21.000Z</time>
      </trkpt>
      <trkpt lat="47.22223" lon="-1.49921">
        <ele>62</ele>
        <time>2020-09-13T09:18:23.000Z</time>
      </trkpt>
      <trkpt lat="47.22218" lon="-1.4994">
        <ele>63</ele>
        <time>2020-09-13T09:18:25.000Z</time>
      </trkpt>
      <trkpt lat="47.22214" lon="-1.49958">
        <ele>63</ele>
        <time>2020-09-13T09:18:27.000Z</time>
      </trkpt>
      <trkpt lat="47.2221" lon="-1.49975">
        <ele>64</ele>
        <time>2020-09-13T09:18:29.000Z</time>
      </trkpt>
      <trkpt lat="47.22204" lon="-1.49993">
        <ele>64</ele>
        <time>2020-09-13T09:18:31.000Z</time>
      </trkpt>
      <trkpt lat="47.22199" lon="-1.50014">
        <ele>65</ele>
        <time>2020-09-13T09:18:33.000Z</time>
      </trkpt>
      <trkpt lat="47.22194" lon="-1.50033">
        <ele>64</ele>
        <time>2020-09-13T09:18:35.000Z</time>
      </trkpt>
      <trkpt lat="47.22189" lon="-1.50051">
        <ele>65</ele>
        <time>2020-09-13T09:18:37.000Z</time>
      </trkpt>
      <trkpt lat="47.22185" lon="-1.5007">
        <ele>64</ele>
        <time>2020-09-13T09:18:39.000Z</time>
      </trkpt>
      <trkpt lat="47.22181" lon="-1.50089">
        <ele>65</ele>
        <time>2020-09-13T09:18:41.000Z</time>
      </trkpt>
      <trkpt lat="47.22176" lon="-1.50108">
        <ele>64</ele>
        <time>2020-09-13T09:18:43.000Z</time>
      </trkpt>
      <trkpt lat="47.2217" lon="-1.50126">
        <ele>64</ele>
        <time>2020-09-13T09:18:45.000Z</time>
      </trkpt>
      <trkpt lat="47.22163" lon="-1.50143">
        <ele>64</ele>
        <time>2020-09-13T09:18:47.000Z</time>
      </trkpt>
      <trkpt lat="47.22158" lon="-1.50162">
        <ele>63</ele>
        <time>2020-09-13T09:18:49.000Z</time>
      </trkpt>
      <trkpt lat="47.22153" lon="-1.50181">
        <ele>62</ele>
        <time>2020-09-13T09:18:51.000Z</time>
      </trkpt>
      <trkpt lat="47.22148" lon="-1.502">
        <ele>62</ele>
        <time>2020-09-13T09:18:53.000Z</time>
      </trkpt>
      <trkpt lat="47.22143" lon="-1.50216">
        <ele>61</ele>
        <time>2020-09-13T09:18:55.000Z</time>
      </trkpt>
      <trkpt lat="47.22139" lon="-1.50232">
        <ele>60</ele>
        <time>2020-09-13T09:18:57.000Z</time>
      </trkpt>
      <trkpt lat="47.22135" lon="-1.50249">
        <ele>59</ele>
        <time>2020-09-13T09:18:59.000Z</time>
      </trkpt>
      <trkpt lat="47.22131" lon="-1.50265">
        <ele>60</ele>
        <time>2020-09-13T09:19:01.000Z</time>
      </trkpt>
      <trkpt lat="47.22125" lon="-1.50282">
        <ele>60</ele>
        <time>2020-09-13T09:19:03.000Z</time>
      </trkpt>
      <trkpt lat="47.22117" lon="-1.50297">
        <ele>61</ele>
        <time>2020-09-13T09:19:05.000Z</time>
      </trkpt>
      <trkpt lat="47.22109" lon="-1.50311">
        <ele>61</ele>
        <time>2020-09-13T09:19:07.000Z</time>
      </trkpt>
      <trkpt lat="47.22101" lon="-1.50325">
        <ele>61</ele>
        <time>2020-09-13T09:19:09.000Z</time>
      </trkpt>
      <trkpt lat="47.22094" lon="-1.50339">
        <ele>61</ele>
        <time>2020-09-13T09:19:11.000Z</time>
      </trkpt>
      <trkpt lat="47.22089" lon="-1.50357">
        <ele>62</ele>
        <time>2020-09-13T09:19:13.000Z</time>
      </trkpt>
      <trkpt lat="47.22085" lon="-1.50377">
        <ele>61</ele>
        <time>2020-09-13T09:19:15.000Z</time>
      </trkpt>
      <trkpt lat="47.22079" lon="-1.50396">
        <ele>60</ele>
        <time>2020-09-13T09:19:17.000Z</time>
      </trkpt>
      <trkpt lat="47.22075" lon="-1.50412">
        <ele>61</ele>
        <time>2020-09-13T09:19:19.000Z</time>
      </trkpt>
      <trkpt lat="47.22071" lon="-1.50431">
        <ele>61</ele>
        <time>2020-09-13T09:19:21.000Z</time>
      </trkpt>
      <trkpt lat="47.22068" lon="-1.50451">
        <ele>60</ele>
        <time>2020-09-13T09:19:23.000Z</time>
      </trkpt>
      <trkpt lat="47.22065" lon="-1.50471">
        <ele>60</ele>
        <time>2020-09-13T09:19:25.000Z</time>
      </trkpt>
      <trkpt lat="47.22062" lon="-1.5049">
        <ele>60</ele>
        <time>2020-09-13T09:19:27.000Z</time>
      </trkpt>
      <trkpt lat="47.22061" lon="-1.50508">
        <ele>61</ele>
        <time>2020-09-13T09:19:29.000Z</time>
      </trkpt>
      <trkpt lat="47.2206" lon="-1.50528">
        <ele>61</ele>
        <time>2020-09-13T09:19:31.000Z</time>
      </trkpt>
      <trkpt lat="47.22058" lon="-1.50547">
        <ele>61</ele>
        <time>2020-09-13T09:19:33.000Z</time>
      </trkpt>
      <trkpt lat="47.22058" lon="-1.50566">
        <ele>61</ele>
        <time>2020-09-13T09:19:35.000Z</time>
      </trkpt>
      <trkpt lat="47.22058" lon="-1.50584">
        <ele>61</ele>
        <time>2020-09-13T09:19:37.000Z</time>
      </trkpt>
      <trkpt lat="47.22059" lon="-1.50601">
        <ele>61</ele>
        <time>2020-09-13T09:19:39.000Z</time>
      </trkpt>
      <trkpt lat="47.22058" lon="-1.5062">
        <ele>60</ele>
        <time>2020-09-13T09:19:41.000Z</time>
      </trkpt>
      <trkpt lat="47.22058" lon="-1.50639">
        <ele>60</ele>
        <time>2020-09-13T09:19:43.000Z</time>
      </trkpt>
      <trkpt lat="47.22055" lon="-1.50658">
        <ele>60</ele>
        <time>2020-09-13T09:19:45.000Z</time>
      </trkpt>
      <trkpt lat="47.22053" lon="-1.50676">
        <ele>60</ele>
        <time>2020-09-13T09:19:47.000Z</time>
      </trkpt>
      <trkpt lat="47.22051" lon="-1.50693">
        <ele>60</ele>
        <time>2020-09-13T09:19:49.000Z</time>
      </trkpt>
      <trkpt lat="47.22049" lon="-1.5071">
        <ele>60</ele>
        <time>2020-09-13T09:19:51.000Z</time>
      </trkpt>
      <trkpt lat="47.22047" lon="-1.50727">
        <ele>60</ele>
        <time>2020-09-13T09:19:53.000Z</time>
      </trkpt>
      <trkpt lat="47.22045" lon="-1.50744">
        <ele>61</ele>
        <time>2020-09-13T09:19:55.000Z</time>
      </trkpt>
      <trkpt lat="47.22042" lon="-1.50762">
        <ele>61</ele>
        <time>2020-09-13T09:19:57.000Z</time>
      </trkpt>
      <trkpt lat="47.22038" lon="-1.50781">
        <ele>60</ele>
        <time>2020-09-13T09:19:59.000Z</time>
      </trkpt>
      <trkpt lat="47.22033" lon="-1.50799">
        <ele>61</ele>
        <time>2020-09-13T09:20:01.000Z</time>
      </trkpt>
      <trkpt lat="47.22026" lon="-1.50818">
        <ele>60</ele>
        <time>2020-09-13T09:20:03.000Z</time>
      </trkpt>
      <trkpt lat="47.2202" lon="-1.50834">
        <ele>60</ele>
        <time>2020-09-13T09:20:05.000Z</time>
      </trkpt>
      <trkpt lat="47.22014" lon="-1.50853">
        <ele>61</ele>
        <time>2020-09-13T09:20:07.000Z</time>
      </trkpt>
      <trkpt lat="47.22006" lon="-1.50873">
        <ele>61</ele>
        <time>2020-09-13T09:20:09.000Z</time>
      </trkpt>
      <trkpt lat="47.21999" lon="-1.50891">
        <ele>61</ele>
        <time>2020-09-13T09:20:11.000Z</time>
      </trkpt>
      <trkpt lat="47.21993" lon="-1.50909">
        <ele>60</ele>
        <time>2020-09-13T09:20:13.000Z</time>
      </trkpt>
      <trkpt lat="47.21988" lon="-1.50927">
        <ele>60</ele>
        <time>2020-09-13T09:20:15.000Z</time>
      </trkpt>
      <trkpt lat="47.21983" lon="-1.50945">
        <ele>59</ele>
        <time>2020-09-13T09:20:17.000Z</time>
      </trkpt>
      <trkpt lat="47.21977" lon="-1.50964">
        <ele>59</ele>
        <time>2020-09-13T09:20:19.000Z</time>
      </trkpt>
      <trkpt lat="47.21972" lon="-1.50981">
        <ele>59</ele>
        <time>2020-09-13T09:20:21.000Z</time>
      </trkpt>
      <trkpt lat="47.21967" lon="-1.50999">
        <ele>59</ele>
        <time>2020-09-13T09:20:23.000Z</time>
      </trkpt>
      <trkpt lat="47.21961" lon="-1.51017">
        <ele>59</ele>
        <time>2020-09-13T09:20:25.000Z</time>
      </trkpt>
      <trkpt lat="47.21957" lon="-1.51033">
        <ele>59</ele>
        <time>2020-09-13T09:20:27.000Z</time>
      </trkpt>
      <trkpt lat="47.21952" lon="-1.51048">
        <ele>60</ele>
        <time>2020-09-13T09:20:29.000Z</time>
      </trkpt>
      <trkpt lat="47.21947" lon="-1.51062">
        <ele>59</ele>
        <time>2020-09-13T09:20:31.000Z</time>
      </trkpt>
      <trkpt lat="47.21939" lon="-1.51076">
        <ele>59</ele>
        <time>2020-09-13T09:20:33.000Z</time>
      </trkpt>
      <trkpt lat="47.21931" lon="-1.51092">
        <ele>58</ele>
        <time>2020-09-13T09:20:35.000Z</time>
      </trkpt>
      <trkpt lat="47.21926" lon="-1.5111">
        <ele>57</ele>
        <time>2020-09-13T09:20:37.000Z</time>
      </trkpt>
      <trkpt lat="47.21919" lon="-1.51128">
        <ele>56</ele>
        <time>2020-09-13T09:20:39.000Z</time>
      </trkpt>
      <trkpt lat="47.21914" lon="-1.51146">
        <ele>56</ele>
        <time>2020-09-13T09:20:41.000Z</time>
      </trkpt>
      <trkpt lat="47.21908" lon="-1.51162">
        <ele>56</ele>
        <time>2020-09-13T09:20:43.000Z</time>
      </trkpt>
      <trkpt lat="47.21903" lon="-1.51179">
        <ele>56</ele>
        <time>2020-09-13T09:20:45.000Z</time>
      </trkpt>
      <trkpt lat="47.21897" lon="-1.51197">
        <ele>56</ele>
        <time>2020-09-13T09:20:47.000Z</time>
      </trkpt>
      <trkpt lat="47.21891" lon="-1.51214">
        <ele>56</ele>
        <time>2020-09-13T09:20:49.000Z</time>
      </trkpt>
      <trkpt lat="47.21885" lon="-1.51231">
        <ele>56</ele>
        <time>2020-09-13T09:20:51.000Z</time>
      </trkpt>
      <trkpt lat="47.21879" lon="-1.51249">
        <ele>56</ele>
        <time>2020-09-13T09:20:53.000Z</time>
      </trkpt>
      <trkpt lat="47.21873" lon="-1.51266">
        <ele>57</ele>
        <time>2020-09-13T09:20:55.000Z</time>
      </trkpt>
      <trkpt lat="47.21868" lon="-1.51284">
        <ele>58</ele>
        <time>2020-09-13T09:20:57.000Z</time>
      </trkpt>
      <trkpt lat="47.21862" lon="-1.51302">
        <ele>58</ele>
        <time>2020-09-13T09:20:59.000Z</time>
      </trkpt>
      <trkpt lat="47.21857" lon="-1.5132">
        <ele>57</ele>
        <time>2020-09-13T09:21:01.000Z</time>
      </trkpt>
      <trkpt lat="47.21852" lon="-1.51337">
        <ele>57</ele>
        <time>2020-09-13T09:21:03.000Z</time>
      </trkpt>
      <trkpt lat="47.21848" lon="-1.51355">
        <ele>57</ele>
        <time>2020-09-13T09:21:05.000Z</time>
      </trkpt>
      <trkpt lat="47.21842" lon="-1.51373">
        <ele>57</ele>
        <time>2020-09-13T09:21:07.000Z</time>
      </trkpt>
      <trkpt lat="47.21837" lon="-1.51391">
        <ele>57</ele>
        <time>2020-09-13T09:21:09.000Z</time>
      </trkpt>
      <trkpt lat="47.21833" lon="-1.51408">
        <ele>58</ele>
        <time>2020-09-13T09:21:11.000Z</time>
      </trkpt>
      <trkpt lat="47.21829" lon="-1.51426">
        <ele>57</ele>
        <time>2020-09-13T09:21:13.000Z</time>
      </trkpt>
      <trkpt lat="47.21825" lon="-1.51444">
        <ele>57</ele>
        <time>2020-09-13T09:21:15.000Z</time>
      </trkpt>
      <trkpt lat="47.21822" lon="-1.51462">
        <ele>57</ele>
        <time>2020-09-13T09:21:17.000Z</time>
      </trkpt>
      <trkpt lat="47.21818" lon="-1.5148">
        <ele>56</ele>
        <time>2020-09-13T09:21:19.000Z</time>
      </trkpt>
      <trkpt lat="47.21812" lon="-1.51498">
        <ele>56</ele>
        <time>2020-09-13T09:21:21.000Z</time>
      </trkpt>
      <trkpt lat="47.21804" lon="-1.51512">
        <ele>56</ele>
        <time>2020-09-13T09:21:23.000Z</time>
      </trkpt>
      <trkpt lat="47.21798" lon="-1.51528">
        <ele>56</ele>
        <time>2020-09-13T09:21:25.000Z</time>
      </trkpt>
      <trkpt lat="47.21792" lon="-1.51545">
        <ele>56</ele>
        <time>2020-09-13T09:21:27.000Z</time>
      </trkpt>
      <trkpt lat="47.21786" lon="-1.5156">
        <ele>56</ele>
        <time>2020-09-13T09:21:29.000Z</time>
      </trkpt>
      <trkpt lat="47.21778" lon="-1.51575">
        <ele>56</ele>
        <time>2020-09-13T09:21:31.000Z</time>
      </trkpt>
      <trkpt lat="47.2177" lon="-1.51589">
        <ele>56</ele>
        <time>2020-09-13T09:21:33.000Z</time>
      </trkpt>
      <trkpt lat="47.21761" lon="-1.51601">
        <ele>56</ele>
        <time>2020-09-13T09:21:35.000Z</time>
      </trkpt>
      <trkpt lat="47.21753" lon="-1.51614">
        <ele>56</ele>
        <time>2020-09-13T09:21:37.000Z</time>
      </trkpt>
      <trkpt lat="47.21745" lon="-1.51628">
        <ele>56</ele>
        <time>2020-09-13T09:21:39.000Z</time>
      </trkpt>
      <trkpt lat="47.21738" lon="-1.51643">
        <ele>56</ele>
        <time>2020-09-13T09:21:41.000Z</time>
      </trkpt>
      <trkpt lat="47.21732" lon="-1.5166">
        <ele>56</ele>
        <time>2020-09-13T09:21:43.000Z</time>
      </trkpt>
      <trkpt lat="47.21725" lon="-1.51675">
        <ele>55</ele>
        <time>2020-09-13T09:21:45.000Z</time>
      </trkpt>
      <trkpt lat="47.21719" lon="-1.5169">
        <ele>55</ele>
        <time>2020-09-13T09:21:47.000Z</time>
      </trkpt>
      <trkpt lat="47.21712" lon="-1.51705">
        <ele>55</ele>
        <time>2020-09-13T09:21:49.000Z</time>
      </trkpt>
      <trkpt lat="47.21706" lon="-1.5172">
        <ele>55</ele>
        <time>2020-09-13T09:21:51.000Z</time>
      </trkpt>
      <trkpt lat="47.217" lon="-1.51734">
        <ele>55</ele>
        <time>2020-09-13T09:21:53.000Z</time>
      </trkpt>
      <trkpt lat="47.21692" lon="-1.51752">
        <ele>55</ele>
        <time>2020-09-13T09:21:55.000Z</time>
      </trkpt>
      <trkpt lat="47.21685" lon="-1.51769">
        <ele>55</ele>
        <time>2020-09-13T09:21:57.000Z</time>
      </trkpt>
      <trkpt lat="47.21678" lon="-1.51785">
        <ele>55</ele>
        <time>2020-09-13T09:21:59.000Z</time>
      </trkpt>
      <trkpt lat="47.2167" lon="-1.518">
        <ele>56</ele>
        <time>2020-09-13T09:22:01.000Z</time>
      </trkpt>
      <trkpt lat="47.21663" lon="-1.51817">
        <ele>56</ele>
        <time>2020-09-13T09:22:03.000Z</time>
      </trkpt>
      <trkpt lat="47.21656" lon="-1.51835">
        <ele>56</ele>
        <time>2020-09-13T09:22:05.000Z</time>
      </trkpt>
      <trkpt lat="47.21651" lon="-1.51853">
        <ele>56</ele>
        <time>2020-09-13T09:22:07.000Z</time>
      </trkpt>
      <trkpt lat="47.21647" lon="-1.5187">
        <ele>56</ele>
        <time>2020-09-13T09:22:09.000Z</time>
      </trkpt>
      <trkpt lat="47.21643" lon="-1.51889">
        <ele>55</ele>
        <time>2020-09-13T09:22:11.000Z</time>
      </trkpt>
      <trkpt lat="47.21635" lon="-1.51903">
        <ele>56</ele>
        <time>2020-09-13T09:22:13.000Z</time>
      </trkpt>
      <trkpt lat="47.21628" lon="-1.51918">
        <ele>55</ele>
        <time>2020-09-13T09:22:15.000Z</time>
      </trkpt>
      <trkpt lat="47.21623" lon="-1.51935">
        <ele>55</ele>
        <time>2020-09-13T09:22:17.000Z</time>
      </trkpt>
      <trkpt lat="47.2162" lon="-1.51953">
        <ele>56</ele>
        <time>2020-09-13T09:22:19.000Z</time>
      </trkpt>
      <trkpt lat="47.21617" lon="-1.51971">
        <ele>56</ele>
        <time>2020-09-13T09:22:21.000Z</time>
      </trkpt>
      <trkpt lat="47.21611" lon="-1.51984">
        <ele>57</ele>
        <time>2020-09-13T09:22:23.000Z</time>
      </trkpt>
      <trkpt lat="47.21605" lon="-1.51999">
        <ele>57</ele>
        <time>2020-09-13T09:22:25.000Z</time>
      </trkpt>
      <trkpt lat="47.21599" lon="-1.52017">
        <ele>57</ele>
        <time>2020-09-13T09:22:27.000Z</time>
      </trkpt>
      <trkpt lat="47.21591" lon="-1.52037">
        <ele>56</ele>
        <time>2020-09-13T09:22:29.000Z</time>
      </trkpt>
      <trkpt lat="47.21584" lon="-1.52056">
        <ele>56</ele>
        <time>2020-09-13T09:22:31.000Z</time>
      </trkpt>
      <trkpt lat="47.21579" lon="-1.52074">
        <ele>56</ele>
        <time>2020-09-13T09:22:33.000Z</time>
      </trkpt>
      <trkpt lat="47.21573" lon="-1.52091">
        <ele>55</ele>
        <time>2020-09-13T09:22:35.000Z</time>
      </trkpt>
      <trkpt lat="47.21568" lon="-1.52109">
        <ele>56</ele>
        <time>2020-09-13T09:22:37.000Z</time>
      </trkpt>
      <trkpt lat="47.21562" lon="-1.52126">
        <ele>55</ele>
        <time>2020-09-13T09:22:39.000Z</time>
      </trkpt>
      <trkpt lat="47.21556" lon="-1.52143">
        <ele>56</ele>
        <time>2020-09-13T09:22:41.000Z</time>
      </trkpt>
      <trkpt lat="47.21551" lon="-1.52161">
        <ele>56</ele>
        <time>2020-09-13T09:22:43.000Z</time>
      </trkpt>
      <trkpt lat="47.21545" lon="-1.52179">
        <ele>56</ele>
        <time>2020-09-13T09:22:45.000Z</time>
      </trkpt>
      <trkpt lat="47.21539" lon="-1.52197">
        <ele>56</ele>
        <time>2020-09-13T09:22:47.000Z</time>
      </trkpt>
      <trkpt lat="47.21533" lon="-1.52215">
        <ele>57</ele>
        <time>2020-09-13T09:22:49.000Z</time>
      </trkpt>
      <trkpt lat="47.21527" lon="-1.52232">
        <ele>56</ele>
        <time>2020-09-13T09:22:51.000Z</time>
      </trkpt>
      <trkpt lat="47.21522" lon="-1.52249">
        <ele>56</ele>
        <time>2020-09-13T09:22:53.000Z</time>
      </trkpt>
      <trkpt lat="47.21517" lon="-1.52266">
        <ele>56</ele>
        <time>2020-09-13T09:22:55.000Z</time>
      </trkpt>
      <trkpt lat="47.21511" lon="-1.52284">
        <ele>56</ele>
        <time>2020-09-13T09:22:57.000Z</time>
      </trkpt>
      <trkpt lat="47.21505" lon="-1.52302">
        <ele>56</ele>
        <time>2020-09-13T09:22:59.000Z</time>
      </trkpt>
      <trkpt lat="47.21499" lon="-1.5232">
        <ele>56</ele>
        <time>2020-09-13T09:23:01.000Z</time>
      </trkpt>
      <trkpt lat="47.21494" lon="-1.52337">
        <ele>55</ele>
        <time>2020-09-13T09:23:03.000Z</time>
      </trkpt>
      <trkpt lat="47.21489" lon="-1.52353">
        <ele>55</ele>
        <time>2020-09-13T09:23:05.000Z</time>
      </trkpt>
      <trkpt lat="47.21483" lon="-1.52371">
        <ele>56</ele>
        <time>2020-09-13T09:23:07.000Z</time>
      </trkpt>
      <trkpt lat="47.21478" lon="-1.52389">
        <ele>56</ele>
        <time>2020-09-13T09:23:09.000Z</time>
      </trkpt>
      <trkpt lat="47.21472" lon="-1.52407">
        <ele>57</ele>
        <time>2020-09-13T09:23:11.000Z</time>
      </trkpt>
      <trkpt lat="47.21466" lon="-1.52424">
        <ele>57</ele>
        <time>2020-09-13T09:23:13.000Z</time>
      </trkpt>
      <trkpt lat="47.2146" lon="-1.52442">
        <ele>56</ele>
        <time>2020-09-13T09:23:15.000Z</time>
      </trkpt>
      <trkpt lat="47.21455" lon="-1.52457">
        <ele>56</ele>
        <time>2020-09-13T09:23:17.000Z</time>
      </trkpt>
      <trkpt lat="47.21451" lon="-1.52474">
        <ele>57</ele>
        <time>2020-09-13T09:23:19.000Z</time>
      </trkpt>
      <trkpt lat="47.21445" lon="-1.52491">
        <ele>57</ele>
        <time>2020-09-13T09:23:21.000Z</time>
      </trkpt>
      <trkpt lat="47.2144" lon="-1.5251">
        <ele>57</ele>
        <time>2020-09-13T09:23:23.000Z</time>
      </trkpt>
      <trkpt lat="47.21433" lon="-1.52529">
        <ele>56</ele>
        <time>2020-09-13T09:23:25.000Z</time>
      </trkpt>
      <trkpt lat="47.21427" lon="-1.52546">
        <ele>56</ele>
        <time>2020-09-13T09:23:27.000Z</time>
      </trkpt>
      <trkpt lat="47.21421" lon="-1.52564">
        <ele>56</ele>
        <time>2020-09-13T09:23:29.000Z</time>
      </trkpt>
      <trkpt lat="47.21416" lon="-1.52581">
        <ele>56</ele>
        <time>2020-09-13T09:23:31.000Z</time>
      </trkpt>
      <trkpt lat="47.2141" lon="-1.52599">
        <ele>56</ele>
        <time>2020-09-13T09:23:33.000Z</time>
      </trkpt>
      <trkpt lat="47.21404" lon="-1.52616">
        <ele>56</ele>
        <time>2020-09-13T09:23:35.000Z</time>
      </trkpt>
      <trkpt lat="47.21399" lon="-1.52632">
        <ele>56</ele>
        <time>2020-09-13T09:23:37.000Z</time>
      </trkpt>
      <trkpt lat="47.21394" lon="-1.52649">
        <ele>56</ele>
        <time>2020-09-13T09:23:39.000Z</time>
      </trkpt>
      <trkpt lat="47.2139" lon="-1.52664">
        <ele>56</ele>
        <time>2020-09-13T09:23:41.000Z</time>
      </trkpt>
      <trkpt lat="47.21387" lon="-1.5268">
        <ele>57</ele>
        <time>2020-09-13T09:23:43.000Z</time>
      </trkpt>
      <trkpt lat="47.21383" lon="-1.52698">
        <ele>57</ele>
        <time>2020-09-13T09:23:45.000Z</time>
      </trkpt>
      <trkpt lat="47.21378" lon="-1.52715">
        <ele>58</ele>
        <time>2020-09-13T09:23:47.000Z</time>
      </trkpt>
      <trkpt lat="47.21375" lon="-1.52733">
        <ele>58</ele>
        <time>2020-09-13T09:23:49.000Z</time>
      </trkpt>
      <trkpt lat="47.21372" lon="-1.52755">
        <ele>58</ele>
        <time>2020-09-13T09:23:51.000Z</time>
      </trkpt>
      <trkpt lat="47.21368" lon="-1.52775">
        <ele>59</ele>
        <time>2020-09-13T09:23:53.000Z</time>
      </trkpt>
      <trkpt lat="47.21366" lon="-1.52794">
        <ele>59</ele>
        <time>2020-09-13T09:23:55.000Z</time>
      </trkpt>
      <trkpt lat="47.21362" lon="-1.52812">
        <ele>59</ele>
        <time>2020-09-13T09:23:57.000Z</time>
      </trkpt>
      <trkpt lat="47.21358" lon="-1.52829">
        <ele>58</ele>
        <time>2020-09-13T09:23:59.000Z</time>
      </trkpt>
      <trkpt lat="47.21353" lon="-1.52846">
        <ele>58</ele>
        <time>2020-09-13T09:24:01.000Z</time>
      </trkpt>
      <trkpt lat="47.2135" lon="-1.52866">
        <ele>58</ele>
        <time>2020-09-13T09:24:03.000Z</time>
      </trkpt>
      <trkpt lat="47.21346" lon="-1.52886">
        <ele>57</ele>
        <time>2020-09-13T09:24:05.000Z</time>
      </trkpt>
      <trkpt lat="47.21343" lon="-1.52906">
        <ele>56</ele>
        <time>2020-09-13T09:24:07.000Z</time>
      </trkpt>
      <trkpt lat="47.2134" lon="-1.52925">
        <ele>56</ele>
        <time>2020-09-13T09:24:09.000Z</time>
      </trkpt>
      <trkpt lat="47.21339" lon="-1.52942">
        <ele>56</ele>
        <time>2020-09-13T09:24:11.000Z</time>
      </trkpt>
      <trkpt lat="47.21336" lon="-1.52957">
        <ele>56</ele>
        <time>2020-09-13T09:24:13.000Z</time>
      </trkpt>
      <trkpt lat="47.21334" lon="-1.52979">
        <ele>57</ele>
        <time>2020-09-13T09:24:15.000Z</time>
      </trkpt>
      <trkpt lat="47.21331" lon="-1.53001">
        <ele>57</ele>
        <time>2020-09-13T09:24:17.000Z</time>
      </trkpt>
      <trkpt lat="47.21331" lon="-1.53021">
        <ele>57</ele>
        <time>2020-09-13T09:24:19.000Z</time>
      </trkpt>
      <trkpt lat="47.21329" lon="-1.5304">
        <ele>56</ele>
        <time>2020-09-13T09:24:21.000Z</time>
      </trkpt>
      <trkpt lat="47.21328" lon="-1.53059">
        <ele>56</ele>
        <time>2020-09-13T09:24:23.000Z</time>
      </trkpt>
      <trkpt lat="47.21327" lon="-1.53078">
        <ele>57</ele>
        <time>2020-09-13T09:24:25.000Z</time>
      </trkpt>
      <trkpt lat="47.21326" lon="-1.53095">
        <ele>57</ele>
        <time>2020-09-13T09:24:27.000Z</time>
      </trkpt>
      <trkpt lat="47.21324" lon="-1.53113">
        <ele>57</ele>
        <time>2020-09-13T09:24:29.000Z</time>
      </trkpt>
      <trkpt lat="47.2132" lon="-1.53131">
        <ele>57</ele>
        <time>2020-09-13T09:24:31.000Z</time>
      </trkpt>
      <trkpt lat="47.21317" lon="-1.5315">
        <ele>57</ele>
        <time>2020-09-13T09:24:33.000Z</time>
      </trkpt>
      <trkpt lat="47.21314" lon="-1.53167">
        <ele>58</ele>
        <time>2020-09-13T09:24:35.000Z</time>
      </trkpt>
      <trkpt lat="47.2131" lon="-1.53185">
        <ele>58</ele>
        <time>2020-09-13T09:24:37.000Z</time>
      </trkpt>
      <trkpt lat="47.21309" lon="-1.53207">
        <ele>58</ele>
        <time>2020-09-13T09:24:39.000Z</time>
      </trkpt>
      <trkpt lat="47.21308" lon="-1.5323">
        <ele>58</ele>
        <time>2020-09-13T09:24:41.000Z</time>
      </trkpt>
      <trkpt lat="47.21309" lon="-1.53253">
        <ele>57</ele>
        <time>2020-09-13T09:24:43.000Z</time>
      </trkpt>
      <trkpt lat="47.21309" lon="-1.53275">
        <ele>57</ele>
        <time>2020-09-13T09:24:45.000Z</time>
      </trkpt>
      <trkpt lat="47.21309" lon="-1.53297">
        <ele>57</ele>
        <time>2020-09-13T09:24:47.000Z</time>
      </trkpt>
      <trkpt lat="47.21307" lon="-1.53318">
        <ele>57</ele>
        <time>2020-09-13T09:24:49.000Z</time>
      </trkpt>
      <trkpt lat="47.21304" lon="-1.53339">
        <ele>57</ele>
        <time>2020-09-13T09:24:51.000Z</time>
      </trkpt>
      <trkpt lat="47.21301" lon="-1.53359">
        <ele>57</ele>
        <time>2020-09-13T09:24:53.000Z</time>
      </trkpt>
      <trkpt lat="47.21297" lon="-1.5338">
        <ele>57</ele>
        <time>2020-09-13T09:24:55.000Z</time>
      </trkpt>
      <trkpt lat="47.21294" lon="-1.53399">
        <ele>57</ele>
        <time>2020-09-13T09:24:57.000Z</time>
      </trkpt>
      <trkpt lat="47.21293" lon="-1.53418">
        <ele>57</ele>
        <time>2020-09-13T09:24:59.000Z</time>
      </trkpt>
      <trkpt lat="47.21291" lon="-1.53438">
        <ele>57</ele>
        <time>2020-09-13T09:25:01.000Z</time>
      </trkpt>
      <trkpt lat="47.21292" lon="-1.53458">
        <ele>57</ele>
        <time>2020-09-13T09:25:03.000Z</time>
      </trkpt>
      <trkpt lat="47.21297" lon="-1.53476">
        <ele>57</ele>
        <time>2020-09-13T09:25:05.000Z</time>
      </trkpt>
      <trkpt lat="47.213" lon="-1.53496">
        <ele>57</ele>
        <time>2020-09-13T09:25:07.000Z</time>
      </trkpt>
      <trkpt lat="47.21301" lon="-1.53515">
        <ele>57</ele>
        <time>2020-09-13T09:25:09.000Z</time>
      </trkpt>
      <trkpt lat="47.21301" lon="-1.53534">
        <ele>58</ele>
        <time>2020-09-13T09:25:11.000Z</time>
      </trkpt>
      <trkpt lat="47.21301" lon="-1.53554">
        <ele>58</ele>
        <time>2020-09-13T09:25:13.000Z</time>
      </trkpt>
      <trkpt lat="47.21302" lon="-1.53573">
        <ele>59</ele>
        <time>2020-09-13T09:25:15.000Z</time>
      </trkpt>
      <trkpt lat="47.21303" lon="-1.53591">
        <ele>59</ele>
        <time>2020-09-13T09:25:17.000Z</time>
      </trkpt>
      <trkpt lat="47.21303" lon="-1.53609">
        <ele>60</ele>
        <time>2020-09-13T09:25:19.000Z</time>
      </trkpt>
      <trkpt lat="47.213" lon="-1.53625">
        <ele>60</ele>
        <time>2020-09-13T09:25:21.000Z</time>
      </trkpt>
      <trkpt lat="47.21295" lon="-1.53635">
        <ele>59</ele>
        <time>2020-09-13T09:25:23.000Z</time>
      </trkpt>
      <trkpt lat="47.21293" lon="-1.53655">
        <ele>59</ele>
        <time>2020-09-13T09:25:26.000Z</time>
      </trkpt>
      <trkpt lat="47.21292" lon="-1.53669">
        <ele>59</ele>
        <time>2020-09-13T09:25:28.000Z</time>
      </trkpt>
      <trkpt lat="47.21298" lon="-1.5368">
        <ele>60</ele>
        <time>2020-09-13T09:25:30.000Z</time>
      </trkpt>
      <trkpt lat="47.21304" lon="-1.53696">
        <ele>60</ele>
        <time>2020-09-13T09:25:32.000Z</time>
      </trkpt>
      <trkpt lat="47.21308" lon="-1.53714">
        <ele>60</ele>
        <time>2020-09-13T09:25:34.000Z</time>
      </trkpt>
      <trkpt lat="47.21312" lon="-1.53733">
        <ele>60</ele>
        <time>2020-09-13T09:25:36.000Z</time>
      </trkpt>
      <trkpt lat="47.21316" lon="-1.53753">
        <ele>60</ele>
        <time>2020-09-13T09:25:38.000Z</time>
      </trkpt>
      <trkpt lat="47.21319" lon="-1.53771">
        <ele>60</ele>
        <time>2020-09-13T09:25:40.000Z</time>
      </trkpt>
      <trkpt lat="47.21322" lon="-1.5379">
        <ele>61</ele>
        <time>2020-09-13T09:25:42.000Z</time>
      </trkpt>
      <trkpt lat="47.21325" lon="-1.53808">
        <ele>61</ele>
        <time>2020-09-13T09:25:44.000Z</time>
      </trkpt>
      <trkpt lat="47.21327" lon="-1.53826">
        <ele>61</ele>
        <time>2020-09-13T09:25:46.000Z</time>
      </trkpt>
      <trkpt lat="47.2133" lon="-1.53844">
        <ele>61</ele>
        <time>2020-09-13T09:25:48.000Z</time>
      </trkpt>
      <trkpt lat="47.21333" lon="-1.53863">
        <ele>61</ele>
        <time>2020-09-13T09:25:50.000Z</time>
      </trkpt>
      <trkpt lat="47.21335" lon="-1.5388">
        <ele>61</ele>
        <time>2020-09-13T09:25:52.000Z</time>
      </trkpt>
      <trkpt lat="47.21338" lon="-1.53896">
        <ele>61</ele>
        <time>2020-09-13T09:25:54.000Z</time>
      </trkpt>
      <trkpt lat="47.21342" lon="-1.5391">
        <ele>61</ele>
        <time>2020-09-13T09:25:56.000Z</time>
      </trkpt>
      <trkpt lat="47.21353" lon="-1.53919">
        <ele>61</ele>
        <time>2020-09-13T09:25:58.000Z</time>
      </trkpt>
      <trkpt lat="47.21365" lon="-1.53927">
        <ele>60</ele>
        <time>2020-09-13T09:26:00.000Z</time>
      </trkpt>
      <trkpt lat="47.21381" lon="-1.53934">
        <ele>60</ele>
        <time>2020-09-13T09:26:02.000Z</time>
      </trkpt>
      <trkpt lat="47.21388" lon="-1.53955">
        <ele>59</ele>
        <time>2020-09-13T09:26:04.000Z</time>
      </trkpt>
      <trkpt lat="47.21387" lon="-1.53979">
        <ele>58</ele>
        <time>2020-09-13T09:26:06.000Z</time>
      </trkpt>
      <trkpt lat="47.21383" lon="-1.53999">
        <ele>58</ele>
        <time>2020-09-13T09:26:08.000Z</time>
      </trkpt>
      <trkpt lat="47.21393" lon="-1.54016">
        <ele>58</ele>
        <time>2020-09-13T09:26:10.000Z</time>
      </trkpt>
      <trkpt lat="47.21403" lon="-1.5403">
        <ele>60</ele>
        <time>2020-09-13T09:26:12.000Z</time>
      </trkpt>
      <trkpt lat="47.21414" lon="-1.54044">
        <ele>60</ele>
        <time>2020-09-13T09:26:14.000Z</time>
      </trkpt>
      <trkpt lat="47.21424" lon="-1.54058">
        <ele>60</ele>
        <time>2020-09-13T09:26:16.000Z</time>
      </trkpt>
      <trkpt lat="47.21434" lon="-1.54072">
        <ele>60</ele>
        <time>2020-09-13T09:26:18.000Z</time>
      </trkpt>
      <trkpt lat="47.21444" lon="-1.54086">
        <ele>61</ele>
        <time>2020-09-13T09:26:20.000Z</time>
      </trkpt>
      <trkpt lat="47.21453" lon="-1.54101">
        <ele>61</ele>
        <time>2020-09-13T09:26:22.000Z</time>
      </trkpt>
      <trkpt lat="47.21463" lon="-1.54116">
        <ele>62</ele>
        <time>2020-09-13T09:26:24.000Z</time>
      </trkpt>
      <trkpt lat="47.21472" lon="-1.5413">
        <ele>62</ele>
        <time>2020-09-13T09:26:26.000Z</time>
      </trkpt>
      <trkpt lat="47.21481" lon="-1.54144">
        <ele>63</ele>
        <time>2020-09-13T09:26:28.000Z</time>
      </trkpt>
      <trkpt lat="47.2149" lon="-1.54159">
        <ele>63</ele>
        <time>2020-09-13T09:26:30.000Z</time>
      </trkpt>
      <trkpt lat="47.215" lon="-1.54171">
        <ele>64</ele>
        <time>2020-09-13T09:26:32.000Z</time>
      </trkpt>
      <trkpt lat="47.2151" lon="-1.54187">
        <ele>62</ele>
        <time>2020-09-13T09:26:34.000Z</time>
      </trkpt>
      <trkpt lat="47.21519" lon="-1.54202">
        <ele>62</ele>
        <time>2020-09-13T09:26:36.000Z</time>
      </trkpt>
      <trkpt lat="47.21528" lon="-1.54216">
        <ele>63</ele>
        <time>2020-09-13T09:26:38.000Z</time>
      </trkpt>
      <trkpt lat="47.21536" lon="-1.54229">
        <ele>63</ele>
        <time>2020-09-13T09:26:40.000Z</time>
      </trkpt>
      <trkpt lat="47.21545" lon="-1.5424">
        <ele>63</ele>
        <time>2020-09-13T09:26:42.000Z</time>
      </trkpt>
      <trkpt lat="47.21554" lon="-1.54246">
        <ele>63</ele>
        <time>2020-09-13T09:26:44.000Z</time>
      </trkpt>
      <trkpt lat="47.21565" lon="-1.54249">
        <ele>63</ele>
        <time>2020-09-13T09:26:46.000Z</time>
      </trkpt>
      <trkpt lat="47.21573" lon="-1.54261">
        <ele>63</ele>
        <time>2020-09-13T09:26:48.000Z</time>
      </trkpt>
      <trkpt lat="47.21576" lon="-1.54278">
        <ele>62</ele>
        <time>2020-09-13T09:26:50.000Z</time>
      </trkpt>
      <trkpt lat="47.21583" lon="-1.54295">
        <ele>62</ele>
        <time>2020-09-13T09:26:52.000Z</time>
      </trkpt>
      <trkpt lat="47.2159" lon="-1.54311">
        <ele>62</ele>
        <time>2020-09-13T09:26:54.000Z</time>
      </trkpt>
      <trkpt lat="47.21597" lon="-1.54327">
        <ele>62</ele>
        <time>2020-09-13T09:26:56.000Z</time>
      </trkpt>
      <trkpt lat="47.21603" lon="-1.54345">
        <ele>64</ele>
        <time>2020-09-13T09:26:58.000Z</time>
      </trkpt>
      <trkpt lat="47.21608" lon="-1.54363">
        <ele>64</ele>
        <time>2020-09-13T09:27:00.000Z</time>
      </trkpt>
      <trkpt lat="47.21611" lon="-1.54382">
        <ele>64</ele>
        <time>2020-09-13T09:27:02.000Z</time>
      </trkpt>
      <trkpt lat="47.21612" lon="-1.54401">
        <ele>64</ele>
        <time>2020-09-13T09:27:04.000Z</time>
      </trkpt>
      <trkpt lat="47.21613" lon="-1.54421">
        <ele>64</ele>
        <time>2020-09-13T09:27:06.000Z</time>
      </trkpt>
      <trkpt lat="47.21613" lon="-1.5444">
        <ele>64</ele>
        <time>2020-09-13T09:27:08.000Z</time>
      </trkpt>
      <trkpt lat="47.21612" lon="-1.5446">
        <ele>64</ele>
        <time>2020-09-13T09:27:10.000Z</time>
      </trkpt>
      <trkpt lat="47.2161" lon="-1.5448">
        <ele>64</ele>
        <time>2020-09-13T09:27:12.000Z</time>
      </trkpt>
      <trkpt lat="47.21607" lon="-1.54499">
        <ele>63</ele>
        <time>2020-09-13T09:27:14.000Z</time>
      </trkpt>
      <trkpt lat="47.21602" lon="-1.54518">
        <ele>63</ele>
        <time>2020-09-13T09:27:16.000Z</time>
      </trkpt>
      <trkpt lat="47.21596" lon="-1.54536">
        <ele>63</ele>
        <time>2020-09-13T09:27:18.000Z</time>
      </trkpt>
      <trkpt lat="47.21588" lon="-1.54554">
        <ele>62</ele>
        <time>2020-09-13T09:27:20.000Z</time>
      </trkpt>
      <trkpt lat="47.21581" lon="-1.54572">
        <ele>61</ele>
        <time>2020-09-13T09:27:22.000Z</time>
      </trkpt>
      <trkpt lat="47.21574" lon="-1.5459">
        <ele>60</ele>
        <time>2020-09-13T09:27:24.000Z</time>
      </trkpt>
      <trkpt lat="47.21566" lon="-1.54609">
        <ele>60</ele>
        <time>2020-09-13T09:27:26.000Z</time>
      </trkpt>
      <trkpt lat="47.21559" lon="-1.54629">
        <ele>59</ele>
        <time>2020-09-13T09:27:28.000Z</time>
      </trkpt>
      <trkpt lat="47.21552" lon="-1.54646">
        <ele>60</ele>
        <time>2020-09-13T09:27:30.000Z</time>
      </trkpt>
      <trkpt lat="47.21547" lon="-1.54661">
        <ele>60</ele>
        <time>2020-09-13T09:27:32.000Z</time>
      </trkpt>
      <trkpt lat="47.2154" lon="-1.54679">
        <ele>60</ele>
        <time>2020-09-13T09:27:34.000Z</time>
      </trkpt>
      <trkpt lat="47.21535" lon="-1.54696">
        <ele>63</ele>
        <time>2020-09-13T09:27:36.000Z</time>
      </trkpt>
      <trkpt lat="47.21528" lon="-1.54714">
        <ele>64</ele>
        <time>2020-09-13T09:27:38.000Z</time>
      </trkpt>
      <trkpt lat="47.21521" lon="-1.54734">
        <ele>64</ele>
        <time>2020-09-13T09:27:40.000Z</time>
      </trkpt>
      <trkpt lat="47.21514" lon="-1.54752">
        <ele>65</ele>
        <time>2020-09-13T09:27:42.000Z</time>
      </trkpt>
      <trkpt lat="47.21508" lon="-1.5477">
        <ele>65</ele>
        <time>2020-09-13T09:27:44.000Z</time>
      </trkpt>
      <trkpt lat="47.21501" lon="-1.54788">
        <ele>66</ele>
        <time>2020-09-13T09:27:46.000Z</time>
      </trkpt>
      <trkpt lat="47.21493" lon="-1.54805">
        <ele>66</ele>
        <time>2020-09-13T09:27:48.000Z</time>
      </trkpt>
      <trkpt lat="47.21486" lon="-1.54822">
        <ele>66</ele>
        <time>2020-09-13T09:27:50.000Z</time>
      </trkpt>
      <trkpt lat="47.21478" lon="-1.54839">
        <ele>66</ele>
        <time>2020-09-13T09:27:52.000Z</time>
      </trkpt>
      <trkpt lat="47.21471" lon="-1.54856">
        <ele>65</ele>
        <time>2020-09-13T09:27:54.000Z</time>
      </trkpt>
      <trkpt lat="47.21462" lon="-1.54872">
        <ele>65</ele>
        <time>2020-09-13T09:27:56.000Z</time>
      </trkpt>
      <trkpt lat="47.21454" lon="-1.54887">
        <ele>66</ele>
        <time>2020-09-13T09:27:58.000Z</time>
      </trkpt>
      <trkpt lat="47.21446" lon="-1.54904">
        <ele>66</ele>
        <time>2020-09-13T09:28:00.000Z</time>
      </trkpt>
      <trkpt lat="47.21438" lon="-1.54921">
        <ele>66</ele>
        <time>2020-09-13T09:28:02.000Z</time>
      </trkpt>
      <trkpt lat="47.21429" lon="-1.54937">
        <ele>67</ele>
        <time>2020-09-13T09:28:04.000Z</time>
      </trkpt>
      <trkpt lat="47.21421" lon="-1.54953">
        <ele>68</ele>
        <time>2020-09-13T09:28:06.000Z</time>
      </trkpt>
      <trkpt lat="47.21414" lon="-1.5497">
        <ele>68</ele>
        <time>2020-09-13T09:28:08.000Z</time>
      </trkpt>
      <trkpt lat="47.21406" lon="-1.54988">
        <ele>67</ele>
        <time>2020-09-13T09:28:10.000Z</time>
      </trkpt>
      <trkpt lat="47.21398" lon="-1.55005">
        <ele>68</ele>
        <time>2020-09-13T09:28:12.000Z</time>
      </trkpt>
      <trkpt lat="47.21391" lon="-1.55021">
        <ele>69</ele>
        <time>2020-09-13T09:28:14.000Z</time>
      </trkpt>
      <trkpt lat="47.21383" lon="-1.55038">
        <ele>69</ele>
        <time>2020-09-13T09:28:16.000Z</time>
      </trkpt>
      <trkpt lat="47.21376" lon="-1.55056">
        <ele>68</ele>
        <time>2020-09-13T09:28:18.000Z</time>
      </trkpt>
      <trkpt lat="47.21369" lon="-1.55074">
        <ele>67</ele>
        <time>2020-09-13T09:28:20.000Z</time>
      </trkpt>
      <trkpt lat="47.21363" lon="-1.55092">
        <ele>66</ele>
        <time>2020-09-13T09:28:22.000Z</time>
      </trkpt>
      <trkpt lat="47.21355" lon="-1.55109">
        <ele>64</ele>
        <time>2020-09-13T09:28:24.000Z</time>
      </trkpt>
      <trkpt lat="47.21347" lon="-1.55126">
        <ele>63</ele>
        <time>2020-09-13T09:28:26.000Z</time>
      </trkpt>
      <trkpt lat="47.2134" lon="-1.55144">
        <ele>62</ele>
        <time>2020-09-13T09:28:28.000Z</time>
      </trkpt>
      <trkpt lat="47.21334" lon="-1.55162">
        <ele>61</ele>
        <time>2020-09-13T09:28:30.000Z</time>
      </trkpt>
      <trkpt lat="47.21328" lon="-1.5518">
        <ele>60</ele>
        <time>2020-09-13T09:28:32.000Z</time>
      </trkpt>
      <trkpt lat="47.21321" lon="-1.55197">
        <ele>60</ele>
        <time>2020-09-13T09:28:34.000Z</time>
      </trkpt>
      <trkpt lat="47.21315" lon="-1.55213">
        <ele>60</ele>
        <time>2020-09-13T09:28:36.000Z</time>
      </trkpt>
      <trkpt lat="47.21309" lon="-1.55229">
        <ele>60</ele>
        <time>2020-09-13T09:28:38.000Z</time>
      </trkpt>
      <trkpt lat="47.21302" lon="-1.55246">
        <ele>59</ele>
        <time>2020-09-13T09:28:40.000Z</time>
      </trkpt>
      <trkpt lat="47.21295" lon="-1.55262">
        <ele>60</ele>
        <time>2020-09-13T09:28:42.000Z</time>
      </trkpt>
      <trkpt lat="47.21289" lon="-1.55279">
        <ele>60</ele>
        <time>2020-09-13T09:28:44.000Z</time>
      </trkpt>
      <trkpt lat="47.21282" lon="-1.55292">
        <ele>60</ele>
        <time>2020-09-13T09:28:46.000Z</time>
      </trkpt>
      <trkpt lat="47.21272" lon="-1.55298">
        <ele>60</ele>
        <time>2020-09-13T09:28:48.000Z</time>
      </trkpt>
      <trkpt lat="47.21262" lon="-1.55298">
        <ele>59</ele>
        <time>2020-09-13T09:28:50.000Z</time>
      </trkpt>
      <trkpt lat="47.21257" lon="-1.55317">
        <ele>59</ele>
        <time>2020-09-13T09:28:53.000Z</time>
      </trkpt>
      <trkpt lat="47.21261" lon="-1.55331">
        <ele>59</ele>
        <time>2020-09-13T09:28:55.000Z</time>
      </trkpt>
      <trkpt lat="47.21267" lon="-1.55342">
        <ele>59</ele>
        <time>2020-09-13T09:28:57.000Z</time>
      </trkpt>
      <trkpt lat="47.21277" lon="-1.5535">
        <ele>59</ele>
        <time>2020-09-13T09:29:01.000Z</time>
      </trkpt>
      <trkpt lat="47.21287" lon="-1.55362">
        <ele>59</ele>
        <time>2020-09-13T09:29:04.000Z</time>
      </trkpt>
      <trkpt lat="47.21282" lon="-1.55376">
        <ele>60</ele>
        <time>2020-09-13T09:29:06.000Z</time>
      </trkpt>
      <trkpt lat="47.21276" lon="-1.55394">
        <ele>60</ele>
        <time>2020-09-13T09:29:08.000Z</time>
      </trkpt>
      <trkpt lat="47.21268" lon="-1.55409">
        <ele>60</ele>
        <time>2020-09-13T09:29:10.000Z</time>
      </trkpt>
      <trkpt lat="47.21258" lon="-1.55424">
        <ele>60</ele>
        <time>2020-09-13T09:29:12.000Z</time>
      </trkpt>
      <trkpt lat="47.21249" lon="-1.5544">
        <ele>60</ele>
        <time>2020-09-13T09:29:14.000Z</time>
      </trkpt>
      <trkpt lat="47.21239" lon="-1.55454">
        <ele>59</ele>
        <time>2020-09-13T09:29:16.000Z</time>
      </trkpt>
      <trkpt lat="47.21229" lon="-1.5547">
        <ele>59</ele>
        <time>2020-09-13T09:29:18.000Z</time>
      </trkpt>
      <trkpt lat="47.21222" lon="-1.55486">
        <ele>59</ele>
        <time>2020-09-13T09:29:20.000Z</time>
      </trkpt>
      <trkpt lat="47.21216" lon="-1.55505">
        <ele>59</ele>
        <time>2020-09-13T09:29:22.000Z</time>
      </trkpt>
      <trkpt lat="47.21211" lon="-1.55523">
        <ele>59</ele>
        <time>2020-09-13T09:29:24.000Z</time>
      </trkpt>
      <trkpt lat="47.21205" lon="-1.55541">
        <ele>59</ele>
        <time>2020-09-13T09:29:26.000Z</time>
      </trkpt>
      <trkpt lat="47.212" lon="-1.55559">
        <ele>58</ele>
        <time>2020-09-13T09:29:28.000Z</time>
      </trkpt>
      <trkpt lat="47.21194" lon="-1.55576">
        <ele>58</ele>
        <time>2020-09-13T09:29:30.000Z</time>
      </trkpt>
      <trkpt lat="47.21188" lon="-1.55594">
        <ele>58</ele>
        <time>2020-09-13T09:29:32.000Z</time>
      </trkpt>
      <trkpt lat="47.21182" lon="-1.55612">
        <ele>58</ele>
        <time>2020-09-13T09:29:34.000Z</time>
      </trkpt>
      <trkpt lat="47.21176" lon="-1.5563">
        <ele>59</ele>
        <time>2020-09-13T09:29:36.000Z</time>
      </trkpt>
      <trkpt lat="47.21171" lon="-1.55648">
        <ele>59</ele>
        <time>2020-09-13T09:29:38.000Z</time>
      </trkpt>
      <trkpt lat="47.2117" lon="-1.55664">
        <ele>58</ele>
        <time>2020-09-13T09:29:40.000Z</time>
      </trkpt>
      <trkpt lat="47.21175" lon="-1.5568">
        <ele>58</ele>
        <time>2020-09-13T09:29:42.000Z</time>
      </trkpt>
      <trkpt lat="47.2118" lon="-1.55698">
        <ele>57</ele>
        <time>2020-09-13T09:29:44.000Z</time>
      </trkpt>
      <trkpt lat="47.21174" lon="-1.55718">
        <ele>57</ele>
        <time>2020-09-13T09:29:46.000Z</time>
      </trkpt>
      <trkpt lat="47.21166" lon="-1.55737">
        <ele>56</ele>
        <time>2020-09-13T09:29:48.000Z</time>
      </trkpt>
      <trkpt lat="47.21159" lon="-1.55757">
        <ele>56</ele>
        <time>2020-09-13T09:29:50.000Z</time>
      </trkpt>
      <trkpt lat="47.21152" lon="-1.55776">
        <ele>57</ele>
        <time>2020-09-13T09:29:52.000Z</time>
      </trkpt>
      <trkpt lat="47.21147" lon="-1.55796">
        <ele>57</ele>
        <time>2020-09-13T09:29:54.000Z</time>
      </trkpt>
      <trkpt lat="47.21143" lon="-1.55816">
        <ele>57</ele>
        <time>2020-09-13T09:29:56.000Z</time>
      </trkpt>
      <trkpt lat="47.21142" lon="-1.55836">
        <ele>56</ele>
        <time>2020-09-13T09:29:58.000Z</time>
      </trkpt>
      <trkpt lat="47.21142" lon="-1.55856">
        <ele>56</ele>
        <time>2020-09-13T09:30:00.000Z</time>
      </trkpt>
      <trkpt lat="47.21146" lon="-1.55873">
        <ele>56</ele>
        <time>2020-09-13T09:30:02.000Z</time>
      </trkpt>
      <trkpt lat="47.21149" lon="-1.55892">
        <ele>57</ele>
        <time>2020-09-13T09:30:04.000Z</time>
      </trkpt>
      <trkpt lat="47.21144" lon="-1.5591">
        <ele>57</ele>
        <time>2020-09-13T09:30:06.000Z</time>
      </trkpt>
      <trkpt lat="47.21131" lon="-1.55918">
        <ele>57</ele>
        <time>2020-09-13T09:30:08.000Z</time>
      </trkpt>
      <trkpt lat="47.21118" lon="-1.55926">
        <ele>57</ele>
        <time>2020-09-13T09:30:10.000Z</time>
      </trkpt>
      <trkpt lat="47.21104" lon="-1.55936">
        <ele>56</ele>
        <time>2020-09-13T09:30:12.000Z</time>
      </trkpt>
      <trkpt lat="47.21092" lon="-1.55948">
        <ele>55</ele>
        <time>2020-09-13T09:30:14.000Z</time>
      </trkpt>
      <trkpt lat="47.21082" lon="-1.55962">
        <ele>55</ele>
        <time>2020-09-13T09:30:16.000Z</time>
      </trkpt>
      <trkpt lat="47.21073" lon="-1.55977">
        <ele>55</ele>
        <time>2020-09-13T09:30:18.000Z</time>
      </trkpt>
      <trkpt lat="47.21066" lon="-1.55992">
        <ele>55</ele>
        <time>2020-09-13T09:30:20.000Z</time>
      </trkpt>
      <trkpt lat="47.21061" lon="-1.56005">
        <ele>56</ele>
        <time>2020-09-13T09:30:22.000Z</time>
      </trkpt>
      <trkpt lat="47.21057" lon="-1.56017">
        <ele>56</ele>
        <time>2020-09-13T09:30:24.000Z</time>
      </trkpt>
      <trkpt lat="47.2105" lon="-1.5603">
        <ele>56</ele>
        <time>2020-09-13T09:30:26.000Z</time>
      </trkpt>
      <trkpt lat="47.21043" lon="-1.56047">
        <ele>55</ele>
        <time>2020-09-13T09:30:28.000Z</time>
      </trkpt>
      <trkpt lat="47.21036" lon="-1.56064">
        <ele>55</ele>
        <time>2020-09-13T09:30:30.000Z</time>
      </trkpt>
      <trkpt lat="47.2103" lon="-1.56081">
        <ele>56</ele>
        <time>2020-09-13T09:30:32.000Z</time>
      </trkpt>
      <trkpt lat="47.21024" lon="-1.56096">
        <ele>56</ele>
        <time>2020-09-13T09:30:34.000Z</time>
      </trkpt>
      <trkpt lat="47.21019" lon="-1.56111">
        <ele>56</ele>
        <time>2020-09-13T09:30:36.000Z</time>
      </trkpt>
      <trkpt lat="47.21013" lon="-1.56125">
        <ele>56</ele>
        <time>2020-09-13T09:30:38.000Z</time>
      </trkpt>
      <trkpt lat="47.21006" lon="-1.56138">
        <ele>56</ele>
        <time>2020-09-13T09:30:40.000Z</time>
      </trkpt>
      <trkpt lat="47.21" lon="-1.5615">
        <ele>55</ele>
        <time>2020-09-13T09:30:42.000Z</time>
      </trkpt>
      <trkpt lat="47.20997" lon="-1.56165">
        <ele>55</ele>
        <time>2020-09-13T09:30:44.000Z</time>
      </trkpt>
      <trkpt lat="47.20988" lon="-1.56171">
        <ele>55</ele>
        <time>2020-09-13T09:30:46.000Z</time>
      </trkpt>
      <trkpt lat="47.20978" lon="-1.56172">
        <ele>55</ele>
        <time>2020-09-13T09:30:48.000Z</time>
      </trkpt>
      <trkpt lat="47.20967" lon="-1.56172">
        <ele>57</ele>
        <time>2020-09-13T09:30:52.000Z</time>
      </trkpt>
      <trkpt lat="47.20956" lon="-1.56168">
        <ele>58</ele>
        <time>2020-09-13T09:30:57.000Z</time>
      </trkpt>
      <trkpt lat="47.2094" lon="-1.56164">
        <ele>59</ele>
        <time>2020-09-13T09:30:59.000Z</time>
      </trkpt>
      <trkpt lat="47.20928" lon="-1.56159">
        <ele>59</ele>
        <time>2020-09-13T09:31:01.000Z</time>
      </trkpt>
      <trkpt lat="47.20916" lon="-1.56157">
        <ele>59</ele>
        <time>2020-09-13T09:31:03.000Z</time>
      </trkpt>
      <trkpt lat="47.20905" lon="-1.56155">
        <ele>58</ele>
        <time>2020-09-13T09:31:05.000Z</time>
      </trkpt>
      <trkpt lat="47.20894" lon="-1.56153">
        <ele>59</ele>
        <time>2020-09-13T09:31:07.000Z</time>
      </trkpt>
      <trkpt lat="47.20884" lon="-1.5615">
        <ele>59</ele>
        <time>2020-09-13T09:31:09.000Z</time>
      </trkpt>
      <trkpt lat="47.20872" lon="-1.56146">
        <ele>58</ele>
        <time>2020-09-13T09:31:11.000Z</time>
      </trkpt>
      <trkpt lat="47.2086" lon="-1.56142">
        <ele>57</ele>
        <time>2020-09-13T09:31:13.000Z</time>
      </trkpt>
      <trkpt lat="47.20848" lon="-1.56141">
        <ele>56</ele>
        <time>2020-09-13T09:31:15.000Z</time>
      </trkpt>
      <trkpt lat="47.20836" lon="-1.5615">
        <ele>55</ele>
        <time>2020-09-13T09:31:17.000Z</time>
      </trkpt>
      <trkpt lat="47.20834" lon="-1.56167">
        <ele>55</ele>
        <time>2020-09-13T09:31:19.000Z</time>
      </trkpt>
      <trkpt lat="47.20835" lon="-1.56195">
        <ele>55</ele>
        <time>2020-09-13T09:31:22.000Z</time>
      </trkpt>
      <trkpt lat="47.20833" lon="-1.56215">
        <ele>54</ele>
        <time>2020-09-13T09:31:24.000Z</time>
      </trkpt>
      <trkpt lat="47.20832" lon="-1.56235">
        <ele>54</ele>
        <time>2020-09-13T09:31:26.000Z</time>
      </trkpt>
      <trkpt lat="47.20833" lon="-1.56255">
        <ele>53</ele>
        <time>2020-09-13T09:31:28.000Z</time>
      </trkpt>
      <trkpt lat="47.20834" lon="-1.56275">
        <ele>54</ele>
        <time>2020-09-13T09:31:30.000Z</time>
      </trkpt>
      <trkpt lat="47.20833" lon="-1.56295">
        <ele>54</ele>
        <time>2020-09-13T09:31:32.000Z</time>
      </trkpt>
      <trkpt lat="47.2083" lon="-1.56315">
        <ele>54</ele>
        <time>2020-09-13T09:31:34.000Z</time>
      </trkpt>
      <trkpt lat="47.20826" lon="-1.56334">
        <ele>55</ele>
        <time>2020-09-13T09:31:36.000Z</time>
      </trkpt>
      <trkpt lat="47.20821" lon="-1.56352">
        <ele>54</ele>
        <time>2020-09-13T09:31:38.000Z</time>
      </trkpt>
      <trkpt lat="47.20816" lon="-1.5637">
        <ele>54</ele>
        <time>2020-09-13T09:31:40.000Z</time>
      </trkpt>
      <trkpt lat="47.20812" lon="-1.56389">
        <ele>54</ele>
        <time>2020-09-13T09:31:42.000Z</time>
      </trkpt>
      <trkpt lat="47.20808" lon="-1.56407">
        <ele>54</ele>
        <time>2020-09-13T09:31:44.000Z</time>
      </trkpt>
      <trkpt lat="47.20802" lon="-1.56425">
        <ele>55</ele>
        <time>2020-09-13T09:31:46.000Z</time>
      </trkpt>
      <trkpt lat="47.20798" lon="-1.56444">
        <ele>54</ele>
        <time>2020-09-13T09:31:48.000Z</time>
      </trkpt>
      <trkpt lat="47.20793" lon="-1.56462">
        <ele>54</ele>
        <time>2020-09-13T09:31:50.000Z</time>
      </trkpt>
      <trkpt lat="47.20789" lon="-1.5648">
        <ele>54</ele>
        <time>2020-09-13T09:31:52.000Z</time>
      </trkpt>
      <trkpt lat="47.20785" lon="-1.56497">
        <ele>54</ele>
        <time>2020-09-13T09:31:54.000Z</time>
      </trkpt>
      <trkpt lat="47.2078" lon="-1.56512">
        <ele>54</ele>
        <time>2020-09-13T09:31:56.000Z</time>
      </trkpt>
      <trkpt lat="47.20771" lon="-1.56516">
        <ele>54</ele>
        <time>2020-09-13T09:31:58.000Z</time>
      </trkpt>
      <trkpt lat="47.20762" lon="-1.56508">
        <ele>54</ele>
        <time>2020-09-13T09:32:00.000Z</time>
      </trkpt>
      <trkpt lat="47.20751" lon="-1.56496">
        <ele>55</ele>
        <time>2020-09-13T09:32:03.000Z</time>
      </trkpt>
      <trkpt lat="47.20742" lon="-1.56502">
        <ele>58</ele>
        <time>2020-09-13T09:32:14.000Z</time>
      </trkpt>
      <trkpt lat="47.20735" lon="-1.56519">
        <ele>58</ele>
        <time>2020-09-13T09:32:17.000Z</time>
      </trkpt>
      <trkpt lat="47.20716" lon="-1.56522">
        <ele>57</ele>
        <time>2020-09-13T09:32:20.000Z</time>
      </trkpt>
      <trkpt lat="47.2071" lon="-1.56508">
        <ele>55</ele>
        <time>2020-09-13T09:32:22.000Z</time>
      </trkpt>
      <trkpt lat="47.20696" lon="-1.56498">
        <ele>56</ele>
        <time>2020-09-13T09:32:25.000Z</time>
      </trkpt>
      <trkpt lat="47.20685" lon="-1.56493">
        <ele>56</ele>
        <time>2020-09-13T09:32:27.000Z</time>
      </trkpt>
      <trkpt lat="47.20673" lon="-1.56488">
        <ele>57</ele>
        <time>2020-09-13T09:32:29.000Z</time>
      </trkpt>
      <trkpt lat="47.20662" lon="-1.56489">
        <ele>56</ele>
        <time>2020-09-13T09:32:31.000Z</time>
      </trkpt>
      <trkpt lat="47.20652" lon="-1.56497">
        <ele>57</ele>
        <time>2020-09-13T09:32:33.000Z</time>
      </trkpt>
      <trkpt lat="47.20645" lon="-1.56507">
        <ele>57</ele>
        <time>2020-09-13T09:32:35.000Z</time>
      </trkpt>
      <trkpt lat="47.20639" lon="-1.56521">
        <ele>57</ele>
        <time>2020-09-13T09:32:37.000Z</time>
      </trkpt>
      <trkpt lat="47.20633" lon="-1.56536">
        <ele>56</ele>
        <time>2020-09-13T09:32:39.000Z</time>
      </trkpt>
      <trkpt lat="47.20627" lon="-1.56551">
        <ele>55</ele>
        <time>2020-09-13T09:32:41.000Z</time>
      </trkpt>
      <trkpt lat="47.2062" lon="-1.56565">
        <ele>55</ele>
        <time>2020-09-13T09:32:43.000Z</time>
      </trkpt>
      <trkpt lat="47.20613" lon="-1.5658">
        <ele>55</ele>
        <time>2020-09-13T09:32:45.000Z</time>
      </trkpt>
      <trkpt lat="47.20605" lon="-1.56594">
        <ele>55</ele>
        <time>2020-09-13T09:32:47.000Z</time>
      </trkpt>
      <trkpt lat="47.20597" lon="-1.56607">
        <ele>55</ele>
        <time>2020-09-13T09:32:49.000Z</time>
      </trkpt>
      <trkpt lat="47.20589" lon="-1.5662">
        <ele>54</ele>
        <time>2020-09-13T09:32:51.000Z</time>
      </trkpt>
      <trkpt lat="47.20581" lon="-1.56634">
        <ele>54</ele>
        <time>2020-09-13T09:32:53.000Z</time>
      </trkpt>
      <trkpt lat="47.20574" lon="-1.56649">
        <ele>54</ele>
        <time>2020-09-13T09:32:55.000Z</time>
      </trkpt>
      <trkpt lat="47.20565" lon="-1.56662">
        <ele>54</ele>
        <time>2020-09-13T09:32:57.000Z</time>
      </trkpt>
      <trkpt lat="47.20558" lon="-1.56678">
        <ele>54</ele>
        <time>2020-09-13T09:32:59.000Z</time>
      </trkpt>
      <trkpt lat="47.20551" lon="-1.56694">
        <ele>54</ele>
        <time>2020-09-13T09:33:01.000Z</time>
      </trkpt>
      <trkpt lat="47.20543" lon="-1.5671">
        <ele>53</ele>
        <time>2020-09-13T09:33:03.000Z</time>
      </trkpt>
      <trkpt lat="47.20527" lon="-1.56715">
        <ele>53</ele>
        <time>2020-09-13T09:33:05.000Z</time>
      </trkpt>
      <trkpt lat="47.20511" lon="-1.56715">
        <ele>53</ele>
        <time>2020-09-13T09:33:07.000Z</time>
      </trkpt>
      <trkpt lat="47.20496" lon="-1.56715">
        <ele>53</ele>
        <time>2020-09-13T09:33:09.000Z</time>
      </trkpt>
      <trkpt lat="47.20482" lon="-1.56714">
        <ele>54</ele>
        <time>2020-09-13T09:33:11.000Z</time>
      </trkpt>
      <trkpt lat="47.20467" lon="-1.56712">
        <ele>55</ele>
        <time>2020-09-13T09:33:13.000Z</time>
      </trkpt>
      <trkpt lat="47.20454" lon="-1.56708">
        <ele>56</ele>
        <time>2020-09-13T09:33:15.000Z</time>
      </trkpt>
      <trkpt lat="47.20441" lon="-1.56705">
        <ele>58</ele>
        <time>2020-09-13T09:33:17.000Z</time>
      </trkpt>
      <trkpt lat="47.20429" lon="-1.56703">
        <ele>58</ele>
        <time>2020-09-13T09:33:19.000Z</time>
      </trkpt>
      <trkpt lat="47.20413" lon="-1.567">
        <ele>60</ele>
        <time>2020-09-13T09:33:22.000Z</time>
      </trkpt>
      <trkpt lat="47.20401" lon="-1.56706">
        <ele>62</ele>
        <time>2020-09-13T09:33:25.000Z</time>
      </trkpt>
      <trkpt lat="47.20399" lon="-1.56734">
        <ele>62</ele>
        <time>2020-09-13T09:33:28.000Z</time>
      </trkpt>
      <trkpt lat="47.204" lon="-1.56755">
        <ele>62</ele>
        <time>2020-09-13T09:33:30.000Z</time>
      </trkpt>
      <trkpt lat="47.20398" lon="-1.56775">
        <ele>64</ele>
        <time>2020-09-13T09:33:32.000Z</time>
      </trkpt>
      <trkpt lat="47.20396" lon="-1.56796">
        <ele>64</ele>
        <time>2020-09-13T09:33:34.000Z</time>
      </trkpt>
      <trkpt lat="47.20396" lon="-1.56818">
        <ele>66</ele>
        <time>2020-09-13T09:33:36.000Z</time>
      </trkpt>
      <trkpt lat="47.20394" lon="-1.56839">
        <ele>66</ele>
        <time>2020-09-13T09:33:38.000Z</time>
      </trkpt>
      <trkpt lat="47.20392" lon="-1.56859">
        <ele>66</ele>
        <time>2020-09-13T09:33:40.000Z</time>
      </trkpt>
      <trkpt lat="47.20393" lon="-1.56879">
        <ele>66</ele>
        <time>2020-09-13T09:33:42.000Z</time>
      </trkpt>
      <trkpt lat="47.20391" lon="-1.56898">
        <ele>66</ele>
        <time>2020-09-13T09:33:44.000Z</time>
      </trkpt>
      <trkpt lat="47.2039" lon="-1.56918">
        <ele>66</ele>
        <time>2020-09-13T09:33:46.000Z</time>
      </trkpt>
      <trkpt lat="47.20385" lon="-1.56937">
        <ele>66</ele>
        <time>2020-09-13T09:33:48.000Z</time>
      </trkpt>
      <trkpt lat="47.20382" lon="-1.56957">
        <ele>65</ele>
        <time>2020-09-13T09:33:50.000Z</time>
      </trkpt>
      <trkpt lat="47.20379" lon="-1.5698">
        <ele>62</ele>
        <time>2020-09-13T09:33:52.000Z</time>
      </trkpt>
      <trkpt lat="47.20376" lon="-1.57001">
        <ele>59</ele>
        <time>2020-09-13T09:33:54.000Z</time>
      </trkpt>
      <trkpt lat="47.20374" lon="-1.57021">
        <ele>58</ele>
        <time>2020-09-13T09:33:56.000Z</time>
      </trkpt>
      <trkpt lat="47.20369" lon="-1.5704">
        <ele>57</ele>
        <time>2020-09-13T09:33:58.000Z</time>
      </trkpt>
      <trkpt lat="47.20362" lon="-1.57056">
        <ele>57</ele>
        <time>2020-09-13T09:34:00.000Z</time>
      </trkpt>
      <trkpt lat="47.20355" lon="-1.57071">
        <ele>57</ele>
        <time>2020-09-13T09:34:02.000Z</time>
      </trkpt>
      <trkpt lat="47.20348" lon="-1.57087">
        <ele>58</ele>
        <time>2020-09-13T09:34:04.000Z</time>
      </trkpt>
      <trkpt lat="47.2034" lon="-1.57101">
        <ele>58</ele>
        <time>2020-09-13T09:34:06.000Z</time>
      </trkpt>
      <trkpt lat="47.20328" lon="-1.57113">
        <ele>58</ele>
        <time>2020-09-13T09:34:08.000Z</time>
      </trkpt>
      <trkpt lat="47.20318" lon="-1.57123">
        <ele>61</ele>
        <time>2020-09-13T09:34:10.000Z</time>
      </trkpt>
      <trkpt lat="47.20306" lon="-1.57132">
        <ele>63</ele>
        <time>2020-09-13T09:34:12.000Z</time>
      </trkpt>
      <trkpt lat="47.20292" lon="-1.5714">
        <ele>62</ele>
        <time>2020-09-13T09:34:14.000Z</time>
      </trkpt>
      <trkpt lat="47.20279" lon="-1.57146">
        <ele>62</ele>
        <time>2020-09-13T09:34:16.000Z</time>
      </trkpt>
      <trkpt lat="47.20266" lon="-1.57153">
        <ele>62</ele>
        <time>2020-09-13T09:34:18.000Z</time>
      </trkpt>
      <trkpt lat="47.20253" lon="-1.57161">
        <ele>60</ele>
        <time>2020-09-13T09:34:20.000Z</time>
      </trkpt>
      <trkpt lat="47.2024" lon="-1.5717">
        <ele>58</ele>
        <time>2020-09-13T09:34:22.000Z</time>
      </trkpt>
      <trkpt lat="47.20227" lon="-1.57178">
        <ele>57</ele>
        <time>2020-09-13T09:34:24.000Z</time>
      </trkpt>
      <trkpt lat="47.20215" lon="-1.57187">
        <ele>57</ele>
        <time>2020-09-13T09:34:26.000Z</time>
      </trkpt>
      <trkpt lat="47.20203" lon="-1.57195">
        <ele>56</ele>
        <time>2020-09-13T09:34:28.000Z</time>
      </trkpt>
      <trkpt lat="47.20191" lon="-1.57203">
        <ele>56</ele>
        <time>2020-09-13T09:34:30.000Z</time>
      </trkpt>
      <trkpt lat="47.20178" lon="-1.57212">
        <ele>56</ele>
        <time>2020-09-13T09:34:32.000Z</time>
      </trkpt>
      <trkpt lat="47.20167" lon="-1.57219">
        <ele>55</ele>
        <time>2020-09-13T09:34:34.000Z</time>
      </trkpt>
      <trkpt lat="47.20154" lon="-1.57228">
        <ele>55</ele>
        <time>2020-09-13T09:34:36.000Z</time>
      </trkpt>
      <trkpt lat="47.20142" lon="-1.57236">
        <ele>55</ele>
        <time>2020-09-13T09:34:38.000Z</time>
      </trkpt>
      <trkpt lat="47.2013" lon="-1.57245">
        <ele>56</ele>
        <time>2020-09-13T09:34:40.000Z</time>
      </trkpt>
      <trkpt lat="47.20117" lon="-1.57253">
        <ele>55</ele>
        <time>2020-09-13T09:34:42.000Z</time>
      </trkpt>
      <trkpt lat="47.20105" lon="-1.57261">
        <ele>55</ele>
        <time>2020-09-13T09:34:44.000Z</time>
      </trkpt>
      <trkpt lat="47.20093" lon="-1.57269">
        <ele>55</ele>
        <time>2020-09-13T09:34:46.000Z</time>
      </trkpt>
      <trkpt lat="47.2008" lon="-1.57279">
        <ele>55</ele>
        <time>2020-09-13T09:34:48.000Z</time>
      </trkpt>
      <trkpt lat="47.20068" lon="-1.57289">
        <ele>55</ele>
        <time>2020-09-13T09:34:50.000Z</time>
      </trkpt>
      <trkpt lat="47.20057" lon="-1.57299">
        <ele>56</ele>
        <time>2020-09-13T09:34:52.000Z</time>
      </trkpt>
      <trkpt lat="47.20045" lon="-1.57308">
        <ele>56</ele>
        <time>2020-09-13T09:34:54.000Z</time>
      </trkpt>
      <trkpt lat="47.20033" lon="-1.57316">
        <ele>56</ele>
        <time>2020-09-13T09:34:56.000Z</time>
      </trkpt>
      <trkpt lat="47.20021" lon="-1.57325">
        <ele>57</ele>
        <time>2020-09-13T09:34:58.000Z</time>
      </trkpt>
      <trkpt lat="47.2001" lon="-1.57333">
        <ele>57</ele>
        <time>2020-09-13T09:35:00.000Z</time>
      </trkpt>
      <trkpt lat="47.19998" lon="-1.57339">
        <ele>58</ele>
        <time>2020-09-13T09:35:02.000Z</time>
      </trkpt>
      <trkpt lat="47.19985" lon="-1.57338">
        <ele>58</ele>
        <time>2020-09-13T09:35:04.000Z</time>
      </trkpt>
      <trkpt lat="47.19979" lon="-1.57319">
        <ele>57</ele>
        <time>2020-09-13T09:35:06.000Z</time>
      </trkpt>
      <trkpt lat="47.19979" lon="-1.57298">
        <ele>57</ele>
        <time>2020-09-13T09:35:08.000Z</time>
      </trkpt>
      <trkpt lat="47.19978" lon="-1.57279">
        <ele>58</ele>
        <time>2020-09-13T09:35:10.000Z</time>
      </trkpt>
      <trkpt lat="47.19978" lon="-1.5726">
        <ele>58</ele>
        <time>2020-09-13T09:35:12.000Z</time>
      </trkpt>
      <trkpt lat="47.19978" lon="-1.57241">
        <ele>58</ele>
        <time>2020-09-13T09:35:14.000Z</time>
      </trkpt>
      <trkpt lat="47.19978" lon="-1.57222">
        <ele>58</ele>
        <time>2020-09-13T09:35:16.000Z</time>
      </trkpt>
      <trkpt lat="47.19978" lon="-1.57203">
        <ele>57</ele>
        <time>2020-09-13T09:35:18.000Z</time>
      </trkpt>
      <trkpt lat="47.19978" lon="-1.57184">
        <ele>57</ele>
        <time>2020-09-13T09:35:20.000Z</time>
      </trkpt>
      <trkpt lat="47.19978" lon="-1.57166">
        <ele>56</ele>
        <time>2020-09-13T09:35:22.000Z</time>
      </trkpt>
      <trkpt lat="47.19977" lon="-1.57146">
        <ele>56</ele>
        <time>2020-09-13T09:35:24.000Z</time>
      </trkpt>
      <trkpt lat="47.19974" lon="-1.57128">
        <ele>55</ele>
        <time>2020-09-13T09:35:26.000Z</time>
      </trkpt>
      <trkpt lat="47.1997" lon="-1.57111">
        <ele>55</ele>
        <time>2020-09-13T09:35:28.000Z</time>
      </trkpt>
      <trkpt lat="47.19966" lon="-1.57093">
        <ele>55</ele>
        <time>2020-09-13T09:35:30.000Z</time>
      </trkpt>
      <trkpt lat="47.19962" lon="-1.57075">
        <ele>54</ele>
        <time>2020-09-13T09:35:32.000Z</time>
      </trkpt>
      <trkpt lat="47.19958" lon="-1.57058">
        <ele>54</ele>
        <time>2020-09-13T09:35:34.000Z</time>
      </trkpt>
      <trkpt lat="47.19952" lon="-1.57041">
        <ele>54</ele>
        <time>2020-09-13T09:35:36.000Z</time>
      </trkpt>
      <trkpt lat="47.1995" lon="-1.57023">
        <ele>55</ele>
        <time>2020-09-13T09:35:38.000Z</time>
      </trkpt>
      <trkpt lat="47.19951" lon="-1.57005">
        <ele>55</ele>
        <time>2020-09-13T09:35:40.000Z</time>
      </trkpt>
      <trkpt lat="47.1995" lon="-1.56986">
        <ele>55</ele>
        <time>2020-09-13T09:35:42.000Z</time>
      </trkpt>
      <trkpt lat="47.19951" lon="-1.56968">
        <ele>54</ele>
        <time>2020-09-13T09:35:44.000Z</time>
      </trkpt>
      <trkpt lat="47.19951" lon="-1.56949">
        <ele>54</ele>
        <time>2020-09-13T09:35:46.000Z</time>
      </trkpt>
      <trkpt lat="47.19951" lon="-1.5693">
        <ele>54</ele>
        <time>2020-09-13T09:35:48.000Z</time>
      </trkpt>
      <trkpt lat="47.19951" lon="-1.56912">
        <ele>54</ele>
        <time>2020-09-13T09:35:50.000Z</time>
      </trkpt>
      <trkpt lat="47.19951" lon="-1.56893">
        <ele>54</ele>
        <time>2020-09-13T09:35:52.000Z</time>
      </trkpt>
      <trkpt lat="47.19951" lon="-1.56874">
        <ele>54</ele>
        <time>2020-09-13T09:35:54.000Z</time>
      </trkpt>
      <trkpt lat="47.19951" lon="-1.56856">
        <ele>54</ele>
        <time>2020-09-13T09:35:56.000Z</time>
      </trkpt>
      <trkpt lat="47.19951" lon="-1.56838">
        <ele>54</ele>
        <time>2020-09-13T09:35:58.000Z</time>
      </trkpt>
      <trkpt lat="47.19951" lon="-1.56819">
        <ele>54</ele>
        <time>2020-09-13T09:36:00.000Z</time>
      </trkpt>
      <trkpt lat="47.19951" lon="-1.568">
        <ele>54</ele>
        <time>2020-09-13T09:36:02.000Z</time>
      </trkpt>
      <trkpt lat="47.19951" lon="-1.56782">
        <ele>55</ele>
        <time>2020-09-13T09:36:04.000Z</time>
      </trkpt>
      <trkpt lat="47.19951" lon="-1.56763">
        <ele>55</ele>
        <time>2020-09-13T09:36:06.000Z</time>
      </trkpt>
      <trkpt lat="47.19951" lon="-1.56744">
        <ele>55</ele>
        <time>2020-09-13T09:36:08.000Z</time>
      </trkpt>
      <trkpt lat="47.1995" lon="-1.56725">
        <ele>55</ele>
        <time>2020-09-13T09:36:10.000Z</time>
      </trkpt>
      <trkpt lat="47.1995" lon="-1.56707">
        <ele>55</ele>
        <time>2020-09-13T09:36:12.000Z</time>
      </trkpt>
      <trkpt lat="47.1995" lon="-1.56689">
        <ele>55</ele>
        <time>2020-09-13T09:36:14.000Z</time>
      </trkpt>
      <trkpt lat="47.1995" lon="-1.5667">
        <ele>56</ele>
        <time>2020-09-13T09:36:16.000Z</time>
      </trkpt>
      <trkpt lat="47.1995" lon="-1.56652">
        <ele>56</ele>
        <time>2020-09-13T09:36:18.000Z</time>
      </trkpt>
      <trkpt lat="47.1995" lon="-1.56633">
        <ele>55</ele>
        <time>2020-09-13T09:36:20.000Z</time>
      </trkpt>
      <trkpt lat="47.19951" lon="-1.56615">
        <ele>56</ele>
        <time>2020-09-13T09:36:22.000Z</time>
      </trkpt>
      <trkpt lat="47.19951" lon="-1.56597">
        <ele>56</ele>
        <time>2020-09-13T09:36:24.000Z</time>
      </trkpt>
      <trkpt lat="47.19951" lon="-1.56579">
        <ele>56</ele>
        <time>2020-09-13T09:36:26.000Z</time>
      </trkpt>
      <trkpt lat="47.1995" lon="-1.56561">
        <ele>56</ele>
        <time>2020-09-13T09:36:28.000Z</time>
      </trkpt>
      <trkpt lat="47.19951" lon="-1.56542">
        <ele>56</ele>
        <time>2020-09-13T09:36:30.000Z</time>
      </trkpt>
      <trkpt lat="47.1995" lon="-1.56524">
        <ele>57</ele>
        <time>2020-09-13T09:36:32.000Z</time>
      </trkpt>
      <trkpt lat="47.19951" lon="-1.56506">
        <ele>56</ele>
        <time>2020-09-13T09:36:34.000Z</time>
      </trkpt>
      <trkpt lat="47.19952" lon="-1.56488">
        <ele>56</ele>
        <time>2020-09-13T09:36:36.000Z</time>
      </trkpt>
      <trkpt lat="47.19954" lon="-1.56469">
        <ele>56</ele>
        <time>2020-09-13T09:36:38.000Z</time>
      </trkpt>
      <trkpt lat="47.19957" lon="-1.56451">
        <ele>55</ele>
        <time>2020-09-13T09:36:40.000Z</time>
      </trkpt>
      <trkpt lat="47.19961" lon="-1.56434">
        <ele>55</ele>
        <time>2020-09-13T09:36:42.000Z</time>
      </trkpt>
      <trkpt lat="47.19965" lon="-1.56418">
        <ele>55</ele>
        <time>2020-09-13T09:36:44.000Z</time>
      </trkpt>
      <trkpt lat="47.19969" lon="-1.564">
        <ele>55</ele>
        <time>2020-09-13T09:36:46.000Z</time>
      </trkpt>
      <trkpt lat="47.1997" lon="-1.56382">
        <ele>55</ele>
        <time>2020-09-13T09:36:48.000Z</time>
      </trkpt>
      <trkpt lat="47.1997" lon="-1.56364">
        <ele>55</ele>
        <time>2020-09-13T09:36:50.000Z</time>
      </trkpt>
      <trkpt lat="47.19972" lon="-1.56346">
        <ele>55</ele>
        <time>2020-09-13T09:36:52.000Z</time>
      </trkpt>
      <trkpt lat="47.19973" lon="-1.56329">
        <ele>55</ele>
        <time>2020-09-13T09:36:54.000Z</time>
      </trkpt>
      <trkpt lat="47.19975" lon="-1.56311">
        <ele>56</ele>
        <time>2020-09-13T09:36:56.000Z</time>
      </trkpt>
      <trkpt lat="47.19976" lon="-1.56293">
        <ele>55</ele>
        <time>2020-09-13T09:36:58.000Z</time>
      </trkpt>
      <trkpt lat="47.19976" lon="-1.56276">
        <ele>55</ele>
        <time>2020-09-13T09:37:00.000Z</time>
      </trkpt>
      <trkpt lat="47.19977" lon="-1.56258">
        <ele>55</ele>
        <time>2020-09-13T09:37:02.000Z</time>
      </trkpt>
      <trkpt lat="47.19977" lon="-1.56241">
        <ele>56</ele>
        <time>2020-09-13T09:37:04.000Z</time>
      </trkpt>
      <trkpt lat="47.19977" lon="-1.56223">
        <ele>57</ele>
        <time>2020-09-13T09:37:06.000Z</time>
      </trkpt>
      <trkpt lat="47.19976" lon="-1.56206">
        <ele>57</ele>
        <time>2020-09-13T09:37:08.000Z</time>
      </trkpt>
      <trkpt lat="47.19975" lon="-1.5619">
        <ele>58</ele>
        <time>2020-09-13T09:37:10.000Z</time>
      </trkpt>
      <trkpt lat="47.19972" lon="-1.56174">
        <ele>58</ele>
        <time>2020-09-13T09:37:12.000Z</time>
      </trkpt>
      <trkpt lat="47.19963" lon="-1.56166">
        <ele>57</ele>
        <time>2020-09-13T09:37:14.000Z</time>
      </trkpt>
      <trkpt lat="47.19951" lon="-1.56169">
        <ele>57</ele>
        <time>2020-09-13T09:37:16.000Z</time>
      </trkpt>
      <trkpt lat="47.19939" lon="-1.56172">
        <ele>58</ele>
        <time>2020-09-13T09:37:18.000Z</time>
      </trkpt>
      <trkpt lat="47.19928" lon="-1.56175">
        <ele>58</ele>
        <time>2020-09-13T09:37:20.000Z</time>
      </trkpt>
      <trkpt lat="47.19915" lon="-1.56178">
        <ele>58</ele>
        <time>2020-09-13T09:37:22.000Z</time>
      </trkpt>
      <trkpt lat="47.19903" lon="-1.5618">
        <ele>58</ele>
        <time>2020-09-13T09:37:24.000Z</time>
      </trkpt>
      <trkpt lat="47.19891" lon="-1.56181">
        <ele>59</ele>
        <time>2020-09-13T09:37:26.000Z</time>
      </trkpt>
      <trkpt lat="47.19879" lon="-1.56184">
        <ele>59</ele>
        <time>2020-09-13T09:37:28.000Z</time>
      </trkpt>
      <trkpt lat="47.19868" lon="-1.56186">
        <ele>59</ele>
        <time>2020-09-13T09:37:30.000Z</time>
      </trkpt>
      <trkpt lat="47.19856" lon="-1.56187">
        <ele>60</ele>
        <time>2020-09-13T09:37:32.000Z</time>
      </trkpt>
      <trkpt lat="47.19844" lon="-1.56188">
        <ele>60</ele>
        <time>2020-09-13T09:37:34.000Z</time>
      </trkpt>
      <trkpt lat="47.19832" lon="-1.56192">
        <ele>60</ele>
        <time>2020-09-13T09:37:36.000Z</time>
      </trkpt>
      <trkpt lat="47.1982" lon="-1.56195">
        <ele>60</ele>
        <time>2020-09-13T09:37:38.000Z</time>
      </trkpt>
      <trkpt lat="47.19807" lon="-1.56197">
        <ele>60</ele>
        <time>2020-09-13T09:37:40.000Z</time>
      </trkpt>
      <trkpt lat="47.19796" lon="-1.56198">
        <ele>60</ele>
        <time>2020-09-13T09:37:42.000Z</time>
      </trkpt>
      <trkpt lat="47.19783" lon="-1.56201">
        <ele>59</ele>
        <time>2020-09-13T09:37:44.000Z</time>
      </trkpt>
      <trkpt lat="47.19771" lon="-1.56203">
        <ele>59</ele>
        <time>2020-09-13T09:37:46.000Z</time>
      </trkpt>
      <trkpt lat="47.19759" lon="-1.56206">
        <ele>59</ele>
        <time>2020-09-13T09:37:48.000Z</time>
      </trkpt>
      <trkpt lat="47.19745" lon="-1.56209">
        <ele>58</ele>
        <time>2020-09-13T09:37:50.000Z</time>
      </trkpt>
      <trkpt lat="47.19732" lon="-1.56211">
        <ele>58</ele>
        <time>2020-09-13T09:37:52.000Z</time>
      </trkpt>
      <trkpt lat="47.19718" lon="-1.56213">
        <ele>57</ele>
        <time>2020-09-13T09:37:54.000Z</time>
      </trkpt>
      <trkpt lat="47.19702" lon="-1.56216">
        <ele>56</ele>
        <time>2020-09-13T09:37:56.000Z</time>
      </trkpt>
      <trkpt lat="47.19687" lon="-1.56219">
        <ele>55</ele>
        <time>2020-09-13T09:37:58.000Z</time>
      </trkpt>
      <trkpt lat="47.19671" lon="-1.56223">
        <ele>54</ele>
        <time>2020-09-13T09:38:00.000Z</time>
      </trkpt>
      <trkpt lat="47.19655" lon="-1.56229">
        <ele>54</ele>
        <time>2020-09-13T09:38:02.000Z</time>
      </trkpt>
      <trkpt lat="47.19638" lon="-1.56237">
        <ele>53</ele>
        <time>2020-09-13T09:38:04.000Z</time>
      </trkpt>
      <trkpt lat="47.19633" lon="-1.56249">
        <ele>53</ele>
        <time>2020-09-13T09:38:05.000Z</time>
      </trkpt>
      <trkpt lat="47.19632" lon="-1.56272">
        <ele>53</ele>
        <time>2020-09-13T09:38:07.000Z</time>
      </trkpt>
      <trkpt lat="47.19632" lon="-1.56294">
        <ele>53</ele>
        <time>2020-09-13T09:38:09.000Z</time>
      </trkpt>
      <trkpt lat="47.19631" lon="-1.56315">
        <ele>54</ele>
        <time>2020-09-13T09:38:11.000Z</time>
      </trkpt>
      <trkpt lat="47.1963" lon="-1.56336">
        <ele>54</ele>
        <time>2020-09-13T09:38:13.000Z</time>
      </trkpt>
      <trkpt lat="47.19629" lon="-1.56357">
        <ele>53</ele>
        <time>2020-09-13T09:38:15.000Z</time>
      </trkpt>
      <trkpt lat="47.19629" lon="-1.56378">
        <ele>53</ele>
        <time>2020-09-13T09:38:17.000Z</time>
      </trkpt>
      <trkpt lat="47.1963" lon="-1.56398">
        <ele>54</ele>
        <time>2020-09-13T09:38:19.000Z</time>
      </trkpt>
      <trkpt lat="47.19631" lon="-1.56419">
        <ele>54</ele>
        <time>2020-09-13T09:38:21.000Z</time>
      </trkpt>
      <trkpt lat="47.19632" lon="-1.5644">
        <ele>54</ele>
        <time>2020-09-13T09:38:23.000Z</time>
      </trkpt>
      <trkpt lat="47.19633" lon="-1.56461">
        <ele>53</ele>
        <time>2020-09-13T09:38:25.000Z</time>
      </trkpt>
      <trkpt lat="47.19633" lon="-1.56481">
        <ele>54</ele>
        <time>2020-09-13T09:38:27.000Z</time>
      </trkpt>
      <trkpt lat="47.19634" lon="-1.56501">
        <ele>54</ele>
        <time>2020-09-13T09:38:29.000Z</time>
      </trkpt>
      <trkpt lat="47.19634" lon="-1.56521">
        <ele>54</ele>
        <time>2020-09-13T09:38:31.000Z</time>
      </trkpt>
      <trkpt lat="47.19634" lon="-1.5654">
        <ele>55</ele>
        <time>2020-09-13T09:38:33.000Z</time>
      </trkpt>
      <trkpt lat="47.19634" lon="-1.56559">
        <ele>56</ele>
        <time>2020-09-13T09:38:35.000Z</time>
      </trkpt>
      <trkpt lat="47.19634" lon="-1.56579">
        <ele>57</ele>
        <time>2020-09-13T09:38:37.000Z</time>
      </trkpt>
      <trkpt lat="47.19633" lon="-1.56599">
        <ele>58</ele>
        <time>2020-09-13T09:38:39.000Z</time>
      </trkpt>
      <trkpt lat="47.19631" lon="-1.56618">
        <ele>58</ele>
        <time>2020-09-13T09:38:41.000Z</time>
      </trkpt>
      <trkpt lat="47.19631" lon="-1.56637">
        <ele>59</ele>
        <time>2020-09-13T09:38:43.000Z</time>
      </trkpt>
      <trkpt lat="47.1963" lon="-1.56658">
        <ele>59</ele>
        <time>2020-09-13T09:38:45.000Z</time>
      </trkpt>
      <trkpt lat="47.19629" lon="-1.56678">
        <ele>59</ele>
        <time>2020-09-13T09:38:47.000Z</time>
      </trkpt>
      <trkpt lat="47.19627" lon="-1.56699">
        <ele>59</ele>
        <time>2020-09-13T09:38:49.000Z</time>
      </trkpt>
      <trkpt lat="47.19626" lon="-1.5672">
        <ele>59</ele>
        <time>2020-09-13T09:38:51.000Z</time>
      </trkpt>
      <trkpt lat="47.19624" lon="-1.56739">
        <ele>58</ele>
        <time>2020-09-13T09:38:53.000Z</time>
      </trkpt>
      <trkpt lat="47.19622" lon="-1.56758">
        <ele>58</ele>
        <time>2020-09-13T09:38:55.000Z</time>
      </trkpt>
      <trkpt lat="47.19621" lon="-1.56779">
        <ele>57</ele>
        <time>2020-09-13T09:38:57.000Z</time>
      </trkpt>
      <trkpt lat="47.1962" lon="-1.56799">
        <ele>57</ele>
        <time>2020-09-13T09:38:59.000Z</time>
      </trkpt>
      <trkpt lat="47.19618" lon="-1.56818">
        <ele>57</ele>
        <time>2020-09-13T09:39:01.000Z</time>
      </trkpt>
      <trkpt lat="47.19618" lon="-1.56838">
        <ele>57</ele>
        <time>2020-09-13T09:39:03.000Z</time>
      </trkpt>
      <trkpt lat="47.19617" lon="-1.56857">
        <ele>57</ele>
        <time>2020-09-13T09:39:05.000Z</time>
      </trkpt>
      <trkpt lat="47.19616" lon="-1.56876">
        <ele>57</ele>
        <time>2020-09-13T09:39:07.000Z</time>
      </trkpt>
      <trkpt lat="47.19614" lon="-1.56895">
        <ele>57</ele>
        <time>2020-09-13T09:39:09.000Z</time>
      </trkpt>
      <trkpt lat="47.19613" lon="-1.56914">
        <ele>58</ele>
        <time>2020-09-13T09:39:11.000Z</time>
      </trkpt>
      <trkpt lat="47.19612" lon="-1.56933">
        <ele>58</ele>
        <time>2020-09-13T09:39:13.000Z</time>
      </trkpt>
      <trkpt lat="47.19611" lon="-1.56951">
        <ele>58</ele>
        <time>2020-09-13T09:39:15.000Z</time>
      </trkpt>
      <trkpt lat="47.19609" lon="-1.56971">
        <ele>58</ele>
        <time>2020-09-13T09:39:17.000Z</time>
      </trkpt>
      <trkpt lat="47.19608" lon="-1.56991">
        <ele>58</ele>
        <time>2020-09-13T09:39:19.000Z</time>
      </trkpt>
      <trkpt lat="47.19606" lon="-1.5701">
        <ele>58</ele>
        <time>2020-09-13T09:39:21.000Z</time>
      </trkpt>
      <trkpt lat="47.19605" lon="-1.57029">
        <ele>58</ele>
        <time>2020-09-13T09:39:23.000Z</time>
      </trkpt>
      <trkpt lat="47.19604" lon="-1.57049">
        <ele>59</ele>
        <time>2020-09-13T09:39:25.000Z</time>
      </trkpt>
      <trkpt lat="47.19603" lon="-1.57068">
        <ele>59</ele>
        <time>2020-09-13T09:39:27.000Z</time>
      </trkpt>
      <trkpt lat="47.19601" lon="-1.57087">
        <ele>59</ele>
        <time>2020-09-13T09:39:29.000Z</time>
      </trkpt>
      <trkpt lat="47.196" lon="-1.57106">
        <ele>58</ele>
        <time>2020-09-13T09:39:31.000Z</time>
      </trkpt>
      <trkpt lat="47.19599" lon="-1.57122">
        <ele>59</ele>
        <time>2020-09-13T09:39:33.000Z</time>
      </trkpt>
      <trkpt lat="47.19598" lon="-1.57138">
        <ele>58</ele>
        <time>2020-09-13T09:39:35.000Z</time>
      </trkpt>
      <trkpt lat="47.19598" lon="-1.57151">
        <ele>58</ele>
        <time>2020-09-13T09:39:37.000Z</time>
      </trkpt>
      <trkpt lat="47.19598" lon="-1.57166">
        <ele>59</ele>
        <time>2020-09-13T09:39:39.000Z</time>
      </trkpt>
      <trkpt lat="47.19597" lon="-1.57184">
        <ele>60</ele>
        <time>2020-09-13T09:39:41.000Z</time>
      </trkpt>
      <trkpt lat="47.19595" lon="-1.57204">
        <ele>59</ele>
        <time>2020-09-13T09:39:43.000Z</time>
      </trkpt>
      <trkpt lat="47.19594" lon="-1.57224">
        <ele>59</ele>
        <time>2020-09-13T09:39:45.000Z</time>
      </trkpt>
      <trkpt lat="47.19592" lon="-1.57243">
        <ele>59</ele>
        <time>2020-09-13T09:39:47.000Z</time>
      </trkpt>
      <trkpt lat="47.1959" lon="-1.57261">
        <ele>58</ele>
        <time>2020-09-13T09:39:49.000Z</time>
      </trkpt>
      <trkpt lat="47.19588" lon="-1.5728">
        <ele>58</ele>
        <time>2020-09-13T09:39:51.000Z</time>
      </trkpt>
      <trkpt lat="47.19587" lon="-1.57298">
        <ele>58</ele>
        <time>2020-09-13T09:39:53.000Z</time>
      </trkpt>
      <trkpt lat="47.19586" lon="-1.57316">
        <ele>57</ele>
        <time>2020-09-13T09:39:55.000Z</time>
      </trkpt>
      <trkpt lat="47.19583" lon="-1.57335">
        <ele>57</ele>
        <time>2020-09-13T09:39:57.000Z</time>
      </trkpt>
      <trkpt lat="47.19579" lon="-1.57351">
        <ele>57</ele>
        <time>2020-09-13T09:39:59.000Z</time>
      </trkpt>
      <trkpt lat="47.19573" lon="-1.57367">
        <ele>57</ele>
        <time>2020-09-13T09:40:01.000Z</time>
      </trkpt>
      <trkpt lat="47.19569" lon="-1.57385">
        <ele>57</ele>
        <time>2020-09-13T09:40:03.000Z</time>
      </trkpt>
      <trkpt lat="47.19565" lon="-1.57404">
        <ele>57</ele>
        <time>2020-09-13T09:40:05.000Z</time>
      </trkpt>
      <trkpt lat="47.19562" lon="-1.57425">
        <ele>58</ele>
        <time>2020-09-13T09:40:07.000Z</time>
      </trkpt>
      <trkpt lat="47.19559" lon="-1.57445">
        <ele>59</ele>
        <time>2020-09-13T09:40:09.000Z</time>
      </trkpt>
      <trkpt lat="47.19558" lon="-1.57465">
        <ele>59</ele>
        <time>2020-09-13T09:40:11.000Z</time>
      </trkpt>
      <trkpt lat="47.19555" lon="-1.57485">
        <ele>60</ele>
        <time>2020-09-13T09:40:13.000Z</time>
      </trkpt>
      <trkpt lat="47.1955" lon="-1.57505">
        <ele>59</ele>
        <time>2020-09-13T09:40:15.000Z</time>
      </trkpt>
      <trkpt lat="47.19546" lon="-1.57525">
        <ele>59</ele>
        <time>2020-09-13T09:40:17.000Z</time>
      </trkpt>
      <trkpt lat="47.19542" lon="-1.57545">
        <ele>59</ele>
        <time>2020-09-13T09:40:19.000Z</time>
      </trkpt>
      <trkpt lat="47.19538" lon="-1.57565">
        <ele>58</ele>
        <time>2020-09-13T09:40:21.000Z</time>
      </trkpt>
      <trkpt lat="47.19534" lon="-1.57584">
        <ele>59</ele>
        <time>2020-09-13T09:40:23.000Z</time>
      </trkpt>
      <trkpt lat="47.1953" lon="-1.57603">
        <ele>59</ele>
        <time>2020-09-13T09:40:25.000Z</time>
      </trkpt>
      <trkpt lat="47.19525" lon="-1.57622">
        <ele>58</ele>
        <time>2020-09-13T09:40:27.000Z</time>
      </trkpt>
      <trkpt lat="47.19521" lon="-1.5764">
        <ele>57</ele>
        <time>2020-09-13T09:40:29.000Z</time>
      </trkpt>
      <trkpt lat="47.19518" lon="-1.5766">
        <ele>57</ele>
        <time>2020-09-13T09:40:31.000Z</time>
      </trkpt>
      <trkpt lat="47.19514" lon="-1.57679">
        <ele>56</ele>
        <time>2020-09-13T09:40:33.000Z</time>
      </trkpt>
      <trkpt lat="47.1951" lon="-1.57699">
        <ele>56</ele>
        <time>2020-09-13T09:40:35.000Z</time>
      </trkpt>
      <trkpt lat="47.19506" lon="-1.57718">
        <ele>55</ele>
        <time>2020-09-13T09:40:37.000Z</time>
      </trkpt>
      <trkpt lat="47.19502" lon="-1.57737">
        <ele>55</ele>
        <time>2020-09-13T09:40:39.000Z</time>
      </trkpt>
      <trkpt lat="47.19498" lon="-1.57757">
        <ele>54</ele>
        <time>2020-09-13T09:40:41.000Z</time>
      </trkpt>
      <trkpt lat="47.19494" lon="-1.57776">
        <ele>54</ele>
        <time>2020-09-13T09:40:43.000Z</time>
      </trkpt>
      <trkpt lat="47.1949" lon="-1.57795">
        <ele>54</ele>
        <time>2020-09-13T09:40:45.000Z</time>
      </trkpt>
      <trkpt lat="47.19486" lon="-1.57814">
        <ele>54</ele>
        <time>2020-09-13T09:40:47.000Z</time>
      </trkpt>
      <trkpt lat="47.19483" lon="-1.57832">
        <ele>54</ele>
        <time>2020-09-13T09:40:49.000Z</time>
      </trkpt>
      <trkpt lat="47.19481" lon="-1.57851">
        <ele>54</ele>
        <time>2020-09-13T09:40:51.000Z</time>
      </trkpt>
      <trkpt lat="47.19479" lon="-1.5787">
        <ele>54</ele>
        <time>2020-09-13T09:40:53.000Z</time>
      </trkpt>
      <trkpt lat="47.19475" lon="-1.57889">
        <ele>53</ele>
        <time>2020-09-13T09:40:55.000Z</time>
      </trkpt>
      <trkpt lat="47.19471" lon="-1.57908">
        <ele>53</ele>
        <time>2020-09-13T09:40:57.000Z</time>
      </trkpt>
      <trkpt lat="47.19469" lon="-1.57929">
        <ele>53</ele>
        <time>2020-09-13T09:40:59.000Z</time>
      </trkpt>
      <trkpt lat="47.19467" lon="-1.57949">
        <ele>52</ele>
        <time>2020-09-13T09:41:01.000Z</time>
      </trkpt>
      <trkpt lat="47.19466" lon="-1.57967">
        <ele>52</ele>
        <time>2020-09-13T09:41:03.000Z</time>
      </trkpt>
      <trkpt lat="47.19464" lon="-1.57985">
        <ele>52</ele>
        <time>2020-09-13T09:41:05.000Z</time>
      </trkpt>
      <trkpt lat="47.19462" lon="-1.58003">
        <ele>52</ele>
        <time>2020-09-13T09:41:07.000Z</time>
      </trkpt>
      <trkpt lat="47.19461" lon="-1.58022">
        <ele>52</ele>
        <time>2020-09-13T09:41:09.000Z</time>
      </trkpt>
      <trkpt lat="47.1946" lon="-1.5804">
        <ele>53</ele>
        <time>2020-09-13T09:41:11.000Z</time>
      </trkpt>
      <trkpt lat="47.19458" lon="-1.58058">
        <ele>53</ele>
        <time>2020-09-13T09:41:13.000Z</time>
      </trkpt>
      <trkpt lat="47.19457" lon="-1.58074">
        <ele>53</ele>
        <time>2020-09-13T09:41:15.000Z</time>
      </trkpt>
      <trkpt lat="47.19454" lon="-1.58089">
        <ele>53</ele>
        <time>2020-09-13T09:41:17.000Z</time>
      </trkpt>
      <trkpt lat="47.19446" lon="-1.58103">
        <ele>53</ele>
        <time>2020-09-13T09:41:19.000Z</time>
      </trkpt>
      <trkpt lat="47.19435" lon="-1.58115">
        <ele>53</ele>
        <time>2020-09-13T09:41:21.000Z</time>
      </trkpt>
      <trkpt lat="47.19424" lon="-1.58127">
        <ele>54</ele>
        <time>2020-09-13T09:41:23.000Z</time>
      </trkpt>
      <trkpt lat="47.19413" lon="-1.5814">
        <ele>54</ele>
        <time>2020-09-13T09:41:25.000Z</time>
      </trkpt>
      <trkpt lat="47.19403" lon="-1.58153">
        <ele>54</ele>
        <time>2020-09-13T09:41:27.000Z</time>
      </trkpt>
      <trkpt lat="47.19394" lon="-1.58171">
        <ele>54</ele>
        <time>2020-09-13T09:41:29.000Z</time>
      </trkpt>
      <trkpt lat="47.19387" lon="-1.58189">
        <ele>54</ele>
        <time>2020-09-13T09:41:31.000Z</time>
      </trkpt>
      <trkpt lat="47.1938" lon="-1.58206">
        <ele>54</ele>
        <time>2020-09-13T09:41:33.000Z</time>
      </trkpt>
      <trkpt lat="47.19373" lon="-1.58223">
        <ele>54</ele>
        <time>2020-09-13T09:41:35.000Z</time>
      </trkpt>
      <trkpt lat="47.19366" lon="-1.58241">
        <ele>54</ele>
        <time>2020-09-13T09:41:37.000Z</time>
      </trkpt>
      <trkpt lat="47.1936" lon="-1.58259">
        <ele>54</ele>
        <time>2020-09-13T09:41:39.000Z</time>
      </trkpt>
      <trkpt lat="47.19352" lon="-1.58276">
        <ele>54</ele>
        <time>2020-09-13T09:41:41.000Z</time>
      </trkpt>
      <trkpt lat="47.19341" lon="-1.58289">
        <ele>54</ele>
        <time>2020-09-13T09:41:43.000Z</time>
      </trkpt>
      <trkpt lat="47.1933" lon="-1.583">
        <ele>53</ele>
        <time>2020-09-13T09:41:45.000Z</time>
      </trkpt>
      <trkpt lat="47.19319" lon="-1.58311">
        <ele>53</ele>
        <time>2020-09-13T09:41:47.000Z</time>
      </trkpt>
      <trkpt lat="47.19308" lon="-1.58321">
        <ele>53</ele>
        <time>2020-09-13T09:41:49.000Z</time>
      </trkpt>
      <trkpt lat="47.19297" lon="-1.58332">
        <ele>53</ele>
        <time>2020-09-13T09:41:51.000Z</time>
      </trkpt>
      <trkpt lat="47.19286" lon="-1.58343">
        <ele>53</ele>
        <time>2020-09-13T09:41:53.000Z</time>
      </trkpt>
      <trkpt lat="47.19275" lon="-1.58353">
        <ele>53</ele>
        <time>2020-09-13T09:41:55.000Z</time>
      </trkpt>
      <trkpt lat="47.19263" lon="-1.58362">
        <ele>54</ele>
        <time>2020-09-13T09:41:57.000Z</time>
      </trkpt>
      <trkpt lat="47.19252" lon="-1.58371">
        <ele>54</ele>
        <time>2020-09-13T09:41:59.000Z</time>
      </trkpt>
      <trkpt lat="47.19242" lon="-1.58381">
        <ele>54</ele>
        <time>2020-09-13T09:42:01.000Z</time>
      </trkpt>
      <trkpt lat="47.1923" lon="-1.58392">
        <ele>54</ele>
        <time>2020-09-13T09:42:03.000Z</time>
      </trkpt>
      <trkpt lat="47.19218" lon="-1.58403">
        <ele>53</ele>
        <time>2020-09-13T09:42:05.000Z</time>
      </trkpt>
      <trkpt lat="47.19206" lon="-1.58414">
        <ele>53</ele>
        <time>2020-09-13T09:42:07.000Z</time>
      </trkpt>
      <trkpt lat="47.19195" lon="-1.58425">
        <ele>54</ele>
        <time>2020-09-13T09:42:09.000Z</time>
      </trkpt>
      <trkpt lat="47.19183" lon="-1.58435">
        <ele>54</ele>
        <time>2020-09-13T09:42:11.000Z</time>
      </trkpt>
      <trkpt lat="47.19172" lon="-1.58446">
        <ele>54</ele>
        <time>2020-09-13T09:42:13.000Z</time>
      </trkpt>
      <trkpt lat="47.19162" lon="-1.58457">
        <ele>54</ele>
        <time>2020-09-13T09:42:15.000Z</time>
      </trkpt>
      <trkpt lat="47.19153" lon="-1.58468">
        <ele>55</ele>
        <time>2020-09-13T09:42:17.000Z</time>
      </trkpt>
      <trkpt lat="47.19143" lon="-1.58478">
        <ele>55</ele>
        <time>2020-09-13T09:42:19.000Z</time>
      </trkpt>
      <trkpt lat="47.19132" lon="-1.58488">
        <ele>54</ele>
        <time>2020-09-13T09:42:21.000Z</time>
      </trkpt>
      <trkpt lat="47.19121" lon="-1.58498">
        <ele>54</ele>
        <time>2020-09-13T09:42:23.000Z</time>
      </trkpt>
      <trkpt lat="47.19109" lon="-1.58509">
        <ele>53</ele>
        <time>2020-09-13T09:42:25.000Z</time>
      </trkpt>
      <trkpt lat="47.19098" lon="-1.5852">
        <ele>54</ele>
        <time>2020-09-13T09:42:27.000Z</time>
      </trkpt>
      <trkpt lat="47.19086" lon="-1.58531">
        <ele>53</ele>
        <time>2020-09-13T09:42:29.000Z</time>
      </trkpt>
      <trkpt lat="47.19075" lon="-1.58542">
        <ele>54</ele>
        <time>2020-09-13T09:42:31.000Z</time>
      </trkpt>
      <trkpt lat="47.19065" lon="-1.58552">
        <ele>54</ele>
        <time>2020-09-13T09:42:33.000Z</time>
      </trkpt>
      <trkpt lat="47.19055" lon="-1.58564">
        <ele>54</ele>
        <time>2020-09-13T09:42:35.000Z</time>
      </trkpt>
      <trkpt lat="47.19044" lon="-1.58575">
        <ele>55</ele>
        <time>2020-09-13T09:42:37.000Z</time>
      </trkpt>
      <trkpt lat="47.19034" lon="-1.58585">
        <ele>55</ele>
        <time>2020-09-13T09:42:39.000Z</time>
      </trkpt>
      <trkpt lat="47.19024" lon="-1.58597">
        <ele>54</ele>
        <time>2020-09-13T09:42:41.000Z</time>
      </trkpt>
      <trkpt lat="47.19013" lon="-1.58608">
        <ele>54</ele>
        <time>2020-09-13T09:42:43.000Z</time>
      </trkpt>
      <trkpt lat="47.19002" lon="-1.58619">
        <ele>54</ele>
        <time>2020-09-13T09:42:45.000Z</time>
      </trkpt>
      <trkpt lat="47.18992" lon="-1.58628">
        <ele>54</ele>
        <time>2020-09-13T09:42:47.000Z</time>
      </trkpt>
      <trkpt lat="47.18982" lon="-1.58637">
        <ele>54</ele>
        <time>2020-09-13T09:42:49.000Z</time>
      </trkpt>
      <trkpt lat="47.18971" lon="-1.58648">
        <ele>54</ele>
        <time>2020-09-13T09:42:51.000Z</time>
      </trkpt>
      <trkpt lat="47.1896" lon="-1.58659">
        <ele>54</ele>
        <time>2020-09-13T09:42:53.000Z</time>
      </trkpt>
      <trkpt lat="47.18949" lon="-1.58669">
        <ele>54</ele>
        <time>2020-09-13T09:42:55.000Z</time>
      </trkpt>
      <trkpt lat="47.18939" lon="-1.58679">
        <ele>54</ele>
        <time>2020-09-13T09:42:57.000Z</time>
      </trkpt>
      <trkpt lat="47.18928" lon="-1.5869">
        <ele>54</ele>
        <time>2020-09-13T09:42:59.000Z</time>
      </trkpt>
      <trkpt lat="47.18917" lon="-1.587">
        <ele>54</ele>
        <time>2020-09-13T09:43:01.000Z</time>
      </trkpt>
      <trkpt lat="47.18907" lon="-1.58708">
        <ele>54</ele>
        <time>2020-09-13T09:43:03.000Z</time>
      </trkpt>
      <trkpt lat="47.18896" lon="-1.58715">
        <ele>54</ele>
        <time>2020-09-13T09:43:05.000Z</time>
      </trkpt>
      <trkpt lat="47.18884" lon="-1.58722">
        <ele>54</ele>
        <time>2020-09-13T09:43:07.000Z</time>
      </trkpt>
      <trkpt lat="47.18873" lon="-1.58729">
        <ele>54</ele>
        <time>2020-09-13T09:43:09.000Z</time>
      </trkpt>
      <trkpt lat="47.18862" lon="-1.58736">
        <ele>54</ele>
        <time>2020-09-13T09:43:11.000Z</time>
      </trkpt>
      <trkpt lat="47.18851" lon="-1.5874">
        <ele>54</ele>
        <time>2020-09-13T09:43:13.000Z</time>
      </trkpt>
      <trkpt lat="47.1884" lon="-1.58747">
        <ele>54</ele>
        <time>2020-09-13T09:43:15.000Z</time>
      </trkpt>
      <trkpt lat="47.18831" lon="-1.58757">
        <ele>54</ele>
        <time>2020-09-13T09:43:17.000Z</time>
      </trkpt>
      <trkpt lat="47.18829" lon="-1.58773">
        <ele>53</ele>
        <time>2020-09-13T09:43:19.000Z</time>
      </trkpt>
      <trkpt lat="47.18823" lon="-1.58787">
        <ele>53</ele>
        <time>2020-09-13T09:43:21.000Z</time>
      </trkpt>
      <trkpt lat="47.18815" lon="-1.588">
        <ele>53</ele>
        <time>2020-09-13T09:43:23.000Z</time>
      </trkpt>
      <trkpt lat="47.18805" lon="-1.5881">
        <ele>53</ele>
        <time>2020-09-13T09:43:25.000Z</time>
      </trkpt>
      <trkpt lat="47.18794" lon="-1.58817">
        <ele>54</ele>
        <time>2020-09-13T09:43:27.000Z</time>
      </trkpt>
      <trkpt lat="47.18786" lon="-1.58829">
        <ele>54</ele>
        <time>2020-09-13T09:43:29.000Z</time>
      </trkpt>
      <trkpt lat="47.18784" lon="-1.58848">
        <ele>54</ele>
        <time>2020-09-13T09:43:31.000Z</time>
      </trkpt>
      <trkpt lat="47.1878" lon="-1.58866">
        <ele>54</ele>
        <time>2020-09-13T09:43:33.000Z</time>
      </trkpt>
      <trkpt lat="47.18777" lon="-1.58884">
        <ele>54</ele>
        <time>2020-09-13T09:43:35.000Z</time>
      </trkpt>
      <trkpt lat="47.18775" lon="-1.58902">
        <ele>54</ele>
        <time>2020-09-13T09:43:37.000Z</time>
      </trkpt>
      <trkpt lat="47.18772" lon="-1.58922">
        <ele>54</ele>
        <time>2020-09-13T09:43:39.000Z</time>
      </trkpt>
      <trkpt lat="47.1877" lon="-1.58942">
        <ele>55</ele>
        <time>2020-09-13T09:43:41.000Z</time>
      </trkpt>
      <trkpt lat="47.18768" lon="-1.58961">
        <ele>55</ele>
        <time>2020-09-13T09:43:43.000Z</time>
      </trkpt>
      <trkpt lat="47.18766" lon="-1.5898">
        <ele>55</ele>
        <time>2020-09-13T09:43:45.000Z</time>
      </trkpt>
      <trkpt lat="47.18764" lon="-1.58999">
        <ele>56</ele>
        <time>2020-09-13T09:43:47.000Z</time>
      </trkpt>
      <trkpt lat="47.18761" lon="-1.59019">
        <ele>56</ele>
        <time>2020-09-13T09:43:49.000Z</time>
      </trkpt>
      <trkpt lat="47.18759" lon="-1.59039">
        <ele>56</ele>
        <time>2020-09-13T09:43:51.000Z</time>
      </trkpt>
      <trkpt lat="47.18757" lon="-1.59059">
        <ele>56</ele>
        <time>2020-09-13T09:43:53.000Z</time>
      </trkpt>
      <trkpt lat="47.18755" lon="-1.59077">
        <ele>56</ele>
        <time>2020-09-13T09:43:55.000Z</time>
      </trkpt>
      <trkpt lat="47.18753" lon="-1.59096">
        <ele>56</ele>
        <time>2020-09-13T09:43:57.000Z</time>
      </trkpt>
      <trkpt lat="47.18751" lon="-1.59116">
        <ele>55</ele>
        <time>2020-09-13T09:43:59.000Z</time>
      </trkpt>
      <trkpt lat="47.18749" lon="-1.59136">
        <ele>55</ele>
        <time>2020-09-13T09:44:01.000Z</time>
      </trkpt>
      <trkpt lat="47.18747" lon="-1.59156">
        <ele>55</ele>
        <time>2020-09-13T09:44:03.000Z</time>
      </trkpt>
      <trkpt lat="47.18745" lon="-1.59175">
        <ele>54</ele>
        <time>2020-09-13T09:44:05.000Z</time>
      </trkpt>
      <trkpt lat="47.18743" lon="-1.59194">
        <ele>54</ele>
        <time>2020-09-13T09:44:07.000Z</time>
      </trkpt>
      <trkpt lat="47.18741" lon="-1.59213">
        <ele>54</ele>
        <time>2020-09-13T09:44:09.000Z</time>
      </trkpt>
      <trkpt lat="47.18738" lon="-1.59233">
        <ele>54</ele>
        <time>2020-09-13T09:44:11.000Z</time>
      </trkpt>
      <trkpt lat="47.18736" lon="-1.59253">
        <ele>54</ele>
        <time>2020-09-13T09:44:13.000Z</time>
      </trkpt>
      <trkpt lat="47.18734" lon="-1.59272">
        <ele>55</ele>
        <time>2020-09-13T09:44:15.000Z</time>
      </trkpt>
      <trkpt lat="47.18732" lon="-1.59292">
        <ele>55</ele>
        <time>2020-09-13T09:44:17.000Z</time>
      </trkpt>
      <trkpt lat="47.18729" lon="-1.59311">
        <ele>54</ele>
        <time>2020-09-13T09:44:19.000Z</time>
      </trkpt>
      <trkpt lat="47.18728" lon="-1.59331">
        <ele>55</ele>
        <time>2020-09-13T09:44:21.000Z</time>
      </trkpt>
      <trkpt lat="47.18725" lon="-1.5935">
        <ele>55</ele>
        <time>2020-09-13T09:44:23.000Z</time>
      </trkpt>
      <trkpt lat="47.18723" lon="-1.5937">
        <ele>55</ele>
        <time>2020-09-13T09:44:25.000Z</time>
      </trkpt>
      <trkpt lat="47.18721" lon="-1.59389">
        <ele>55</ele>
        <time>2020-09-13T09:44:27.000Z</time>
      </trkpt>
      <trkpt lat="47.1872" lon="-1.59408">
        <ele>55</ele>
        <time>2020-09-13T09:44:29.000Z</time>
      </trkpt>
      <trkpt lat="47.18717" lon="-1.59427">
        <ele>54</ele>
        <time>2020-09-13T09:44:31.000Z</time>
      </trkpt>
      <trkpt lat="47.18715" lon="-1.59445">
        <ele>54</ele>
        <time>2020-09-13T09:44:33.000Z</time>
      </trkpt>
      <trkpt lat="47.18713" lon="-1.59465">
        <ele>54</ele>
        <time>2020-09-13T09:44:35.000Z</time>
      </trkpt>
      <trkpt lat="47.18711" lon="-1.59484">
        <ele>54</ele>
        <time>2020-09-13T09:44:37.000Z</time>
      </trkpt>
      <trkpt lat="47.18709" lon="-1.59503">
        <ele>54</ele>
        <time>2020-09-13T09:44:39.000Z</time>
      </trkpt>
      <trkpt lat="47.18707" lon="-1.59522">
        <ele>54</ele>
        <time>2020-09-13T09:44:41.000Z</time>
      </trkpt>
      <trkpt lat="47.18705" lon="-1.59541">
        <ele>54</ele>
        <time>2020-09-13T09:44:43.000Z</time>
      </trkpt>
      <trkpt lat="47.18703" lon="-1.5956">
        <ele>54</ele>
        <time>2020-09-13T09:44:45.000Z</time>
      </trkpt>
      <trkpt lat="47.187" lon="-1.59579">
        <ele>54</ele>
        <time>2020-09-13T09:44:47.000Z</time>
      </trkpt>
      <trkpt lat="47.18698" lon="-1.59598">
        <ele>54</ele>
        <time>2020-09-13T09:44:49.000Z</time>
      </trkpt>
      <trkpt lat="47.18696" lon="-1.59617">
        <ele>54</ele>
        <time>2020-09-13T09:44:51.000Z</time>
      </trkpt>
      <trkpt lat="47.18693" lon="-1.59637">
        <ele>54</ele>
        <time>2020-09-13T09:44:53.000Z</time>
      </trkpt>
      <trkpt lat="47.1869" lon="-1.59656">
        <ele>54</ele>
        <time>2020-09-13T09:44:55.000Z</time>
      </trkpt>
      <trkpt lat="47.18687" lon="-1.59674">
        <ele>54</ele>
        <time>2020-09-13T09:44:57.000Z</time>
      </trkpt>
      <trkpt lat="47.18685" lon="-1.59693">
        <ele>54</ele>
        <time>2020-09-13T09:44:59.000Z</time>
      </trkpt>
      <trkpt lat="47.18683" lon="-1.59712">
        <ele>54</ele>
        <time>2020-09-13T09:45:01.000Z</time>
      </trkpt>
      <trkpt lat="47.18682" lon="-1.59731">
        <ele>54</ele>
        <time>2020-09-13T09:45:03.000Z</time>
      </trkpt>
      <trkpt lat="47.18682" lon="-1.59749">
        <ele>54</ele>
        <time>2020-09-13T09:45:05.000Z</time>
      </trkpt>
      <trkpt lat="47.18684" lon="-1.59768">
        <ele>54</ele>
        <time>2020-09-13T09:45:07.000Z</time>
      </trkpt>
      <trkpt lat="47.18688" lon="-1.59785">
        <ele>54</ele>
        <time>2020-09-13T09:45:09.000Z</time>
      </trkpt>
      <trkpt lat="47.1869" lon="-1.59805">
        <ele>54</ele>
        <time>2020-09-13T09:45:11.000Z</time>
      </trkpt>
      <trkpt lat="47.18687" lon="-1.59822">
        <ele>54</ele>
        <time>2020-09-13T09:45:13.000Z</time>
      </trkpt>
      <trkpt lat="47.1868" lon="-1.59837">
        <ele>54</ele>
        <time>2020-09-13T09:45:15.000Z</time>
      </trkpt>
      <trkpt lat="47.1867" lon="-1.59847">
        <ele>54</ele>
        <time>2020-09-13T09:45:17.000Z</time>
      </trkpt>
      <trkpt lat="47.18656" lon="-1.59852">
        <ele>53</ele>
        <time>2020-09-13T09:45:19.000Z</time>
      </trkpt>
      <trkpt lat="47.18642" lon="-1.59847">
        <ele>53</ele>
        <time>2020-09-13T09:45:21.000Z</time>
      </trkpt>
      <trkpt lat="47.18632" lon="-1.59834">
        <ele>53</ele>
        <time>2020-09-13T09:45:23.000Z</time>
      </trkpt>
      <trkpt lat="47.1862" lon="-1.59833">
        <ele>53</ele>
        <time>2020-09-13T09:45:25.000Z</time>
      </trkpt>
      <trkpt lat="47.18615" lon="-1.59846">
        <ele>52</ele>
        <time>2020-09-13T09:45:27.000Z</time>
      </trkpt>
      <trkpt lat="47.18621" lon="-1.59862">
        <ele>52</ele>
        <time>2020-09-13T09:45:29.000Z</time>
      </trkpt>
      <trkpt lat="47.18622" lon="-1.5988">
        <ele>52</ele>
        <time>2020-09-13T09:45:31.000Z</time>
      </trkpt>
      <trkpt lat="47.18617" lon="-1.59898">
        <ele>53</ele>
        <time>2020-09-13T09:45:33.000Z</time>
      </trkpt>
      <trkpt lat="47.18611" lon="-1.59916">
        <ele>53</ele>
        <time>2020-09-13T09:45:35.000Z</time>
      </trkpt>
      <trkpt lat="47.18606" lon="-1.59934">
        <ele>53</ele>
        <time>2020-09-13T09:45:37.000Z</time>
      </trkpt>
      <trkpt lat="47.18601" lon="-1.59952">
        <ele>53</ele>
        <time>2020-09-13T09:45:39.000Z</time>
      </trkpt>
      <trkpt lat="47.18596" lon="-1.59969">
        <ele>53</ele>
        <time>2020-09-13T09:45:41.000Z</time>
      </trkpt>
      <trkpt lat="47.1859" lon="-1.59987">
        <ele>53</ele>
        <time>2020-09-13T09:45:43.000Z</time>
      </trkpt>
      <trkpt lat="47.18585" lon="-1.60005">
        <ele>53</ele>
        <time>2020-09-13T09:45:45.000Z</time>
      </trkpt>
      <trkpt lat="47.18578" lon="-1.60023">
        <ele>53</ele>
        <time>2020-09-13T09:45:47.000Z</time>
      </trkpt>
      <trkpt lat="47.18572" lon="-1.6004">
        <ele>54</ele>
        <time>2020-09-13T09:45:49.000Z</time>
      </trkpt>
      <trkpt lat="47.18566" lon="-1.60057">
        <ele>54</ele>
        <time>2020-09-13T09:45:51.000Z</time>
      </trkpt>
      <trkpt lat="47.1856" lon="-1.60075">
        <ele>54</ele>
        <time>2020-09-13T09:45:53.000Z</time>
      </trkpt>
      <trkpt lat="47.18553" lon="-1.60091">
        <ele>54</ele>
        <time>2020-09-13T09:45:55.000Z</time>
      </trkpt>
      <trkpt lat="47.18546" lon="-1.60108">
        <ele>54</ele>
        <time>2020-09-13T09:45:57.000Z</time>
      </trkpt>
      <trkpt lat="47.18539" lon="-1.60123">
        <ele>54</ele>
        <time>2020-09-13T09:45:59.000Z</time>
      </trkpt>
      <trkpt lat="47.18532" lon="-1.60139">
        <ele>53</ele>
        <time>2020-09-13T09:46:01.000Z</time>
      </trkpt>
      <trkpt lat="47.18524" lon="-1.60155">
        <ele>53</ele>
        <time>2020-09-13T09:46:03.000Z</time>
      </trkpt>
      <trkpt lat="47.18517" lon="-1.6017">
        <ele>53</ele>
        <time>2020-09-13T09:46:05.000Z</time>
      </trkpt>
      <trkpt lat="47.1851" lon="-1.60186">
        <ele>53</ele>
        <time>2020-09-13T09:46:07.000Z</time>
      </trkpt>
      <trkpt lat="47.18502" lon="-1.602">
        <ele>53</ele>
        <time>2020-09-13T09:46:09.000Z</time>
      </trkpt>
      <trkpt lat="47.18495" lon="-1.60216">
        <ele>53</ele>
        <time>2020-09-13T09:46:11.000Z</time>
      </trkpt>
      <trkpt lat="47.18487" lon="-1.60232">
        <ele>53</ele>
        <time>2020-09-13T09:46:13.000Z</time>
      </trkpt>
      <trkpt lat="47.18479" lon="-1.60247">
        <ele>53</ele>
        <time>2020-09-13T09:46:15.000Z</time>
      </trkpt>
      <trkpt lat="47.18471" lon="-1.60262">
        <ele>53</ele>
        <time>2020-09-13T09:46:17.000Z</time>
      </trkpt>
      <trkpt lat="47.18462" lon="-1.60276">
        <ele>53</ele>
        <time>2020-09-13T09:46:19.000Z</time>
      </trkpt>
      <trkpt lat="47.18454" lon="-1.60292">
        <ele>54</ele>
        <time>2020-09-13T09:46:21.000Z</time>
      </trkpt>
      <trkpt lat="47.18445" lon="-1.60307">
        <ele>53</ele>
        <time>2020-09-13T09:46:23.000Z</time>
      </trkpt>
      <trkpt lat="47.18436" lon="-1.60322">
        <ele>53</ele>
        <time>2020-09-13T09:46:25.000Z</time>
      </trkpt>
      <trkpt lat="47.18427" lon="-1.60336">
        <ele>53</ele>
        <time>2020-09-13T09:46:27.000Z</time>
      </trkpt>
      <trkpt lat="47.18419" lon="-1.6035">
        <ele>53</ele>
        <time>2020-09-13T09:46:29.000Z</time>
      </trkpt>
      <trkpt lat="47.18409" lon="-1.60362">
        <ele>54</ele>
        <time>2020-09-13T09:46:31.000Z</time>
      </trkpt>
      <trkpt lat="47.18399" lon="-1.60375">
        <ele>53</ele>
        <time>2020-09-13T09:46:33.000Z</time>
      </trkpt>
      <trkpt lat="47.18389" lon="-1.60389">
        <ele>54</ele>
        <time>2020-09-13T09:46:35.000Z</time>
      </trkpt>
      <trkpt lat="47.18379" lon="-1.60402">
        <ele>54</ele>
        <time>2020-09-13T09:46:37.000Z</time>
      </trkpt>
      <trkpt lat="47.1837" lon="-1.60415">
        <ele>54</ele>
        <time>2020-09-13T09:46:39.000Z</time>
      </trkpt>
      <trkpt lat="47.18359" lon="-1.60428">
        <ele>54</ele>
        <time>2020-09-13T09:46:41.000Z</time>
      </trkpt>
      <trkpt lat="47.1835" lon="-1.6044">
        <ele>54</ele>
        <time>2020-09-13T09:46:43.000Z</time>
      </trkpt>
      <trkpt lat="47.1834" lon="-1.60452">
        <ele>54</ele>
        <time>2020-09-13T09:46:45.000Z</time>
      </trkpt>
      <trkpt lat="47.1833" lon="-1.60464">
        <ele>54</ele>
        <time>2020-09-13T09:46:47.000Z</time>
      </trkpt>
      <trkpt lat="47.1832" lon="-1.60476">
        <ele>54</ele>
        <time>2020-09-13T09:46:49.000Z</time>
      </trkpt>
      <trkpt lat="47.1831" lon="-1.60487">
        <ele>54</ele>
        <time>2020-09-13T09:46:51.000Z</time>
      </trkpt>
      <trkpt lat="47.183" lon="-1.60499">
        <ele>54</ele>
        <time>2020-09-13T09:46:53.000Z</time>
      </trkpt>
      <trkpt lat="47.18289" lon="-1.6051">
        <ele>54</ele>
        <time>2020-09-13T09:46:55.000Z</time>
      </trkpt>
      <trkpt lat="47.18279" lon="-1.60522">
        <ele>54</ele>
        <time>2020-09-13T09:46:57.000Z</time>
      </trkpt>
      <trkpt lat="47.18267" lon="-1.60532">
        <ele>54</ele>
        <time>2020-09-13T09:46:59.000Z</time>
      </trkpt>
      <trkpt lat="47.18256" lon="-1.60542">
        <ele>53</ele>
        <time>2020-09-13T09:47:01.000Z</time>
      </trkpt>
      <trkpt lat="47.18244" lon="-1.60552">
        <ele>54</ele>
        <time>2020-09-13T09:47:03.000Z</time>
      </trkpt>
      <trkpt lat="47.18232" lon="-1.6056">
        <ele>55</ele>
        <time>2020-09-13T09:47:05.000Z</time>
      </trkpt>
      <trkpt lat="47.18221" lon="-1.60567">
        <ele>55</ele>
        <time>2020-09-13T09:47:07.000Z</time>
      </trkpt>
      <trkpt lat="47.1821" lon="-1.60573">
        <ele>55</ele>
        <time>2020-09-13T09:47:09.000Z</time>
      </trkpt>
      <trkpt lat="47.18199" lon="-1.60578">
        <ele>55</ele>
        <time>2020-09-13T09:47:11.000Z</time>
      </trkpt>
      <trkpt lat="47.18191" lon="-1.60583">
        <ele>55</ele>
        <time>2020-09-13T09:47:13.000Z</time>
      </trkpt>
      <trkpt lat="47.18187" lon="-1.60598">
        <ele>55</ele>
        <time>2020-09-13T09:47:16.000Z</time>
      </trkpt>
      <trkpt lat="47.18175" lon="-1.60604">
        <ele>55</ele>
        <time>2020-09-13T09:47:18.000Z</time>
      </trkpt>
      <trkpt lat="47.18161" lon="-1.60606">
        <ele>53</ele>
        <time>2020-09-13T09:47:20.000Z</time>
      </trkpt>
      <trkpt lat="47.18148" lon="-1.60607">
        <ele>54</ele>
        <time>2020-09-13T09:47:22.000Z</time>
      </trkpt>
      <trkpt lat="47.18135" lon="-1.60605">
        <ele>54</ele>
        <time>2020-09-13T09:47:24.000Z</time>
      </trkpt>
      <trkpt lat="47.18124" lon="-1.60601">
        <ele>54</ele>
        <time>2020-09-13T09:47:26.000Z</time>
      </trkpt>
      <trkpt lat="47.18111" lon="-1.60597">
        <ele>53</ele>
        <time>2020-09-13T09:47:28.000Z</time>
      </trkpt>
      <trkpt lat="47.18099" lon="-1.60591">
        <ele>52</ele>
        <time>2020-09-13T09:47:30.000Z</time>
      </trkpt>
      <trkpt lat="47.18086" lon="-1.60585">
        <ele>52</ele>
        <time>2020-09-13T09:47:32.000Z</time>
      </trkpt>
      <trkpt lat="47.18074" lon="-1.60578">
        <ele>51</ele>
        <time>2020-09-13T09:47:34.000Z</time>
      </trkpt>
      <trkpt lat="47.18062" lon="-1.60572">
        <ele>51</ele>
        <time>2020-09-13T09:47:36.000Z</time>
      </trkpt>
      <trkpt lat="47.18051" lon="-1.60565">
        <ele>52</ele>
        <time>2020-09-13T09:47:38.000Z</time>
      </trkpt>
      <trkpt lat="47.18039" lon="-1.60559">
        <ele>52</ele>
        <time>2020-09-13T09:47:40.000Z</time>
      </trkpt>
      <trkpt lat="47.18027" lon="-1.60553">
        <ele>52</ele>
        <time>2020-09-13T09:47:42.000Z</time>
      </trkpt>
      <trkpt lat="47.18015" lon="-1.60554">
        <ele>53</ele>
        <time>2020-09-13T09:47:44.000Z</time>
      </trkpt>
      <trkpt lat="47.18002" lon="-1.60557">
        <ele>53</ele>
        <time>2020-09-13T09:47:46.000Z</time>
      </trkpt>
      <trkpt lat="47.1799" lon="-1.60561">
        <ele>53</ele>
        <time>2020-09-13T09:47:48.000Z</time>
      </trkpt>
      <trkpt lat="47.17978" lon="-1.60566">
        <ele>54</ele>
        <time>2020-09-13T09:47:50.000Z</time>
      </trkpt>
      <trkpt lat="47.17967" lon="-1.60571">
        <ele>53</ele>
        <time>2020-09-13T09:47:52.000Z</time>
      </trkpt>
      <trkpt lat="47.17955" lon="-1.60574">
        <ele>53</ele>
        <time>2020-09-13T09:47:54.000Z</time>
      </trkpt>
      <trkpt lat="47.17943" lon="-1.60581">
        <ele>54</ele>
        <time>2020-09-13T09:47:56.000Z</time>
      </trkpt>
      <trkpt lat="47.17932" lon="-1.60587">
        <ele>55</ele>
        <time>2020-09-13T09:47:58.000Z</time>
      </trkpt>
      <trkpt lat="47.17924" lon="-1.60591">
        <ele>55</ele>
        <time>2020-09-13T09:48:00.000Z</time>
      </trkpt>
      <trkpt lat="47.17909" lon="-1.60594">
        <ele>55</ele>
        <time>2020-09-13T09:48:07.000Z</time>
      </trkpt>
      <trkpt lat="47.17904" lon="-1.60605">
        <ele>54</ele>
        <time>2020-09-13T09:48:09.000Z</time>
      </trkpt>
      <trkpt lat="47.179" lon="-1.60621">
        <ele>54</ele>
        <time>2020-09-13T09:48:11.000Z</time>
      </trkpt>
      <trkpt lat="47.17894" lon="-1.60639">
        <ele>53</ele>
        <time>2020-09-13T09:48:13.000Z</time>
      </trkpt>
      <trkpt lat="47.17887" lon="-1.60658">
        <ele>53</ele>
        <time>2020-09-13T09:48:15.000Z</time>
      </trkpt>
      <trkpt lat="47.17881" lon="-1.60677">
        <ele>52</ele>
        <time>2020-09-13T09:48:17.000Z</time>
      </trkpt>
      <trkpt lat="47.17875" lon="-1.60697">
        <ele>52</ele>
        <time>2020-09-13T09:48:19.000Z</time>
      </trkpt>
      <trkpt lat="47.1787" lon="-1.60716">
        <ele>51</ele>
        <time>2020-09-13T09:48:21.000Z</time>
      </trkpt>
      <trkpt lat="47.17865" lon="-1.60734">
        <ele>52</ele>
        <time>2020-09-13T09:48:23.000Z</time>
      </trkpt>
      <trkpt lat="47.17861" lon="-1.60754">
        <ele>52</ele>
        <time>2020-09-13T09:48:25.000Z</time>
      </trkpt>
      <trkpt lat="47.17858" lon="-1.60773">
        <ele>52</ele>
        <time>2020-09-13T09:48:27.000Z</time>
      </trkpt>
      <trkpt lat="47.17854" lon="-1.60791">
        <ele>53</ele>
        <time>2020-09-13T09:48:29.000Z</time>
      </trkpt>
      <trkpt lat="47.17849" lon="-1.60808">
        <ele>53</ele>
        <time>2020-09-13T09:48:31.000Z</time>
      </trkpt>
      <trkpt lat="47.17844" lon="-1.60826">
        <ele>54</ele>
        <time>2020-09-13T09:48:33.000Z</time>
      </trkpt>
      <trkpt lat="47.17839" lon="-1.60843">
        <ele>53</ele>
        <time>2020-09-13T09:48:35.000Z</time>
      </trkpt>
      <trkpt lat="47.17831" lon="-1.60859">
        <ele>53</ele>
        <time>2020-09-13T09:48:37.000Z</time>
      </trkpt>
      <trkpt lat="47.17823" lon="-1.60874">
        <ele>52</ele>
        <time>2020-09-13T09:48:39.000Z</time>
      </trkpt>
      <trkpt lat="47.17813" lon="-1.60888">
        <ele>52</ele>
        <time>2020-09-13T09:48:41.000Z</time>
      </trkpt>
      <trkpt lat="47.17802" lon="-1.60899">
        <ele>52</ele>
        <time>2020-09-13T09:48:43.000Z</time>
      </trkpt>
      <trkpt lat="47.1779" lon="-1.60908">
        <ele>52</ele>
        <time>2020-09-13T09:48:45.000Z</time>
      </trkpt>
      <trkpt lat="47.17778" lon="-1.60917">
        <ele>52</ele>
        <time>2020-09-13T09:48:47.000Z</time>
      </trkpt>
      <trkpt lat="47.17766" lon="-1.60925">
        <ele>53</ele>
        <time>2020-09-13T09:48:49.000Z</time>
      </trkpt>
      <trkpt lat="47.17756" lon="-1.60934">
        <ele>53</ele>
        <time>2020-09-13T09:48:51.000Z</time>
      </trkpt>
      <trkpt lat="47.17745" lon="-1.60943">
        <ele>53</ele>
        <time>2020-09-13T09:48:53.000Z</time>
      </trkpt>
      <trkpt lat="47.17734" lon="-1.60951">
        <ele>53</ele>
        <time>2020-09-13T09:48:55.000Z</time>
      </trkpt>
      <trkpt lat="47.17723" lon="-1.6096">
        <ele>53</ele>
        <time>2020-09-13T09:48:57.000Z</time>
      </trkpt>
      <trkpt lat="47.17712" lon="-1.60968">
        <ele>54</ele>
        <time>2020-09-13T09:48:59.000Z</time>
      </trkpt>
      <trkpt lat="47.17699" lon="-1.60974">
        <ele>53</ele>
        <time>2020-09-13T09:49:01.000Z</time>
      </trkpt>
      <trkpt lat="47.17686" lon="-1.60977">
        <ele>53</ele>
        <time>2020-09-13T09:49:03.000Z</time>
      </trkpt>
      <trkpt lat="47.17671" lon="-1.60974">
        <ele>52</ele>
        <time>2020-09-13T09:49:05.000Z</time>
      </trkpt>
      <trkpt lat="47.17657" lon="-1.60976">
        <ele>52</ele>
        <time>2020-09-13T09:49:07.000Z</time>
      </trkpt>
      <trkpt lat="47.17645" lon="-1.60985">
        <ele>51</ele>
        <time>2020-09-13T09:49:09.000Z</time>
      </trkpt>
      <trkpt lat="47.17633" lon="-1.60996">
        <ele>51</ele>
        <time>2020-09-13T09:49:11.000Z</time>
      </trkpt>
      <trkpt lat="47.1762" lon="-1.61006">
        <ele>51</ele>
        <time>2020-09-13T09:49:13.000Z</time>
      </trkpt>
      <trkpt lat="47.17609" lon="-1.61017">
        <ele>51</ele>
        <time>2020-09-13T09:49:15.000Z</time>
      </trkpt>
      <trkpt lat="47.17598" lon="-1.61027">
        <ele>51</ele>
        <time>2020-09-13T09:49:17.000Z</time>
      </trkpt>
      <trkpt lat="47.17586" lon="-1.61037">
        <ele>52</ele>
        <time>2020-09-13T09:49:19.000Z</time>
      </trkpt>
      <trkpt lat="47.17575" lon="-1.61048">
        <ele>52</ele>
        <time>2020-09-13T09:49:21.000Z</time>
      </trkpt>
      <trkpt lat="47.17563" lon="-1.61058">
        <ele>52</ele>
        <time>2020-09-13T09:49:23.000Z</time>
      </trkpt>
      <trkpt lat="47.17551" lon="-1.61068">
        <ele>52</ele>
        <time>2020-09-13T09:49:25.000Z</time>
      </trkpt>
      <trkpt lat="47.1754" lon="-1.61077">
        <ele>51</ele>
        <time>2020-09-13T09:49:27.000Z</time>
      </trkpt>
      <trkpt lat="47.17529" lon="-1.61087">
        <ele>51</ele>
        <time>2020-09-13T09:49:29.000Z</time>
      </trkpt>
      <trkpt lat="47.17518" lon="-1.61096">
        <ele>51</ele>
        <time>2020-09-13T09:49:31.000Z</time>
      </trkpt>
      <trkpt lat="47.17507" lon="-1.61104">
        <ele>51</ele>
        <time>2020-09-13T09:49:33.000Z</time>
      </trkpt>
      <trkpt lat="47.17495" lon="-1.61107">
        <ele>51</ele>
        <time>2020-09-13T09:49:35.000Z</time>
      </trkpt>
      <trkpt lat="47.17482" lon="-1.61107">
        <ele>51</ele>
        <time>2020-09-13T09:49:37.000Z</time>
      </trkpt>
      <trkpt lat="47.1747" lon="-1.61103">
        <ele>52</ele>
        <time>2020-09-13T09:49:39.000Z</time>
      </trkpt>
      <trkpt lat="47.17459" lon="-1.61093">
        <ele>53</ele>
        <time>2020-09-13T09:49:41.000Z</time>
      </trkpt>
      <trkpt lat="47.1745" lon="-1.61081">
        <ele>53</ele>
        <time>2020-09-13T09:49:43.000Z</time>
      </trkpt>
      <trkpt lat="47.17442" lon="-1.61066">
        <ele>54</ele>
        <time>2020-09-13T09:49:45.000Z</time>
      </trkpt>
      <trkpt lat="47.17435" lon="-1.61052">
        <ele>55</ele>
        <time>2020-09-13T09:49:47.000Z</time>
      </trkpt>
      <trkpt lat="47.1743" lon="-1.61037">
        <ele>55</ele>
        <time>2020-09-13T09:49:49.000Z</time>
      </trkpt>
      <trkpt lat="47.17427" lon="-1.61025">
        <ele>55</ele>
        <time>2020-09-13T09:49:51.000Z</time>
      </trkpt>
      <trkpt lat="47.17421" lon="-1.61038">
        <ele>56</ele>
        <time>2020-09-13T09:49:56.000Z</time>
      </trkpt>
      <trkpt lat="47.17425" lon="-1.61052">
        <ele>56</ele>
        <time>2020-09-13T09:49:58.000Z</time>
      </trkpt>
      <trkpt lat="47.17431" lon="-1.61065">
        <ele>57</ele>
        <time>2020-09-13T09:50:00.000Z</time>
      </trkpt>
      <trkpt lat="47.17437" lon="-1.61081">
        <ele>57</ele>
        <time>2020-09-13T09:50:02.000Z</time>
      </trkpt>
      <trkpt lat="47.17443" lon="-1.61096">
        <ele>58</ele>
        <time>2020-09-13T09:50:04.000Z</time>
      </trkpt>
      <trkpt lat="47.17449" lon="-1.6111">
        <ele>59</ele>
        <time>2020-09-13T09:50:06.000Z</time>
      </trkpt>
      <trkpt lat="47.17455" lon="-1.61125">
        <ele>59</ele>
        <time>2020-09-13T09:50:08.000Z</time>
      </trkpt>
      <trkpt lat="47.17461" lon="-1.61139">
        <ele>60</ele>
        <time>2020-09-13T09:50:10.000Z</time>
      </trkpt>
      <trkpt lat="47.17466" lon="-1.61152">
        <ele>61</ele>
        <time>2020-09-13T09:50:12.000Z</time>
      </trkpt>
      <trkpt lat="47.17471" lon="-1.61165">
        <ele>61</ele>
        <time>2020-09-13T09:50:14.000Z</time>
      </trkpt>
      <trkpt lat="47.17477" lon="-1.61178">
        <ele>61</ele>
        <time>2020-09-13T09:50:16.000Z</time>
      </trkpt>
      <trkpt lat="47.17483" lon="-1.61192">
        <ele>61</ele>
        <time>2020-09-13T09:50:18.000Z</time>
      </trkpt>
      <trkpt lat="47.17488" lon="-1.61205">
        <ele>61</ele>
        <time>2020-09-13T09:50:20.000Z</time>
      </trkpt>
      <trkpt lat="47.17493" lon="-1.61219">
        <ele>61</ele>
        <time>2020-09-13T09:50:22.000Z</time>
      </trkpt>
      <trkpt lat="47.17499" lon="-1.61232">
        <ele>61</ele>
        <time>2020-09-13T09:50:24.000Z</time>
      </trkpt>
      <trkpt lat="47.17505" lon="-1.61244">
        <ele>61</ele>
        <time>2020-09-13T09:50:26.000Z</time>
      </trkpt>
      <trkpt lat="47.17512" lon="-1.61257">
        <ele>62</ele>
        <time>2020-09-13T09:50:28.000Z</time>
      </trkpt>
      <trkpt lat="47.17519" lon="-1.61268">
        <ele>62</ele>
        <time>2020-09-13T09:50:30.000Z</time>
      </trkpt>
      <trkpt lat="47.17528" lon="-1.61279">
        <ele>61</ele>
        <time>2020-09-13T09:50:32.000Z</time>
      </trkpt>
      <trkpt lat="47.17537" lon="-1.61287">
        <ele>61</ele>
        <time>2020-09-13T09:50:34.000Z</time>
      </trkpt>
      <trkpt lat="47.17547" lon="-1.61293">
        <ele>61</ele>
        <time>2020-09-13T09:50:36.000Z</time>
      </trkpt>
      <trkpt lat="47.17557" lon="-1.61303">
        <ele>61</ele>
        <time>2020-09-13T09:50:38.000Z</time>
      </trkpt>
      <trkpt lat="47.17561" lon="-1.6132">
        <ele>61</ele>
        <time>2020-09-13T09:50:40.000Z</time>
      </trkpt>
      <trkpt lat="47.17558" lon="-1.61337">
        <ele>61</ele>
        <time>2020-09-13T09:50:42.000Z</time>
      </trkpt>
      <trkpt lat="47.17549" lon="-1.61351">
        <ele>61</ele>
        <time>2020-09-13T09:50:44.000Z</time>
      </trkpt>
      <trkpt lat="47.17538" lon="-1.61362">
        <ele>60</ele>
        <time>2020-09-13T09:50:46.000Z</time>
      </trkpt>
      <trkpt lat="47.17529" lon="-1.61377">
        <ele>60</ele>
        <time>2020-09-13T09:50:48.000Z</time>
      </trkpt>
      <trkpt lat="47.17525" lon="-1.61394">
        <ele>60</ele>
        <time>2020-09-13T09:50:50.000Z</time>
      </trkpt>
      <trkpt lat="47.17521" lon="-1.6141">
        <ele>60</ele>
        <time>2020-09-13T09:50:52.000Z</time>
      </trkpt>
      <trkpt lat="47.17518" lon="-1.61425">
        <ele>61</ele>
        <time>2020-09-13T09:50:54.000Z</time>
      </trkpt>
      <trkpt lat="47.17515" lon="-1.61439">
        <ele>62</ele>
        <time>2020-09-13T09:50:56.000Z</time>
      </trkpt>
      <trkpt lat="47.17511" lon="-1.61454">
        <ele>63</ele>
        <time>2020-09-13T09:50:58.000Z</time>
      </trkpt>
      <trkpt lat="47.17502" lon="-1.61463">
        <ele>63</ele>
        <time>2020-09-13T09:51:00.000Z</time>
      </trkpt>
      <trkpt lat="47.1749" lon="-1.61468">
        <ele>63</ele>
        <time>2020-09-13T09:51:02.000Z</time>
      </trkpt>
      <trkpt lat="47.17478" lon="-1.61474">
        <ele>64</ele>
        <time>2020-09-13T09:51:04.000Z</time>
      </trkpt>
      <trkpt lat="47.17468" lon="-1.61479">
        <ele>64</ele>
        <time>2020-09-13T09:51:06.000Z</time>
      </trkpt>
      <trkpt lat="47.17457" lon="-1.61484">
        <ele>65</ele>
        <time>2020-09-13T09:51:08.000Z</time>
      </trkpt>
      <trkpt lat="47.17447" lon="-1.61489">
        <ele>65</ele>
        <time>2020-09-13T09:51:10.000Z</time>
      </trkpt>
      <trkpt lat="47.17436" lon="-1.61494">
        <ele>65</ele>
        <time>2020-09-13T09:51:12.000Z</time>
      </trkpt>
      <trkpt lat="47.17426" lon="-1.61501">
        <ele>66</ele>
        <time>2020-09-13T09:51:14.000Z</time>
      </trkpt>
      <trkpt lat="47.17416" lon="-1.61508">
        <ele>66</ele>
        <time>2020-09-13T09:51:16.000Z</time>
      </trkpt>
      <trkpt lat="47.17407" lon="-1.61515">
        <ele>67</ele>
        <time>2020-09-13T09:51:18.000Z</time>
      </trkpt>
      <trkpt lat="47.17397" lon="-1.61521">
        <ele>67</ele>
        <time>2020-09-13T09:51:20.000Z</time>
      </trkpt>
      <trkpt lat="47.17389" lon="-1.61528">
        <ele>68</ele>
        <time>2020-09-13T09:51:22.000Z</time>
      </trkpt>
      <trkpt lat="47.17381" lon="-1.61536">
        <ele>68</ele>
        <time>2020-09-13T09:51:24.000Z</time>
      </trkpt>
      <trkpt lat="47.17372" lon="-1.61545">
        <ele>69</ele>
        <time>2020-09-13T09:51:26.000Z</time>
      </trkpt>
      <trkpt lat="47.17363" lon="-1.61554">
        <ele>69</ele>
        <time>2020-09-13T09:51:28.000Z</time>
      </trkpt>
      <trkpt lat="47.17355" lon="-1.61564">
        <ele>70</ele>
        <time>2020-09-13T09:51:30.000Z</time>
      </trkpt>
      <trkpt lat="47.17346" lon="-1.61573">
        <ele>70</ele>
        <time>2020-09-13T09:51:32.000Z</time>
      </trkpt>
      <trkpt lat="47.17338" lon="-1.61583">
        <ele>70</ele>
        <time>2020-09-13T09:51:34.000Z</time>
      </trkpt>
      <trkpt lat="47.1733" lon="-1.61593">
        <ele>70</ele>
        <time>2020-09-13T09:51:36.000Z</time>
      </trkpt>
      <trkpt lat="47.17322" lon="-1.61604">
        <ele>70</ele>
        <time>2020-09-13T09:51:38.000Z</time>
      </trkpt>
      <trkpt lat="47.17314" lon="-1.61615">
        <ele>70</ele>
        <time>2020-09-13T09:51:40.000Z</time>
      </trkpt>
      <trkpt lat="47.17306" lon="-1.61627">
        <ele>70</ele>
        <time>2020-09-13T09:51:42.000Z</time>
      </trkpt>
      <trkpt lat="47.17299" lon="-1.6164">
        <ele>70</ele>
        <time>2020-09-13T09:51:44.000Z</time>
      </trkpt>
      <trkpt lat="47.17291" lon="-1.61652">
        <ele>70</ele>
        <time>2020-09-13T09:51:46.000Z</time>
      </trkpt>
      <trkpt lat="47.17284" lon="-1.61666">
        <ele>70</ele>
        <time>2020-09-13T09:51:48.000Z</time>
      </trkpt>
      <trkpt lat="47.17277" lon="-1.6168">
        <ele>70</ele>
        <time>2020-09-13T09:51:50.000Z</time>
      </trkpt>
      <trkpt lat="47.1727" lon="-1.61695">
        <ele>70</ele>
        <time>2020-09-13T09:51:52.000Z</time>
      </trkpt>
      <trkpt lat="47.17262" lon="-1.6171">
        <ele>70</ele>
        <time>2020-09-13T09:51:54.000Z</time>
      </trkpt>
      <trkpt lat="47.17255" lon="-1.61724">
        <ele>70</ele>
        <time>2020-09-13T09:51:56.000Z</time>
      </trkpt>
      <trkpt lat="47.17248" lon="-1.6174">
        <ele>70</ele>
        <time>2020-09-13T09:51:58.000Z</time>
      </trkpt>
      <trkpt lat="47.17244" lon="-1.61757">
        <ele>69</ele>
        <time>2020-09-13T09:52:00.000Z</time>
      </trkpt>
      <trkpt lat="47.17241" lon="-1.61774">
        <ele>69</ele>
        <time>2020-09-13T09:52:02.000Z</time>
      </trkpt>
      <trkpt lat="47.17231" lon="-1.61788">
        <ele>69</ele>
        <time>2020-09-13T09:52:04.000Z</time>
      </trkpt>
      <trkpt lat="47.1722" lon="-1.61798">
        <ele>68</ele>
        <time>2020-09-13T09:52:06.000Z</time>
      </trkpt>
      <trkpt lat="47.17209" lon="-1.61808">
        <ele>68</ele>
        <time>2020-09-13T09:52:08.000Z</time>
      </trkpt>
      <trkpt lat="47.17197" lon="-1.61818">
        <ele>68</ele>
        <time>2020-09-13T09:52:10.000Z</time>
      </trkpt>
      <trkpt lat="47.17186" lon="-1.61828">
        <ele>69</ele>
        <time>2020-09-13T09:52:12.000Z</time>
      </trkpt>
      <trkpt lat="47.17176" lon="-1.61838">
        <ele>68</ele>
        <time>2020-09-13T09:52:14.000Z</time>
      </trkpt>
      <trkpt lat="47.17165" lon="-1.61849">
        <ele>68</ele>
        <time>2020-09-13T09:52:16.000Z</time>
      </trkpt>
      <trkpt lat="47.17154" lon="-1.61859">
        <ele>68</ele>
        <time>2020-09-13T09:52:18.000Z</time>
      </trkpt>
      <trkpt lat="47.17142" lon="-1.61869">
        <ele>68</ele>
        <time>2020-09-13T09:52:20.000Z</time>
      </trkpt>
      <trkpt lat="47.17131" lon="-1.6188">
        <ele>68</ele>
        <time>2020-09-13T09:52:22.000Z</time>
      </trkpt>
      <trkpt lat="47.1712" lon="-1.6189">
        <ele>68</ele>
        <time>2020-09-13T09:52:24.000Z</time>
      </trkpt>
      <trkpt lat="47.17109" lon="-1.61901">
        <ele>69</ele>
        <time>2020-09-13T09:52:26.000Z</time>
      </trkpt>
      <trkpt lat="47.17098" lon="-1.61912">
        <ele>69</ele>
        <time>2020-09-13T09:52:28.000Z</time>
      </trkpt>
      <trkpt lat="47.17086" lon="-1.61922">
        <ele>68</ele>
        <time>2020-09-13T09:52:30.000Z</time>
      </trkpt>
      <trkpt lat="47.17076" lon="-1.61933">
        <ele>69</ele>
        <time>2020-09-13T09:52:32.000Z</time>
      </trkpt>
      <trkpt lat="47.17067" lon="-1.61944">
        <ele>68</ele>
        <time>2020-09-13T09:52:34.000Z</time>
      </trkpt>
      <trkpt lat="47.17057" lon="-1.61956">
        <ele>69</ele>
        <time>2020-09-13T09:52:36.000Z</time>
      </trkpt>
      <trkpt lat="47.17048" lon="-1.61969">
        <ele>69</ele>
        <time>2020-09-13T09:52:38.000Z</time>
      </trkpt>
      <trkpt lat="47.17038" lon="-1.61982">
        <ele>69</ele>
        <time>2020-09-13T09:52:40.000Z</time>
      </trkpt>
      <trkpt lat="47.17029" lon="-1.61996">
        <ele>69</ele>
        <time>2020-09-13T09:52:42.000Z</time>
      </trkpt>
      <trkpt lat="47.17019" lon="-1.6201">
        <ele>69</ele>
        <time>2020-09-13T09:52:44.000Z</time>
      </trkpt>
      <trkpt lat="47.1701" lon="-1.62023">
        <ele>70</ele>
        <time>2020-09-13T09:52:46.000Z</time>
      </trkpt>
      <trkpt lat="47.17001" lon="-1.62038">
        <ele>69</ele>
        <time>2020-09-13T09:52:48.000Z</time>
      </trkpt>
      <trkpt lat="47.16993" lon="-1.62054">
        <ele>69</ele>
        <time>2020-09-13T09:52:50.000Z</time>
      </trkpt>
      <trkpt lat="47.16984" lon="-1.62069">
        <ele>69</ele>
        <time>2020-09-13T09:52:52.000Z</time>
      </trkpt>
      <trkpt lat="47.16975" lon="-1.62084">
        <ele>69</ele>
        <time>2020-09-13T09:52:54.000Z</time>
      </trkpt>
      <trkpt lat="47.16966" lon="-1.62099">
        <ele>69</ele>
        <time>2020-09-13T09:52:56.000Z</time>
      </trkpt>
      <trkpt lat="47.16958" lon="-1.62114">
        <ele>69</ele>
        <time>2020-09-13T09:52:58.000Z</time>
      </trkpt>
      <trkpt lat="47.1695" lon="-1.62129">
        <ele>69</ele>
        <time>2020-09-13T09:53:00.000Z</time>
      </trkpt>
      <trkpt lat="47.16942" lon="-1.62145">
        <ele>69</ele>
        <time>2020-09-13T09:53:02.000Z</time>
      </trkpt>
      <trkpt lat="47.16935" lon="-1.62161">
        <ele>69</ele>
        <time>2020-09-13T09:53:04.000Z</time>
      </trkpt>
      <trkpt lat="47.16928" lon="-1.62177">
        <ele>69</ele>
        <time>2020-09-13T09:53:06.000Z</time>
      </trkpt>
      <trkpt lat="47.1692" lon="-1.62193">
        <ele>69</ele>
        <time>2020-09-13T09:53:08.000Z</time>
      </trkpt>
      <trkpt lat="47.16911" lon="-1.62208">
        <ele>69</ele>
        <time>2020-09-13T09:53:10.000Z</time>
      </trkpt>
      <trkpt lat="47.16901" lon="-1.62221">
        <ele>69</ele>
        <time>2020-09-13T09:53:12.000Z</time>
      </trkpt>
      <trkpt lat="47.1689" lon="-1.62234">
        <ele>69</ele>
        <time>2020-09-13T09:53:14.000Z</time>
      </trkpt>
      <trkpt lat="47.1688" lon="-1.62246">
        <ele>70</ele>
        <time>2020-09-13T09:53:16.000Z</time>
      </trkpt>
      <trkpt lat="47.1687" lon="-1.62259">
        <ele>70</ele>
        <time>2020-09-13T09:53:18.000Z</time>
      </trkpt>
      <trkpt lat="47.1686" lon="-1.62272">
        <ele>70</ele>
        <time>2020-09-13T09:53:20.000Z</time>
      </trkpt>
      <trkpt lat="47.1685" lon="-1.62285">
        <ele>70</ele>
        <time>2020-09-13T09:53:22.000Z</time>
      </trkpt>
      <trkpt lat="47.1684" lon="-1.62298">
        <ele>70</ele>
        <time>2020-09-13T09:53:24.000Z</time>
      </trkpt>
      <trkpt lat="47.16829" lon="-1.6231">
        <ele>70</ele>
        <time>2020-09-13T09:53:26.000Z</time>
      </trkpt>
      <trkpt lat="47.16817" lon="-1.62319">
        <ele>70</ele>
        <time>2020-09-13T09:53:28.000Z</time>
      </trkpt>
      <trkpt lat="47.16806" lon="-1.62327">
        <ele>70</ele>
        <time>2020-09-13T09:53:30.000Z</time>
      </trkpt>
      <trkpt lat="47.16793" lon="-1.62335">
        <ele>70</ele>
        <time>2020-09-13T09:53:32.000Z</time>
      </trkpt>
      <trkpt lat="47.1678" lon="-1.62341">
        <ele>70</ele>
        <time>2020-09-13T09:53:34.000Z</time>
      </trkpt>
      <trkpt lat="47.16767" lon="-1.62348">
        <ele>69</ele>
        <time>2020-09-13T09:53:36.000Z</time>
      </trkpt>
      <trkpt lat="47.16755" lon="-1.62357">
        <ele>69</ele>
        <time>2020-09-13T09:53:38.000Z</time>
      </trkpt>
      <trkpt lat="47.16744" lon="-1.62369">
        <ele>69</ele>
        <time>2020-09-13T09:53:40.000Z</time>
      </trkpt>
      <trkpt lat="47.16735" lon="-1.62384">
        <ele>68</ele>
        <time>2020-09-13T09:53:42.000Z</time>
      </trkpt>
      <trkpt lat="47.1673" lon="-1.62402">
        <ele>68</ele>
        <time>2020-09-13T09:53:44.000Z</time>
      </trkpt>
      <trkpt lat="47.16727" lon="-1.62422">
        <ele>68</ele>
        <time>2020-09-13T09:53:46.000Z</time>
      </trkpt>
      <trkpt lat="47.16725" lon="-1.6244">
        <ele>68</ele>
        <time>2020-09-13T09:53:48.000Z</time>
      </trkpt>
      <trkpt lat="47.1672" lon="-1.62459">
        <ele>67</ele>
        <time>2020-09-13T09:53:50.000Z</time>
      </trkpt>
      <trkpt lat="47.16715" lon="-1.62477">
        <ele>67</ele>
        <time>2020-09-13T09:53:52.000Z</time>
      </trkpt>
      <trkpt lat="47.16715" lon="-1.62493">
        <ele>66</ele>
        <time>2020-09-13T09:53:54.000Z</time>
      </trkpt>
      <trkpt lat="47.16727" lon="-1.62501">
        <ele>66</ele>
        <time>2020-09-13T09:53:56.000Z</time>
      </trkpt>
      <trkpt lat="47.1674" lon="-1.62505">
        <ele>67</ele>
        <time>2020-09-13T09:53:58.000Z</time>
      </trkpt>
      <trkpt lat="47.16752" lon="-1.62511">
        <ele>69</ele>
        <time>2020-09-13T09:54:00.000Z</time>
      </trkpt>
      <trkpt lat="47.16764" lon="-1.62517">
        <ele>69</ele>
        <time>2020-09-13T09:54:02.000Z</time>
      </trkpt>
      <trkpt lat="47.16776" lon="-1.62523">
        <ele>70</ele>
        <time>2020-09-13T09:54:04.000Z</time>
      </trkpt>
      <trkpt lat="47.16787" lon="-1.6253">
        <ele>71</ele>
        <time>2020-09-13T09:54:06.000Z</time>
      </trkpt>
      <trkpt lat="47.16798" lon="-1.62538">
        <ele>71</ele>
        <time>2020-09-13T09:54:08.000Z</time>
      </trkpt>
      <trkpt lat="47.1681" lon="-1.62547">
        <ele>70</ele>
        <time>2020-09-13T09:54:10.000Z</time>
      </trkpt>
      <trkpt lat="47.16821" lon="-1.62557">
        <ele>70</ele>
        <time>2020-09-13T09:54:12.000Z</time>
      </trkpt>
      <trkpt lat="47.16829" lon="-1.6257">
        <ele>71</ele>
        <time>2020-09-13T09:54:14.000Z</time>
      </trkpt>
      <trkpt lat="47.16829" lon="-1.62588">
        <ele>71</ele>
        <time>2020-09-13T09:54:16.000Z</time>
      </trkpt>
      <trkpt lat="47.1682" lon="-1.62602">
        <ele>71</ele>
        <time>2020-09-13T09:54:18.000Z</time>
      </trkpt>
      <trkpt lat="47.16811" lon="-1.62616">
        <ele>71</ele>
        <time>2020-09-13T09:54:20.000Z</time>
      </trkpt>
      <trkpt lat="47.16804" lon="-1.62629">
        <ele>70</ele>
        <time>2020-09-13T09:54:22.000Z</time>
      </trkpt>
      <trkpt lat="47.16796" lon="-1.62643">
        <ele>71</ele>
        <time>2020-09-13T09:54:24.000Z</time>
      </trkpt>
      <trkpt lat="47.16789" lon="-1.62655">
        <ele>71</ele>
        <time>2020-09-13T09:54:26.000Z</time>
      </trkpt>
      <trkpt lat="47.16781" lon="-1.62661">
        <ele>70</ele>
        <time>2020-09-13T09:54:29.000Z</time>
      </trkpt>
    </trkseg>
  </trk>
</gpx>